Wetterdaten: Mittwoch, 08.03.2017
Datum Zeit Temp. A. Temp. A. max Feuchte A. Luftdruck Regen Wind Richtung Richtung Sonnenschein ET UV Solar Taupunkt Windchill Windböen
08.03.2017 00:00 0,7 °C 0,8 °C 93 % 1022,6 hPa 0,0 mm 3,8 km/h (1 Bft) W-SW 243 ° 0 min 0,000 mm 0,0 UV-I 0 W/m² -0,3 °C 0,7 °C 6,4 km/h (2 Bft)
08.03.2017 00:01 0,7 °C 0,8 °C 93 % 1022,7 hPa 0,0 mm 3,8 km/h (1 Bft) W 261 ° 0 min 0,000 mm 0,0 UV-I 0 W/m² -0,3 °C 0,7 °C 6,4 km/h (2 Bft)
08.03.2017 00:02 0,7 °C 0,7 °C 93 % 1022,7 hPa 0,0 mm 5,1 km/h (1 Bft) W-SW 253 ° 0 min 0,000 mm 0,0 UV-I 0 W/m² -0,3 °C -0,8 °C 6,4 km/h (2 Bft)
08.03.2017 00:03 0,7 °C 0,7 °C 93 % 1022,7 hPa 0,0 mm 4,0 km/h (1 Bft) W-SW 253 ° 0 min 0,000 mm 0,0 UV-I 0 W/m² -0,3 °C 0,7 °C 6,4 km/h (2 Bft)
08.03.2017 00:04 0,7 °C 0,7 °C 93 % 1022,7 hPa 0,0 mm 4,2 km/h (1 Bft) W 265 ° 0 min 0,000 mm 0,0 UV-I 0 W/m² -0,3 °C 0,7 °C 6,4 km/h (2 Bft)
08.03.2017 00:05 0,7 °C 0,7 °C 93 % 1022,7 hPa 0,0 mm 2,8 km/h (1 Bft) W 265 ° 0 min 0,000 mm 0,0 UV-I 0 W/m² -0,3 °C 0,7 °C 4,8 km/h (1 Bft)
08.03.2017 00:06 0,7 °C 0,7 °C 93 % 1022,7 hPa 0,0 mm 3,8 km/h (1 Bft) W-SW 253 ° 0 min 0,000 mm 0,0 UV-I 0 W/m² -0,3 °C 0,7 °C 6,4 km/h (2 Bft)
08.03.2017 00:07 0,7 °C 0,7 °C 93 % 1022,7 hPa 0,0 mm 4,3 km/h (1 Bft) SW 226 ° 0 min 0,000 mm 0,0 UV-I 0 W/m² -0,3 °C 0,7 °C 6,4 km/h (2 Bft)
08.03.2017 00:08 0,7 °C 0,7 °C 93 % 1022,7 hPa 0,0 mm 4,0 km/h (1 Bft) W 261 ° 0 min 0,000 mm 0,0 UV-I 0 W/m² -0,3 °C 0,7 °C 6,4 km/h (2 Bft)
08.03.2017 00:09 0,7 °C 0,7 °C 93 % 1022,6 hPa 0,0 mm 4,0 km/h (1 Bft) W 265 ° 0 min 0,000 mm 0,0 UV-I 0 W/m² -0,3 °C 0,7 °C 6,4 km/h (2 Bft)
08.03.2017 00:10 0,7 °C 0,7 °C 93 % 1022,7 hPa 0,0 mm 5,6 km/h (1 Bft) SW 227 ° 0 min 0,000 mm 0,0 UV-I 0 W/m² -0,3 °C -1,1 °C 8,0 km/h (2 Bft)
08.03.2017 00:11 0,7 °C 0,7 °C 93 % 1022,7 hPa 0,0 mm 5,5 km/h (1 Bft) SW 236 ° 0 min 0,000 mm 0,0 UV-I 0 W/m² -0,3 °C -1,0 °C 8,0 km/h (2 Bft)
08.03.2017 00:12 0,7 °C 0,7 °C 93 % 1022,7 hPa 0,0 mm 5,2 km/h (1 Bft) SW 235 ° 0 min 0,000 mm 0,0 UV-I 0 W/m² -0,3 °C -0,9 °C 6,4 km/h (2 Bft)
08.03.2017 00:13 0,7 °C 0,7 °C 93 % 1022,7 hPa 0,0 mm 6,8 km/h (2 Bft) W 260 ° 0 min 0,000 mm 0,0 UV-I 0 W/m² -0,3 °C -1,5 °C 14,5 km/h (3 Bft)
08.03.2017 00:14 0,7 °C 0,7 °C 93 % 1022,8 hPa 0,0 mm 6,8 km/h (2 Bft) W-SW 246 ° 0 min 0,000 mm 0,0 UV-I 0 W/m² -0,3 °C -1,5 °C 12,9 km/h (3 Bft)
08.03.2017 00:15 0,8 °C 0,8 °C 93 % 1022,8 hPa 0,0 mm 6,2 km/h (2 Bft) W-SW 250 ° 0 min 0,000 mm 0,0 UV-I 0 W/m² -0,2 °C -1,2 °C 11,3 km/h (2 Bft)
08.03.2017 00:16 0,8 °C 0,8 °C 93 % 1022,8 hPa 0,0 mm 5,3 km/h (1 Bft) W-SW 254 ° 0 min 0,000 mm 0,0 UV-I 0 W/m² -0,2 °C -0,8 °C 8,0 km/h (2 Bft)
08.03.2017 00:17 0,8 °C 0,8 °C 93 % 1022,8 hPa 0,0 mm 5,4 km/h (1 Bft) W-SW 244 ° 0 min 0,000 mm 0,0 UV-I 0 W/m² -0,2 °C -0,9 °C 9,7 km/h (2 Bft)
08.03.2017 00:18 0,8 °C 0,8 °C 93 % 1022,8 hPa 0,0 mm 7,2 km/h (2 Bft) W-SW 250 ° 0 min 0,000 mm 0,0 UV-I 0 W/m² -0,2 °C -1,5 °C 14,5 km/h (3 Bft)
08.03.2017 00:19 0,8 °C 0,8 °C 93 % 1022,8 hPa 0,0 mm 7,2 km/h (2 Bft) W-SW 244 ° 0 min 0,000 mm 0,0 UV-I 0 W/m² -0,2 °C -1,5 °C 9,7 km/h (2 Bft)
08.03.2017 00:20 0,8 °C 0,8 °C 93 % 1022,8 hPa 0,0 mm 10,1 km/h (2 Bft) SW 233 ° 0 min 0,000 mm 0,0 UV-I 0 W/m² -0,2 °C -2,4 °C 12,9 km/h (3 Bft)
08.03.2017 00:21 0,8 °C 0,8 °C 93 % 1022,8 hPa 0,0 mm 6,0 km/h (2 Bft) W-SW 256 ° 0 min 0,000 mm 0,0 UV-I 0 W/m² -0,2 °C -1,1 °C 8,0 km/h (2 Bft)
08.03.2017 00:22 0,8 °C 0,8 °C 93 % 1022,8 hPa 0,0 mm 10,7 km/h (2 Bft) W 266 ° 0 min 0,000 mm 0,0 UV-I 0 W/m² -0,2 °C -2,5 °C 14,5 km/h (3 Bft)
08.03.2017 00:23 0,8 °C 0,8 °C 93 % 1022,8 hPa 0,0 mm 4,8 km/h (1 Bft) W-SW 246 ° 0 min 0,000 mm 0,0 UV-I 0 W/m² -0,2 °C -0,6 °C 9,7 km/h (2 Bft)
08.03.2017 00:24 0,8 °C 0,8 °C 93 % 1022,8 hPa 0,0 mm 3,3 km/h (1 Bft) W-SW 257 ° 0 min 0,000 mm 0,0 UV-I 0 W/m² -0,2 °C 0,8 °C 4,8 km/h (1 Bft)
08.03.2017 00:25 0,8 °C 0,8 °C 93 % 1022,8 hPa 0,0 mm 8,4 km/h (2 Bft) W-SW 242 ° 0 min 0,000 mm 0,0 UV-I 0 W/m² -0,2 °C -1,9 °C 12,9 km/h (3 Bft)
08.03.2017 00:26 0,8 °C 0,8 °C 93 % 1022,8 hPa 0,0 mm 6,1 km/h (2 Bft) SW 233 ° 0 min 0,000 mm 0,0 UV-I 0 W/m² -0,2 °C -1,1 °C 9,7 km/h (2 Bft)
08.03.2017 00:27 0,8 °C 0,8 °C 93 % 1022,8 hPa 0,0 mm 5,9 km/h (2 Bft) W-SW 239 ° 0 min 0,000 mm 0,0 UV-I 0 W/m² -0,2 °C -1,1 °C 11,3 km/h (2 Bft)
08.03.2017 00:28 0,8 °C 0,8 °C 93 % 1022,8 hPa 0,0 mm 7,6 km/h (2 Bft) W-SW 249 ° 0 min 0,000 mm 0,0 UV-I 0 W/m² -0,2 °C -1,7 °C 12,9 km/h (3 Bft)
08.03.2017 00:29 0,9 °C 0,9 °C 93 % 1022,8 hPa 0,0 mm 7,7 km/h (2 Bft) SW 226 ° 0 min 0,000 mm 0,0 UV-I 0 W/m² -0,1 °C -1,6 °C 11,3 km/h (2 Bft)
08.03.2017 00:30 0,9 °C 0,9 °C 93 % 1022,9 hPa 0,0 mm 8,0 km/h (2 Bft) W-SW 248 ° 0 min 0,000 mm 0,0 UV-I 0 W/m² -0,1 °C -1,7 °C 11,3 km/h (2 Bft)
08.03.2017 00:31 0,9 °C 0,9 °C 92 % 1022,9 hPa 0,0 mm 10,0 km/h (2 Bft) W-SW 252 ° 0 min 0,000 mm 0,0 UV-I 0 W/m² -0,2 °C -2,2 °C 12,9 km/h (3 Bft)
08.03.2017 00:32 0,9 °C 0,9 °C 92 % 1022,9 hPa 0,0 mm 4,6 km/h (1 Bft) SW 220 ° 0 min 0,000 mm 0,0 UV-I 0 W/m² -0,2 °C -0,4 °C 8,0 km/h (2 Bft)
08.03.2017 00:33 0,9 °C 0,9 °C 93 % 1022,9 hPa 0,0 mm 6,1 km/h (2 Bft) W-SW 242 ° 0 min 0,000 mm 0,0 UV-I 0 W/m² -0,1 °C -1,0 °C 8,0 km/h (2 Bft)
08.03.2017 00:34 0,9 °C 0,9 °C 92 % 1022,9 hPa 0,0 mm 6,7 km/h (2 Bft) W-SW 247 ° 0 min 0,000 mm 0,0 UV-I 0 W/m² -0,2 °C -1,3 °C 8,0 km/h (2 Bft)
08.03.2017 00:35 0,9 °C 0,9 °C 92 % 1022,9 hPa 0,0 mm 5,7 km/h (1 Bft) SW 227 ° 0 min 0,000 mm 0,0 UV-I 0 W/m² -0,2 °C -0,9 °C 9,7 km/h (2 Bft)
08.03.2017 00:36 0,9 °C 0,9 °C 92 % 1022,9 hPa 0,0 mm 7,2 km/h (2 Bft) W-SW 251 ° 0 min 0,000 mm 0,0 UV-I 0 W/m² -0,2 °C -1,4 °C 12,9 km/h (3 Bft)
08.03.2017 00:37 0,9 °C 0,9 °C 92 % 1022,9 hPa 0,0 mm 7,4 km/h (2 Bft) W-SW 252 ° 0 min 0,000 mm 0,0 UV-I 0 W/m² -0,2 °C -1,5 °C 12,9 km/h (3 Bft)
08.03.2017 00:38 0,9 °C 0,9 °C 92 % 1022,9 hPa 0,0 mm 7,8 km/h (2 Bft) W-NW 286 ° 0 min 0,000 mm 0,0 UV-I 0 W/m² -0,2 °C -1,6 °C 12,9 km/h (3 Bft)
08.03.2017 00:39 0,9 °C 0,9 °C 92 % 1022,9 hPa 0,0 mm 6,7 km/h (2 Bft) W-SW 257 ° 0 min 0,000 mm 0,0 UV-I 0 W/m² -0,2 °C -1,3 °C 12,9 km/h (3 Bft)
08.03.2017 00:40 0,9 °C 0,9 °C 92 % 1022,9 hPa 0,0 mm 5,6 km/h (1 Bft) W-SW 250 ° 0 min 0,000 mm 0,0 UV-I 0 W/m² -0,2 °C -0,8 °C 8,0 km/h (2 Bft)
08.03.2017 00:41 0,9 °C 0,9 °C 92 % 1022,9 hPa 0,0 mm 5,9 km/h (2 Bft) W-SW 240 ° 0 min 0,000 mm 0,0 UV-I 0 W/m² -0,2 °C -1,0 °C 8,0 km/h (2 Bft)
08.03.2017 00:42 0,9 °C 0,9 °C 92 % 1022,9 hPa 0,0 mm 6,0 km/h (2 Bft) SW 215 ° 0 min 0,000 mm 0,0 UV-I 0 W/m² -0,2 °C -1,0 °C 9,7 km/h (2 Bft)
08.03.2017 00:43 0,9 °C 0,9 °C 92 % 1022,9 hPa 0,0 mm 4,5 km/h (1 Bft) W 262 ° 0 min 0,000 mm 0,0 UV-I 0 W/m² -0,2 °C 0,9 °C 6,4 km/h (2 Bft)
08.03.2017 00:44 0,9 °C 0,9 °C 92 % 1023,0 hPa 0,0 mm 2,7 km/h (1 Bft) W-SW 248 ° 0 min 0,000 mm 0,0 UV-I 0 W/m² -0,2 °C 0,9 °C 4,8 km/h (1 Bft)
08.03.2017 00:45 0,9 °C 0,9 °C 92 % 1022,9 hPa 0,0 mm 5,3 km/h (1 Bft) W-SW 257 ° 0 min 0,000 mm 0,0 UV-I 0 W/m² -0,2 °C -0,7 °C 9,7 km/h (2 Bft)
08.03.2017 00:46 0,9 °C 0,9 °C 92 % 1023,0 hPa 0,0 mm 4,5 km/h (1 Bft) SW 216 ° 0 min 0,000 mm 0,0 UV-I 0 W/m² -0,2 °C 0,9 °C 6,4 km/h (2 Bft)
08.03.2017 00:47 0,9 °C 0,9 °C 92 % 1023,0 hPa 0,0 mm 4,5 km/h (1 Bft) SW 236 ° 0 min 0,000 mm 0,0 UV-I 0 W/m² -0,2 °C 0,9 °C 6,4 km/h (2 Bft)
08.03.2017 00:48 0,9 °C 0,9 °C 92 % 1023,0 hPa 0,0 mm 7,5 km/h (2 Bft) SW 226 ° 0 min 0,000 mm 0,0 UV-I 0 W/m² -0,2 °C -1,5 °C 12,9 km/h (3 Bft)
08.03.2017 00:49 0,9 °C 0,9 °C 92 % 1023,1 hPa 0,0 mm 7,2 km/h (2 Bft) W 271 ° 0 min 0,000 mm 0,0 UV-I 0 W/m² -0,2 °C -1,4 °C 11,3 km/h (2 Bft)
08.03.2017 00:50 0,9 °C 0,9 °C 92 % 1023,1 hPa 0,0 mm 5,0 km/h (1 Bft) W-SW 245 ° 0 min 0,000 mm 0,0 UV-I 0 W/m² -0,2 °C -0,6 °C 9,7 km/h (2 Bft)
08.03.2017 00:51 0,9 °C 0,9 °C 92 % 1023,1 hPa 0,0 mm 8,6 km/h (2 Bft) W-SW 242 ° 0 min 0,000 mm 0,0 UV-I 0 W/m² -0,2 °C -1,9 °C 14,5 km/h (3 Bft)
08.03.2017 00:52 0,9 °C 0,9 °C 92 % 1023,1 hPa 0,0 mm 6,7 km/h (2 Bft) SW 221 ° 0 min 0,000 mm 0,0 UV-I 0 W/m² -0,2 °C -1,3 °C 9,7 km/h (2 Bft)
08.03.2017 00:53 0,9 °C 0,9 °C 92 % 1023,1 hPa 0,0 mm 6,3 km/h (2 Bft) W-SW 252 ° 0 min 0,000 mm 0,0 UV-I 0 W/m² -0,2 °C -1,1 °C 8,0 km/h (2 Bft)
08.03.2017 00:54 0,9 °C 0,9 °C 92 % 1023,1 hPa 0,0 mm 7,1 km/h (2 Bft) W-SW 244 ° 0 min 0,000 mm 0,0 UV-I 0 W/m² -0,2 °C -1,4 °C 9,7 km/h (2 Bft)
08.03.2017 00:55 0,9 °C 0,9 °C 92 % 1023,1 hPa 0,0 mm 5,0 km/h (1 Bft) W-SW 256 ° 0 min 0,000 mm 0,0 UV-I 0 W/m² -0,2 °C -0,6 °C 8,0 km/h (2 Bft)
08.03.2017 00:56 0,8 °C 0,9 °C 92 % 1023,1 hPa 0,0 mm 6,6 km/h (2 Bft) SW 235 ° 0 min 0,000 mm 0,0 UV-I 0 W/m² -0,3 °C -1,3 °C 12,9 km/h (3 Bft)
08.03.2017 00:57 0,9 °C 0,9 °C 92 % 1023,2 hPa 0,0 mm 11,2 km/h (2 Bft) SW 222 ° 0 min 0,000 mm 0,0 UV-I 0 W/m² -0,2 °C -2,5 °C 17,7 km/h (3 Bft)
08.03.2017 00:58 0,9 °C 0,9 °C 92 % 1023,1 hPa 0,0 mm 6,1 km/h (2 Bft) SW 220 ° 0 min 0,000 mm 0,0 UV-I 0 W/m² -0,2 °C -1,0 °C 9,7 km/h (2 Bft)
08.03.2017 00:59 0,9 °C 0,9 °C 92 % 1023,1 hPa 0,0 mm 8,4 km/h (2 Bft) SW 234 ° 0 min 0,000 mm 0,0 UV-I 0 W/m² -0,2 °C -1,8 °C 16,1 km/h (3 Bft)
08.03.2017 01:00 0,9 °C 0,9 °C 92 % 1023,1 hPa 0,0 mm 5,9 km/h (2 Bft) S-SW 211 ° 0 min 0,000 mm 0,0 UV-I 0 W/m² -0,2 °C -1,0 °C 8,0 km/h (2 Bft)
08.03.2017 01:01 0,9 °C 0,9 °C 92 % 1023,2 hPa 0,0 mm 6,4 km/h (2 Bft) W-SW 240 ° 0 min 0,000 mm 0,0 UV-I 0 W/m² -0,2 °C -1,1 °C 8,0 km/h (2 Bft)
08.03.2017 01:02 0,9 °C 0,9 °C 92 % 1023,2 hPa 0,0 mm 10,1 km/h (2 Bft) W-SW 247 ° 0 min 0,000 mm 0,0 UV-I 0 W/m² -0,2 °C -2,3 °C 17,7 km/h (3 Bft)
08.03.2017 01:03 0,9 °C 0,9 °C 92 % 1023,2 hPa 0,0 mm 10,7 km/h (2 Bft) W 265 ° 0 min 0,000 mm 0,0 UV-I 0 W/m² -0,2 °C -2,4 °C 16,1 km/h (3 Bft)
08.03.2017 01:04 0,9 °C 0,9 °C 92 % 1023,3 hPa 0,0 mm 8,8 km/h (2 Bft) W-SW 248 ° 0 min 0,000 mm 0,0 UV-I 0 W/m² -0,2 °C -1,9 °C 12,9 km/h (3 Bft)
08.03.2017 01:05 0,9 °C 0,9 °C 92 % 1023,3 hPa 0,0 mm 6,3 km/h (2 Bft) SW 229 ° 0 min 0,000 mm 0,0 UV-I 0 W/m² -0,2 °C -1,1 °C 9,7 km/h (2 Bft)
08.03.2017 01:06 0,9 °C 0,9 °C 92 % 1023,3 hPa 0,0 mm 5,7 km/h (1 Bft) W-SW 241 ° 0 min 0,000 mm 0,0 UV-I 0 W/m² -0,2 °C -0,9 °C 8,0 km/h (2 Bft)
08.03.2017 01:07 0,9 °C 0,9 °C 92 % 1023,3 hPa 0,0 mm 8,6 km/h (2 Bft) W 273 ° 0 min 0,000 mm 0,0 UV-I 0 W/m² -0,2 °C -1,9 °C 11,3 km/h (2 Bft)
08.03.2017 01:08 0,9 °C 0,9 °C 92 % 1023,3 hPa 0,0 mm 8,7 km/h (2 Bft) W 262 ° 0 min 0,000 mm 0,0 UV-I 0 W/m² -0,2 °C -1,9 °C 12,9 km/h (3 Bft)
08.03.2017 01:09 0,9 °C 0,9 °C 92 % 1023,3 hPa 0,0 mm 9,8 km/h (2 Bft) W 261 ° 0 min 0,000 mm 0,0 UV-I 0 W/m² -0,2 °C -2,2 °C 14,5 km/h (3 Bft)
08.03.2017 01:10 0,8 °C 0,9 °C 92 % 1023,3 hPa 0,0 mm 6,0 km/h (2 Bft) W 268 ° 0 min 0,000 mm 0,0 UV-I 0 W/m² -0,3 °C -1,1 °C 9,7 km/h (2 Bft)
08.03.2017 01:11 0,8 °C 0,8 °C 92 % 1023,3 hPa 0,0 mm 9,0 km/h (2 Bft) W-SW 256 ° 0 min 0,000 mm 0,0 UV-I 0 W/m² -0,3 °C -2,1 °C 14,5 km/h (3 Bft)
08.03.2017 01:12 0,8 °C 0,8 °C 92 % 1023,3 hPa 0,0 mm 9,0 km/h (2 Bft) W 271 ° 0 min 0,000 mm 0,0 UV-I 0 W/m² -0,3 °C -2,1 °C 12,9 km/h (3 Bft)
08.03.2017 01:13 0,8 °C 0,8 °C 92 % 1023,3 hPa 0,0 mm 4,5 km/h (1 Bft) W-SW 250 ° 0 min 0,000 mm 0,0 UV-I 0 W/m² -0,3 °C 0,8 °C 6,4 km/h (2 Bft)
08.03.2017 01:14 0,8 °C 0,8 °C 92 % 1023,3 hPa 0,0 mm 8,5 km/h (2 Bft) W 268 ° 0 min 0,000 mm 0,0 UV-I 0 W/m² -0,3 °C -1,9 °C 12,9 km/h (3 Bft)
08.03.2017 01:15 0,8 °C 0,8 °C 92 % 1023,3 hPa 0,0 mm 6,3 km/h (2 Bft) W-SW 254 ° 0 min 0,000 mm 0,0 UV-I 0 W/m² -0,3 °C -1,2 °C 8,0 km/h (2 Bft)
08.03.2017 01:16 0,8 °C 0,8 °C 92 % 1023,3 hPa 0,0 mm 7,2 km/h (2 Bft) W 263 ° 0 min 0,000 mm 0,0 UV-I 0 W/m² -0,3 °C -1,5 °C 11,3 km/h (2 Bft)
08.03.2017 01:17 0,8 °C 0,8 °C 92 % 1023,3 hPa 0,0 mm 7,9 km/h (2 Bft) W-SW 247 ° 0 min 0,000 mm 0,0 UV-I 0 W/m² -0,3 °C -1,8 °C 12,9 km/h (3 Bft)
08.03.2017 01:18 0,7 °C 0,8 °C 92 % 1023,3 hPa 0,0 mm 8,5 km/h (2 Bft) W-SW 254 ° 0 min 0,000 mm 0,0 UV-I 0 W/m² -0,4 °C -2,1 °C 14,5 km/h (3 Bft)
08.03.2017 01:19 0,7 °C 0,7 °C 92 % 1023,3 hPa 0,0 mm 3,9 km/h (1 Bft) W 259 ° 0 min 0,000 mm 0,0 UV-I 0 W/m² -0,4 °C 0,7 °C 4,8 km/h (1 Bft)
08.03.2017 01:20 0,7 °C 0,7 °C 92 % 1023,3 hPa 0,0 mm 4,8 km/h (1 Bft) W-SW 244 ° 0 min 0,000 mm 0,0 UV-I 0 W/m² -0,4 °C -0,7 °C 8,0 km/h (2 Bft)
08.03.2017 01:21 0,6 °C 0,7 °C 92 % 1023,4 hPa 0,0 mm 3,5 km/h (1 Bft) W-SW 238 ° 0 min 0,000 mm 0,0 UV-I 0 W/m² -0,5 °C 0,6 °C 4,8 km/h (1 Bft)
08.03.2017 01:22 0,6 °C 0,6 °C 92 % 1023,4 hPa 0,0 mm 6,4 km/h (2 Bft) SW 225 ° 0 min 0,000 mm 0,0 UV-I 0 W/m² -0,5 °C -1,5 °C 14,5 km/h (3 Bft)
08.03.2017 01:23 0,6 °C 0,6 °C 92 % 1023,3 hPa 0,0 mm 4,2 km/h (1 Bft) W 267 ° 0 min 0,000 mm 0,0 UV-I 0 W/m² -0,5 °C 0,6 °C 4,8 km/h (1 Bft)
08.03.2017 01:24 0,5 °C 0,6 °C 92 % 1023,4 hPa 0,0 mm 4,3 km/h (1 Bft) W-SW 249 ° 0 min 0,000 mm 0,0 UV-I 0 W/m² -0,6 °C 0,5 °C 6,4 km/h (2 Bft)
08.03.2017 01:25 0,6 °C 0,6 °C 92 % 1023,4 hPa 0,0 mm 5,4 km/h (1 Bft) W-SW 246 ° 0 min 0,000 mm 0,0 UV-I 0 W/m² -0,5 °C -1,1 °C 8,0 km/h (2 Bft)
08.03.2017 01:26 0,5 °C 0,6 °C 92 % 1023,4 hPa 0,0 mm 4,8 km/h (1 Bft) W-SW 239 ° 0 min 0,000 mm 0,0 UV-I 0 W/m² -0,6 °C -0,9 °C 8,0 km/h (2 Bft)
08.03.2017 01:27 0,5 °C 0,6 °C 92 % 1023,4 hPa 0,0 mm 3,3 km/h (1 Bft) W-SW 239 ° 0 min 0,000 mm 0,0 UV-I 0 W/m² -0,6 °C 0,5 °C 4,8 km/h (1 Bft)
08.03.2017 01:28 0,5 °C 0,5 °C 92 % 1023,4 hPa 0,0 mm 3,7 km/h (1 Bft) SW 230 ° 0 min 0,000 mm 0,0 UV-I 0 W/m² -0,6 °C 0,5 °C 6,4 km/h (2 Bft)
08.03.2017 01:29 0,5 °C 0,6 °C 92 % 1023,4 hPa 0,0 mm 3,5 km/h (1 Bft) SW 229 ° 0 min 0,000 mm 0,0 UV-I 0 W/m² -0,6 °C 0,5 °C 4,8 km/h (1 Bft)
08.03.2017 01:30 0,5 °C 0,5 °C 92 % 1023,4 hPa 0,0 mm 7,6 km/h (2 Bft) W-SW 238 ° 0 min 0,000 mm 0,0 UV-I 0 W/m² -0,6 °C -2,0 °C 12,9 km/h (3 Bft)
08.03.2017 01:31 0,5 °C 0,6 °C 92 % 1023,4 hPa 0,0 mm 4,6 km/h (1 Bft) SW 229 ° 0 min 0,000 mm 0,0 UV-I 0 W/m² -0,6 °C -0,8 °C 9,7 km/h (2 Bft)
08.03.2017 01:32 0,5 °C 0,6 °C 92 % 1023,5 hPa 0,0 mm 6,2 km/h (2 Bft) W-SW 248 ° 0 min 0,000 mm 0,0 UV-I 0 W/m² -0,6 °C -1,5 °C 9,7 km/h (2 Bft)
08.03.2017 01:33 0,6 °C 0,6 °C 92 % 1023,5 hPa 0,0 mm 5,7 km/h (1 Bft) W-SW 243 ° 0 min 0,000 mm 0,0 UV-I 0 W/m² -0,5 °C -1,2 °C 9,7 km/h (2 Bft)
08.03.2017 01:34 0,6 °C 0,6 °C 92 % 1023,4 hPa 0,0 mm 3,8 km/h (1 Bft) SW 220 ° 0 min 0,000 mm 0,0 UV-I 0 W/m² -0,5 °C 0,6 °C 6,4 km/h (2 Bft)
08.03.2017 01:35 0,6 °C 0,6 °C 92 % 1023,4 hPa 0,0 mm 4,1 km/h (1 Bft) SW 225 ° 0 min 0,000 mm 0,0 UV-I 0 W/m² -0,5 °C 0,6 °C 6,4 km/h (2 Bft)
08.03.2017 01:36 0,6 °C 0,6 °C 92 % 1023,5 hPa 0,0 mm 3,7 km/h (1 Bft) SW 228 ° 0 min 0,000 mm 0,0 UV-I 0 W/m² -0,5 °C 0,6 °C 6,4 km/h (2 Bft)
08.03.2017 01:37 0,6 °C 0,6 °C 92 % 1023,5 hPa 0,0 mm 4,3 km/h (1 Bft) SW 223 ° 0 min 0,000 mm 0,0 UV-I 0 W/m² -0,5 °C 0,6 °C 8,0 km/h (2 Bft)
08.03.2017 01:38 0,6 °C 0,6 °C 92 % 1023,5 hPa 0,0 mm 3,3 km/h (1 Bft) SW 222 ° 0 min 0,000 mm 0,0 UV-I 0 W/m² -0,5 °C 0,6 °C 4,8 km/h (1 Bft)
08.03.2017 01:39 0,6 °C 0,6 °C 92 % 1023,5 hPa 0,0 mm 3,3 km/h (1 Bft) SW 232 ° 0 min 0,000 mm 0,0 UV-I 0 W/m² -0,5 °C 0,6 °C 4,8 km/h (1 Bft)
08.03.2017 01:40 0,6 °C 0,7 °C 92 % 1023,5 hPa 0,0 mm 3,7 km/h (1 Bft) W 259 ° 0 min 0,000 mm 0,0 UV-I 0 W/m² -0,5 °C 0,6 °C 9,7 km/h (2 Bft)
08.03.2017 01:41 0,6 °C 0,7 °C 92 % 1023,5 hPa 0,0 mm 6,2 km/h (2 Bft) SW 232 ° 0 min 0,000 mm 0,0 UV-I 0 W/m² -0,5 °C -1,4 °C 8,0 km/h (2 Bft)
08.03.2017 01:42 0,7 °C 0,7 °C 92 % 1023,5 hPa 0,0 mm 1,8 km/h (1 Bft) SW 232 ° 0 min 0,000 mm 0,0 UV-I 0 W/m² -0,4 °C 0,7 °C 4,8 km/h (1 Bft)
08.03.2017 01:43 0,7 °C 0,7 °C 92 % 1023,6 hPa 0,0 mm 8,0 km/h (2 Bft) W-SW 245 ° 0 min 0,000 mm 0,0 UV-I 0 W/m² -0,4 °C -1,9 °C 12,9 km/h (3 Bft)
08.03.2017 01:44 0,7 °C 0,7 °C 92 % 1023,6 hPa 0,0 mm 5,4 km/h (1 Bft) W-SW 247 ° 0 min 0,000 mm 0,0 UV-I 0 W/m² -0,4 °C -1,0 °C 11,3 km/h (2 Bft)
08.03.2017 01:45 0,7 °C 0,7 °C 92 % 1023,6 hPa 0,0 mm 5,1 km/h (1 Bft) W-SW 244 ° 0 min 0,000 mm 0,0 UV-I 0 W/m² -0,4 °C -0,8 °C 6,4 km/h (2 Bft)
08.03.2017 01:46 0,7 °C 0,7 °C 92 % 1023,6 hPa 0,0 mm 6,1 km/h (2 Bft) W 269 ° 0 min 0,000 mm 0,0 UV-I 0 W/m² -0,4 °C -1,3 °C 9,7 km/h (2 Bft)
08.03.2017 01:47 0,7 °C 0,7 °C 92 % 1023,6 hPa 0,0 mm 4,0 km/h (1 Bft) SW 229 ° 0 min 0,000 mm 0,0 UV-I 0 W/m² -0,4 °C 0,7 °C 6,4 km/h (2 Bft)
08.03.2017 01:48 0,8 °C 0,8 °C 92 % 1023,6 hPa 0,0 mm 4,0 km/h (1 Bft) W-SW 245 ° 0 min 0,000 mm 0,0 UV-I 0 W/m² -0,3 °C 0,8 °C 6,4 km/h (2 Bft)
08.03.2017 01:49 0,7 °C 0,8 °C 92 % 1023,6 hPa 0,0 mm 2,1 km/h (1 Bft) W-SW 245 ° 0 min 0,000 mm 0,0 UV-I 0 W/m² -0,4 °C 0,7 °C 3,2 km/h (1 Bft)
08.03.2017 01:50 0,7 °C 0,8 °C 91 % 1023,6 hPa 0,0 mm 7,9 km/h (2 Bft) SW 234 ° 0 min 0,000 mm 0,0 UV-I 0 W/m² -0,6 °C -1,9 °C 14,5 km/h (3 Bft)
08.03.2017 01:51 0,7 °C 0,8 °C 91 % 1023,6 hPa 0,0 mm 6,1 km/h (2 Bft) S-SW 193 ° 0 min 0,000 mm 0,0 UV-I 0 W/m² -0,6 °C -1,3 °C 12,9 km/h (3 Bft)
08.03.2017 01:52 0,7 °C 0,7 °C 92 % 1023,6 hPa 0,0 mm 5,0 km/h (1 Bft) SW 215 ° 0 min 0,000 mm 0,0 UV-I 0 W/m² -0,4 °C -0,8 °C 8,0 km/h (2 Bft)
08.03.2017 01:53 0,8 °C 0,8 °C 92 % 1023,6 hPa 0,0 mm 3,3 km/h (1 Bft) SW 233 ° 0 min 0,000 mm 0,0 UV-I 0 W/m² -0,3 °C 0,8 °C 4,8 km/h (1 Bft)
08.03.2017 01:54 0,7 °C 0,8 °C 91 % 1023,6 hPa 0,0 mm 1,3 km/h (1 Bft) SW 233 ° 0 min 0,000 mm 0,0 UV-I 0 W/m² -0,6 °C 0,7 °C 3,2 km/h (1 Bft)
08.03.2017 01:55 0,8 °C 0,8 °C 91 % 1023,6 hPa 0,0 mm 5,0 km/h (1 Bft) W-SW 240 ° 0 min 0,000 mm 0,0 UV-I 0 W/m² -0,5 °C -0,7 °C 9,7 km/h (2 Bft)
08.03.2017 01:56 0,8 °C 0,8 °C 91 % 1023,5 hPa 0,0 mm 3,4 km/h (1 Bft) SW 224 ° 0 min 0,000 mm 0,0 UV-I 0 W/m² -0,5 °C 0,8 °C 6,4 km/h (2 Bft)
08.03.2017 01:57 0,8 °C 0,8 °C 91 % 1023,6 hPa 0,0 mm 6,2 km/h (2 Bft) SW 217 ° 0 min 0,000 mm 0,0 UV-I 0 W/m² -0,5 °C -1,2 °C 11,3 km/h (2 Bft)
08.03.2017 01:58 0,8 °C 0,8 °C 91 % 1023,5 hPa 0,0 mm 3,5 km/h (1 Bft) SW 218 ° 0 min 0,000 mm 0,0 UV-I 0 W/m² -0,5 °C 0,8 °C 6,4 km/h (2 Bft)
08.03.2017 01:59 0,8 °C 0,8 °C 91 % 1023,5 hPa 0,0 mm 3,1 km/h (1 Bft) SW 235 ° 0 min 0,000 mm 0,0 UV-I 0 W/m² -0,5 °C 0,8 °C 4,8 km/h (1 Bft)
08.03.2017 02:00 0,8 °C 0,8 °C 91 % 1023,6 hPa 0,0 mm 3,6 km/h (1 Bft) W-SW 252 ° 0 min 0,000 mm 0,0 UV-I 0 W/m² -0,5 °C 0,8 °C 4,8 km/h (1 Bft)
08.03.2017 02:01 0,8 °C 0,8 °C 91 % 1023,6 hPa 0,0 mm 4,1 km/h (1 Bft) W-SW 239 ° 0 min 0,000 mm 0,0 UV-I 0 W/m² -0,5 °C 0,8 °C 6,4 km/h (2 Bft)
08.03.2017 02:02 0,8 °C 0,8 °C 91 % 1023,7 hPa 0,0 mm 5,2 km/h (1 Bft) W-SW 242 ° 0 min 0,000 mm 0,0 UV-I 0 W/m² -0,5 °C -0,8 °C 6,4 km/h (2 Bft)
08.03.2017 02:03 0,8 °C 0,8 °C 91 % 1023,7 hPa 0,0 mm 7,5 km/h (2 Bft) W-SW 254 ° 0 min 0,000 mm 0,0 UV-I 0 W/m² -0,5 °C -1,6 °C 14,5 km/h (3 Bft)
08.03.2017 02:04 0,8 °C 0,8 °C 91 % 1023,7 hPa 0,0 mm 7,9 km/h (2 Bft) W-SW 240 ° 0 min 0,000 mm 0,0 UV-I 0 W/m² -0,5 °C -1,8 °C 12,9 km/h (3 Bft)
08.03.2017 02:05 0,8 °C 0,8 °C 91 % 1023,8 hPa 0,0 mm 7,6 km/h (2 Bft) W-SW 244 ° 0 min 0,000 mm 0,0 UV-I 0 W/m² -0,5 °C -1,7 °C 12,9 km/h (3 Bft)
08.03.2017 02:06 0,8 °C 0,8 °C 91 % 1023,8 hPa 0,0 mm 5,0 km/h (1 Bft) W-SW 255 ° 0 min 0,000 mm 0,0 UV-I 0 W/m² -0,5 °C -0,7 °C 8,0 km/h (2 Bft)
08.03.2017 02:07 0,8 °C 0,8 °C 91 % 1023,7 hPa 0,0 mm 5,2 km/h (1 Bft) S-SW 207 ° 0 min 0,000 mm 0,0 UV-I 0 W/m² -0,5 °C -0,8 °C 9,7 km/h (2 Bft)
08.03.2017 02:08 0,8 °C 0,8 °C 91 % 1023,7 hPa 0,0 mm 4,0 km/h (1 Bft) SW 221 ° 0 min 0,000 mm 0,0 UV-I 0 W/m² -0,5 °C 0,8 °C 6,4 km/h (2 Bft)
08.03.2017 02:09 0,8 °C 0,8 °C 91 % 1023,7 hPa 0,0 mm 3,7 km/h (1 Bft) W-SW 244 ° 0 min 0,000 mm 0,0 UV-I 0 W/m² -0,5 °C 0,8 °C 4,8 km/h (1 Bft)
08.03.2017 02:10 0,8 °C 0,8 °C 91 % 1023,7 hPa 0,0 mm 3,9 km/h (1 Bft) W-SW 254 ° 0 min 0,000 mm 0,0 UV-I 0 W/m² -0,5 °C 0,8 °C 4,8 km/h (1 Bft)
08.03.2017 02:11 0,8 °C 0,8 °C 91 % 1023,7 hPa 0,0 mm 5,7 km/h (1 Bft) W-SW 254 ° 0 min 0,000 mm 0,0 UV-I 0 W/m² -0,5 °C -1,0 °C 11,3 km/h (2 Bft)
08.03.2017 02:12 0,8 °C 0,8 °C 91 % 1023,8 hPa 0,0 mm 6,4 km/h (2 Bft) SW 221 ° 0 min 0,000 mm 0,0 UV-I 0 W/m² -0,5 °C -1,3 °C 11,3 km/h (2 Bft)
08.03.2017 02:13 0,8 °C 0,8 °C 91 % 1023,8 hPa 0,0 mm 5,6 km/h (1 Bft) W-SW 254 ° 0 min 0,000 mm 0,0 UV-I 0 W/m² -0,5 °C -0,9 °C 12,9 km/h (3 Bft)
08.03.2017 02:14 0,8 °C 0,8 °C 91 % 1023,8 hPa 0,0 mm 6,2 km/h (2 Bft) SW 222 ° 0 min 0,000 mm 0,0 UV-I 0 W/m² -0,5 °C -1,2 °C 11,3 km/h (2 Bft)
08.03.2017 02:15 0,8 °C 0,8 °C 91 % 1023,7 hPa 0,0 mm 6,4 km/h (2 Bft) SW 229 ° 0 min 0,000 mm 0,0 UV-I 0 W/m² -0,5 °C -1,3 °C 11,3 km/h (2 Bft)
08.03.2017 02:16 0,8 °C 0,8 °C 91 % 1023,8 hPa 0,0 mm 6,8 km/h (2 Bft) W-SW 255 ° 0 min 0,000 mm 0,0 UV-I 0 W/m² -0,5 °C -1,4 °C 11,3 km/h (2 Bft)
08.03.2017 02:17 0,8 °C 0,8 °C 91 % 1023,8 hPa 0,0 mm 5,0 km/h (1 Bft) W 268 ° 0 min 0,000 mm 0,0 UV-I 0 W/m² -0,5 °C -0,7 °C 9,7 km/h (2 Bft)
08.03.2017 02:18 0,8 °C 0,8 °C 91 % 1023,7 hPa 0,0 mm 7,2 km/h (2 Bft) W-SW 251 ° 0 min 0,000 mm 0,0 UV-I 0 W/m² -0,5 °C -1,5 °C 9,7 km/h (2 Bft)
08.03.2017 02:19 0,8 °C 0,8 °C 91 % 1023,7 hPa 0,0 mm 5,0 km/h (1 Bft) W-SW 249 ° 0 min 0,000 mm 0,0 UV-I 0 W/m² -0,5 °C -0,7 °C 9,7 km/h (2 Bft)
08.03.2017 02:20 0,8 °C 0,8 °C 91 % 1023,7 hPa 0,0 mm 5,3 km/h (1 Bft) W-SW 257 ° 0 min 0,000 mm 0,0 UV-I 0 W/m² -0,5 °C -0,8 °C 6,4 km/h (2 Bft)
08.03.2017 02:21 0,8 °C 0,8 °C 90 % 1023,7 hPa 0,0 mm 5,4 km/h (1 Bft) W 260 ° 0 min 0,000 mm 0,0 UV-I 0 W/m² -0,6 °C -0,9 °C 8,0 km/h (2 Bft)
08.03.2017 02:22 0,8 °C 0,9 °C 90 % 1023,7 hPa 0,0 mm 5,9 km/h (2 Bft) W-SW 244 ° 0 min 0,000 mm 0,0 UV-I 0 W/m² -0,6 °C -1,1 °C 9,7 km/h (2 Bft)
08.03.2017 02:23 0,8 °C 0,8 °C 90 % 1023,7 hPa 0,0 mm 5,2 km/h (1 Bft) S-SW 213 ° 0 min 0,000 mm 0,0 UV-I 0 W/m² -0,6 °C -0,8 °C 11,3 km/h (2 Bft)
08.03.2017 02:24 0,8 °C 0,8 °C 90 % 1023,7 hPa 0,0 mm 6,2 km/h (2 Bft) SW 225 ° 0 min 0,000 mm 0,0 UV-I 0 W/m² -0,6 °C -1,2 °C 8,0 km/h (2 Bft)
08.03.2017 02:25 0,8 °C 0,8 °C 90 % 1023,7 hPa 0,0 mm 6,1 km/h (2 Bft) SW 227 ° 0 min 0,000 mm 0,0 UV-I 0 W/m² -0,6 °C -1,1 °C 11,3 km/h (2 Bft)
08.03.2017 02:26 0,8 °C 0,8 °C 90 % 1023,7 hPa 0,0 mm 6,0 km/h (2 Bft) W-SW 258 ° 0 min 0,000 mm 0,0 UV-I 0 W/m² -0,6 °C -1,1 °C 9,7 km/h (2 Bft)
08.03.2017 02:27 0,8 °C 0,8 °C 90 % 1023,7 hPa 0,0 mm 8,5 km/h (2 Bft) W-SW 248 ° 0 min 0,000 mm 0,0 UV-I 0 W/m² -0,6 °C -1,9 °C 16,1 km/h (3 Bft)
08.03.2017 02:28 0,8 °C 0,8 °C 90 % 1023,8 hPa 0,0 mm 7,0 km/h (2 Bft) SW 233 ° 0 min 0,000 mm 0,0 UV-I 0 W/m² -0,6 °C -1,5 °C 14,5 km/h (3 Bft)
08.03.2017 02:29 0,9 °C 0,9 °C 90 % 1023,8 hPa 0,0 mm 6,2 km/h (2 Bft) W-SW 247 ° 0 min 0,000 mm 0,0 UV-I 0 W/m² -0,6 °C -1,1 °C 11,3 km/h (2 Bft)
08.03.2017 02:30 0,9 °C 0,9 °C 91 % 1023,8 hPa 0,0 mm 6,4 km/h (2 Bft) W 261 ° 0 min 0,000 mm 0,0 UV-I 0 W/m² -0,4 °C -1,1 °C 9,7 km/h (2 Bft)
08.03.2017 02:31 0,9 °C 0,9 °C 90 % 1023,7 hPa 0,0 mm 7,3 km/h (2 Bft) W-SW 241 ° 0 min 0,000 mm 0,0 UV-I 0 W/m² -0,6 °C -1,5 °C 9,7 km/h (2 Bft)
08.03.2017 02:32 0,9 °C 0,9 °C 91 % 1023,7 hPa 0,0 mm 5,9 km/h (2 Bft) W-SW 244 ° 0 min 0,000 mm 0,0 UV-I 0 W/m² -0,4 °C -1,0 °C 8,0 km/h (2 Bft)
08.03.2017 02:33 0,9 °C 0,9 °C 90 % 1023,7 hPa 0,0 mm 5,4 km/h (1 Bft) W-SW 248 ° 0 min 0,000 mm 0,0 UV-I 0 W/m² -0,6 °C -0,7 °C 8,0 km/h (2 Bft)
08.03.2017 02:34 0,9 °C 0,9 °C 90 % 1023,7 hPa 0,0 mm 4,4 km/h (1 Bft) W-SW 238 ° 0 min 0,000 mm 0,0 UV-I 0 W/m² -0,6 °C 0,9 °C 8,0 km/h (2 Bft)
08.03.2017 02:35 0,9 °C 0,9 °C 90 % 1023,7 hPa 0,0 mm 4,3 km/h (1 Bft) SW 227 ° 0 min 0,000 mm 0,0 UV-I 0 W/m² -0,6 °C 0,9 °C 6,4 km/h (2 Bft)
08.03.2017 02:36 0,9 °C 0,9 °C 90 % 1023,7 hPa 0,0 mm 4,8 km/h (1 Bft) SW 230 ° 0 min 0,000 mm 0,0 UV-I 0 W/m² -0,6 °C -0,5 °C 8,0 km/h (2 Bft)
08.03.2017 02:37 0,9 °C 0,9 °C 90 % 1023,7 hPa 0,0 mm 6,7 km/h (2 Bft) W-SW 246 ° 0 min 0,000 mm 0,0 UV-I 0 W/m² -0,6 °C -1,3 °C 9,7 km/h (2 Bft)
08.03.2017 02:38 0,9 °C 0,9 °C 90 % 1023,7 hPa 0,0 mm 6,1 km/h (2 Bft) SW 233 ° 0 min 0,000 mm 0,0 UV-I 0 W/m² -0,6 °C -1,0 °C 11,3 km/h (2 Bft)
08.03.2017 02:39 0,9 °C 0,9 °C 90 % 1023,7 hPa 0,0 mm 5,9 km/h (2 Bft) W-SW 251 ° 0 min 0,000 mm 0,0 UV-I 0 W/m² -0,6 °C -1,0 °C 11,3 km/h (2 Bft)
08.03.2017 02:40 0,9 °C 0,9 °C 90 % 1023,7 hPa 0,0 mm 5,0 km/h (1 Bft) SW 232 ° 0 min 0,000 mm 0,0 UV-I 0 W/m² -0,6 °C -0,6 °C 8,0 km/h (2 Bft)
08.03.2017 02:41 0,8 °C 0,9 °C 90 % 1023,7 hPa 0,0 mm 2,7 km/h (1 Bft) SW 232 ° 0 min 0,000 mm 0,0 UV-I 0 W/m² -0,6 °C 0,8 °C 4,8 km/h (1 Bft)
08.03.2017 02:42 0,8 °C 0,8 °C 90 % 1023,7 hPa 0,0 mm 3,7 km/h (1 Bft) W-SW 252 ° 0 min 0,000 mm 0,0 UV-I 0 W/m² -0,6 °C 0,8 °C 8,0 km/h (2 Bft)
08.03.2017 02:43 0,8 °C 0,8 °C 90 % 1023,7 hPa 0,0 mm 5,4 km/h (1 Bft) W-SW 254 ° 0 min 0,000 mm 0,0 UV-I 0 W/m² -0,6 °C -0,9 °C 9,7 km/h (2 Bft)
08.03.2017 02:44 0,8 °C 0,8 °C 90 % 1023,7 hPa 0,0 mm 3,6 km/h (1 Bft) W-SW 248 ° 0 min 0,000 mm 0,0 UV-I 0 W/m² -0,6 °C 0,8 °C 6,4 km/h (2 Bft)
08.03.2017 02:45 0,8 °C 0,8 °C 90 % 1023,7 hPa 0,0 mm 4,5 km/h (1 Bft) SW 227 ° 0 min 0,000 mm 0,0 UV-I 0 W/m² -0,6 °C 0,8 °C 4,8 km/h (1 Bft)
08.03.2017 02:46 0,8 °C 0,8 °C 90 % 1023,6 hPa 0,0 mm 3,9 km/h (1 Bft) SW 234 ° 0 min 0,000 mm 0,0 UV-I 0 W/m² -0,6 °C 0,8 °C 6,4 km/h (2 Bft)
08.03.2017 02:47 0,8 °C 0,8 °C 90 % 1023,6 hPa 0,0 mm 3,6 km/h (1 Bft) SW 224 ° 0 min 0,000 mm 0,0 UV-I 0 W/m² -0,6 °C 0,8 °C 4,8 km/h (1 Bft)
08.03.2017 02:48 0,8 °C 0,8 °C 90 % 1023,6 hPa 0,0 mm 5,2 km/h (1 Bft) S-SW 195 ° 0 min 0,000 mm 0,0 UV-I 0 W/m² -0,6 °C -0,8 °C 6,4 km/h (2 Bft)
08.03.2017 02:49 0,7 °C 0,8 °C 90 % 1023,6 hPa 0,0 mm 7,2 km/h (2 Bft) SW 216 ° 0 min 0,000 mm 0,0 UV-I 0 W/m² -0,7 °C -1,7 °C 11,3 km/h (2 Bft)
08.03.2017 02:50 0,7 °C 0,8 °C 90 % 1023,6 hPa 0,0 mm 3,6 km/h (1 Bft) S 187 ° 0 min 0,000 mm 0,0 UV-I 0 W/m² -0,7 °C 0,7 °C 6,4 km/h (2 Bft)
08.03.2017 02:51 0,8 °C 0,8 °C 90 % 1023,7 hPa 0,0 mm 5,0 km/h (1 Bft) S-SW 198 ° 0 min 0,000 mm 0,0 UV-I 0 W/m² -0,6 °C -0,7 °C 6,4 km/h (2 Bft)
08.03.2017 02:52 0,8 °C 0,8 °C 90 % 1023,6 hPa 0,0 mm 5,2 km/h (1 Bft) S-SW 200 ° 0 min 0,000 mm 0,0 UV-I 0 W/m² -0,6 °C -0,8 °C 8,0 km/h (2 Bft)
08.03.2017 02:53 0,8 °C 0,8 °C 90 % 1023,6 hPa 0,0 mm 6,0 km/h (2 Bft) S-SW 213 ° 0 min 0,000 mm 0,0 UV-I 0 W/m² -0,6 °C -1,1 °C 8,0 km/h (2 Bft)
08.03.2017 02:54 0,8 °C 0,8 °C 90 % 1023,6 hPa 0,0 mm 3,8 km/h (1 Bft) S-SW 213 ° 0 min 0,000 mm 0,0 UV-I 0 W/m² -0,6 °C 0,8 °C 4,8 km/h (1 Bft)
08.03.2017 02:55 0,8 °C 0,8 °C 90 % 1023,6 hPa 0,0 mm 4,7 km/h (1 Bft) S-SW 198 ° 0 min 0,000 mm 0,0 UV-I 0 W/m² -0,6 °C -0,5 °C 6,4 km/h (2 Bft)
08.03.2017 02:56 0,8 °C 0,8 °C 90 % 1023,6 hPa 0,0 mm 5,0 km/h (1 Bft) S-SW 210 ° 0 min 0,000 mm 0,0 UV-I 0 W/m² -0,6 °C -0,7 °C 6,4 km/h (2 Bft)
08.03.2017 02:57 0,8 °C 0,8 °C 90 % 1023,7 hPa 0,0 mm 5,8 km/h (2 Bft) W-SW 245 ° 0 min 0,000 mm 0,0 UV-I 0 W/m² -0,6 °C -1,0 °C 8,0 km/h (2 Bft)
08.03.2017 02:58 0,8 °C 0,8 °C 90 % 1023,7 hPa 0,0 mm 5,4 km/h (1 Bft) S-SW 201 ° 0 min 0,000 mm 0,0 UV-I 0 W/m² -0,6 °C -0,9 °C 8,0 km/h (2 Bft)
08.03.2017 02:59 0,8 °C 0,8 °C 90 % 1023,7 hPa 0,0 mm 4,3 km/h (1 Bft) SW 218 ° 0 min 0,000 mm 0,0 UV-I 0 W/m² -0,6 °C 0,8 °C 6,4 km/h (2 Bft)
08.03.2017 03:00 0,8 °C 0,8 °C 90 % 1023,7 hPa 0,0 mm 4,6 km/h (1 Bft) S-SW 199 ° 0 min 0,000 mm 0,0 UV-I 0 W/m² -0,6 °C -0,5 °C 6,4 km/h (2 Bft)
08.03.2017 03:01 0,8 °C 0,8 °C 90 % 1023,8 hPa 0,0 mm 4,9 km/h (1 Bft) S-SW 196 ° 0 min 0,000 mm 0,0 UV-I 0 W/m² -0,6 °C -0,6 °C 8,0 km/h (2 Bft)
08.03.2017 03:02 0,7 °C 0,8 °C 90 % 1023,7 hPa 0,0 mm 4,3 km/h (1 Bft) S-SW 196 ° 0 min 0,000 mm 0,0 UV-I 0 W/m² -0,7 °C 0,7 °C 6,4 km/h (2 Bft)
08.03.2017 03:03 0,7 °C 0,8 °C 90 % 1023,8 hPa 0,0 mm 5,3 km/h (1 Bft) S-SW 207 ° 0 min 0,000 mm 0,0 UV-I 0 W/m² -0,7 °C -0,9 °C 8,0 km/h (2 Bft)
08.03.2017 03:04 0,7 °C 0,7 °C 90 % 1023,8 hPa 0,0 mm 4,1 km/h (1 Bft) S-SW 213 ° 0 min 0,000 mm 0,0 UV-I 0 W/m² -0,7 °C 0,7 °C 6,4 km/h (2 Bft)
08.03.2017 03:05 0,7 °C 0,7 °C 90 % 1023,8 hPa 0,0 mm 3,5 km/h (1 Bft) S-SW 213 ° 0 min 0,000 mm 0,0 UV-I 0 W/m² -0,7 °C 0,7 °C 4,8 km/h (1 Bft)
08.03.2017 03:06 0,7 °C 0,7 °C 90 % 1023,8 hPa 0,0 mm 4,0 km/h (1 Bft) SW 221 ° 0 min 0,000 mm 0,0 UV-I 0 W/m² -0,7 °C 0,7 °C 4,8 km/h (1 Bft)
08.03.2017 03:07 0,6 °C 0,7 °C 90 % 1023,8 hPa 0,0 mm 4,0 km/h (1 Bft) S-SW 205 ° 0 min 0,000 mm 0,0 UV-I 0 W/m² -0,8 °C 0,6 °C 6,4 km/h (2 Bft)
08.03.2017 03:08 0,6 °C 0,6 °C 90 % 1023,8 hPa 0,0 mm 4,2 km/h (1 Bft) S-SW 212 ° 0 min 0,000 mm 0,0 UV-I 0 W/m² -0,8 °C 0,6 °C 6,4 km/h (2 Bft)
08.03.2017 03:09 0,6 °C 0,6 °C 90 % 1023,8 hPa 0,0 mm 3,3 km/h (1 Bft) S-SW 212 ° 0 min 0,000 mm 0,0 UV-I 0 W/m² -0,8 °C 0,6 °C 4,8 km/h (1 Bft)
08.03.2017 03:10 0,6 °C 0,6 °C 90 % 1023,8 hPa 0,0 mm 4,0 km/h (1 Bft) S-SW 196 ° 0 min 0,000 mm 0,0 UV-I 0 W/m² -0,8 °C 0,6 °C 6,4 km/h (2 Bft)
08.03.2017 03:11 0,6 °C 0,6 °C 90 % 1023,8 hPa 0,0 mm 5,0 km/h (1 Bft) S-SW 193 ° 0 min 0,000 mm 0,0 UV-I 0 W/m² -0,8 °C -0,9 °C 8,0 km/h (2 Bft)
08.03.2017 03:12 0,6 °C 0,6 °C 90 % 1023,8 hPa 0,0 mm 3,1 km/h (1 Bft) S 191 ° 0 min 0,000 mm 0,0 UV-I 0 W/m² -0,8 °C 0,6 °C 4,8 km/h (1 Bft)
08.03.2017 03:13 0,6 °C 0,6 °C 90 % 1023,7 hPa 0,0 mm 4,6 km/h (1 Bft) S-SW 211 ° 0 min 0,000 mm 0,0 UV-I 0 W/m² -0,8 °C -0,7 °C 8,0 km/h (2 Bft)
08.03.2017 03:14 0,6 °C 0,6 °C 90 % 1023,7 hPa 0,0 mm 4,8 km/h (1 Bft) S 191 ° 0 min 0,000 mm 0,0 UV-I 0 W/m² -0,8 °C -0,8 °C 6,4 km/h (2 Bft)
08.03.2017 03:15 0,6 °C 0,6 °C 90 % 1023,6 hPa 0,0 mm 5,7 km/h (1 Bft) SW 221 ° 0 min 0,000 mm 0,0 UV-I 0 W/m² -0,8 °C -1,2 °C 8,0 km/h (2 Bft)
08.03.2017 03:16 0,6 °C 0,6 °C 90 % 1023,6 hPa 0,0 mm 5,8 km/h (2 Bft) S-SW 192 ° 0 min 0,000 mm 0,0 UV-I 0 W/m² -0,8 °C -1,3 °C 8,0 km/h (2 Bft)
08.03.2017 03:17 0,6 °C 0,6 °C 90 % 1023,6 hPa 0,0 mm 5,6 km/h (1 Bft) S-SW 204 ° 0 min 0,000 mm 0,0 UV-I 0 W/m² -0,8 °C -1,2 °C 8,0 km/h (2 Bft)
08.03.2017 03:18 0,6 °C 0,6 °C 90 % 1023,6 hPa 0,0 mm 4,1 km/h (1 Bft) W-SW 240 ° 0 min 0,000 mm 0,0 UV-I 0 W/m² -0,8 °C 0,6 °C 4,8 km/h (1 Bft)
08.03.2017 03:19 0,6 °C 0,6 °C 90 % 1023,7 hPa 0,0 mm 2,2 km/h (1 Bft) S-SW 192 ° 0 min 0,000 mm 0,0 UV-I 0 W/m² -0,8 °C 0,6 °C 6,4 km/h (2 Bft)
08.03.2017 03:20 0,6 °C 0,6 °C 90 % 1023,6 hPa 0,2 mm 3,8 km/h (1 Bft) S-SW 192 ° 0 min 0,000 mm 0,0 UV-I 0 W/m² -0,8 °C 0,6 °C 6,4 km/h (2 Bft)
08.03.2017 03:21 0,6 °C 0,6 °C 89 % 1023,6 hPa 0,0 mm 5,2 km/h (1 Bft) SW 229 ° 0 min 0,000 mm 0,0 UV-I 0 W/m² -1,0 °C -1,0 °C 8,0 km/h (2 Bft)
08.03.2017 03:22 0,6 °C 0,6 °C 89 % 1023,6 hPa 0,0 mm 3,2 km/h (1 Bft) SW 228 ° 0 min 0,000 mm 0,0 UV-I 0 W/m² -1,0 °C 0,6 °C 3,2 km/h (1 Bft)
08.03.2017 03:23 0,5 °C 0,6 °C 89 % 1023,7 hPa 0,0 mm 5,0 km/h (1 Bft) SW 215 ° 0 min 0,000 mm 0,0 UV-I 0 W/m² -1,1 °C -1,0 °C 8,0 km/h (2 Bft)
08.03.2017 03:24 0,6 °C 0,6 °C 89 % 1023,7 hPa 0,0 mm 4,1 km/h (1 Bft) SW 215 ° 0 min 0,000 mm 0,0 UV-I 0 W/m² -1,0 °C 0,6 °C 6,4 km/h (2 Bft)
08.03.2017 03:25 0,6 °C 0,6 °C 89 % 1023,6 hPa 0,0 mm 4,0 km/h (1 Bft) SW 222 ° 0 min 0,000 mm 0,0 UV-I 0 W/m² -1,0 °C 0,6 °C 4,8 km/h (1 Bft)
08.03.2017 03:26 0,5 °C 0,6 °C 89 % 1023,7 hPa 0,0 mm 4,4 km/h (1 Bft) S-SW 209 ° 0 min 0,000 mm 0,0 UV-I 0 W/m² -1,1 °C 0,5 °C 6,4 km/h (2 Bft)
08.03.2017 03:27 0,5 °C 0,5 °C 90 % 1023,7 hPa 0,0 mm 3,9 km/h (1 Bft) W-SW 250 ° 0 min 0,000 mm 0,0 UV-I 0 W/m² -0,9 °C 0,5 °C 6,4 km/h (2 Bft)
08.03.2017 03:28 0,5 °C 0,5 °C 90 % 1023,7 hPa 0,0 mm 4,2 km/h (1 Bft) W 259 ° 0 min 0,000 mm 0,0 UV-I 0 W/m² -0,9 °C 0,5 °C 9,7 km/h (2 Bft)
08.03.2017 03:29 0,5 °C 0,5 °C 89 % 1023,7 hPa 0,0 mm 4,7 km/h (1 Bft) W-SW 248 ° 0 min 0,000 mm 0,0 UV-I 0 W/m² -1,1 °C -0,9 °C 9,7 km/h (2 Bft)
08.03.2017 03:30 0,4 °C 0,5 °C 89 % 1023,7 hPa 0,0 mm 4,1 km/h (1 Bft) S-SW 205 ° 0 min 0,000 mm 0,0 UV-I 0 W/m² -1,2 °C 0,4 °C 6,4 km/h (2 Bft)
08.03.2017 03:31 0,4 °C 0,4 °C 89 % 1023,7 hPa 0,0 mm 4,6 km/h (1 Bft) SW 234 ° 0 min 0,000 mm 0,0 UV-I 0 W/m² -1,2 °C -0,9 °C 8,0 km/h (2 Bft)
08.03.2017 03:32 0,4 °C 0,4 °C 89 % 1023,7 hPa 0,0 mm 5,8 km/h (2 Bft) S-SW 213 ° 0 min 0,000 mm 0,0 UV-I 0 W/m² -1,2 °C -1,5 °C 8,0 km/h (2 Bft)
08.03.2017 03:33 0,4 °C 0,4 °C 90 % 1023,7 hPa 0,0 mm 6,8 km/h (2 Bft) SW 219 ° 0 min 0,000 mm 0,0 UV-I 0 W/m² -1,0 °C -1,9 °C 8,0 km/h (2 Bft)
08.03.2017 03:34 0,4 °C 0,4 °C 90 % 1023,7 hPa 0,0 mm 5,2 km/h (1 Bft) S-SW 195 ° 0 min 0,000 mm 0,0 UV-I 0 W/m² -1,0 °C -1,2 °C 6,4 km/h (2 Bft)
08.03.2017 03:35 0,4 °C 0,4 °C 90 % 1023,7 hPa 0,0 mm 4,0 km/h (1 Bft) S 189 ° 0 min 0,000 mm 0,0 UV-I 0 W/m² -1,0 °C 0,4 °C 6,4 km/h (2 Bft)
08.03.2017 03:36 0,4 °C 0,4 °C 89 % 1023,8 hPa 0,0 mm 5,6 km/h (1 Bft) S-SW 206 ° 0 min 0,000 mm 0,0 UV-I 0 W/m² -1,2 °C -1,4 °C 8,0 km/h (2 Bft)
08.03.2017 03:37 0,4 °C 0,4 °C 89 % 1023,7 hPa 0,0 mm 5,5 km/h (1 Bft) S-SW 211 ° 0 min 0,000 mm 0,0 UV-I 0 W/m² -1,2 °C -1,4 °C 6,4 km/h (2 Bft)
08.03.2017 03:38 0,4 °C 0,4 °C 89 % 1023,7 hPa 0,0 mm 5,3 km/h (1 Bft) S-SW 192 ° 0 min 0,000 mm 0,0 UV-I 0 W/m² -1,2 °C -1,3 °C 8,0 km/h (2 Bft)
08.03.2017 03:39 0,4 °C 0,4 °C 89 % 1023,6 hPa 0,0 mm 5,5 km/h (1 Bft) S-SW 204 ° 0 min 0,000 mm 0,0 UV-I 0 W/m² -1,2 °C -1,4 °C 9,7 km/h (2 Bft)
08.03.2017 03:40 0,4 °C 0,4 °C 90 % 1023,7 hPa 0,0 mm 3,0 km/h (1 Bft) SW 230 ° 0 min 0,000 mm 0,0 UV-I 0 W/m² -1,0 °C 0,4 °C 4,8 km/h (1 Bft)
08.03.2017 03:41 0,4 °C 0,4 °C 89 % 1023,7 hPa 0,0 mm 7,2 km/h (2 Bft) S-SW 205 ° 0 min 0,000 mm 0,0 UV-I 0 W/m² -1,2 °C -2,0 °C 11,3 km/h (2 Bft)
08.03.2017 03:42 0,3 °C 0,4 °C 89 % 1023,7 hPa 0,0 mm 4,4 km/h (1 Bft) S-SW 204 ° 0 min 0,000 mm 0,0 UV-I 0 W/m² -1,3 °C 0,3 °C 6,4 km/h (2 Bft)
08.03.2017 03:43 0,3 °C 0,4 °C 89 % 1023,6 hPa 0,0 mm 4,8 km/h (1 Bft) S-SW 204 ° 0 min 0,000 mm 0,0 UV-I 0 W/m² -1,3 °C -1,2 °C 6,4 km/h (2 Bft)
08.03.2017 03:44 0,3 °C 0,3 °C 89 % 1023,6 hPa 0,0 mm 6,2 km/h (2 Bft) SW 221 ° 0 min 0,000 mm 0,0 UV-I 0 W/m² -1,3 °C -1,8 °C 8,0 km/h (2 Bft)
08.03.2017 03:45 0,3 °C 0,3 °C 90 % 1023,6 hPa 0,0 mm 5,4 km/h (1 Bft) S-SW 198 ° 0 min 0,000 mm 0,0 UV-I 0 W/m² -1,1 °C -1,4 °C 9,7 km/h (2 Bft)
08.03.2017 03:46 0,3 °C 0,3 °C 90 % 1023,6 hPa 0,0 mm 5,6 km/h (1 Bft) W-SW 240 ° 0 min 0,000 mm 0,0 UV-I 0 W/m² -1,1 °C -1,5 °C 8,0 km/h (2 Bft)
08.03.2017 03:47 0,3 °C 0,3 °C 90 % 1023,7 hPa 0,0 mm 4,4 km/h (1 Bft) S-SW 211 ° 0 min 0,000 mm 0,0 UV-I 0 W/m² -1,1 °C 0,3 °C 8,0 km/h (2 Bft)
08.03.2017 03:48 0,3 °C 0,3 °C 90 % 1023,7 hPa 0,0 mm 6,0 km/h (2 Bft) SW 233 ° 0 min 0,000 mm 0,0 UV-I 0 W/m² -1,1 °C -1,7 °C 8,0 km/h (2 Bft)
08.03.2017 03:49 0,3 °C 0,3 °C 90 % 1023,7 hPa 0,0 mm 3,9 km/h (1 Bft) S 171 ° 0 min 0,000 mm 0,0 UV-I 0 W/m² -1,1 °C 0,3 °C 6,4 km/h (2 Bft)
08.03.2017 03:50 0,3 °C 0,3 °C 90 % 1023,7 hPa 0,0 mm 6,0 km/h (2 Bft) SW 217 ° 0 min 0,000 mm 0,0 UV-I 0 W/m² -1,1 °C -1,7 °C 8,0 km/h (2 Bft)
08.03.2017 03:51 0,3 °C 0,3 °C 90 % 1023,7 hPa 0,0 mm 6,2 km/h (2 Bft) S-SW 196 ° 0 min 0,000 mm 0,0 UV-I 0 W/m² -1,1 °C -1,8 °C 9,7 km/h (2 Bft)
08.03.2017 03:52 0,3 °C 0,3 °C 90 % 1023,7 hPa 0,0 mm 5,6 km/h (1 Bft) SW 215 ° 0 min 0,000 mm 0,0 UV-I 0 W/m² -1,1 °C -1,5 °C 8,0 km/h (2 Bft)
08.03.2017 03:53 0,3 °C 0,3 °C 90 % 1023,7 hPa 0,0 mm 5,4 km/h (1 Bft) SW 217 ° 0 min 0,000 mm 0,0 UV-I 0 W/m² -1,1 °C -1,4 °C 11,3 km/h (2 Bft)
08.03.2017 03:54 0,3 °C 0,3 °C 90 % 1023,7 hPa 0,0 mm 4,8 km/h (1 Bft) S 186 ° 0 min 0,000 mm 0,0 UV-I 0 W/m² -1,1 °C -1,2 °C 8,0 km/h (2 Bft)
08.03.2017 03:55 0,3 °C 0,3 °C 90 % 1023,7 hPa 0,0 mm 4,7 km/h (1 Bft) S-SW 207 ° 0 min 0,000 mm 0,0 UV-I 0 W/m² -1,1 °C -1,1 °C 8,0 km/h (2 Bft)
08.03.2017 03:56 0,3 °C 0,4 °C 90 % 1023,6 hPa 0,0 mm 4,2 km/h (1 Bft) S-SW 206 ° 0 min 0,000 mm 0,0 UV-I 0 W/m² -1,1 °C 0,3 °C 6,4 km/h (2 Bft)
08.03.2017 03:57 0,3 °C 0,4 °C 90 % 1023,6 hPa 0,0 mm 3,8 km/h (1 Bft) S 183 ° 0 min 0,000 mm 0,0 UV-I 0 W/m² -1,1 °C 0,3 °C 6,4 km/h (2 Bft)
08.03.2017 03:58 0,4 °C 0,4 °C 90 % 1023,6 hPa 0,0 mm 6,3 km/h (2 Bft) S 182 ° 0 min 0,000 mm 0,0 UV-I 0 W/m² -1,0 °C -1,7 °C 8,0 km/h (2 Bft)
08.03.2017 03:59 0,4 °C 0,4 °C 90 % 1023,6 hPa 0,0 mm 6,3 km/h (2 Bft) S-SW 213 ° 0 min 0,000 mm 0,0 UV-I 0 W/m² -1,0 °C -1,7 °C 8,0 km/h (2 Bft)
08.03.2017 04:00 0,3 °C 0,4 °C 90 % 1023,6 hPa 0,0 mm 4,9 km/h (1 Bft) S-SW 199 ° 0 min 0,000 mm 0,0 UV-I 0 W/m² -1,1 °C -1,2 °C 6,4 km/h (2 Bft)
08.03.2017 04:01 0,3 °C 0,4 °C 90 % 1023,6 hPa 0,0 mm 5,8 km/h (2 Bft) SW 224 ° 0 min 0,000 mm 0,0 UV-I 0 W/m² -1,1 °C -1,6 °C 6,4 km/h (2 Bft)
08.03.2017 04:02 0,3 °C 0,3 °C 90 % 1023,6 hPa 0,0 mm 5,0 km/h (1 Bft) S-SW 198 ° 0 min 0,000 mm 0,0 UV-I 0 W/m² -1,1 °C -1,2 °C 6,4 km/h (2 Bft)
08.03.2017 04:03 0,3 °C 0,3 °C 90 % 1023,6 hPa 0,0 mm 4,1 km/h (1 Bft) S 170 ° 0 min 0,000 mm 0,0 UV-I 0 W/m² -1,1 °C 0,3 °C 6,4 km/h (2 Bft)
08.03.2017 04:04 0,2 °C 0,3 °C 90 % 1023,6 hPa 0,0 mm 5,9 km/h (2 Bft) S 169 ° 0 min 0,000 mm 0,0 UV-I 0 W/m² -1,2 °C -1,8 °C 8,0 km/h (2 Bft)
08.03.2017 04:05 0,2 °C 0,3 °C 90 % 1023,5 hPa 0,0 mm 3,2 km/h (1 Bft) S-SW 197 ° 0 min 0,000 mm 0,0 UV-I 0 W/m² -1,2 °C 0,2 °C 6,4 km/h (2 Bft)
08.03.2017 04:06 0,2 °C 0,2 °C 90 % 1023,5 hPa 0,0 mm 4,1 km/h (1 Bft) S 186 ° 0 min 0,000 mm 0,0 UV-I 0 W/m² -1,2 °C 0,2 °C 6,4 km/h (2 Bft)
08.03.2017 04:07 0,2 °C 0,2 °C 90 % 1023,6 hPa 0,0 mm 4,8 km/h (1 Bft) S-SW 194 ° 0 min 0,000 mm 0,0 UV-I 0 W/m² -1,2 °C -1,3 °C 6,4 km/h (2 Bft)
08.03.2017 04:08 0,2 °C 0,2 °C 90 % 1023,6 hPa 0,0 mm 4,2 km/h (1 Bft) S 190 ° 0 min 0,000 mm 0,0 UV-I 0 W/m² -1,2 °C 0,2 °C 6,4 km/h (2 Bft)
08.03.2017 04:09 0,2 °C 0,2 °C 90 % 1023,6 hPa 0,0 mm 5,5 km/h (1 Bft) S 182 ° 0 min 0,000 mm 0,0 UV-I 0 W/m² -1,2 °C -1,6 °C 6,4 km/h (2 Bft)
08.03.2017 04:10 0,2 °C 0,2 °C 90 % 1023,6 hPa 0,0 mm 5,3 km/h (1 Bft) S-SW 201 ° 0 min 0,000 mm 0,0 UV-I 0 W/m² -1,2 °C -1,5 °C 6,4 km/h (2 Bft)
08.03.2017 04:11 0,2 °C 0,2 °C 90 % 1023,6 hPa 0,0 mm 3,4 km/h (1 Bft) S 179 ° 0 min 0,000 mm 0,0 UV-I 0 W/m² -1,2 °C 0,2 °C 4,8 km/h (1 Bft)
08.03.2017 04:12 0,2 °C 0,2 °C 90 % 1023,7 hPa 0,0 mm 3,7 km/h (1 Bft) S 190 ° 0 min 0,000 mm 0,0 UV-I 0 W/m² -1,2 °C 0,2 °C 4,8 km/h (1 Bft)
08.03.2017 04:13 0,1 °C 0,2 °C 91 % 1023,7 hPa 0,0 mm 1,8 km/h (1 Bft) S 190 ° 0 min 0,000 mm 0,0 UV-I 0 W/m² -1,2 °C 0,1 °C 3,2 km/h (1 Bft)
08.03.2017 04:14 0,0 °C 0,1 °C 91 % 1023,7 hPa 0,0 mm 0,9 km/h (0 Bft) S 190 ° 0 min 0,000 mm 0,0 UV-I 0 W/m² -1,3 °C 0,0 °C 3,2 km/h (1 Bft)
08.03.2017 04:15 -0,1 °C 0,0 °C 91 % 1023,7 hPa 0,0 mm 0,8 km/h (0 Bft) S 190 ° 0 min 0,000 mm 0,0 UV-I 0 W/m² -1,4 °C -0,1 °C 3,2 km/h (1 Bft)
08.03.2017 04:16 -0,2 °C -0,1 °C 92 % 1023,7 hPa 0,0 mm 0,5 km/h (0 Bft) S 190 ° 0 min 0,000 mm 0,0 UV-I 0 W/m² -1,3 °C -0,2 °C 1,6 km/h (1 Bft)
08.03.2017 04:17 -0,2 °C -0,2 °C 92 % 1023,8 hPa 0,0 mm 0,7 km/h (0 Bft) S 190 ° 0 min 0,000 mm 0,0 UV-I 0 W/m² -1,3 °C -0,2 °C 1,6 km/h (1 Bft)
08.03.2017 04:18 -0,3 °C -0,2 °C 92 % 1023,8 hPa 0,0 mm 1,5 km/h (1 Bft) S 190 ° 0 min 0,000 mm 0,0 UV-I 0 W/m² -1,4 °C -0,3 °C 1,6 km/h (1 Bft)
08.03.2017 04:19 -0,4 °C -0,3 °C 92 % 1023,8 hPa 0,0 mm 0,8 km/h (0 Bft) S 190 ° 0 min 0,000 mm 0,0 UV-I 0 W/m² -1,5 °C -0,4 °C 1,6 km/h (1 Bft)
08.03.2017 04:20 -0,4 °C -0,4 °C 92 % 1023,8 hPa 0,0 mm 0,5 km/h (0 Bft) S 190 ° 0 min 0,000 mm 0,0 UV-I 0 W/m² -1,5 °C -0,4 °C 1,6 km/h (1 Bft)
08.03.2017 04:21 -0,5 °C -0,4 °C 92 % 1023,8 hPa 0,0 mm 0,7 km/h (0 Bft) S 190 ° 0 min 0,000 mm 0,0 UV-I 0 W/m² -1,6 °C -0,5 °C 1,6 km/h (1 Bft)
08.03.2017 04:22 -0,6 °C -0,5 °C 92 % 1023,8 hPa 0,0 mm 1,9 km/h (1 Bft) S 190 ° 0 min 0,000 mm 0,0 UV-I 0 W/m² -1,7 °C -0,6 °C 3,2 km/h (1 Bft)
08.03.2017 04:23 -0,5 °C -0,5 °C 93 % 1023,8 hPa 0,0 mm 1,6 km/h (1 Bft) S 190 ° 0 min 0,000 mm 0,0 UV-I 0 W/m² -1,5 °C -0,5 °C 3,2 km/h (1 Bft)
08.03.2017 04:24 -0,5 °C -0,5 °C 93 % 1023,7 hPa 0,0 mm 1,8 km/h (1 Bft) SO 132 ° 0 min 0,000 mm 0,0 UV-I 0 W/m² -1,5 °C -0,5 °C 3,2 km/h (1 Bft)
08.03.2017 04:25 -0,5 °C -0,5 °C 93 % 1023,7 hPa 0,0 mm 2,4 km/h (1 Bft) SO 132 ° 0 min 0,000 mm 0,0 UV-I 0 W/m² -1,5 °C -0,5 °C 3,2 km/h (1 Bft)
08.03.2017 04:26 -0,6 °C -0,5 °C 93 % 1023,7 hPa 0,0 mm 2,3 km/h (1 Bft) SO 132 ° 0 min 0,000 mm 0,0 UV-I 0 W/m² -1,6 °C -0,6 °C 3,2 km/h (1 Bft)
08.03.2017 04:27 -0,6 °C -0,5 °C 93 % 1023,7 hPa 0,0 mm 0,2 km/h (0 Bft) SO 132 ° 0 min 0,000 mm 0,0 UV-I 0 W/m² -1,6 °C -0,6 °C 1,6 km/h (1 Bft)
08.03.2017 04:28 -0,6 °C -0,6 °C 93 % 1023,7 hPa 0,0 mm 0,0 km/h (0 Bft) SO 132 ° 0 min 0,000 mm 0,0 UV-I 0 W/m² -1,6 °C -0,6 °C 0,0 km/h (0 Bft)
08.03.2017 04:29 -0,6 °C -0,6 °C 93 % 1023,6 hPa 0,0 mm 0,9 km/h (0 Bft) SO 132 ° 0 min 0,000 mm 0,0 UV-I 0 W/m² -1,6 °C -0,6 °C 1,6 km/h (1 Bft)
08.03.2017 04:30 -0,6 °C -0,6 °C 93 % 1023,6 hPa 0,0 mm 1,4 km/h (1 Bft) SO 132 ° 0 min 0,000 mm 0,0 UV-I 0 W/m² -1,6 °C -0,6 °C 3,2 km/h (1 Bft)
08.03.2017 04:31 -0,7 °C -0,6 °C 93 % 1023,6 hPa 0,0 mm 0,2 km/h (0 Bft) SO 132 ° 0 min 0,000 mm 0,0 UV-I 0 W/m² -1,7 °C -0,7 °C 1,6 km/h (1 Bft)
08.03.2017 04:32 -0,7 °C -0,7 °C 93 % 1023,7 hPa 0,0 mm 1,8 km/h (1 Bft) SO 132 ° 0 min 0,000 mm 0,0 UV-I 0 W/m² -1,7 °C -0,7 °C 3,2 km/h (1 Bft)
08.03.2017 04:33 -0,7 °C -0,7 °C 93 % 1023,7 hPa 0,0 mm 2,2 km/h (1 Bft) SO 132 ° 0 min 0,000 mm 0,0 UV-I 0 W/m² -1,7 °C -0,7 °C 3,2 km/h (1 Bft)
08.03.2017 04:34 -0,7 °C -0,7 °C 94 % 1023,6 hPa 0,0 mm 2,6 km/h (1 Bft) SO 132 ° 0 min 0,000 mm 0,0 UV-I 0 W/m² -1,5 °C -0,7 °C 3,2 km/h (1 Bft)
08.03.2017 04:35 -0,7 °C -0,7 °C 94 % 1023,7 hPa 0,0 mm 1,7 km/h (1 Bft) SO 132 ° 0 min 0,000 mm 0,0 UV-I 0 W/m² -1,5 °C -0,7 °C 3,2 km/h (1 Bft)
08.03.2017 04:36 -0,7 °C -0,7 °C 94 % 1023,7 hPa 0,0 mm 2,0 km/h (1 Bft) SO 132 ° 0 min 0,000 mm 0,0 UV-I 0 W/m² -1,5 °C -0,7 °C 3,2 km/h (1 Bft)
08.03.2017 04:37 -0,7 °C -0,7 °C 94 % 1023,8 hPa 0,0 mm 2,3 km/h (1 Bft) SO 132 ° 0 min 0,000 mm 0,0 UV-I 0 W/m² -1,5 °C -0,7 °C 3,2 km/h (1 Bft)
08.03.2017 04:38 -0,7 °C -0,7 °C 94 % 1023,8 hPa 0,0 mm 2,6 km/h (1 Bft) SO 132 ° 0 min 0,000 mm 0,0 UV-I 0 W/m² -1,5 °C -0,7 °C 4,8 km/h (1 Bft)
08.03.2017 04:39 -0,7 °C -0,7 °C 94 % 1023,8 hPa 0,0 mm 2,3 km/h (1 Bft) SO 132 ° 0 min 0,000 mm 0,0 UV-I 0 W/m² -1,5 °C -0,7 °C 3,2 km/h (1 Bft)
08.03.2017 04:40 -0,8 °C -0,7 °C 94 % 1023,9 hPa 0,0 mm 0,2 km/h (0 Bft) SO 132 ° 0 min 0,000 mm 0,0 UV-I 0 W/m² -1,6 °C -0,8 °C 1,6 km/h (1 Bft)
08.03.2017 04:41 -0,9 °C -0,8 °C 93 % 1023,9 hPa 0,0 mm 0,0 km/h (0 Bft) SO 132 ° 0 min 0,000 mm 0,0 UV-I 0 W/m² -1,9 °C -0,9 °C 0,0 km/h (0 Bft)
08.03.2017 04:42 -1,1 °C -0,9 °C 93 % 1023,8 hPa 0,0 mm 0,5 km/h (0 Bft) SO 132 ° 0 min 0,000 mm 0,0 UV-I 0 W/m² -2,1 °C -1,1 °C 1,6 km/h (1 Bft)
08.03.2017 04:43 -1,1 °C -1,1 °C 93 % 1023,8 hPa 0,0 mm 0,0 km/h (0 Bft) SO 132 ° 0 min 0,000 mm 0,0 UV-I 0 W/m² -2,1 °C -1,1 °C 0,0 km/h (0 Bft)
08.03.2017 04:44 -1,2 °C -1,1 °C 93 % 1023,8 hPa 0,0 mm 0,0 km/h (0 Bft) SO 132 ° 0 min 0,000 mm 0,0 UV-I 0 W/m² -2,2 °C -1,2 °C 0,0 km/h (0 Bft)
08.03.2017 04:45 -1,3 °C -1,2 °C 93 % 1023,8 hPa 0,0 mm 0,0 km/h (0 Bft) SO 132 ° 0 min 0,000 mm 0,0 UV-I 0 W/m² -2,3 °C -1,3 °C 0,0 km/h (0 Bft)
08.03.2017 04:46 -1,3 °C -1,3 °C 93 % 1023,9 hPa 0,0 mm 0,0 km/h (0 Bft) SO 132 ° 0 min 0,000 mm 0,0 UV-I 0 W/m² -2,3 °C -1,3 °C 0,0 km/h (0 Bft)
08.03.2017 04:47 -1,2 °C -1,2 °C 94 % 1023,9 hPa 0,0 mm 0,0 km/h (0 Bft) SO 132 ° 0 min 0,000 mm 0,0 UV-I 0 W/m² -2,0 °C -1,2 °C 0,0 km/h (0 Bft)
08.03.2017 04:48 -1,2 °C -1,2 °C 94 % 1023,9 hPa 0,0 mm 0,0 km/h (0 Bft) SO 132 ° 0 min 0,000 mm 0,0 UV-I 0 W/m² -2,0 °C -1,2 °C 0,0 km/h (0 Bft)
08.03.2017 04:49 -1,3 °C -1,2 °C 94 % 1023,9 hPa 0,0 mm 0,0 km/h (0 Bft) SO 132 ° 0 min 0,000 mm 0,0 UV-I 0 W/m² -2,1 °C -1,3 °C 0,0 km/h (0 Bft)
08.03.2017 04:50 -1,3 °C -1,3 °C 94 % 1023,9 hPa 0,0 mm 1,2 km/h (1 Bft) SO 132 ° 0 min 0,000 mm 0,0 UV-I 0 W/m² -2,1 °C -1,3 °C 3,2 km/h (1 Bft)
08.03.2017 04:51 -1,4 °C -1,3 °C 93 % 1023,9 hPa 0,0 mm 1,1 km/h (1 Bft) SO 132 ° 0 min 0,000 mm 0,0 UV-I 0 W/m² -2,4 °C -1,4 °C 3,2 km/h (1 Bft)
08.03.2017 04:52 -1,4 °C -1,4 °C 93 % 1023,8 hPa 0,0 mm 1,9 km/h (1 Bft) SO 132 ° 0 min 0,000 mm 0,0 UV-I 0 W/m² -2,4 °C -1,4 °C 3,2 km/h (1 Bft)
08.03.2017 04:53 -1,4 °C -1,4 °C 93 % 1024,0 hPa 0,0 mm 2,4 km/h (1 Bft) SO 132 ° 0 min 0,000 mm 0,0 UV-I 0 W/m² -2,4 °C -1,4 °C 3,2 km/h (1 Bft)
08.03.2017 04:54 -1,4 °C -1,4 °C 93 % 1024,0 hPa 0,0 mm 2,8 km/h (1 Bft) SO 132 ° 0 min 0,000 mm 0,0 UV-I 0 W/m² -2,4 °C -1,4 °C 4,8 km/h (1 Bft)
08.03.2017 04:55 -1,4 °C -1,4 °C 93 % 1024,0 hPa 0,0 mm 3,2 km/h (1 Bft) SO 132 ° 0 min 0,000 mm 0,0 UV-I 0 W/m² -2,4 °C -1,4 °C 4,8 km/h (1 Bft)
08.03.2017 04:56 -1,4 °C -1,4 °C 93 % 1024,0 hPa 0,0 mm 2,9 km/h (1 Bft) SO 132 ° 0 min 0,000 mm 0,0 UV-I 0 W/m² -2,4 °C -1,4 °C 4,8 km/h (1 Bft)
08.03.2017 04:57 -1,4 °C -1,4 °C 93 % 1024,0 hPa 0,0 mm 1,7 km/h (1 Bft) SO 132 ° 0 min 0,000 mm 0,0 UV-I 0 W/m² -2,4 °C -1,4 °C 3,2 km/h (1 Bft)
08.03.2017 04:58 -1,4 °C -1,4 °C 93 % 1024,0 hPa 0,0 mm 2,5 km/h (1 Bft) S 181 ° 0 min 0,000 mm 0,0 UV-I 0 W/m² -2,4 °C -1,4 °C 6,4 km/h (2 Bft)
08.03.2017 04:59 -1,4 °C -1,4 °C 93 % 1024,0 hPa 0,0 mm 3,0 km/h (1 Bft) S 181 ° 0 min 0,000 mm 0,0 UV-I 0 W/m² -2,4 °C -1,4 °C 6,4 km/h (2 Bft)
08.03.2017 05:00 -1,4 °C -1,4 °C 93 % 1024,0 hPa 0,0 mm 2,6 km/h (1 Bft) S 181 ° 0 min 0,000 mm 0,0 UV-I 0 W/m² -2,4 °C -1,4 °C 4,8 km/h (1 Bft)
08.03.2017 05:01 -1,3 °C -1,3 °C 93 % 1024,0 hPa 0,0 mm 1,9 km/h (1 Bft) S 181 ° 0 min 0,000 mm 0,0 UV-I 0 W/m² -2,3 °C -1,3 °C 3,2 km/h (1 Bft)
08.03.2017 05:02 -1,3 °C -1,3 °C 93 % 1024,0 hPa 0,0 mm 2,8 km/h (1 Bft) S 181 ° 0 min 0,000 mm 0,0 UV-I 0 W/m² -2,3 °C -1,3 °C 4,8 km/h (1 Bft)
08.03.2017 05:03 -1,3 °C -1,3 °C 93 % 1024,0 hPa 0,0 mm 1,8 km/h (1 Bft) S 181 ° 0 min 0,000 mm 0,0 UV-I 0 W/m² -2,3 °C -1,3 °C 3,2 km/h (1 Bft)
08.03.2017 05:04 -1,3 °C -1,2 °C 93 % 1024,0 hPa 0,0 mm 1,5 km/h (1 Bft) S 181 ° 0 min 0,000 mm 0,0 UV-I 0 W/m² -2,3 °C -1,3 °C 3,2 km/h (1 Bft)
08.03.2017 05:05 -1,3 °C -1,3 °C 93 % 1024,0 hPa 0,0 mm 5,6 km/h (1 Bft) S 191 ° 0 min 0,000 mm 0,0 UV-I 0 W/m² -2,3 °C -3,3 °C 8,0 km/h (2 Bft)
08.03.2017 05:06 -1,4 °C -1,3 °C 92 % 1024,0 hPa 0,0 mm 5,5 km/h (1 Bft) S-SW 200 ° 0 min 0,000 mm 0,0 UV-I 0 W/m² -2,5 °C -3,4 °C 9,7 km/h (2 Bft)
08.03.2017 05:07 -1,5 °C -1,4 °C 92 % 1024,0 hPa 0,0 mm 3,0 km/h (1 Bft) S 180 ° 0 min 0,000 mm 0,0 UV-I 0 W/m² -2,6 °C -1,5 °C 4,8 km/h (1 Bft)
08.03.2017 05:08 -1,4 °C -1,4 °C 93 % 1024,0 hPa 0,0 mm 4,5 km/h (1 Bft) S-SW 195 ° 0 min 0,000 mm 0,0 UV-I 0 W/m² -2,4 °C -1,4 °C 6,4 km/h (2 Bft)
08.03.2017 05:09 -1,4 °C -1,4 °C 93 % 1024,0 hPa 0,0 mm 3,7 km/h (1 Bft) S-SO 156 ° 0 min 0,000 mm 0,0 UV-I 0 W/m² -2,4 °C -1,4 °C 6,4 km/h (2 Bft)
08.03.2017 05:10 -1,3 °C -1,3 °C 93 % 1024,0 hPa 0,0 mm 6,0 km/h (2 Bft) S-SW 212 ° 0 min 0,000 mm 0,0 UV-I 0 W/m² -2,3 °C -3,5 °C 8,0 km/h (2 Bft)
08.03.2017 05:11 -1,3 °C -1,3 °C 93 % 1024,0 hPa 0,0 mm 3,8 km/h (1 Bft) S-SO 168 ° 0 min 0,000 mm 0,0 UV-I 0 W/m² -2,3 °C -1,3 °C 8,0 km/h (2 Bft)
08.03.2017 05:12 -1,3 °C -1,3 °C 93 % 1024,0 hPa 0,0 mm 7,2 km/h (2 Bft) S-SW 197 ° 0 min 0,000 mm 0,0 UV-I 0 W/m² -2,3 °C -4,0 °C 9,7 km/h (2 Bft)
08.03.2017 05:13 -1,3 °C -1,3 °C 93 % 1024,1 hPa 0,0 mm 8,4 km/h (2 Bft) S 184 ° 0 min 0,000 mm 0,0 UV-I 0 W/m² -2,3 °C -4,4 °C 9,7 km/h (2 Bft)
08.03.2017 05:14 -1,3 °C -1,3 °C 93 % 1024,1 hPa 0,0 mm 4,2 km/h (1 Bft) S 184 ° 0 min 0,000 mm 0,0 UV-I 0 W/m² -2,3 °C -1,3 °C 6,4 km/h (2 Bft)
08.03.2017 05:15 -1,3 °C -1,3 °C 93 % 1024,0 hPa 0,0 mm 3,4 km/h (1 Bft) S 184 ° 0 min 0,000 mm 0,0 UV-I 0 W/m² -2,3 °C -1,3 °C 4,8 km/h (1 Bft)
08.03.2017 05:16 -1,3 °C -1,3 °C 93 % 1024,1 hPa 0,0 mm 4,6 km/h (1 Bft) S-SW 202 ° 0 min 0,000 mm 0,0 UV-I 0 W/m² -2,3 °C -2,9 °C 6,4 km/h (2 Bft)
08.03.2017 05:17 -1,3 °C -1,3 °C 93 % 1024,1 hPa 0,0 mm 6,7 km/h (2 Bft) S-SW 197 ° 0 min 0,000 mm 0,0 UV-I 0 W/m² -2,3 °C -3,8 °C 9,7 km/h (2 Bft)
08.03.2017 05:18 -1,3 °C -1,3 °C 93 % 1024,1 hPa 0,0 mm 6,7 km/h (2 Bft) S-SW 192 ° 0 min 0,000 mm 0,0 UV-I 0 W/m² -2,3 °C -3,8 °C 12,9 km/h (3 Bft)
08.03.2017 05:19 -1,3 °C -1,3 °C 93 % 1024,1 hPa 0,0 mm 9,0 km/h (2 Bft) S-SW 203 ° 0 min 0,000 mm 0,0 UV-I 0 W/m² -2,3 °C -4,6 °C 11,3 km/h (2 Bft)
08.03.2017 05:20 -1,3 °C -1,3 °C 93 % 1024,2 hPa 0,0 mm 3,3 km/h (1 Bft) S-SW 196 ° 0 min 0,000 mm 0,0 UV-I 0 W/m² -2,3 °C -1,3 °C 4,8 km/h (1 Bft)
08.03.2017 05:21 -1,3 °C -1,3 °C 93 % 1024,1 hPa 0,0 mm 4,9 km/h (1 Bft) S-SW 207 ° 0 min 0,000 mm 0,0 UV-I 0 W/m² -2,3 °C -3,0 °C 6,4 km/h (2 Bft)
08.03.2017 05:22 -1,4 °C -1,3 °C 93 % 1024,2 hPa 0,0 mm 5,4 km/h (1 Bft) S-SW 205 ° 0 min 0,000 mm 0,0 UV-I 0 W/m² -2,4 °C -3,4 °C 6,4 km/h (2 Bft)
08.03.2017 05:23 -1,5 °C -1,4 °C 92 % 1024,2 hPa 0,0 mm 5,5 km/h (1 Bft) S-SW 198 ° 0 min 0,000 mm 0,0 UV-I 0 W/m² -2,6 °C -3,5 °C 6,4 km/h (2 Bft)
08.03.2017 05:24 -1,5 °C -1,5 °C 92 % 1024,2 hPa 0,0 mm 1,9 km/h (1 Bft) S-SW 198 ° 0 min 0,000 mm 0,0 UV-I 0 W/m² -2,6 °C -1,5 °C 3,2 km/h (1 Bft)
08.03.2017 05:25 -1,6 °C -1,5 °C 93 % 1024,2 hPa 0,0 mm 1,9 km/h (1 Bft) S-SW 198 ° 0 min 0,000 mm 0,0 UV-I 0 W/m² -2,6 °C -1,6 °C 3,2 km/h (1 Bft)
08.03.2017 05:26 -1,5 °C -1,5 °C 93 % 1024,3 hPa 0,0 mm 2,2 km/h (1 Bft) S-SW 198 ° 0 min 0,000 mm 0,0 UV-I 0 W/m² -2,5 °C -1,5 °C 3,2 km/h (1 Bft)
08.03.2017 05:27 -1,5 °C -1,5 °C 93 % 1024,3 hPa 0,0 mm 0,9 km/h (0 Bft) S-SW 198 ° 0 min 0,000 mm 0,0 UV-I 0 W/m² -2,5 °C -1,5 °C 1,6 km/h (1 Bft)
08.03.2017 05:28 -1,5 °C -1,4 °C 93 % 1024,3 hPa 0,0 mm 0,1 km/h (0 Bft) S-SW 198 ° 0 min 0,000 mm 0,0 UV-I 0 W/m² -2,5 °C -1,5 °C 1,6 km/h (1 Bft)
08.03.2017 05:29 -1,4 °C -1,4 °C 93 % 1024,2 hPa 0,0 mm 0,0 km/h (0 Bft) S-SW 198 ° 0 min 0,000 mm 0,0 UV-I 0 W/m² -2,4 °C -1,4 °C 0,0 km/h (0 Bft)
08.03.2017 05:30 -1,5 °C -1,4 °C 93 % 1024,3 hPa 0,0 mm 0,1 km/h (0 Bft) S-SW 198 ° 0 min 0,000 mm 0,0 UV-I 0 W/m² -2,5 °C -1,5 °C 1,6 km/h (1 Bft)
08.03.2017 05:31 -1,5 °C -1,5 °C 93 % 1024,3 hPa 0,0 mm 0,3 km/h (0 Bft) S-SW 198 ° 0 min 0,000 mm 0,0 UV-I 0 W/m² -2,5 °C -1,5 °C 1,6 km/h (1 Bft)
08.03.2017 05:32 -1,5 °C -1,4 °C 93 % 1024,3 hPa 0,0 mm 0,0 km/h (0 Bft) S-SW 198 ° 0 min 0,000 mm 0,0 UV-I 0 W/m² -2,5 °C -1,5 °C 0,0 km/h (0 Bft)
08.03.2017 05:33 -1,4 °C -1,4 °C 94 % 1024,3 hPa 0,0 mm 0,3 km/h (0 Bft) S-SW 198 ° 0 min 0,000 mm 0,0 UV-I 0 W/m² -2,2 °C -1,4 °C 1,6 km/h (1 Bft)
08.03.2017 05:34 -1,4 °C -1,4 °C 94 % 1024,3 hPa 0,0 mm 1,3 km/h (1 Bft) S-SW 198 ° 0 min 0,000 mm 0,0 UV-I 0 W/m² -2,2 °C -1,4 °C 1,6 km/h (1 Bft)
08.03.2017 05:35 -1,4 °C -1,4 °C 94 % 1024,4 hPa 0,0 mm 1,2 km/h (1 Bft) S-SW 198 ° 0 min 0,000 mm 0,0 UV-I 0 W/m² -2,2 °C -1,4 °C 1,6 km/h (1 Bft)
08.03.2017 05:36 -1,4 °C -1,4 °C 94 % 1024,4 hPa 0,0 mm 2,0 km/h (1 Bft) S-SW 198 ° 0 min 0,000 mm 0,0 UV-I 0 W/m² -2,2 °C -1,4 °C 3,2 km/h (1 Bft)
08.03.2017 05:37 -1,4 °C -1,4 °C 94 % 1024,4 hPa 0,0 mm 0,8 km/h (0 Bft) S-SW 198 ° 0 min 0,000 mm 0,0 UV-I 0 W/m² -2,2 °C -1,4 °C 3,2 km/h (1 Bft)
08.03.2017 05:38 -1,4 °C -1,4 °C 94 % 1024,4 hPa 0,0 mm 2,2 km/h (1 Bft) S-SW 198 ° 0 min 0,000 mm 0,0 UV-I 0 W/m² -2,2 °C -1,4 °C 3,2 km/h (1 Bft)
08.03.2017 05:39 -1,4 °C -1,4 °C 94 % 1024,4 hPa 0,0 mm 1,9 km/h (1 Bft) S-SW 198 ° 0 min 0,000 mm 0,0 UV-I 0 W/m² -2,2 °C -1,4 °C 3,2 km/h (1 Bft)
08.03.2017 05:40 -1,4 °C -1,4 °C 94 % 1024,5 hPa 0,0 mm 0,4 km/h (0 Bft) S-SW 198 ° 0 min 0,000 mm 0,0 UV-I 0 W/m² -2,2 °C -1,4 °C 1,6 km/h (1 Bft)
08.03.2017 05:41 -1,4 °C -1,4 °C 94 % 1024,4 hPa 0,0 mm 0,3 km/h (0 Bft) S-SW 198 ° 0 min 0,000 mm 0,0 UV-I 0 W/m² -2,2 °C -1,4 °C 1,6 km/h (1 Bft)
08.03.2017 05:42 -1,5 °C -1,4 °C 93 % 1024,4 hPa 0,0 mm 0,7 km/h (0 Bft) S-SW 198 ° 0 min 0,000 mm 0,0 UV-I 0 W/m² -2,5 °C -1,5 °C 3,2 km/h (1 Bft)
08.03.2017 05:43 -1,6 °C -1,5 °C 93 % 1024,5 hPa 0,0 mm 2,3 km/h (1 Bft) S-SW 198 ° 0 min 0,000 mm 0,0 UV-I 0 W/m² -2,6 °C -1,6 °C 3,2 km/h (1 Bft)
08.03.2017 05:44 -1,6 °C -1,6 °C 93 % 1024,6 hPa 0,0 mm 2,2 km/h (1 Bft) S-SW 198 ° 0 min 0,000 mm 0,0 UV-I 0 W/m² -2,6 °C -1,6 °C 3,2 km/h (1 Bft)
08.03.2017 05:45 -1,7 °C -1,6 °C 93 % 1024,6 hPa 0,0 mm 2,0 km/h (1 Bft) S-SW 198 ° 0 min 0,000 mm 0,0 UV-I 0 W/m² -2,7 °C -1,7 °C 3,2 km/h (1 Bft)
08.03.2017 05:46 -1,7 °C -1,7 °C 93 % 1024,6 hPa 0,0 mm 2,1 km/h (1 Bft) S-SW 198 ° 0 min 0,000 mm 0,0 UV-I 0 W/m² -2,7 °C -1,7 °C 3,2 km/h (1 Bft)
08.03.2017 05:47 -1,7 °C -1,7 °C 94 % 1024,6 hPa 0,0 mm 2,7 km/h (1 Bft) S-SW 198 ° 0 min 0,000 mm 0,0 UV-I 0 W/m² -2,5 °C -1,7 °C 3,2 km/h (1 Bft)
08.03.2017 05:48 -1,6 °C -1,6 °C 94 % 1024,6 hPa 0,0 mm 3,6 km/h (1 Bft) S-SW 198 ° 0 min 0,000 mm 0,0 UV-I 0 W/m² -2,4 °C -1,6 °C 4,8 km/h (1 Bft)
08.03.2017 05:49 -1,6 °C -1,6 °C 94 % 1024,6 hPa 0,0 mm 3,2 km/h (1 Bft) S-SW 198 ° 0 min 0,000 mm 0,0 UV-I 0 W/m² -2,4 °C -1,6 °C 4,8 km/h (1 Bft)
08.03.2017 05:50 -1,6 °C -1,6 °C 94 % 1024,6 hPa 0,0 mm 2,7 km/h (1 Bft) S-SW 198 ° 0 min 0,000 mm 0,0 UV-I 0 W/m² -2,4 °C -1,6 °C 3,2 km/h (1 Bft)
08.03.2017 05:51 -1,5 °C -1,5 °C 94 % 1024,6 hPa 0,0 mm 2,3 km/h (1 Bft) S-SW 198 ° 0 min 0,000 mm 0,0 UV-I 0 W/m² -2,3 °C -1,5 °C 3,2 km/h (1 Bft)
08.03.2017 05:52 -1,4 °C -1,4 °C 94 % 1024,6 hPa 0,0 mm 1,1 km/h (1 Bft) S-SW 198 ° 0 min 0,000 mm 0,0 UV-I 0 W/m² -2,2 °C -1,4 °C 1,6 km/h (1 Bft)
08.03.2017 05:53 -1,4 °C -1,4 °C 94 % 1024,6 hPa 0,0 mm 1,1 km/h (1 Bft) S-SW 198 ° 0 min 0,000 mm 0,0 UV-I 0 W/m² -2,2 °C -1,4 °C 3,2 km/h (1 Bft)
08.03.2017 05:54 -1,4 °C -1,4 °C 94 % 1024,6 hPa 0,0 mm 2,2 km/h (1 Bft) S-SW 198 ° 0 min 0,000 mm 0,0 UV-I 0 W/m² -2,2 °C -1,4 °C 3,2 km/h (1 Bft)
08.03.2017 05:55 -1,4 °C -1,4 °C 94 % 1024,6 hPa 0,0 mm 1,7 km/h (1 Bft) S-SW 198 ° 0 min 0,000 mm 0,0 UV-I 0 W/m² -2,2 °C -1,4 °C 3,2 km/h (1 Bft)
08.03.2017 05:56 -1,4 °C -1,4 °C 94 % 1024,6 hPa 0,0 mm 0,9 km/h (0 Bft) S-SW 198 ° 0 min 0,000 mm 0,0 UV-I 0 W/m² -2,2 °C -1,4 °C 3,2 km/h (1 Bft)
08.03.2017 05:57 -1,4 °C -1,4 °C 94 % 1024,6 hPa 0,0 mm 0,9 km/h (0 Bft) S-SW 198 ° 0 min 0,000 mm 0,0 UV-I 0 W/m² -2,2 °C -1,4 °C 1,6 km/h (1 Bft)
08.03.2017 05:58 -1,6 °C -1,4 °C 93 % 1024,6 hPa 0,0 mm 1,6 km/h (1 Bft) S-SW 198 ° 0 min 0,000 mm 0,0 UV-I 0 W/m² -2,6 °C -1,6 °C 4,8 km/h (1 Bft)
08.03.2017 05:59 -1,7 °C -1,6 °C 93 % 1024,6 hPa 0,0 mm 1,6 km/h (1 Bft) S-SW 198 ° 0 min 0,000 mm 0,0 UV-I 0 W/m² -2,7 °C -1,7 °C 3,2 km/h (1 Bft)
08.03.2017 06:00 -1,7 °C -1,7 °C 93 % 1024,6 hPa 0,0 mm 2,3 km/h (1 Bft) S-SW 198 ° 0 min 0,000 mm 0,0 UV-I 0 W/m² -2,7 °C -1,7 °C 3,2 km/h (1 Bft)
08.03.2017 06:01 -1,7 °C -1,7 °C 93 % 1024,6 hPa 0,0 mm 0,9 km/h (0 Bft) S-SW 198 ° 0 min 0,000 mm 0,0 UV-I 0 W/m² -2,7 °C -1,7 °C 3,2 km/h (1 Bft)
08.03.2017 06:02 -1,7 °C -1,7 °C 94 % 1024,6 hPa 0,0 mm 0,1 km/h (0 Bft) S-SW 198 ° 0 min 0,000 mm 0,0 UV-I 0 W/m² -2,5 °C -1,7 °C 1,6 km/h (1 Bft)
08.03.2017 06:03 -1,8 °C -1,7 °C 94 % 1024,6 hPa 0,0 mm 0,6 km/h (0 Bft) S-SW 198 ° 0 min 0,000 mm 0,0 UV-I 0 W/m² -2,6 °C -1,8 °C 1,6 km/h (1 Bft)
08.03.2017 06:04 -1,9 °C -1,8 °C 93 % 1024,6 hPa 0,0 mm 0,0 km/h (0 Bft) S-SW 198 ° 0 min 0,000 mm 0,0 UV-I 0 W/m² -2,9 °C -1,9 °C 0,0 km/h (0 Bft)
08.03.2017 06:05 -2,1 °C -1,9 °C 93 % 1024,7 hPa 0,0 mm 0,2 km/h (0 Bft) S-SW 198 ° 0 min 0,000 mm 0,0 UV-I 0 W/m² -3,1 °C -2,1 °C 1,6 km/h (1 Bft)
08.03.2017 06:06 -2,1 °C -2,1 °C 93 % 1024,6 hPa 0,0 mm 0,3 km/h (0 Bft) S-SW 198 ° 0 min 0,000 mm 0,0 UV-I 0 W/m² -3,1 °C -2,1 °C 1,6 km/h (1 Bft)
08.03.2017 06:07 -2,1 °C -2,1 °C 93 % 1024,7 hPa 0,0 mm 1,8 km/h (1 Bft) S-SW 198 ° 0 min 0,000 mm 0,0 UV-I 0 W/m² -3,1 °C -2,1 °C 3,2 km/h (1 Bft)
08.03.2017 06:08 -2,1 °C -2,1 °C 94 % 1024,6 hPa 0,0 mm 2,5 km/h (1 Bft) S-SW 198 ° 0 min 0,000 mm 0,0 UV-I 0 W/m² -2,9 °C -2,1 °C 3,2 km/h (1 Bft)
08.03.2017 06:09 -2,0 °C -2,0 °C 94 % 1024,6 hPa 0,0 mm 2,1 km/h (1 Bft) S-SW 198 ° 0 min 0,000 mm 0,0 UV-I 0 W/m² -2,8 °C -2,0 °C 3,2 km/h (1 Bft)
08.03.2017 06:10 -1,9 °C -1,9 °C 94 % 1024,7 hPa 0,0 mm 2,1 km/h (1 Bft) S-SW 198 ° 0 min 0,000 mm 0,0 UV-I 0 W/m² -2,7 °C -1,9 °C 3,2 km/h (1 Bft)
08.03.2017 06:11 -1,9 °C -1,9 °C 94 % 1024,7 hPa 0,0 mm 1,5 km/h (1 Bft) S-SW 198 ° 0 min 0,000 mm 0,0 UV-I 0 W/m² -2,7 °C -1,9 °C 3,2 km/h (1 Bft)
08.03.2017 06:12 -1,9 °C -1,9 °C 94 % 1024,7 hPa 0,0 mm 0,5 km/h (0 Bft) S-SW 198 ° 0 min 0,000 mm 0,0 UV-I 0 W/m² -2,7 °C -1,9 °C 1,6 km/h (1 Bft)
08.03.2017 06:13 -1,9 °C -1,9 °C 94 % 1024,8 hPa 0,0 mm 0,3 km/h (0 Bft) S-SW 198 ° 0 min 0,000 mm 0,0 UV-I 0 W/m² -2,7 °C -1,9 °C 1,6 km/h (1 Bft)
08.03.2017 06:14 -1,8 °C -1,8 °C 94 % 1024,8 hPa 0,0 mm 1,8 km/h (1 Bft) S-SW 198 ° 0 min 0,000 mm 0,0 UV-I 0 W/m² -2,6 °C -1,8 °C 3,2 km/h (1 Bft)
08.03.2017 06:15 -1,8 °C -1,8 °C 94 % 1024,8 hPa 0,0 mm 2,3 km/h (1 Bft) S-SW 198 ° 0 min 0,000 mm 0,0 UV-I 0 W/m² -2,6 °C -1,8 °C 3,2 km/h (1 Bft)
08.03.2017 06:16 -1,8 °C -1,8 °C 94 % 1024,8 hPa 0,0 mm 2,1 km/h (1 Bft) S-SW 198 ° 0 min 0,000 mm 0,0 UV-I 0 W/m² -2,6 °C -1,8 °C 3,2 km/h (1 Bft)
08.03.2017 06:17 -1,8 °C -1,8 °C 94 % 1024,8 hPa 0,0 mm 2,1 km/h (1 Bft) S-SW 198 ° 0 min 0,000 mm 0,0 UV-I 0 W/m² -2,6 °C -1,8 °C 3,2 km/h (1 Bft)
08.03.2017 06:18 -1,8 °C -1,8 °C 94 % 1024,8 hPa 0,0 mm 1,6 km/h (1 Bft) S-SW 198 ° 0 min 0,000 mm 0,0 UV-I 0 W/m² -2,6 °C -1,8 °C 1,6 km/h (1 Bft)
08.03.2017 06:19 -1,8 °C -1,8 °C 94 % 1024,8 hPa 0,0 mm 1,3 km/h (1 Bft) S-SW 198 ° 0 min 0,000 mm 0,0 UV-I 0 W/m² -2,6 °C -1,8 °C 1,6 km/h (1 Bft)
08.03.2017 06:20 -1,8 °C -1,8 °C 94 % 1024,9 hPa 0,0 mm 0,8 km/h (0 Bft) S-SW 198 ° 0 min 0,000 mm 0,0 UV-I 0 W/m² -2,6 °C -1,8 °C 3,2 km/h (1 Bft)
08.03.2017 06:21 -1,8 °C -1,8 °C 94 % 1024,8 hPa 0,0 mm 0,4 km/h (0 Bft) S-SW 198 ° 0 min 0,000 mm 0,0 UV-I 0 W/m² -2,6 °C -1,8 °C 1,6 km/h (1 Bft)
08.03.2017 06:22 -1,8 °C -1,8 °C 94 % 1024,9 hPa 0,0 mm 1,8 km/h (1 Bft) S-SW 198 ° 0 min 0,000 mm 0,0 UV-I 0 W/m² -2,6 °C -1,8 °C 3,2 km/h (1 Bft)
08.03.2017 06:23 -1,8 °C -1,8 °C 94 % 1024,9 hPa 0,0 mm 1,7 km/h (1 Bft) S-SW 198 ° 0 min 0,000 mm 0,0 UV-I 0 W/m² -2,6 °C -1,8 °C 3,2 km/h (1 Bft)
08.03.2017 06:24 -1,9 °C -1,8 °C 94 % 1024,9 hPa 0,0 mm 0,8 km/h (0 Bft) S-SW 198 ° 0 min 0,000 mm 0,0 UV-I 0 W/m² -2,7 °C -1,9 °C 1,6 km/h (1 Bft)
08.03.2017 06:25 -2,0 °C -1,9 °C 94 % 1024,9 hPa 0,0 mm 0,1 km/h (0 Bft) S-SW 198 ° 0 min 0,000 mm 0,0 UV-I 0 W/m² -2,8 °C -2,0 °C 1,6 km/h (1 Bft)
08.03.2017 06:26 -2,0 °C -2,0 °C 94 % 1024,9 hPa 0,0 mm 0,9 km/h (0 Bft) S-SW 198 ° 0 min 0,000 mm 0,0 UV-I 0 W/m² -2,8 °C -2,0 °C 1,6 km/h (1 Bft)
08.03.2017 06:27 -1,9 °C -1,9 °C 94 % 1024,9 hPa 0,0 mm 0,8 km/h (0 Bft) S-SW 198 ° 0 min 0,000 mm 0,0 UV-I 0 W/m² -2,7 °C -1,9 °C 1,6 km/h (1 Bft)
08.03.2017 06:28 -1,9 °C -1,9 °C 94 % 1024,9 hPa 0,0 mm 0,0 km/h (0 Bft) S-SW 198 ° 0 min 0,000 mm 0,0 UV-I 0 W/m² -2,7 °C -1,9 °C 0,0 km/h (0 Bft)
08.03.2017 06:29 -1,9 °C -1,9 °C 94 % 1024,9 hPa 0,0 mm 0,0 km/h (0 Bft) S-SW 198 ° 0 min 0,000 mm 0,0 UV-I 0 W/m² -2,7 °C -1,9 °C 0,0 km/h (0 Bft)
08.03.2017 06:30 -1,8 °C -1,8 °C 94 % 1024,9 hPa 0,0 mm 0,0 km/h (0 Bft) S-SW 198 ° 0 min 0,000 mm 0,0 UV-I 0 W/m² -2,6 °C -1,8 °C 0,0 km/h (0 Bft)
08.03.2017 06:31 -1,8 °C -1,8 °C 94 % 1024,9 hPa 0,0 mm 0,0 km/h (0 Bft) S-SW 198 ° 0 min 0,000 mm 0,0 UV-I 0 W/m² -2,6 °C -1,8 °C 0,0 km/h (0 Bft)
08.03.2017 06:32 -1,8 °C -1,8 °C 94 % 1025,0 hPa 0,0 mm 0,0 km/h (0 Bft) S-SW 198 ° 0 min 0,000 mm 0,0 UV-I 0 W/m² -2,6 °C -1,8 °C 0,0 km/h (0 Bft)
08.03.2017 06:33 -1,8 °C -1,8 °C 94 % 1025,0 hPa 0,0 mm 0,0 km/h (0 Bft) S-SW 198 ° 0 min 0,000 mm 0,0 UV-I 0 W/m² -2,6 °C -1,8 °C 0,0 km/h (0 Bft)
08.03.2017 06:34 -1,8 °C -1,8 °C 94 % 1025,1 hPa 0,0 mm 0,0 km/h (0 Bft) S-SW 198 ° 0 min 0,000 mm 0,0 UV-I 0 W/m² -2,6 °C -1,8 °C 0,0 km/h (0 Bft)
08.03.2017 06:35 -1,8 °C -1,8 °C 94 % 1025,1 hPa 0,0 mm 0,0 km/h (0 Bft) S-SW 198 ° 0 min 0,000 mm 0,0 UV-I 0 W/m² -2,6 °C -1,8 °C 0,0 km/h (0 Bft)
08.03.2017 06:36 -1,8 °C -1,8 °C 94 % 1025,1 hPa 0,0 mm 0,0 km/h (0 Bft) S-SW 198 ° 0 min 0,000 mm 0,0 UV-I 0 W/m² -2,6 °C -1,8 °C 0,0 km/h (0 Bft)
08.03.2017 06:37 -1,8 °C -1,8 °C 94 % 1025,1 hPa 0,0 mm 0,0 km/h (0 Bft) S-SW 198 ° 0 min 0,000 mm 0,0 UV-I 0 W/m² -2,6 °C -1,8 °C 0,0 km/h (0 Bft)
08.03.2017 06:38 -1,8 °C -1,8 °C 94 % 1025,1 hPa 0,0 mm 0,0 km/h (0 Bft) S-SW 198 ° 0 min 0,000 mm 0,0 UV-I 0 W/m² -2,6 °C -1,8 °C 0,0 km/h (0 Bft)
08.03.2017 06:39 -1,8 °C -1,8 °C 94 % 1025,1 hPa 0,0 mm 0,0 km/h (0 Bft) S-SW 198 ° 0 min 0,000 mm 0,0 UV-I 0 W/m² -2,6 °C -1,8 °C 0,0 km/h (0 Bft)
08.03.2017 06:40 -1,7 °C -1,7 °C 94 % 1025,1 hPa 0,0 mm 0,0 km/h (0 Bft) S-SW 198 ° 0 min 0,000 mm 0,0 UV-I 0 W/m² -2,5 °C -1,7 °C 0,0 km/h (0 Bft)
08.03.2017 06:41 -1,8 °C -1,7 °C 94 % 1025,1 hPa 0,0 mm 0,0 km/h (0 Bft) S-SW 198 ° 0 min 0,000 mm 0,0 UV-I 0 W/m² -2,6 °C -1,8 °C 0,0 km/h (0 Bft)
08.03.2017 06:42 -1,7 °C -1,7 °C 94 % 1025,1 hPa 0,0 mm 0,0 km/h (0 Bft) S-SW 198 ° 0 min 0,000 mm 0,0 UV-I 0 W/m² -2,5 °C -1,7 °C 0,0 km/h (0 Bft)
08.03.2017 06:43 -1,7 °C -1,7 °C 93 % 1025,1 hPa 0,0 mm 2,4 km/h (1 Bft) S-SW 198 ° 0 min 0,000 mm 0,0 UV-I 0 W/m² -2,7 °C -1,7 °C 3,2 km/h (1 Bft)
08.03.2017 06:44 -1,7 °C -1,7 °C 93 % 1025,2 hPa 0,0 mm 3,4 km/h (1 Bft) S-SW 198 ° 0 min 0,000 mm 0,0 UV-I 0 W/m² -2,7 °C -1,7 °C 4,8 km/h (1 Bft)
08.03.2017 06:45 -1,7 °C -1,7 °C 93 % 1025,2 hPa 0,0 mm 2,5 km/h (1 Bft) S-SW 198 ° 0 min 0,000 mm 0,0 UV-I 0 W/m² -2,7 °C -1,7 °C 3,2 km/h (1 Bft)
08.03.2017 06:46 -1,7 °C -1,7 °C 94 % 1025,3 hPa 0,0 mm 2,7 km/h (1 Bft) S-SW 198 ° 0 min 0,000 mm 0,0 UV-I 0 W/m² -2,5 °C -1,7 °C 3,2 km/h (1 Bft)
08.03.2017 06:47 -1,7 °C -1,6 °C 93 % 1025,3 hPa 0,0 mm 3,5 km/h (1 Bft) S-SW 198 ° 0 min 0,000 mm 0,0 UV-I 5 W/m² -2,7 °C -1,7 °C 4,8 km/h (1 Bft)
08.03.2017 06:48 -1,8 °C -1,7 °C 94 % 1025,2 hPa 0,0 mm 3,3 km/h (1 Bft) S 175 ° 0 min 0,000 mm 0,0 UV-I 5 W/m² -2,6 °C -1,8 °C 4,8 km/h (1 Bft)
08.03.2017 06:49 -1,8 °C -1,7 °C 93 % 1025,2 hPa 0,0 mm 3,4 km/h (1 Bft) S 175 ° 0 min 0,000 mm 0,0 UV-I 5 W/m² -2,8 °C -1,8 °C 4,8 km/h (1 Bft)
08.03.2017 06:50 -1,8 °C -1,8 °C 93 % 1025,3 hPa 0,0 mm 2,1 km/h (1 Bft) S 175 ° 0 min 0,000 mm 0,0 UV-I 5 W/m² -2,8 °C -1,8 °C 3,2 km/h (1 Bft)
08.03.2017 06:51 -1,9 °C -1,8 °C 93 % 1025,3 hPa 0,0 mm 2,3 km/h (1 Bft) S 175 ° 0 min 0,000 mm 0,0 UV-I 7 W/m² -2,9 °C -1,9 °C 3,2 km/h (1 Bft)
08.03.2017 06:52 -1,9 °C -1,9 °C 93 % 1025,2 hPa 0,0 mm 2,7 km/h (1 Bft) S 175 ° 0 min 0,000 mm 0,0 UV-I 7 W/m² -2,9 °C -1,9 °C 3,2 km/h (1 Bft)
08.03.2017 06:53 -2,0 °C -1,9 °C 93 % 1025,2 hPa 0,0 mm 3,2 km/h (1 Bft) S 175 ° 0 min 0,000 mm 0,0 UV-I 7 W/m² -3,0 °C -2,0 °C 3,2 km/h (1 Bft)
08.03.2017 06:54 -1,9 °C -1,9 °C 93 % 1025,2 hPa 0,0 mm 3,8 km/h (1 Bft) S 175 ° 0 min 0,000 mm 0,0 UV-I 7 W/m² -2,9 °C -1,9 °C 4,8 km/h (1 Bft)
08.03.2017 06:55 -1,9 °C -1,9 °C 94 % 1025,3 hPa 0,0 mm 3,0 km/h (1 Bft) S 175 ° 0 min 0,000 mm 0,0 UV-I 9 W/m² -2,7 °C -1,9 °C 3,2 km/h (1 Bft)
08.03.2017 06:56 -1,8 °C -1,8 °C 94 % 1025,3 hPa 0,0 mm 3,1 km/h (1 Bft) S 175 ° 0 min 0,000 mm 0,0 UV-I 9 W/m² -2,6 °C -1,8 °C 4,8 km/h (1 Bft)
08.03.2017 06:57 -1,8 °C -1,8 °C 93 % 1025,3 hPa 0,0 mm 3,3 km/h (1 Bft) S 175 ° 0 min 0,000 mm 0,0 UV-I 9 W/m² -2,8 °C -1,8 °C 4,8 km/h (1 Bft)
08.03.2017 06:58 -1,8 °C -1,8 °C 93 % 1025,3 hPa 0,0 mm 3,0 km/h (1 Bft) S 175 ° 0 min 0,000 mm 0,0 UV-I 11 W/m² -2,8 °C -1,8 °C 4,8 km/h (1 Bft)
08.03.2017 06:59 -1,8 °C -1,8 °C 93 % 1025,3 hPa 0,0 mm 3,4 km/h (1 Bft) S 175 ° 0 min 0,000 mm 0,0 UV-I 11 W/m² -2,8 °C -1,8 °C 4,8 km/h (1 Bft)
08.03.2017 07:00 -1,7 °C -1,7 °C 93 % 1025,3 hPa 0,0 mm 3,0 km/h (1 Bft) S 175 ° 0 min 0,000 mm 0,0 UV-I 11 W/m² -2,7 °C -1,7 °C 3,2 km/h (1 Bft)
08.03.2017 07:01 -1,7 °C -1,7 °C 93 % 1025,3 hPa 0,0 mm 2,7 km/h (1 Bft) S 175 ° 0 min 0,000 mm 0,0 UV-I 12 W/m² -2,7 °C -1,7 °C 4,8 km/h (1 Bft)
08.03.2017 07:02 -1,7 °C -1,7 °C 94 % 1025,3 hPa 0,0 mm 2,3 km/h (1 Bft) S 175 ° 0 min 0,000 mm 0,0 UV-I 12 W/m² -2,5 °C -1,7 °C 3,2 km/h (1 Bft)
08.03.2017 07:03 -1,6 °C -1,6 °C 94 % 1025,3 hPa 0,0 mm 2,8 km/h (1 Bft) S 175 ° 0 min 0,000 mm 0,0 UV-I 12 W/m² -2,4 °C -1,6 °C 3,2 km/h (1 Bft)
08.03.2017 07:04 -1,6 °C -1,6 °C 93 % 1025,3 hPa 0,0 mm 2,3 km/h (1 Bft) S 175 ° 0 min 0,000 mm 0,0 UV-I 14 W/m² -2,6 °C -1,6 °C 3,2 km/h (1 Bft)
08.03.2017 07:05 -1,6 °C -1,6 °C 93 % 1025,4 hPa 0,0 mm 1,9 km/h (1 Bft) S 175 ° 0 min 0,000 mm 0,0 UV-I 14 W/m² -2,6 °C -1,6 °C 3,2 km/h (1 Bft)
08.03.2017 07:06 -1,6 °C -1,6 °C 93 % 1025,4 hPa 0,0 mm 0,9 km/h (0 Bft) S 175 ° 0 min 0,000 mm 0,0 UV-I 14 W/m² -2,6 °C -1,6 °C 1,6 km/h (1 Bft)
08.03.2017 07:07 -1,6 °C -1,6 °C 93 % 1025,4 hPa 0,0 mm 0,0 km/h (0 Bft) S 175 ° 0 min 0,000 mm 0,0 UV-I 14 W/m² -2,6 °C -1,6 °C 0,0 km/h (0 Bft)
08.03.2017 07:08 -1,6 °C -1,6 °C 93 % 1025,4 hPa 0,0 mm 0,0 km/h (0 Bft) S 175 ° 0 min 0,000 mm 0,0 UV-I 16 W/m² -2,6 °C -1,6 °C 0,0 km/h (0 Bft)
08.03.2017 07:09 -1,6 °C -1,6 °C 93 % 1025,5 hPa 0,0 mm 0,0 km/h (0 Bft) S 175 ° 0 min 0,000 mm 0,0 UV-I 18 W/m² -2,6 °C -1,6 °C 0,0 km/h (0 Bft)
08.03.2017 07:10 -1,6 °C -1,6 °C 93 % 1025,5 hPa 0,0 mm 0,0 km/h (0 Bft) S 175 ° 0 min 0,000 mm 0,0 UV-I 18 W/m² -2,6 °C -1,6 °C 0,0 km/h (0 Bft)
08.03.2017 07:11 -1,7 °C -1,6 °C 93 % 1025,5 hPa 0,0 mm 0,0 km/h (0 Bft) S 175 ° 0 min 0,000 mm 0,0 UV-I 18 W/m² -2,7 °C -1,7 °C 0,0 km/h (0 Bft)
08.03.2017 07:12 -1,7 °C -1,7 °C 93 % 1025,5 hPa 0,0 mm 0,4 km/h (0 Bft) S 175 ° 0 min 0,000 mm 0,0 UV-I 19 W/m² -2,7 °C -1,7 °C 1,6 km/h (1 Bft)
08.03.2017 07:13 -1,8 °C -1,7 °C 93 % 1025,5 hPa 0,0 mm 4,7 km/h (1 Bft) S-SW 196 ° 0 min 0,000 mm 0,0 UV-I 19 W/m² -2,8 °C -3,5 °C 6,4 km/h (2 Bft)
08.03.2017 07:14 -1,8 °C -1,8 °C 93 % 1025,5 hPa 0,0 mm 2,3 km/h (1 Bft) S-SW 196 ° 0 min 0,000 mm 0,0 UV-I 21 W/m² -2,8 °C -1,8 °C 3,2 km/h (1 Bft)
08.03.2017 07:15 -1,8 °C -1,8 °C 93 % 1025,5 hPa 0,0 mm 3,1 km/h (1 Bft) S-SW 200 ° 0 min 0,000 mm 0,0 UV-I 21 W/m² -2,8 °C -1,8 °C 6,4 km/h (2 Bft)
08.03.2017 07:16 -1,8 °C -1,8 °C 93 % 1025,5 hPa 0,0 mm 5,4 km/h (1 Bft) S-SW 200 ° 0 min 0,000 mm 0,0 UV-I 23 W/m² -2,8 °C -3,8 °C 6,4 km/h (2 Bft)
08.03.2017 07:17 -1,9 °C -1,8 °C 93 % 1025,5 hPa 0,0 mm 5,4 km/h (1 Bft) S-SW 200 ° 0 min 0,000 mm 0,0 UV-I 25 W/m² -2,9 °C -3,9 °C 8,0 km/h (2 Bft)
08.03.2017 07:18 -1,9 °C -1,9 °C 93 % 1025,5 hPa 0,0 mm 2,8 km/h (1 Bft) S-SW 200 ° 0 min 0,000 mm 0,0 UV-I 25 W/m² -2,9 °C -1,9 °C 4,8 km/h (1 Bft)
08.03.2017 07:19 -1,8 °C -1,8 °C 93 % 1025,5 hPa 0,0 mm 1,6 km/h (1 Bft) S-SW 200 ° 0 min 0,000 mm 0,0 UV-I 26 W/m² -2,8 °C -1,8 °C 3,2 km/h (1 Bft)
08.03.2017 07:20 -1,8 °C -1,8 °C 93 % 1025,5 hPa 0,0 mm 7,5 km/h (2 Bft) S-SW 206 ° 0 min 0,000 mm 0,0 UV-I 26 W/m² -2,8 °C -4,7 °C 11,3 km/h (2 Bft)
08.03.2017 07:21 -1,9 °C -1,8 °C 93 % 1025,5 hPa 0,0 mm 7,6 km/h (2 Bft) S-SW 200 ° 0 min 0,000 mm 0,0 UV-I 28 W/m² -2,9 °C -4,8 °C 9,7 km/h (2 Bft)
08.03.2017 07:22 -1,9 °C -1,9 °C 93 % 1025,5 hPa 0,0 mm 7,3 km/h (2 Bft) S-SW 197 ° 0 min 0,000 mm 0,0 UV-I 28 W/m² -2,9 °C -4,7 °C 9,7 km/h (2 Bft)
08.03.2017 07:23 -1,9 °C -1,9 °C 93 % 1025,5 hPa 0,0 mm 7,8 km/h (2 Bft) S-SW 200 ° 0 min 0,000 mm 0,0 UV-I 30 W/m² -2,9 °C -4,9 °C 9,7 km/h (2 Bft)
08.03.2017 07:24 -1,9 °C -1,9 °C 93 % 1025,5 hPa 0,0 mm 7,7 km/h (2 Bft) S-SW 198 ° 0 min 0,000 mm 0,0 UV-I 30 W/m² -2,9 °C -4,9 °C 9,7 km/h (2 Bft)
08.03.2017 07:25 -1,8 °C -1,8 °C 93 % 1025,5 hPa 0,0 mm 5,2 km/h (1 Bft) S-SW 199 ° 0 min 0,000 mm 0,0 UV-I 32 W/m² -2,8 °C -3,7 °C 6,4 km/h (2 Bft)
08.03.2017 07:26 -1,8 °C -1,8 °C 93 % 1025,5 hPa 0,0 mm 5,6 km/h (1 Bft) S-SW 192 ° 0 min 0,000 mm 0,0 UV-I 32 W/m² -2,8 °C -3,9 °C 6,4 km/h (2 Bft)
08.03.2017 07:27 -1,8 °C -1,8 °C 93 % 1025,5 hPa 0,0 mm 4,1 km/h (1 Bft) S 182 ° 0 min 0,000 mm 0,0 UV-I 33 W/m² -2,8 °C -1,8 °C 6,4 km/h (2 Bft)
08.03.2017 07:28 -1,7 °C -1,7 °C 94 % 1025,5 hPa 0,0 mm 5,5 km/h (1 Bft) S-SW 198 ° 0 min 0,000 mm 0,0 UV-I 33 W/m² -2,5 °C -3,8 °C 8,0 km/h (2 Bft)
08.03.2017 07:29 -1,7 °C -1,7 °C 94 % 1025,5 hPa 0,0 mm 4,7 km/h (1 Bft) S-SW 201 ° 0 min 0,000 mm 0,0 UV-I 33 W/m² -2,5 °C -3,4 °C 6,4 km/h (2 Bft)
08.03.2017 07:30 -1,7 °C -1,7 °C 93 % 1025,5 hPa 0,0 mm 5,0 km/h (1 Bft) S-SW 205 ° 0 min 0,000 mm 0,0 UV-I 35 W/m² -2,7 °C -3,5 °C 6,4 km/h (2 Bft)
08.03.2017 07:31 -1,6 °C -1,6 °C 93 % 1025,5 hPa 0,0 mm 4,6 km/h (1 Bft) S-SW 204 ° 0 min 0,000 mm 0,0 UV-I 35 W/m² -2,6 °C -3,2 °C 8,0 km/h (2 Bft)
08.03.2017 07:32 -1,6 °C -1,6 °C 93 % 1025,5 hPa 0,0 mm 3,1 km/h (1 Bft) S 184 ° 0 min 0,000 mm 0,0 UV-I 37 W/m² -2,6 °C -1,6 °C 4,8 km/h (1 Bft)
08.03.2017 07:33 -1,6 °C -1,6 °C 93 % 1025,5 hPa 0,0 mm 4,8 km/h (1 Bft) S 190 ° 0 min 0,000 mm 0,0 UV-I 40 W/m² -2,6 °C -3,3 °C 6,4 km/h (2 Bft)
08.03.2017 07:34 -1,6 °C -1,6 °C 93 % 1025,5 hPa 0,0 mm 6,2 km/h (2 Bft) S-SW 201 ° 0 min 0,000 mm 0,0 UV-I 42 W/m² -2,6 °C -3,9 °C 8,0 km/h (2 Bft)
08.03.2017 07:35 -1,4 °C -1,4 °C 93 % 1025,5 hPa 0,0 mm 5,0 km/h (1 Bft) S-SW 207 ° 0 min 0,000 mm 0,0 UV-I 42 W/m² -2,4 °C -3,2 °C 6,4 km/h (2 Bft)
08.03.2017 07:36 -1,4 °C -1,4 °C 93 % 1025,5 hPa 0,0 mm 5,0 km/h (1 Bft) S 171 ° 0 min 0,000 mm 0,0 UV-I 42 W/m² -2,4 °C -3,2 °C 6,4 km/h (2 Bft)
08.03.2017 07:37 -1,4 °C -1,4 °C 93 % 1025,5 hPa 0,0 mm 4,3 km/h (1 Bft) S 170 ° 0 min 0,000 mm 0,0 UV-I 44 W/m² -2,4 °C -1,4 °C 6,4 km/h (2 Bft)
08.03.2017 07:38 -1,3 °C -1,3 °C 93 % 1025,5 hPa 0,0 mm 3,9 km/h (1 Bft) S 171 ° 0 min 0,000 mm 0,0 UV-I 46 W/m² -2,3 °C -1,3 °C 6,4 km/h (2 Bft)
08.03.2017 07:39 -1,3 °C -1,3 °C 93 % 1025,5 hPa 0,0 mm 2,3 km/h (1 Bft) S 170 ° 0 min 0,000 mm 0,0 UV-I 47 W/m² -2,3 °C -1,3 °C 6,4 km/h (2 Bft)
08.03.2017 07:40 -1,2 °C -1,2 °C 93 % 1025,5 hPa 0,0 mm 3,6 km/h (1 Bft) S-SW 192 ° 0 min 0,000 mm 0,0 UV-I 49 W/m² -2,2 °C -1,2 °C 6,4 km/h (2 Bft)
08.03.2017 07:41 -1,2 °C -1,2 °C 93 % 1025,4 hPa 0,0 mm 3,7 km/h (1 Bft) S-SO 165 ° 0 min 0,000 mm 0,0 UV-I 51 W/m² -2,2 °C -1,2 °C 8,0 km/h (2 Bft)
08.03.2017 07:42 -1,2 °C -1,2 °C 93 % 1025,5 hPa 0,0 mm 3,2 km/h (1 Bft) S-SO 165 ° 0 min 0,000 mm 0,0 UV-I 53 W/m² -2,2 °C -1,2 °C 6,4 km/h (2 Bft)
08.03.2017 07:43 -1,2 °C -1,2 °C 93 % 1025,6 hPa 0,0 mm 2,8 km/h (1 Bft) S-SO 165 ° 0 min 0,000 mm 0,0 UV-I 54 W/m² -2,2 °C -1,2 °C 3,2 km/h (1 Bft)
08.03.2017 07:44 -1,2 °C -1,2 °C 93 % 1025,4 hPa 0,0 mm 3,4 km/h (1 Bft) S-SO 165 ° 0 min 0,000 mm 0,0 UV-I 56 W/m² -2,2 °C -1,2 °C 6,4 km/h (2 Bft)
08.03.2017 07:45 -1,1 °C -1,1 °C 93 % 1025,4 hPa 0,0 mm 2,5 km/h (1 Bft) S-SO 165 ° 0 min 0,000 mm 0,0 UV-I 56 W/m² -2,1 °C -1,1 °C 3,2 km/h (1 Bft)
08.03.2017 07:46 -1,1 °C -1,1 °C 93 % 1025,5 hPa 0,0 mm 1,6 km/h (1 Bft) S-SO 165 ° 0 min 0,000 mm 0,0 UV-I 56 W/m² -2,1 °C -1,1 °C 3,2 km/h (1 Bft)
08.03.2017 07:47 -1,1 °C -1,1 °C 93 % 1025,5 hPa 0,0 mm 1,8 km/h (1 Bft) S-SO 165 ° 0 min 0,000 mm 0,0 UV-I 56 W/m² -2,1 °C -1,1 °C 3,2 km/h (1 Bft)
08.03.2017 07:48 -1,0 °C -1,0 °C 93 % 1025,5 hPa 0,0 mm 1,9 km/h (1 Bft) S-SO 165 ° 0 min 0,000 mm 0,0 UV-I 56 W/m² -2,0 °C -1,0 °C 3,2 km/h (1 Bft)
08.03.2017 07:49 -0,9 °C -0,9 °C 93 % 1025,5 hPa 0,0 mm 0,7 km/h (0 Bft) S-SO 165 ° 0 min 0,000 mm 0,0 UV-I 60 W/m² -1,9 °C -0,9 °C 3,2 km/h (1 Bft)
08.03.2017 07:50 -0,9 °C -0,9 °C 93 % 1025,5 hPa 0,0 mm 1,2 km/h (1 Bft) S-SO 165 ° 0 min 0,000 mm 0,0 UV-I 63 W/m² -1,9 °C -0,9 °C 3,2 km/h (1 Bft)
08.03.2017 07:51 -0,9 °C -0,9 °C 93 % 1025,6 hPa 0,0 mm 0,4 km/h (0 Bft) S-SO 165 ° 0 min 0,000 mm 0,0 UV-I 63 W/m² -1,9 °C -0,9 °C 3,2 km/h (1 Bft)
08.03.2017 07:52 -0,9 °C -0,9 °C 92 % 1025,6 hPa 0,0 mm 0,6 km/h (0 Bft) S-SO 165 ° 0 min 0,000 mm 0,0 UV-I 62 W/m² -2,0 °C -0,9 °C 1,6 km/h (1 Bft)
08.03.2017 07:53 -0,8 °C -0,8 °C 92 % 1025,6 hPa 0,0 mm 0,9 km/h (0 Bft) S-SO 165 ° 0 min 0,000 mm 0,0 UV-I 60 W/m² -1,9 °C -0,8 °C 1,6 km/h (1 Bft)
08.03.2017 07:54 -0,8 °C -0,8 °C 92 % 1025,6 hPa 0,0 mm 0,7 km/h (0 Bft) S-SO 165 ° 0 min 0,000 mm 0,0 UV-I 58 W/m² -1,9 °C -0,8 °C 3,2 km/h (1 Bft)
08.03.2017 07:55 -0,7 °C -0,7 °C 92 % 1025,6 hPa 0,0 mm 0,1 km/h (0 Bft) S-SO 165 ° 0 min 0,000 mm 0,0 UV-I 56 W/m² -1,8 °C -0,7 °C 1,6 km/h (1 Bft)
08.03.2017 07:56 -0,7 °C -0,7 °C 92 % 1025,7 hPa 0,0 mm 0,3 km/h (0 Bft) S-SO 165 ° 0 min 0,000 mm 0,0 UV-I 54 W/m² -1,8 °C -0,7 °C 1,6 km/h (1 Bft)
08.03.2017 07:57 -0,7 °C -0,7 °C 92 % 1025,7 hPa 0,0 mm 0,6 km/h (0 Bft) S-SO 165 ° 0 min 0,000 mm 0,0 UV-I 53 W/m² -1,8 °C -0,7 °C 1,6 km/h (1 Bft)
08.03.2017 07:58 -0,7 °C -0,7 °C 92 % 1025,7 hPa 0,0 mm 0,2 km/h (0 Bft) S-SO 165 ° 0 min 0,000 mm 0,0 UV-I 51 W/m² -1,8 °C -0,7 °C 1,6 km/h (1 Bft)
08.03.2017 07:59 -0,7 °C -0,7 °C 92 % 1025,7 hPa 0,0 mm 0,6 km/h (0 Bft) S-SO 165 ° 0 min 0,000 mm 0,0 UV-I 49 W/m² -1,8 °C -0,7 °C 1,6 km/h (1 Bft)
08.03.2017 08:00 -0,6 °C -0,6 °C 92 % 1025,7 hPa 0,0 mm 0,6 km/h (0 Bft) S-SO 165 ° 0 min 0,000 mm 0,0 UV-I 47 W/m² -1,7 °C -0,6 °C 1,6 km/h (1 Bft)
08.03.2017 08:01 -0,6 °C -0,6 °C 91 % 1025,7 hPa 0,0 mm 0,5 km/h (0 Bft) S-SO 165 ° 0 min 0,025 mm 0,0 UV-I 46 W/m² -1,9 °C -0,6 °C 1,6 km/h (1 Bft)
08.03.2017 08:02 -0,7 °C -0,6 °C 91 % 1025,8 hPa 0,0 mm 3,4 km/h (1 Bft) S-SO 165 ° 0 min 0,000 mm 0,0 UV-I 46 W/m² -2,0 °C -0,7 °C 6,4 km/h (2 Bft)
08.03.2017 08:03 -0,8 °C -0,7 °C 90 % 1025,7 hPa 0,0 mm 1,9 km/h (1 Bft) S-SO 165 ° 0 min 0,000 mm 0,0 UV-I 46 W/m² -2,2 °C -0,8 °C 3,2 km/h (1 Bft)
08.03.2017 08:04 -0,8 °C -0,8 °C 91 % 1025,7 hPa 0,0 mm 2,3 km/h (1 Bft) S-SO 165 ° 0 min 0,000 mm 0,0 UV-I 44 W/m² -2,1 °C -0,8 °C 3,2 km/h (1 Bft)
08.03.2017 08:05 -0,8 °C -0,8 °C 91 % 1025,7 hPa 0,0 mm 1,5 km/h (1 Bft) S-SO 165 ° 0 min 0,000 mm 0,0 UV-I 44 W/m² -2,1 °C -0,8 °C 3,2 km/h (1 Bft)
08.03.2017 08:06 -0,8 °C -0,8 °C 92 % 1025,8 hPa 0,0 mm 0,8 km/h (0 Bft) S-SO 165 ° 0 min 0,000 mm 0,0 UV-I 42 W/m² -1,9 °C -0,8 °C 1,6 km/h (1 Bft)
08.03.2017 08:07 -0,7 °C -0,7 °C 92 % 1025,7 hPa 0,0 mm 0,4 km/h (0 Bft) S-SO 165 ° 0 min 0,000 mm 0,0 UV-I 39 W/m² -1,8 °C -0,7 °C 1,6 km/h (1 Bft)
08.03.2017 08:08 -0,7 °C -0,7 °C 91 % 1025,7 hPa 0,0 mm 0,4 km/h (0 Bft) S-SO 165 ° 0 min 0,000 mm 0,0 UV-I 37 W/m² -2,0 °C -0,7 °C 1,6 km/h (1 Bft)
08.03.2017 08:09 -0,7 °C -0,7 °C 92 % 1025,7 hPa 0,0 mm 0,5 km/h (0 Bft) S-SO 165 ° 0 min 0,000 mm 0,0 UV-I 35 W/m² -1,8 °C -0,7 °C 1,6 km/h (1 Bft)
08.03.2017 08:10 -0,6 °C -0,6 °C 92 % 1025,7 hPa 0,0 mm 0,8 km/h (0 Bft) S-SO 165 ° 0 min 0,000 mm 0,0 UV-I 33 W/m² -1,7 °C -0,6 °C 1,6 km/h (1 Bft)
08.03.2017 08:11 -0,6 °C -0,6 °C 92 % 1025,7 hPa 0,0 mm 0,0 km/h (0 Bft) S-SO 165 ° 0 min 0,000 mm 0,0 UV-I 32 W/m² -1,7 °C -0,6 °C 0,0 km/h (0 Bft)
08.03.2017 08:12 -0,6 °C -0,6 °C 92 % 1025,7 hPa 0,0 mm 0,0 km/h (0 Bft) S-SO 165 ° 0 min 0,000 mm 0,0 UV-I 32 W/m² -1,7 °C -0,6 °C 0,0 km/h (0 Bft)
08.03.2017 08:13 -0,6 °C -0,6 °C 92 % 1025,7 hPa 0,0 mm 0,0 km/h (0 Bft) S-SO 165 ° 0 min 0,000 mm 0,0 UV-I 32 W/m² -1,7 °C -0,6 °C 0,0 km/h (0 Bft)
08.03.2017 08:14 -0,6 °C -0,6 °C 92 % 1025,7 hPa 0,0 mm 0,0 km/h (0 Bft) S-SO 165 ° 0 min 0,000 mm 0,0 UV-I 33 W/m² -1,7 °C -0,6 °C 0,0 km/h (0 Bft)
08.03.2017 08:15 -0,5 °C -0,5 °C 92 % 1025,7 hPa 0,0 mm 0,0 km/h (0 Bft) S-SO 165 ° 0 min 0,000 mm 0,0 UV-I 33 W/m² -1,6 °C -0,5 °C 0,0 km/h (0 Bft)
08.03.2017 08:16 -0,5 °C -0,5 °C 92 % 1025,7 hPa 0,0 mm 0,0 km/h (0 Bft) S-SO 165 ° 0 min 0,000 mm 0,0 UV-I 35 W/m² -1,6 °C -0,5 °C 0,0 km/h (0 Bft)
08.03.2017 08:17 -0,6 °C -0,5 °C 92 % 1025,7 hPa 0,0 mm 0,0 km/h (0 Bft) S-SO 165 ° 0 min 0,000 mm 0,0 UV-I 37 W/m² -1,7 °C -0,6 °C 0,0 km/h (0 Bft)
08.03.2017 08:18 -0,6 °C -0,6 °C 92 % 1025,7 hPa 0,0 mm 0,0 km/h (0 Bft) S-SO 165 ° 0 min 0,000 mm 0,0 UV-I 39 W/m² -1,7 °C -0,6 °C 0,0 km/h (0 Bft)
08.03.2017 08:19 -0,6 °C -0,6 °C 92 % 1025,7 hPa 0,0 mm 0,5 km/h (0 Bft) S-SO 165 ° 0 min 0,000 mm 0,0 UV-I 46 W/m² -1,7 °C -0,6 °C 1,6 km/h (1 Bft)
08.03.2017 08:20 -0,7 °C -0,6 °C 92 % 1025,7 hPa 0,0 mm 0,7 km/h (0 Bft) S-SO 165 ° 0 min 0,000 mm 0,0 UV-I 46 W/m² -1,8 °C -0,7 °C 1,6 km/h (1 Bft)
08.03.2017 08:21 -0,8 °C -0,7 °C 92 % 1025,7 hPa 0,0 mm 0,2 km/h (0 Bft) S-SO 165 ° 0 min 0,000 mm 0,0 UV-I 46 W/m² -1,9 °C -0,8 °C 1,6 km/h (1 Bft)
08.03.2017 08:22 -0,7 °C -0,7 °C 92 % 1025,7 hPa 0,0 mm 0,1 km/h (0 Bft) S-SO 165 ° 0 min 0,000 mm 0,0 UV-I 46 W/m² -1,8 °C -0,7 °C 1,6 km/h (1 Bft)
08.03.2017 08:23 -0,7 °C -0,7 °C 93 % 1025,7 hPa 0,0 mm 0,5 km/h (0 Bft) S-SO 165 ° 0 min 0,000 mm 0,0 UV-I 47 W/m² -1,7 °C -0,7 °C 1,6 km/h (1 Bft)
08.03.2017 08:24 -0,8 °C -0,7 °C 92 % 1025,7 hPa 0,0 mm 2,0 km/h (1 Bft) S-SO 168 ° 0 min 0,000 mm 0,0 UV-I 47 W/m² -1,9 °C -0,8 °C 4,8 km/h (1 Bft)
08.03.2017 08:25 -0,8 °C -0,8 °C 93 % 1025,7 hPa 0,0 mm 3,4 km/h (1 Bft) W-SW 247 ° 0 min 0,000 mm 0,0 UV-I 49 W/m² -1,8 °C -0,8 °C 4,8 km/h (1 Bft)
08.03.2017 08:26 -0,9 °C -0,8 °C 92 % 1025,7 hPa 0,0 mm 4,2 km/h (1 Bft) W-SW 247 ° 0 min 0,000 mm 0,0 UV-I 51 W/m² -2,0 °C -0,9 °C 4,8 km/h (1 Bft)
08.03.2017 08:27 -0,9 °C -0,9 °C 92 % 1025,6 hPa 0,0 mm 2,4 km/h (1 Bft) W-SW 247 ° 0 min 0,000 mm 0,0 UV-I 54 W/m² -2,0 °C -0,9 °C 4,8 km/h (1 Bft)
08.03.2017 08:28 -0,9 °C -0,9 °C 92 % 1025,6 hPa 0,0 mm 2,0 km/h (1 Bft) W-SW 247 ° 0 min 0,000 mm 0,5 UV-I 56 W/m² -2,0 °C -0,9 °C 3,2 km/h (1 Bft)
08.03.2017 08:29 -0,9 °C -0,9 °C 91 % 1025,6 hPa 0,0 mm 1,8 km/h (1 Bft) W-SW 247 ° 0 min 0,000 mm 0,5 UV-I 56 W/m² -2,2 °C -0,9 °C 3,2 km/h (1 Bft)
08.03.2017 08:30 -0,9 °C -0,9 °C 91 % 1025,6 hPa 0,0 mm 2,8 km/h (1 Bft) W-SW 247 ° 0 min 0,000 mm 0,5 UV-I 60 W/m² -2,2 °C -0,9 °C 3,2 km/h (1 Bft)
08.03.2017 08:31 -0,8 °C -0,8 °C 92 % 1025,5 hPa 0,0 mm 1,5 km/h (1 Bft) W-SW 247 ° 0 min 0,000 mm 0,5 UV-I 65 W/m² -1,9 °C -0,8 °C 3,2 km/h (1 Bft)
08.03.2017 08:32 -0,7 °C -0,7 °C 92 % 1025,5 hPa 0,0 mm 0,6 km/h (0 Bft) W-SW 247 ° 0 min 0,000 mm 0,5 UV-I 69 W/m² -1,8 °C -0,7 °C 1,6 km/h (1 Bft)
08.03.2017 08:33 -0,7 °C -0,6 °C 92 % 1025,5 hPa 0,0 mm 0,2 km/h (0 Bft) W-SW 247 ° 0 min 0,000 mm 0,5 UV-I 72 W/m² -1,8 °C -0,7 °C 1,6 km/h (1 Bft)
08.03.2017 08:34 -0,6 °C -0,6 °C 92 % 1025,4 hPa 0,0 mm 0,2 km/h (0 Bft) W-SW 247 ° 0 min 0,000 mm 0,5 UV-I 76 W/m² -1,7 °C -0,6 °C 1,6 km/h (1 Bft)
08.03.2017 08:35 -0,5 °C -0,5 °C 92 % 1025,4 hPa 0,0 mm 0,8 km/h (0 Bft) W-SW 247 ° 0 min 0,000 mm 0,5 UV-I 76 W/m² -1,6 °C -0,5 °C 3,2 km/h (1 Bft)
08.03.2017 08:36 -0,4 °C -0,4 °C 92 % 1025,4 hPa 0,0 mm 1,3 km/h (1 Bft) W-SW 247 ° 0 min 0,000 mm 0,5 UV-I 81 W/m² -1,5 °C -0,4 °C 3,2 km/h (1 Bft)
08.03.2017 08:37 -0,4 °C -0,4 °C 92 % 1025,5 hPa 0,0 mm 0,3 km/h (0 Bft) W-SW 247 ° 0 min 0,000 mm 0,5 UV-I 83 W/m² -1,5 °C -0,4 °C 1,6 km/h (1 Bft)
08.03.2017 08:38 -0,4 °C -0,4 °C 92 % 1025,4 hPa 0,0 mm 1,7 km/h (1 Bft) W-SW 247 ° 0 min 0,000 mm 0,5 UV-I 84 W/m² -1,5 °C -0,4 °C 3,2 km/h (1 Bft)
08.03.2017 08:39 -0,3 °C -0,3 °C 92 % 1025,4 hPa 0,0 mm 0,7 km/h (0 Bft) W-SW 247 ° 0 min 0,000 mm 0,6 UV-I 84 W/m² -1,4 °C -0,3 °C 3,2 km/h (1 Bft)
08.03.2017 08:40 -0,3 °C -0,3 °C 92 % 1025,4 hPa 0,0 mm 0,0 km/h (0 Bft) W-SW 247 ° 0 min 0,000 mm 0,6 UV-I 84 W/m² -1,4 °C -0,3 °C 0,0 km/h (0 Bft)
08.03.2017 08:41 -0,3 °C -0,3 °C 92 % 1025,4 hPa 0,0 mm 0,1 km/h (0 Bft) W-SW 247 ° 0 min 0,000 mm 0,6 UV-I 86 W/m² -1,4 °C -0,3 °C 1,6 km/h (1 Bft)
08.03.2017 08:42 -0,3 °C -0,3 °C 92 % 1025,4 hPa 0,0 mm 0,0 km/h (0 Bft) W-SW 247 ° 0 min 0,000 mm 0,6 UV-I 86 W/m² -1,4 °C -0,3 °C 0,0 km/h (0 Bft)
08.03.2017 08:43 -0,2 °C -0,2 °C 92 % 1025,4 hPa 0,0 mm 0,1 km/h (0 Bft) W-SW 247 ° 0 min 0,000 mm 0,6 UV-I 86 W/m² -1,3 °C -0,2 °C 1,6 km/h (1 Bft)
08.03.2017 08:44 -0,2 °C -0,2 °C 92 % 1025,4 hPa 0,0 mm 0,1 km/h (0 Bft) W-SW 247 ° 0 min 0,000 mm 0,6 UV-I 88 W/m² -1,3 °C -0,2 °C 1,6 km/h (1 Bft)
08.03.2017 08:45 -0,1 °C -0,1 °C 92 % 1025,4 hPa 0,0 mm 0,0 km/h (0 Bft) W-SW 247 ° 0 min 0,000 mm 0,6 UV-I 88 W/m² -1,2 °C -0,1 °C 0,0 km/h (0 Bft)
08.03.2017 08:46 -0,1 °C -0,1 °C 91 % 1025,4 hPa 0,0 mm 0,6 km/h (0 Bft) W-SW 247 ° 0 min 0,000 mm 0,6 UV-I 90 W/m² -1,4 °C -0,1 °C 1,6 km/h (1 Bft)
08.03.2017 08:47 0,0 °C 0,0 °C 91 % 1025,3 hPa 0,0 mm 0,5 km/h (0 Bft) W-SW 247 ° 0 min 0,000 mm 0,6 UV-I 91 W/m² -1,3 °C 0,0 °C 1,6 km/h (1 Bft)
08.03.2017 08:48 0,0 °C 0,0 °C 91 % 1025,4 hPa 0,0 mm 0,3 km/h (0 Bft) W-SW 247 ° 0 min 0,000 mm 0,6 UV-I 98 W/m² -1,3 °C 0,0 °C 1,6 km/h (1 Bft)
08.03.2017 08:49 0,0 °C 0,0 °C 91 % 1025,4 hPa 0,0 mm 0,0 km/h (0 Bft) W-SW 247 ° 0 min 0,000 mm 0,6 UV-I 100 W/m² -1,3 °C 0,0 °C 0,0 km/h (0 Bft)
08.03.2017 08:50 0,1 °C 0,1 °C 91 % 1025,4 hPa 0,0 mm 0,0 km/h (0 Bft) W-SW 247 ° 0 min 0,000 mm 0,6 UV-I 100 W/m² -1,2 °C 0,1 °C 0,0 km/h (0 Bft)
08.03.2017 08:51 0,1 °C 0,1 °C 91 % 1025,4 hPa 0,0 mm 0,0 km/h (0 Bft) W-SW 247 ° 0 min 0,000 mm 0,6 UV-I 102 W/m² -1,2 °C 0,1 °C 0,0 km/h (0 Bft)
08.03.2017 08:52 0,1 °C 0,2 °C 91 % 1025,3 hPa 0,0 mm 1,9 km/h (1 Bft) SO 138 ° 0 min 0,000 mm 0,6 UV-I 104 W/m² -1,2 °C 0,1 °C 4,8 km/h (1 Bft)
08.03.2017 08:53 0,2 °C 0,2 °C 91 % 1025,3 hPa 0,0 mm 1,2 km/h (1 Bft) SO 138 ° 0 min 0,000 mm 0,6 UV-I 105 W/m² -1,1 °C 0,2 °C 1,6 km/h (1 Bft)
08.03.2017 08:54 0,3 °C 0,3 °C 90 % 1025,3 hPa 0,0 mm 0,0 km/h (0 Bft) SO 138 ° 0 min 0,000 mm 0,6 UV-I 105 W/m² -1,1 °C 0,3 °C 0,0 km/h (0 Bft)
08.03.2017 08:55 0,3 °C 0,3 °C 90 % 1025,4 hPa 0,0 mm 0,1 km/h (0 Bft) SO 138 ° 0 min 0,000 mm 0,6 UV-I 120 W/m² -1,1 °C 0,3 °C 1,6 km/h (1 Bft)
08.03.2017 08:56 0,3 °C 0,3 °C 90 % 1025,4 hPa 0,0 mm 0,0 km/h (0 Bft) SO 138 ° 0 min 0,000 mm 0,7 UV-I 134 W/m² -1,1 °C 0,3 °C 0,0 km/h (0 Bft)
08.03.2017 08:57 0,3 °C 0,3 °C 90 % 1025,4 hPa 0,0 mm 0,0 km/h (0 Bft) SO 138 ° 0 min 0,000 mm 0,7 UV-I 142 W/m² -1,1 °C 0,3 °C 0,0 km/h (0 Bft)
08.03.2017 08:58 0,3 °C 0,3 °C 90 % 1025,4 hPa 0,0 mm 0,2 km/h (0 Bft) SO 138 ° 0 min 0,000 mm 0,7 UV-I 151 W/m² -1,1 °C 0,3 °C 1,6 km/h (1 Bft)
08.03.2017 08:59 0,4 °C 0,4 °C 90 % 1025,4 hPa 0,0 mm 0,2 km/h (0 Bft) SO 138 ° 0 min 0,000 mm 0,7 UV-I 160 W/m² -1,0 °C 0,4 °C 1,6 km/h (1 Bft)
08.03.2017 09:00 0,4 °C 0,4 °C 90 % 1025,4 hPa 0,0 mm 0,0 km/h (0 Bft) SO 138 ° 0 min 0,026 mm 0,8 UV-I 155 W/m² -1,0 °C 0,4 °C 0,0 km/h (0 Bft)
08.03.2017 09:01 0,4 °C 0,4 °C 90 % 1025,4 hPa 0,0 mm 0,0 km/h (0 Bft) SO 138 ° 0 min 0,000 mm 0,8 UV-I 139 W/m² -1,0 °C 0,4 °C 0,0 km/h (0 Bft)
08.03.2017 09:02 0,4 °C 0,4 °C 89 % 1025,4 hPa 0,0 mm 0,0 km/h (0 Bft) SO 138 ° 0 min 0,000 mm 0,8 UV-I 125 W/m² -1,2 °C 0,4 °C 0,0 km/h (0 Bft)
08.03.2017 09:03 0,4 °C 0,4 °C 89 % 1025,4 hPa 0,0 mm 0,0 km/h (0 Bft) SO 138 ° 0 min 0,000 mm 0,8 UV-I 118 W/m² -1,2 °C 0,4 °C 0,0 km/h (0 Bft)
08.03.2017 09:04 0,4 °C 0,4 °C 90 % 1025,4 hPa 0,0 mm 0,0 km/h (0 Bft) SO 138 ° 0 min 0,000 mm 0,7 UV-I 111 W/m² -1,0 °C 0,4 °C 0,0 km/h (0 Bft)
08.03.2017 09:05 0,4 °C 0,4 °C 90 % 1025,4 hPa 0,0 mm 0,0 km/h (0 Bft) SO 138 ° 0 min 0,000 mm 0,8 UV-I 116 W/m² -1,0 °C 0,4 °C 0,0 km/h (0 Bft)
08.03.2017 09:06 0,4 °C 0,4 °C 89 % 1025,4 hPa 0,0 mm 0,3 km/h (0 Bft) SO 138 ° 0 min 0,000 mm 0,8 UV-I 113 W/m² -1,2 °C 0,4 °C 1,6 km/h (1 Bft)
08.03.2017 09:07 0,5 °C 0,5 °C 89 % 1025,4 hPa 0,0 mm 0,0 km/h (0 Bft) SO 138 ° 0 min 0,000 mm 0,8 UV-I 118 W/m² -1,1 °C 0,5 °C 0,0 km/h (0 Bft)
08.03.2017 09:08 0,5 °C 0,5 °C 89 % 1025,4 hPa 0,0 mm 0,0 km/h (0 Bft) SO 138 ° 0 min 0,000 mm 0,8 UV-I 127 W/m² -1,1 °C 0,5 °C 0,0 km/h (0 Bft)
08.03.2017 09:09 0,4 °C 0,5 °C 89 % 1025,4 hPa 0,0 mm 0,3 km/h (0 Bft) SO 138 ° 0 min 0,000 mm 0,8 UV-I 132 W/m² -1,2 °C 0,4 °C 1,6 km/h (1 Bft)
08.03.2017 09:10 0,4 °C 0,4 °C 90 % 1025,4 hPa 0,0 mm 0,1 km/h (0 Bft) SO 138 ° 0 min 0,000 mm 0,9 UV-I 139 W/m² -1,0 °C 0,4 °C 1,6 km/h (1 Bft)
08.03.2017 09:11 0,4 °C 0,4 °C 90 % 1025,4 hPa 0,0 mm 0,3 km/h (0 Bft) SO 138 ° 0 min 0,000 mm 0,9 UV-I 146 W/m² -1,0 °C 0,4 °C 1,6 km/h (1 Bft)
08.03.2017 09:12 0,3 °C 0,4 °C 91 % 1025,4 hPa 0,0 mm 1,2 km/h (1 Bft) SO 138 ° 0 min 0,000 mm 0,9 UV-I 155 W/m² -1,0 °C 0,3 °C 1,6 km/h (1 Bft)
08.03.2017 09:13 0,3 °C 0,3 °C 91 % 1025,4 hPa 0,0 mm 0,6 km/h (0 Bft) SO 138 ° 0 min 0,000 mm 1,0 UV-I 162 W/m² -1,0 °C 0,3 °C 3,2 km/h (1 Bft)
08.03.2017 09:14 0,3 °C 0,3 °C 91 % 1025,3 hPa 0,0 mm 0,5 km/h (0 Bft) SO 138 ° 0 min 0,000 mm 1,0 UV-I 167 W/m² -1,0 °C 0,3 °C 1,6 km/h (1 Bft)
08.03.2017 09:15 0,3 °C 0,3 °C 92 % 1025,3 hPa 0,0 mm 0,0 km/h (0 Bft) SO 138 ° 0 min 0,000 mm 1,0 UV-I 156 W/m² -0,8 °C 0,3 °C 0,0 km/h (0 Bft)
08.03.2017 09:16 0,3 °C 0,3 °C 92 % 1025,3 hPa 0,0 mm 0,0 km/h (0 Bft) SO 138 ° 0 min 0,000 mm 1,0 UV-I 137 W/m² -0,8 °C 0,3 °C 0,0 km/h (0 Bft)
08.03.2017 09:17 0,4 °C 0,4 °C 92 % 1025,3 hPa 0,0 mm 0,0 km/h (0 Bft) SO 138 ° 0 min 0,000 mm 0,9 UV-I 141 W/m² -0,7 °C 0,4 °C 0,0 km/h (0 Bft)
08.03.2017 09:18 0,3 °C 0,4 °C 92 % 1025,3 hPa 0,0 mm 0,0 km/h (0 Bft) SO 138 ° 0 min 0,000 mm 1,0 UV-I 155 W/m² -0,8 °C 0,3 °C 0,0 km/h (0 Bft)
08.03.2017 09:19 0,4 °C 0,4 °C 92 % 1025,4 hPa 0,0 mm 0,0 km/h (0 Bft) SO 138 ° 0 min 0,000 mm 1,0 UV-I 142 W/m² -0,7 °C 0,4 °C 0,0 km/h (0 Bft)
08.03.2017 09:20 0,4 °C 0,4 °C 91 % 1025,4 hPa 0,0 mm 0,0 km/h (0 Bft) SO 138 ° 0 min 0,000 mm 1,0 UV-I 144 W/m² -0,9 °C 0,4 °C 0,0 km/h (0 Bft)
08.03.2017 09:21 0,5 °C 0,5 °C 91 % 1025,4 hPa 0,0 mm 0,3 km/h (0 Bft) SO 138 ° 0 min 0,000 mm 1,0 UV-I 155 W/m² -0,8 °C 0,5 °C 1,6 km/h (1 Bft)
08.03.2017 09:22 0,6 °C 0,6 °C 90 % 1025,4 hPa 0,0 mm 0,0 km/h (0 Bft) SO 138 ° 0 min 0,000 mm 1,1 UV-I 172 W/m² -0,8 °C 0,6 °C 0,0 km/h (0 Bft)
08.03.2017 09:23 0,7 °C 0,7 °C 90 % 1025,5 hPa 0,0 mm 0,0 km/h (0 Bft) SO 138 ° 0 min 0,000 mm 1,2 UV-I 186 W/m² -0,7 °C 0,7 °C 0,0 km/h (0 Bft)
08.03.2017 09:24 0,8 °C 0,8 °C 89 % 1025,4 hPa 0,0 mm 0,1 km/h (0 Bft) SO 138 ° 0 min 0,000 mm 1,2 UV-I 199 W/m² -0,8 °C 0,8 °C 1,6 km/h (1 Bft)
08.03.2017 09:25 0,8 °C 0,8 °C 88 % 1025,4 hPa 0,0 mm 0,0 km/h (0 Bft) SO 138 ° 1 min 0,000 mm 1,3 UV-I 214 W/m² -1,0 °C 0,8 °C 0,0 km/h (0 Bft)
08.03.2017 09:26 0,9 °C 0,9 °C 88 % 1025,3 hPa 0,0 mm 0,0 km/h (0 Bft) SO 138 ° 1 min 0,000 mm 1,3 UV-I 225 W/m² -0,9 °C 0,9 °C 0,0 km/h (0 Bft)
08.03.2017 09:27 0,9 °C 0,9 °C 87 % 1025,3 hPa 0,0 mm 0,0 km/h (0 Bft) SO 138 ° 1 min 0,000 mm 1,3 UV-I 207 W/m² -1,0 °C 0,9 °C 0,0 km/h (0 Bft)
08.03.2017 09:28 1,0 °C 1,0 °C 88 % 1025,3 hPa 0,0 mm 0,0 km/h (0 Bft) SO 138 ° 0 min 0,000 mm 1,3 UV-I 181 W/m² -0,8 °C 1,0 °C 0,0 km/h (0 Bft)
08.03.2017 09:29 0,9 °C 1,0 °C 87 % 1025,3 hPa 0,0 mm 0,0 km/h (0 Bft) SO 138 ° 0 min 0,000 mm 1,2 UV-I 156 W/m² -1,0 °C 0,9 °C 0,0 km/h (0 Bft)
08.03.2017 09:30 1,0 °C 1,0 °C 87 % 1025,3 hPa 0,0 mm 0,1 km/h (0 Bft) SO 138 ° 1 min 0,000 mm 1,2 UV-I 218 W/m² -0,9 °C 1,0 °C 1,6 km/h (1 Bft)
08.03.2017 09:31 1,0 °C 1,0 °C 88 % 1025,3 hPa 0,0 mm 0,0 km/h (0 Bft) SO 138 ° 1 min 0,000 mm 1,5 UV-I 227 W/m² -0,8 °C 1,0 °C 0,0 km/h (0 Bft)
08.03.2017 09:32 0,9 °C 1,0 °C 87 % 1025,3 hPa 0,0 mm 0,0 km/h (0 Bft) SO 138 ° 1 min 0,000 mm 1,4 UV-I 214 W/m² -1,0 °C 0,9 °C 0,0 km/h (0 Bft)
08.03.2017 09:33 1,0 °C 1,0 °C 88 % 1025,3 hPa 0,0 mm 0,1 km/h (0 Bft) SO 138 ° 1 min 0,000 mm 1,4 UV-I 209 W/m² -0,8 °C 1,0 °C 1,6 km/h (1 Bft)
08.03.2017 09:34 1,0 °C 1,0 °C 89 % 1025,3 hPa 0,0 mm 0,2 km/h (0 Bft) SO 138 ° 1 min 0,000 mm 1,4 UV-I 207 W/m² -0,6 °C 1,0 °C 1,6 km/h (1 Bft)
08.03.2017 09:35 1,0 °C 1,0 °C 89 % 1025,3 hPa 0,0 mm 0,1 km/h (0 Bft) SO 138 ° 1 min 0,000 mm 1,4 UV-I 207 W/m² -0,6 °C 1,0 °C 1,6 km/h (1 Bft)
08.03.2017 09:36 1,0 °C 1,0 °C 89 % 1025,3 hPa 0,0 mm 1,5 km/h (1 Bft) SO 138 ° 1 min 0,000 mm 1,5 UV-I 211 W/m² -0,6 °C 1,0 °C 3,2 km/h (1 Bft)
08.03.2017 09:37 1,0 °C 1,0 °C 89 % 1025,3 hPa 0,2 mm 1,3 km/h (1 Bft) SO 138 ° 1 min 0,000 mm 1,4 UV-I 200 W/m² -0,6 °C 1,0 °C 1,6 km/h (1 Bft)
08.03.2017 09:38 1,1 °C 1,1 °C 89 % 1025,2 hPa 0,0 mm 0,5 km/h (0 Bft) SO 138 ° 1 min 0,000 mm 1,4 UV-I 211 W/m² -0,5 °C 1,1 °C 1,6 km/h (1 Bft)
08.03.2017 09:39 1,1 °C 1,1 °C 88 % 1025,2 hPa 0,0 mm 0,0 km/h (0 Bft) SO 138 ° 1 min 0,000 mm 1,5 UV-I 223 W/m² -0,7 °C 1,1 °C 0,0 km/h (0 Bft)
08.03.2017 09:40 1,1 °C 1,1 °C 88 % 1025,2 hPa 0,0 mm 0,0 km/h (0 Bft) SO 138 ° 1 min 0,000 mm 1,6 UV-I 244 W/m² -0,7 °C 1,1 °C 0,0 km/h (0 Bft)
08.03.2017 09:41 1,1 °C 1,2 °C 87 % 1025,2 hPa 0,0 mm 0,0 km/h (0 Bft) SO 138 ° 1 min 0,000 mm 1,5 UV-I 211 W/m² -0,8 °C 1,1 °C 0,0 km/h (0 Bft)
08.03.2017 09:42 1,1 °C 1,1 °C 87 % 1025,1 hPa 0,0 mm 0,0 km/h (0 Bft) SO 138 ° 1 min 0,000 mm 1,5 UV-I 230 W/m² -0,8 °C 1,1 °C 0,0 km/h (0 Bft)
08.03.2017 09:43 1,2 °C 1,2 °C 88 % 1025,2 hPa 0,0 mm 0,0 km/h (0 Bft) SO 138 ° 1 min 0,000 mm 1,5 UV-I 211 W/m² -0,6 °C 1,2 °C 0,0 km/h (0 Bft)
08.03.2017 09:44 1,3 °C 1,3 °C 88 % 1025,2 hPa 0,0 mm 0,4 km/h (0 Bft) SO 138 ° 0 min 0,000 mm 1,5 UV-I 167 W/m² -0,5 °C 1,3 °C 1,6 km/h (1 Bft)
08.03.2017 09:45 1,4 °C 1,4 °C 88 % 1025,2 hPa 0,0 mm 0,7 km/h (0 Bft) SO 138 ° 0 min 0,000 mm 1,4 UV-I 153 W/m² -0,4 °C 1,4 °C 1,6 km/h (1 Bft)
08.03.2017 09:46 1,4 °C 1,5 °C 88 % 1025,2 hPa 0,0 mm 0,2 km/h (0 Bft) SO 138 ° 0 min 0,000 mm 1,4 UV-I 186 W/m² -0,4 °C 1,4 °C 1,6 km/h (1 Bft)
08.03.2017 09:47 1,6 °C 1,6 °C 87 % 1025,2 hPa 0,0 mm 0,0 km/h (0 Bft) SO 138 ° 0 min 0,000 mm 1,5 UV-I 179 W/m² -0,3 °C 1,6 °C 0,0 km/h (0 Bft)
08.03.2017 09:48 1,6 °C 1,6 °C 87 % 1025,2 hPa 0,0 mm 0,3 km/h (0 Bft) SO 138 ° 0 min 0,000 mm 1,5 UV-I 199 W/m² -0,3 °C 1,6 °C 1,6 km/h (1 Bft)
08.03.2017 09:49 1,6 °C 1,6 °C 87 % 1025,2 hPa 0,0 mm 0,7 km/h (0 Bft) SO 138 ° 1 min 0,000 mm 1,6 UV-I 246 W/m² -0,3 °C 1,6 °C 1,6 km/h (1 Bft)
08.03.2017 09:50 1,7 °C 1,7 °C 87 % 1025,2 hPa 0,0 mm 0,0 km/h (0 Bft) SO 138 ° 1 min 0,000 mm 1,7 UV-I 243 W/m² -0,2 °C 1,7 °C 0,0 km/h (0 Bft)
08.03.2017 09:51 1,7 °C 1,7 °C 87 % 1025,2 hPa 0,0 mm 0,0 km/h (0 Bft) SO 138 ° 1 min 0,000 mm 1,7 UV-I 221 W/m² -0,2 °C 1,7 °C 0,0 km/h (0 Bft)
08.03.2017 09:52 1,7 °C 1,7 °C 87 % 1025,2 hPa 0,0 mm 0,0 km/h (0 Bft) SO 138 ° 1 min 0,000 mm 1,6 UV-I 227 W/m² -0,2 °C 1,7 °C 0,0 km/h (0 Bft)
08.03.2017 09:53 1,7 °C 1,8 °C 86 % 1025,2 hPa 0,0 mm 0,0 km/h (0 Bft) SO 138 ° 1 min 0,000 mm 1,7 UV-I 264 W/m² -0,4 °C 1,7 °C 0,0 km/h (0 Bft)
08.03.2017 09:54 1,8 °C 1,8 °C 86 % 1025,2 hPa 0,0 mm 0,0 km/h (0 Bft) SO 138 ° 1 min 0,000 mm 1,8 UV-I 257 W/m² -0,3 °C 1,8 °C 0,0 km/h (0 Bft)
08.03.2017 09:55 1,8 °C 1,8 °C 86 % 1025,2 hPa 0,0 mm 0,0 km/h (0 Bft) SO 138 ° 1 min 0,000 mm 1,8 UV-I 253 W/m² -0,3 °C 1,8 °C 0,0 km/h (0 Bft)
08.03.2017 09:56 1,8 °C 1,8 °C 86 % 1025,3 hPa 0,0 mm 0,0 km/h (0 Bft) SO 138 ° 1 min 0,000 mm 1,8 UV-I 265 W/m² -0,3 °C 1,8 °C 0,0 km/h (0 Bft)
08.03.2017 09:57 1,8 °C 1,8 °C 86 % 1025,2 hPa 0,0 mm 0,0 km/h (0 Bft) SO 138 ° 1 min 0,000 mm 1,9 UV-I 276 W/m² -0,3 °C 1,8 °C 0,0 km/h (0 Bft)
08.03.2017 09:58 1,9 °C 1,9 °C 86 % 1025,3 hPa 0,0 mm 0,0 km/h (0 Bft) SO 138 ° 1 min 0,000 mm 2,0 UV-I 276 W/m² -0,2 °C 1,9 °C 0,0 km/h (0 Bft)
08.03.2017 09:59 1,8 °C 1,9 °C 86 % 1025,3 hPa 0,0 mm 0,0 km/h (0 Bft) SO 138 ° 1 min 0,000 mm 2,0 UV-I 336 W/m² -0,3 °C 1,8 °C 0,0 km/h (0 Bft)
08.03.2017 10:00 1,9 °C 1,9 °C 86 % 1025,3 hPa 0,0 mm 0,0 km/h (0 Bft) SO 138 ° 1 min 0,076 mm 2,2 UV-I 383 W/m² -0,2 °C 1,9 °C 0,0 km/h (0 Bft)
08.03.2017 10:01 1,9 °C 1,9 °C 86 % 1025,3 hPa 0,0 mm 0,0 km/h (0 Bft) SO 138 ° 1 min 0,000 mm 2,3 UV-I 406 W/m² -0,2 °C 1,9 °C 0,0 km/h (0 Bft)
08.03.2017 10:02 1,9 °C 1,9 °C 85 % 1025,3 hPa 0,0 mm 0,0 km/h (0 Bft) SO 138 ° 1 min 0,000 mm 2,3 UV-I 424 W/m² -0,3 °C 1,9 °C 0,0 km/h (0 Bft)
08.03.2017 10:03 1,9 °C 1,9 °C 85 % 1025,3 hPa 0,0 mm 0,0 km/h (0 Bft) SO 138 ° 1 min 0,000 mm 2,3 UV-I 420 W/m² -0,3 °C 1,9 °C 0,0 km/h (0 Bft)
08.03.2017 10:04 1,8 °C 1,9 °C 83 % 1025,3 hPa 0,2 mm 0,0 km/h (0 Bft) SO 138 ° 1 min 0,000 mm 2,3 UV-I 415 W/m² -0,8 °C 1,8 °C 0,0 km/h (0 Bft)
08.03.2017 10:05 1,8 °C 1,8 °C 84 % 1025,3 hPa 0,0 mm 0,0 km/h (0 Bft) SO 138 ° 1 min 0,000 mm 2,3 UV-I 367 W/m² -0,6 °C 1,8 °C 0,0 km/h (0 Bft)
08.03.2017 10:06 1,8 °C 1,8 °C 85 % 1025,4 hPa 0,0 mm 0,0 km/h (0 Bft) SO 138 ° 1 min 0,000 mm 2,2 UV-I 346 W/m² -0,4 °C 1,8 °C 0,0 km/h (0 Bft)
08.03.2017 10:07 1,8 °C 1,8 °C 85 % 1025,4 hPa 0,0 mm 0,0 km/h (0 Bft) SO 138 ° 1 min 0,000 mm 2,2 UV-I 362 W/m² -0,4 °C 1,8 °C 0,0 km/h (0 Bft)
08.03.2017 10:08 1,8 °C 1,8 °C 85 % 1025,4 hPa 0,0 mm 0,0 km/h (0 Bft) SO 138 ° 1 min 0,000 mm 2,3 UV-I 394 W/m² -0,4 °C 1,8 °C 0,0 km/h (0 Bft)
08.03.2017 10:09 1,8 °C 1,8 °C 85 % 1025,4 hPa 0,0 mm 0,0 km/h (0 Bft) SO 138 ° 1 min 0,000 mm 2,4 UV-I 415 W/m² -0,4 °C 1,8 °C 0,0 km/h (0 Bft)
08.03.2017 10:10 1,8 °C 1,8 °C 85 % 1025,4 hPa 0,2 mm 0,0 km/h (0 Bft) SO 138 ° 1 min 0,000 mm 2,5 UV-I 450 W/m² -0,4 °C 1,8 °C 0,0 km/h (0 Bft)
08.03.2017 10:11 1,9 °C 1,9 °C 85 % 1025,5 hPa 0,0 mm 0,0 km/h (0 Bft) SO 138 ° 1 min 0,000 mm 2,5 UV-I 443 W/m² -0,3 °C 1,9 °C 0,0 km/h (0 Bft)
08.03.2017 10:12 1,9 °C 1,9 °C 85 % 1025,5 hPa 0,0 mm 0,0 km/h (0 Bft) SO 138 ° 1 min 0,000 mm 2,5 UV-I 443 W/m² -0,3 °C 1,9 °C 0,0 km/h (0 Bft)
08.03.2017 10:13 1,9 °C 1,9 °C 85 % 1025,5 hPa 0,0 mm 0,0 km/h (0 Bft) SO 138 ° 1 min 0,000 mm 2,5 UV-I 445 W/m² -0,3 °C 1,9 °C 0,0 km/h (0 Bft)
08.03.2017 10:14 2,1 °C 2,1 °C 84 % 1025,5 hPa 0,0 mm 0,0 km/h (0 Bft) SO 138 ° 1 min 0,000 mm 2,5 UV-I 445 W/m² -0,3 °C 2,1 °C 0,0 km/h (0 Bft)
08.03.2017 10:15 2,1 °C 2,1 °C 84 % 1025,4 hPa 0,0 mm 0,0 km/h (0 Bft) SO 138 ° 1 min 0,000 mm 2,5 UV-I 438 W/m² -0,3 °C 2,1 °C 0,0 km/h (0 Bft)
08.03.2017 10:16 2,2 °C 2,2 °C 83 % 1025,4 hPa 0,2 mm 0,0 km/h (0 Bft) SO 138 ° 1 min 0,000 mm 2,5 UV-I 446 W/m² -0,4 °C 2,2 °C 0,0 km/h (0 Bft)
08.03.2017 10:17 2,2 °C 2,2 °C 83 % 1025,3 hPa 0,0 mm 0,0 km/h (0 Bft) SO 138 ° 1 min 0,000 mm 2,6 UV-I 457 W/m² -0,4 °C 2,2 °C 0,0 km/h (0 Bft)
08.03.2017 10:18 2,2 °C 2,2 °C 85 % 1025,3 hPa 0,0 mm 0,0 km/h (0 Bft) SO 138 ° 1 min 0,000 mm 2,6 UV-I 461 W/m² -0,1 °C 2,2 °C 0,0 km/h (0 Bft)
08.03.2017 10:19 2,2 °C 2,2 °C 86 % 1025,3 hPa 0,0 mm 0,0 km/h (0 Bft) SO 138 ° 1 min 0,000 mm 2,6 UV-I 464 W/m² 0,1 °C 2,2 °C 0,0 km/h (0 Bft)
08.03.2017 10:20 2,2 °C 2,2 °C 87 % 1025,3 hPa 0,0 mm 0,0 km/h (0 Bft) SO 138 ° 1 min 0,000 mm 2,7 UV-I 476 W/m² 0,3 °C 2,2 °C 0,0 km/h (0 Bft)
08.03.2017 10:21 2,3 °C 2,3 °C 86 % 1025,3 hPa 0,0 mm 0,0 km/h (0 Bft) SO 138 ° 1 min 0,000 mm 2,7 UV-I 480 W/m² 0,2 °C 2,3 °C 0,0 km/h (0 Bft)
08.03.2017 10:22 2,4 °C 2,4 °C 84 % 1025,3 hPa 0,0 mm 0,0 km/h (0 Bft) SO 138 ° 1 min 0,000 mm 2,7 UV-I 489 W/m² -0,0 °C 2,4 °C 0,0 km/h (0 Bft)
08.03.2017 10:23 2,6 °C 2,6 °C 84 % 1025,3 hPa 0,2 mm 0,0 km/h (0 Bft) SO 138 ° 1 min 0,000 mm 2,7 UV-I 469 W/m² 0,2 °C 2,6 °C 0,0 km/h (0 Bft)
08.03.2017 10:24 2,7 °C 2,7 °C 83 % 1025,3 hPa 0,0 mm 0,0 km/h (0 Bft) SO 138 ° 1 min 0,000 mm 2,6 UV-I 475 W/m² 0,1 °C 2,7 °C 0,0 km/h (0 Bft)
08.03.2017 10:25 2,7 °C 2,7 °C 82 % 1025,2 hPa 0,0 mm 0,0 km/h (0 Bft) SO 138 ° 1 min 0,000 mm 2,6 UV-I 461 W/m² -0,1 °C 2,7 °C 0,0 km/h (0 Bft)
08.03.2017 10:26 2,8 °C 2,8 °C 81 % 1025,2 hPa 0,0 mm 0,0 km/h (0 Bft) SO 138 ° 1 min 0,000 mm 2,5 UV-I 438 W/m² -0,1 °C 2,8 °C 0,0 km/h (0 Bft)
08.03.2017 10:27 2,8 °C 2,8 °C 81 % 1025,2 hPa 0,0 mm 0,0 km/h (0 Bft) SO 138 ° 1 min 0,000 mm 2,4 UV-I 415 W/m² -0,1 °C 2,8 °C 0,0 km/h (0 Bft)
08.03.2017 10:28 2,8 °C 2,8 °C 81 % 1025,2 hPa 0,2 mm 0,0 km/h (0 Bft) SO 138 ° 1 min 0,000 mm 2,4 UV-I 353 W/m² -0,1 °C 2,8 °C 0,0 km/h (0 Bft)
08.03.2017 10:29 2,8 °C 2,8 °C 82 % 1025,2 hPa 0,0 mm 0,0 km/h (0 Bft) SO 138 ° 1 min 0,000 mm 2,3 UV-I 348 W/m² 0,0 °C 2,8 °C 0,0 km/h (0 Bft)
08.03.2017 10:30 2,8 °C 2,8 °C 81 % 1025,1 hPa 0,0 mm 0,0 km/h (0 Bft) SO 138 ° 1 min 0,000 mm 2,3 UV-I 355 W/m² -0,1 °C 2,8 °C 0,0 km/h (0 Bft)
08.03.2017 10:31 2,8 °C 2,8 °C 81 % 1025,1 hPa 0,0 mm 0,0 km/h (0 Bft) SO 138 ° 1 min 0,000 mm 2,4 UV-I 369 W/m² -0,1 °C 2,8 °C 0,0 km/h (0 Bft)
08.03.2017 10:32 2,8 °C 2,8 °C 81 % 1025,2 hPa 0,0 mm 0,0 km/h (0 Bft) SO 138 ° 1 min 0,000 mm 2,4 UV-I 367 W/m² -0,1 °C 2,8 °C 0,0 km/h (0 Bft)
08.03.2017 10:33 2,8 °C 2,8 °C 81 % 1025,1 hPa 0,0 mm 0,0 km/h (0 Bft) SO 138 ° 1 min 0,000 mm 2,4 UV-I 383 W/m² -0,1 °C 2,8 °C 0,0 km/h (0 Bft)
08.03.2017 10:34 2,8 °C 2,8 °C 80 % 1025,1 hPa 0,0 mm 0,0 km/h (0 Bft) SO 138 ° 1 min 0,000 mm 2,4 UV-I 424 W/m² -0,3 °C 2,8 °C 0,0 km/h (0 Bft)
08.03.2017 10:35 2,8 °C 2,8 °C 80 % 1025,1 hPa 0,2 mm 0,0 km/h (0 Bft) SO 138 ° 1 min 0,000 mm 2,5 UV-I 413 W/m² -0,3 °C 2,8 °C 0,0 km/h (0 Bft)
08.03.2017 10:36 2,8 °C 2,8 °C 80 % 1025,1 hPa 0,0 mm 0,0 km/h (0 Bft) SO 138 ° 1 min 0,000 mm 2,5 UV-I 418 W/m² -0,3 °C 2,8 °C 0,0 km/h (0 Bft)
08.03.2017 10:37 2,9 °C 2,9 °C 79 % 1025,1 hPa 0,0 mm 0,0 km/h (0 Bft) SO 138 ° 1 min 0,000 mm 2,4 UV-I 381 W/m² -0,4 °C 2,9 °C 0,0 km/h (0 Bft)
08.03.2017 10:38 2,8 °C 2,9 °C 79 % 1025,0 hPa 0,0 mm 0,0 km/h (0 Bft) SO 138 ° 1 min 0,000 mm 2,5 UV-I 399 W/m² -0,5 °C 2,8 °C 0,0 km/h (0 Bft)
08.03.2017 10:39 2,8 °C 2,8 °C 79 % 1025,0 hPa 0,0 mm 0,0 km/h (0 Bft) SO 138 ° 1 min 0,000 mm 2,5 UV-I 397 W/m² -0,5 °C 2,8 °C 0,0 km/h (0 Bft)
08.03.2017 10:40 2,8 °C 2,8 °C 79 % 1025,0 hPa 0,0 mm 0,0 km/h (0 Bft) SO 138 ° 1 min 0,000 mm 2,5 UV-I 408 W/m² -0,5 °C 2,8 °C 0,0 km/h (0 Bft)
08.03.2017 10:41 2,9 °C 2,9 °C 78 % 1025,0 hPa 0,0 mm 0,0 km/h (0 Bft) SO 138 ° 1 min 0,000 mm 2,5 UV-I 410 W/m² -0,5 °C 2,9 °C 0,0 km/h (0 Bft)
08.03.2017 10:42 2,9 °C 2,9 °C 79 % 1025,0 hPa 0,0 mm 0,0 km/h (0 Bft) SO 138 ° 1 min 0,000 mm 2,6 UV-I 418 W/m² -0,4 °C 2,9 °C 0,0 km/h (0 Bft)
08.03.2017 10:43 3,0 °C 3,0 °C 78 % 1025,0 hPa 0,0 mm 0,1 km/h (0 Bft) SO 138 ° 1 min 0,000 mm 2,6 UV-I 425 W/m² -0,5 °C 3,0 °C 1,6 km/h (1 Bft)
08.03.2017 10:44 3,2 °C 3,2 °C 77 % 1025,0 hPa 0,0 mm 2,6 km/h (1 Bft) SO 138 ° 1 min 0,000 mm 2,6 UV-I 434 W/m² -0,4 °C 3,2 °C 3,2 km/h (1 Bft)
08.03.2017 10:45 3,3 °C 3,3 °C 77 % 1024,9 hPa 0,2 mm 2,2 km/h (1 Bft) SO 139 ° 1 min 0,000 mm 2,5 UV-I 411 W/m² -0,3 °C 3,3 °C 3,2 km/h (1 Bft)
08.03.2017 10:46 3,3 °C 3,3 °C 76 % 1024,9 hPa 0,0 mm 1,3 km/h (1 Bft) SO 139 ° 1 min 0,000 mm 2,5 UV-I 411 W/m² -0,5 °C 3,3 °C 3,2 km/h (1 Bft)
08.03.2017 10:47 3,2 °C 3,3 °C 78 % 1025,0 hPa 0,0 mm 2,0 km/h (1 Bft) SO 139 ° 1 min 0,000 mm 2,7 UV-I 429 W/m² -0,3 °C 3,2 °C 3,2 km/h (1 Bft)
08.03.2017 10:48 3,2 °C 3,2 °C 79 % 1025,0 hPa 0,0 mm 2,3 km/h (1 Bft) SO 139 ° 1 min 0,000 mm 2,7 UV-I 450 W/m² -0,1 °C 3,2 °C 3,2 km/h (1 Bft)
08.03.2017 10:49 3,2 °C 3,2 °C 77 % 1025,0 hPa 0,0 mm 3,1 km/h (1 Bft) SO 139 ° 1 min 0,000 mm 2,8 UV-I 464 W/m² -0,4 °C 3,2 °C 4,8 km/h (1 Bft)
08.03.2017 10:50 3,3 °C 3,3 °C 76 % 1024,9 hPa 0,0 mm 3,8 km/h (1 Bft) SO 139 ° 1 min 0,000 mm 2,8 UV-I 475 W/m² -0,5 °C 3,3 °C 4,8 km/h (1 Bft)
08.03.2017 10:51 3,4 °C 3,4 °C 76 % 1024,9 hPa 0,0 mm 3,2 km/h (1 Bft) SO 139 ° 1 min 0,000 mm 2,9 UV-I 494 W/m² -0,4 °C 3,4 °C 4,8 km/h (1 Bft)
08.03.2017 10:52 3,5 °C 3,5 °C 76 % 1024,9 hPa 0,2 mm 3,6 km/h (1 Bft) SO 139 ° 1 min 0,000 mm 2,9 UV-I 512 W/m² -0,3 °C 3,5 °C 4,8 km/h (1 Bft)
08.03.2017 10:53 3,6 °C 3,6 °C 76 % 1024,9 hPa 0,0 mm 3,2 km/h (1 Bft) SO 139 ° 1 min 0,000 mm 2,9 UV-I 497 W/m² -0,2 °C 3,6 °C 4,8 km/h (1 Bft)
08.03.2017 10:54 3,6 °C 3,6 °C 75 % 1024,9 hPa 0,0 mm 1,9 km/h (1 Bft) SO 139 ° 1 min 0,000 mm 2,9 UV-I 492 W/m² -0,4 °C 3,6 °C 3,2 km/h (1 Bft)
08.03.2017 10:55 3,6 °C 3,6 °C 75 % 1024,9 hPa 0,0 mm 1,8 km/h (1 Bft) SO 139 ° 1 min 0,000 mm 2,9 UV-I 489 W/m² -0,4 °C 3,6 °C 3,2 km/h (1 Bft)
08.03.2017 10:56 3,6 °C 3,6 °C 75 % 1024,9 hPa 0,0 mm 2,0 km/h (1 Bft) SO 139 ° 1 min 0,000 mm 2,9 UV-I 494 W/m² -0,4 °C 3,6 °C 3,2 km/h (1 Bft)
08.03.2017 10:57 3,6 °C 3,6 °C 75 % 1024,9 hPa 0,0 mm 1,7 km/h (1 Bft) SO 139 ° 1 min 0,000 mm 2,9 UV-I 503 W/m² -0,4 °C 3,6 °C 3,2 km/h (1 Bft)
08.03.2017 10:58 3,4 °C 3,6 °C 76 % 1024,9 hPa 0,0 mm 1,9 km/h (1 Bft) SO 139 ° 1 min 0,000 mm 2,9 UV-I 497 W/m² -0,4 °C 3,4 °C 3,2 km/h (1 Bft)
08.03.2017 10:59 3,3 °C 3,4 °C 77 % 1024,8 hPa 0,0 mm 1,9 km/h (1 Bft) SO 139 ° 1 min 0,000 mm 2,8 UV-I 480 W/m² -0,3 °C 3,3 °C 3,2 km/h (1 Bft)
08.03.2017 11:00 3,3 °C 3,3 °C 78 % 1024,7 hPa 0,0 mm 0,3 km/h (0 Bft) SO 139 ° 1 min 0,000 mm 2,8 UV-I 483 W/m² -0,2 °C 3,3 °C 1,6 km/h (1 Bft)
08.03.2017 11:01 3,2 °C 3,3 °C 78 % 1024,7 hPa 0,2 mm 1,7 km/h (1 Bft) SO 139 ° 1 min 0,152 mm 2,8 UV-I 480 W/m² -0,3 °C 3,2 °C 3,2 km/h (1 Bft)
08.03.2017 11:02 3,2 °C 3,2 °C 79 % 1024,7 hPa 0,0 mm 1,5 km/h (1 Bft) SO 139 ° 1 min 0,000 mm 2,7 UV-I 452 W/m² -0,1 °C 3,2 °C 3,2 km/h (1 Bft)
08.03.2017 11:03 3,3 °C 3,3 °C 76 % 1024,7 hPa 0,0 mm 0,7 km/h (0 Bft) SO 139 ° 1 min 0,000 mm 2,8 UV-I 457 W/m² -0,5 °C 3,3 °C 1,6 km/h (1 Bft)
08.03.2017 11:04 3,4 °C 3,4 °C 76 % 1024,7 hPa 0,0 mm 2,9 km/h (1 Bft) O-NO 60 ° 1 min 0,000 mm 2,9 UV-I 475 W/m² -0,4 °C 3,4 °C 4,8 km/h (1 Bft)
08.03.2017 11:05 3,4 °C 3,4 °C 76 % 1024,7 hPa 0,0 mm 2,9 km/h (1 Bft) O-NO 60 ° 1 min 0,000 mm 2,9 UV-I 494 W/m² -0,4 °C 3,4 °C 4,8 km/h (1 Bft)
08.03.2017 11:06 3,5 °C 3,5 °C 77 % 1024,7 hPa 0,0 mm 1,4 km/h (1 Bft) O-NO 60 ° 1 min 0,000 mm 2,9 UV-I 499 W/m² -0,1 °C 3,5 °C 3,2 km/h (1 Bft)
08.03.2017 11:07 3,6 °C 3,6 °C 78 % 1024,7 hPa 0,0 mm 3,9 km/h (1 Bft) O-NO 61 ° 1 min 0,000 mm 2,9 UV-I 503 W/m² 0,1 °C 3,6 °C 4,8 km/h (1 Bft)
08.03.2017 11:08 3,6 °C 3,6 °C 77 % 1024,7 hPa 0,0 mm 3,0 km/h (1 Bft) O-NO 61 ° 1 min 0,000 mm 2,8 UV-I 448 W/m² -0,0 °C 3,6 °C 4,8 km/h (1 Bft)
08.03.2017 11:09 3,7 °C 3,7 °C 75 % 1024,7 hPa 0,0 mm 2,9 km/h (1 Bft) O-NO 61 ° 1 min 0,000 mm 2,7 UV-I 443 W/m² -0,3 °C 3,7 °C 4,8 km/h (1 Bft)
08.03.2017 11:10 3,7 °C 3,7 °C 78 % 1024,7 hPa 0,0 mm 2,8 km/h (1 Bft) O-NO 61 ° 1 min 0,000 mm 2,7 UV-I 436 W/m² 0,2 °C 3,7 °C 3,2 km/h (1 Bft)
08.03.2017 11:11 3,7 °C 3,7 °C 73 % 1024,7 hPa 0,2 mm 2,5 km/h (1 Bft) O-NO 61 ° 1 min 0,000 mm 2,6 UV-I 438 W/m² -0,7 °C 3,7 °C 4,8 km/h (1 Bft)
08.03.2017 11:12 3,8 °C 3,8 °C 73 % 1024,7 hPa 0,0 mm 2,5 km/h (1 Bft) O-NO 61 ° 1 min 0,000 mm 2,6 UV-I 406 W/m² -0,6 °C 3,8 °C 3,2 km/h (1 Bft)
08.03.2017 11:13 3,9 °C 3,9 °C 71 % 1024,6 hPa 0,0 mm 4,8 km/h (1 Bft) O-NO 61 ° 1 min 0,000 mm 2,5 UV-I 392 W/m² -0,9 °C 2,9 °C 6,4 km/h (2 Bft)
08.03.2017 11:14 3,9 °C 4,0 °C 72 % 1024,5 hPa 0,0 mm 4,4 km/h (1 Bft) O 80 ° 1 min 0,000 mm 2,5 UV-I 373 W/m² -0,7 °C 3,9 °C 4,8 km/h (1 Bft)
08.03.2017 11:15 3,8 °C 3,9 °C 73 % 1024,5 hPa 0,0 mm 3,4 km/h (1 Bft) O 80 ° 1 min 0,000 mm 2,6 UV-I 371 W/m² -0,6 °C 3,8 °C 4,8 km/h (1 Bft)
08.03.2017 11:16 3,8 °C 3,8 °C 73 % 1024,4 hPa 0,0 mm 3,6 km/h (1 Bft) O 80 ° 1 min 0,000 mm 2,6 UV-I 390 W/m² -0,6 °C 3,8 °C 4,8 km/h (1 Bft)
08.03.2017 11:17 3,8 °C 3,8 °C 72 % 1024,5 hPa 0,0 mm 3,8 km/h (1 Bft) O 80 ° 1 min 0,000 mm 2,6 UV-I 388 W/m² -0,8 °C 3,8 °C 4,8 km/h (1 Bft)
08.03.2017 11:18 3,9 °C 3,9 °C 76 % 1024,4 hPa 0,0 mm 3,3 km/h (1 Bft) O-NO 69 ° 1 min 0,000 mm 2,6 UV-I 417 W/m² 0,1 °C 3,9 °C 6,4 km/h (2 Bft)
08.03.2017 11:19 3,7 °C 3,9 °C 76 % 1024,4 hPa 0,0 mm 1,1 km/h (1 Bft) O-NO 69 ° 1 min 0,000 mm 2,6 UV-I 411 W/m² -0,1 °C 3,7 °C 3,2 km/h (1 Bft)
08.03.2017 11:20 3,7 °C 3,7 °C 76 % 1024,4 hPa 0,0 mm 3,5 km/h (1 Bft) O-NO 69 ° 1 min 0,000 mm 2,6 UV-I 408 W/m² -0,1 °C 3,7 °C 4,8 km/h (1 Bft)
08.03.2017 11:21 3,7 °C 3,7 °C 75 % 1024,3 hPa 0,0 mm 2,0 km/h (1 Bft) O-NO 69 ° 1 min 0,000 mm 2,7 UV-I 417 W/m² -0,3 °C 3,7 °C 3,2 km/h (1 Bft)
08.03.2017 11:22 3,6 °C 3,7 °C 77 % 1024,3 hPa 0,2 mm 1,7 km/h (1 Bft) O-NO 69 ° 1 min 0,000 mm 2,7 UV-I 438 W/m² -0,0 °C 3,6 °C 3,2 km/h (1 Bft)
08.03.2017 11:23 3,5 °C 3,6 °C 77 % 1024,4 hPa 0,0 mm 0,9 km/h (0 Bft) O-NO 69 ° 1 min 0,000 mm 2,6 UV-I 403 W/m² -0,1 °C 3,5 °C 1,6 km/h (1 Bft)
08.03.2017 11:24 3,4 °C 3,5 °C 78 % 1024,4 hPa 0,0 mm 0,3 km/h (0 Bft) O-NO 69 ° 1 min 0,000 mm 2,7 UV-I 406 W/m² -0,1 °C 3,4 °C 1,6 km/h (1 Bft)
08.03.2017 11:25 3,5 °C 3,5 °C 75 % 1024,3 hPa 0,0 mm 0,1 km/h (0 Bft) O-NO 69 ° 1 min 0,000 mm 2,7 UV-I 417 W/m² -0,5 °C 3,5 °C 1,6 km/h (1 Bft)
08.03.2017 11:26 3,5 °C 3,5 °C 75 % 1024,3 hPa 0,0 mm 0,2 km/h (0 Bft) O-NO 69 ° 1 min 0,000 mm 2,7 UV-I 422 W/m² -0,5 °C 3,5 °C 1,6 km/h (1 Bft)
08.03.2017 11:27 3,6 °C 3,6 °C 75 % 1024,3 hPa 0,0 mm 0,1 km/h (0 Bft) O-NO 69 ° 1 min 0,000 mm 2,7 UV-I 424 W/m² -0,4 °C 3,6 °C 1,6 km/h (1 Bft)
08.03.2017 11:28 3,7 °C 3,7 °C 75 % 1024,3 hPa 0,0 mm 0,1 km/h (0 Bft) O-NO 69 ° 1 min 0,000 mm 2,8 UV-I 424 W/m² -0,3 °C 3,7 °C 1,6 km/h (1 Bft)
08.03.2017 11:29 3,8 °C 3,8 °C 73 % 1024,3 hPa 0,0 mm 1,1 km/h (1 Bft) O-NO 69 ° 1 min 0,000 mm 2,8 UV-I 431 W/m² -0,6 °C 3,8 °C 1,6 km/h (1 Bft)
08.03.2017 11:30 3,8 °C 3,9 °C 72 % 1024,3 hPa 0,0 mm 0,5 km/h (0 Bft) O-NO 69 ° 1 min 0,000 mm 2,8 UV-I 450 W/m² -0,8 °C 3,8 °C 1,6 km/h (1 Bft)
08.03.2017 11:31 3,9 °C 3,9 °C 70 % 1024,2 hPa 0,0 mm 0,9 km/h (0 Bft) O-NO 69 ° 1 min 0,000 mm 2,9 UV-I 473 W/m² -1,1 °C 3,9 °C 1,6 km/h (1 Bft)
08.03.2017 11:32 3,8 °C 3,9 °C 75 % 1024,3 hPa 0,0 mm 1,2 km/h (1 Bft) O-NO 69 ° 1 min 0,000 mm 2,9 UV-I 476 W/m² -0,2 °C 3,8 °C 1,6 km/h (1 Bft)
08.03.2017 11:33 3,7 °C 3,8 °C 77 % 1024,2 hPa 0,0 mm 0,5 km/h (0 Bft) O-NO 69 ° 1 min 0,000 mm 3,0 UV-I 504 W/m² 0,1 °C 3,7 °C 1,6 km/h (1 Bft)
08.03.2017 11:34 3,7 °C 3,7 °C 75 % 1024,2 hPa 0,2 mm 0,6 km/h (0 Bft) O-NO 69 ° 1 min 0,000 mm 3,1 UV-I 508 W/m² -0,3 °C 3,7 °C 1,6 km/h (1 Bft)
08.03.2017 11:35 3,7 °C 3,7 °C 73 % 1024,1 hPa 0,0 mm 0,0 km/h (0 Bft) O-NO 69 ° 1 min 0,000 mm 3,1 UV-I 517 W/m² -0,7 °C 3,7 °C 0,0 km/h (0 Bft)
08.03.2017 11:36 3,8 °C 3,8 °C 73 % 1024,2 hPa 0,0 mm 0,3 km/h (0 Bft) O-NO 69 ° 1 min 0,000 mm 3,3 UV-I 555 W/m² -0,6 °C 3,8 °C 1,6 km/h (1 Bft)
08.03.2017 11:37 3,9 °C 3,9 °C 72 % 1024,2 hPa 0,0 mm 0,5 km/h (0 Bft) O-NO 69 ° 1 min 0,000 mm 3,3 UV-I 559 W/m² -0,7 °C 3,9 °C 1,6 km/h (1 Bft)
08.03.2017 11:38 4,2 °C 4,2 °C 73 % 1024,2 hPa 0,0 mm 0,6 km/h (0 Bft) O-NO 69 ° 1 min 0,000 mm 3,3 UV-I 564 W/m² -0,2 °C 4,2 °C 3,2 km/h (1 Bft)
08.03.2017 11:39 4,2 °C 4,2 °C 71 % 1024,2 hPa 0,0 mm 2,5 km/h (1 Bft) O-NO 69 ° 1 min 0,000 mm 3,3 UV-I 563 W/m² -0,6 °C 4,2 °C 4,8 km/h (1 Bft)
08.03.2017 11:40 4,2 °C 4,2 °C 72 % 1024,2 hPa 0,0 mm 0,6 km/h (0 Bft) O-NO 69 ° 1 min 0,000 mm 3,3 UV-I 531 W/m² -0,4 °C 4,2 °C 1,6 km/h (1 Bft)
08.03.2017 11:41 4,3 °C 4,3 °C 71 % 1024,2 hPa 0,0 mm 1,5 km/h (1 Bft) O-NO 69 ° 1 min 0,000 mm 3,3 UV-I 563 W/m² -0,5 °C 4,3 °C 3,2 km/h (1 Bft)
08.03.2017 11:42 4,3 °C 4,3 °C 72 % 1024,3 hPa 0,0 mm 3,1 km/h (1 Bft) O-NO 69 ° 1 min 0,000 mm 3,3 UV-I 547 W/m² -0,3 °C 4,3 °C 4,8 km/h (1 Bft)
08.03.2017 11:43 4,4 °C 4,4 °C 71 % 1024,2 hPa 0,0 mm 4,0 km/h (1 Bft) O-NO 67 ° 1 min 0,000 mm 3,3 UV-I 552 W/m² -0,4 °C 4,4 °C 4,8 km/h (1 Bft)
08.03.2017 11:44 4,5 °C 4,5 °C 71 % 1024,3 hPa 0,0 mm 3,6 km/h (1 Bft) O-NO 67 ° 1 min 0,000 mm 3,2 UV-I 534 W/m² -0,3 °C 4,5 °C 4,8 km/h (1 Bft)
08.03.2017 11:45 4,6 °C 4,6 °C 71 % 1024,2 hPa 0,0 mm 3,0 km/h (1 Bft) O-NO 67 ° 1 min 0,000 mm 3,2 UV-I 534 W/m² -0,2 °C 4,6 °C 3,2 km/h (1 Bft)
08.03.2017 11:46 4,7 °C 4,7 °C 71 % 1024,3 hPa 0,0 mm 2,9 km/h (1 Bft) O-NO 67 ° 1 min 0,000 mm 3,2 UV-I 534 W/m² -0,1 °C 4,7 °C 4,8 km/h (1 Bft)
08.03.2017 11:47 4,7 °C 4,7 °C 73 % 1024,2 hPa 0,0 mm 3,5 km/h (1 Bft) O-NO 67 ° 1 min 0,000 mm 3,3 UV-I 536 W/m² 0,3 °C 4,7 °C 4,8 km/h (1 Bft)
08.03.2017 11:48 4,6 °C 4,7 °C 73 % 1024,1 hPa 0,0 mm 1,5 km/h (1 Bft) O-NO 67 ° 1 min 0,000 mm 3,3 UV-I 548 W/m² 0,2 °C 4,6 °C 3,2 km/h (1 Bft)
08.03.2017 11:49 4,5 °C 4,6 °C 75 % 1024,1 hPa 0,0 mm 2,7 km/h (1 Bft) NO 42 ° 1 min 0,000 mm 3,3 UV-I 559 W/m² 0,5 °C 4,5 °C 4,8 km/h (1 Bft)
08.03.2017 11:50 4,5 °C 4,5 °C 74 % 1024,1 hPa 0,2 mm 1,1 km/h (1 Bft) NO 43 ° 1 min 0,000 mm 3,3 UV-I 564 W/m² 0,3 °C 4,5 °C 3,2 km/h (1 Bft)
08.03.2017 11:51 4,6 °C 4,6 °C 72 % 1024,1 hPa 0,0 mm 0,3 km/h (0 Bft) NO 43 ° 1 min 0,000 mm 3,4 UV-I 564 W/m² -0,0 °C 4,6 °C 1,6 km/h (1 Bft)
08.03.2017 11:52 4,6 °C 4,7 °C 72 % 1024,1 hPa 0,0 mm 1,2 km/h (1 Bft) NO 36 ° 1 min 0,000 mm 3,3 UV-I 563 W/m² -0,0 °C 4,6 °C 3,2 km/h (1 Bft)
08.03.2017 11:53 4,7 °C 4,7 °C 71 % 1024,2 hPa 0,0 mm 3,9 km/h (1 Bft) O-NO 67 ° 1 min 0,000 mm 3,3 UV-I 554 W/m² -0,1 °C 4,7 °C 6,4 km/h (2 Bft)
08.03.2017 11:54 4,8 °C 4,8 °C 73 % 1024,1 hPa 0,0 mm 3,5 km/h (1 Bft) O-NO 67 ° 1 min 0,000 mm 3,3 UV-I 548 W/m² 0,4 °C 4,8 °C 4,8 km/h (1 Bft)
08.03.2017 11:55 4,9 °C 4,9 °C 74 % 1024,1 hPa 0,0 mm 4,3 km/h (1 Bft) O-NO 72 ° 1 min 0,000 mm 3,3 UV-I 548 W/m² 0,7 °C 4,9 °C 6,4 km/h (2 Bft)
08.03.2017 11:56 4,8 °C 4,9 °C 71 % 1024,2 hPa 0,0 mm 2,9 km/h (1 Bft) O-NO 72 ° 1 min 0,000 mm 3,2 UV-I 522 W/m² -0,0 °C 4,8 °C 4,8 km/h (1 Bft)
08.03.2017 11:57 4,9 °C 4,9 °C 71 % 1024,2 hPa 0,0 mm 4,5 km/h (1 Bft) O-NO 60 ° 1 min 0,000 mm 3,1 UV-I 499 W/m² 0,1 °C 4,9 °C 6,4 km/h (2 Bft)
08.03.2017 11:58 4,9 °C 4,9 °C 72 % 1024,2 hPa 0,0 mm 6,0 km/h (2 Bft) NO 35 ° 1 min 0,000 mm 3,1 UV-I 497 W/m² 0,3 °C 3,6 °C 8,0 km/h (2 Bft)
08.03.2017 11:59 4,9 °C 4,9 °C 73 % 1024,2 hPa 0,0 mm 2,5 km/h (1 Bft) NO 39 ° 1 min 0,000 mm 3,1 UV-I 496 W/m² 0,5 °C 4,9 °C 4,8 km/h (1 Bft)
08.03.2017 12:00 5,0 °C 5,0 °C 72 % 1024,2 hPa 0,0 mm 2,1 km/h (1 Bft) O-NO 65 ° 1 min 0,000 mm 3,0 UV-I 478 W/m² 0,4 °C 5,0 °C 3,2 km/h (1 Bft)
08.03.2017 12:01 4,9 °C 5,0 °C 73 % 1024,2 hPa 0,0 mm 3,9 km/h (1 Bft) NO 55 ° 1 min 0,178 mm 3,0 UV-I 471 W/m² 0,5 °C 4,9 °C 4,8 km/h (1 Bft)
08.03.2017 12:02 5,0 °C 5,0 °C 72 % 1024,2 hPa 0,0 mm 4,3 km/h (1 Bft) O-NO 66 ° 1 min 0,000 mm 2,9 UV-I 461 W/m² 0,4 °C 5,0 °C 6,4 km/h (2 Bft)
08.03.2017 12:03 4,9 °C 5,0 °C 71 % 1024,1 hPa 0,0 mm 4,8 km/h (1 Bft) O 79 ° 1 min 0,000 mm 2,9 UV-I 459 W/m² 0,1 °C 4,0 °C 6,4 km/h (2 Bft)
08.03.2017 12:04 4,9 °C 5,0 °C 71 % 1024,2 hPa 0,0 mm 5,0 km/h (1 Bft) O-NO 75 ° 1 min 0,000 mm 2,9 UV-I 455 W/m² 0,1 °C 4,0 °C 8,0 km/h (2 Bft)
08.03.2017 12:05 4,9 °C 4,9 °C 74 % 1024,2 hPa 0,0 mm 2,6 km/h (1 Bft) O-SO 121 ° 1 min 0,000 mm 2,9 UV-I 454 W/m² 0,7 °C 4,9 °C 4,8 km/h (1 Bft)
08.03.2017 12:06 4,8 °C 4,9 °C 70 % 1024,1 hPa 0,0 mm 3,4 km/h (1 Bft) O-NO 71 ° 1 min 0,000 mm 2,9 UV-I 459 W/m² -0,2 °C 4,8 °C 6,4 km/h (2 Bft)
08.03.2017 12:07 4,8 °C 4,8 °C 71 % 1024,1 hPa 0,2 mm 6,9 km/h (2 Bft) O-NO 70 ° 1 min 0,000 mm 2,9 UV-I 455 W/m² -0,0 °C 3,2 °C 8,0 km/h (2 Bft)
08.03.2017 12:08 4,8 °C 4,9 °C 72 % 1024,1 hPa 0,0 mm 2,9 km/h (1 Bft) O-NO 70 ° 1 min 0,000 mm 2,8 UV-I 446 W/m² 0,2 °C 4,8 °C 4,8 km/h (1 Bft)
08.03.2017 12:09 4,9 °C 4,9 °C 73 % 1024,0 hPa 0,0 mm 3,0 km/h (1 Bft) O-NO 70 ° 1 min 0,000 mm 2,8 UV-I 418 W/m² 0,5 °C 4,9 °C 4,8 km/h (1 Bft)
08.03.2017 12:10 4,9 °C 4,9 °C 72 % 1024,0 hPa 0,0 mm 1,3 km/h (1 Bft) O-NO 70 ° 1 min 0,000 mm 2,7 UV-I 413 W/m² 0,3 °C 4,9 °C 3,2 km/h (1 Bft)
08.03.2017 12:11 4,9 °C 4,9 °C 73 % 1024,1 hPa 0,0 mm 2,2 km/h (1 Bft) O-NO 70 ° 1 min 0,000 mm 2,8 UV-I 422 W/m² 0,5 °C 4,9 °C 3,2 km/h (1 Bft)
08.03.2017 12:12 4,9 °C 4,9 °C 73 % 1024,0 hPa 0,0 mm 1,8 km/h (1 Bft) O-NO 70 ° 1 min 0,000 mm 2,7 UV-I 422 W/m² 0,5 °C 4,9 °C 3,2 km/h (1 Bft)
08.03.2017 12:13 5,1 °C 5,1 °C 73 % 1024,0 hPa 0,0 mm 6,7 km/h (2 Bft) O-NO 64 ° 1 min 0,000 mm 2,8 UV-I 422 W/m² 0,7 °C 3,6 °C 8,0 km/h (2 Bft)
08.03.2017 12:14 5,1 °C 5,1 °C 72 % 1024,0 hPa 0,0 mm 5,0 km/h (1 Bft) O-NO 73 ° 1 min 0,000 mm 2,8 UV-I 436 W/m² 0,5 °C 4,2 °C 8,0 km/h (2 Bft)
08.03.2017 12:15 5,1 °C 5,1 °C 72 % 1024,0 hPa 0,0 mm 4,8 km/h (1 Bft) O-NO 73 ° 1 min 0,000 mm 2,8 UV-I 415 W/m² 0,5 °C 4,3 °C 6,4 km/h (2 Bft)
08.03.2017 12:16 5,0 °C 5,1 °C 72 % 1024,0 hPa 0,0 mm 5,8 km/h (2 Bft) O-NO 71 ° 1 min 0,000 mm 2,8 UV-I 427 W/m² 0,4 °C 3,8 °C 6,4 km/h (2 Bft)
08.03.2017 12:17 5,0 °C 5,0 °C 72 % 1024,0 hPa 0,0 mm 3,0 km/h (1 Bft) O-NO 77 ° 1 min 0,000 mm 2,8 UV-I 432 W/m² 0,4 °C 5,0 °C 4,8 km/h (1 Bft)
08.03.2017 12:18 5,1 °C 5,1 °C 73 % 1024,0 hPa 0,0 mm 2,3 km/h (1 Bft) O-NO 77 ° 1 min 0,000 mm 2,9 UV-I 450 W/m² 0,7 °C 5,1 °C 3,2 km/h (1 Bft)
08.03.2017 12:19 5,1 °C 5,1 °C 74 % 1024,0 hPa 0,0 mm 1,1 km/h (1 Bft) O-NO 77 ° 1 min 0,000 mm 2,9 UV-I 448 W/m² 0,9 °C 5,1 °C 1,6 km/h (1 Bft)
08.03.2017 12:20 5,1 °C 5,1 °C 72 % 1024,0 hPa 0,0 mm 2,1 km/h (1 Bft) O-NO 77 ° 1 min 0,000 mm 2,9 UV-I 455 W/m² 0,5 °C 5,1 °C 4,8 km/h (1 Bft)
08.03.2017 12:21 5,1 °C 5,1 °C 72 % 1023,9 hPa 0,0 mm 2,2 km/h (1 Bft) O-NO 78 ° 1 min 0,000 mm 2,9 UV-I 455 W/m² 0,5 °C 5,1 °C 4,8 km/h (1 Bft)
08.03.2017 12:22 5,1 °C 5,1 °C 73 % 1023,9 hPa 0,0 mm 2,2 km/h (1 Bft) O-NO 78 ° 1 min 0,000 mm 2,9 UV-I 446 W/m² 0,7 °C 5,1 °C 3,2 km/h (1 Bft)
08.03.2017 12:23 5,2 °C 5,2 °C 73 % 1023,9 hPa 0,0 mm 0,1 km/h (0 Bft) O-NO 78 ° 1 min 0,000 mm 2,9 UV-I 457 W/m² 0,8 °C 5,2 °C 1,6 km/h (1 Bft)
08.03.2017 12:24 5,2 °C 5,2 °C 73 % 1023,9 hPa 0,0 mm 4,8 km/h (1 Bft) O-NO 69 ° 1 min 0,000 mm 2,9 UV-I 461 W/m² 0,8 °C 4,4 °C 8,0 km/h (2 Bft)
08.03.2017 12:25 5,2 °C 5,2 °C 72 % 1023,9 hPa 0,0 mm 3,4 km/h (1 Bft) SO 146 ° 1 min 0,000 mm 2,9 UV-I 462 W/m² 0,6 °C 5,2 °C 6,4 km/h (2 Bft)
08.03.2017 12:26 5,2 °C 5,3 °C 71 % 1023,8 hPa 0,0 mm 4,4 km/h (1 Bft) O 90 ° 1 min 0,000 mm 2,9 UV-I 476 W/m² 0,4 °C 5,2 °C 6,4 km/h (2 Bft)
08.03.2017 12:27 5,2 °C 5,2 °C 73 % 1023,8 hPa 0,0 mm 2,5 km/h (1 Bft) O-NO 62 ° 1 min 0,000 mm 3,0 UV-I 469 W/m² 0,8 °C 5,2 °C 4,8 km/h (1 Bft)
08.03.2017 12:28 5,2 °C 5,2 °C 70 % 1023,8 hPa 0,0 mm 2,0 km/h (1 Bft) O-SO 112 ° 1 min 0,000 mm 3,0 UV-I 476 W/m² 0,2 °C 5,2 °C 4,8 km/h (1 Bft)
08.03.2017 12:29 5,2 °C 5,3 °C 72 % 1023,8 hPa 0,0 mm 2,3 km/h (1 Bft) O 94 ° 1 min 0,000 mm 3,0 UV-I 471 W/m² 0,6 °C 5,2 °C 4,8 km/h (1 Bft)
08.03.2017 12:30 5,3 °C 5,3 °C 71 % 1023,8 hPa 0,0 mm 0,5 km/h (0 Bft) O 94 ° 1 min 0,000 mm 3,0 UV-I 468 W/m² 0,5 °C 5,3 °C 1,6 km/h (1 Bft)
08.03.2017 12:31 5,3 °C 5,4 °C 72 % 1023,8 hPa 0,0 mm 0,9 km/h (0 Bft) O 94 ° 1 min 0,000 mm 3,0 UV-I 480 W/m² 0,7 °C 5,3 °C 3,2 km/h (1 Bft)
08.03.2017 12:32 5,4 °C 5,4 °C 72 % 1023,8 hPa 0,0 mm 0,2 km/h (0 Bft) O 94 ° 1 min 0,000 mm 3,0 UV-I 489 W/m² 0,8 °C 5,4 °C 1,6 km/h (1 Bft)
08.03.2017 12:33 5,4 °C 5,4 °C 72 % 1023,8 hPa 0,0 mm 0,4 km/h (0 Bft) O 95 ° 1 min 0,000 mm 3,0 UV-I 475 W/m² 0,8 °C 5,4 °C 1,6 km/h (1 Bft)
08.03.2017 12:34 5,5 °C 5,6 °C 70 % 1023,8 hPa 0,0 mm 1,1 km/h (1 Bft) O 95 ° 1 min 0,000 mm 2,9 UV-I 464 W/m² 0,5 °C 5,5 °C 3,2 km/h (1 Bft)
08.03.2017 12:35 5,4 °C 5,6 °C 70 % 1023,8 hPa 0,0 mm 1,8 km/h (1 Bft) O 95 ° 1 min 0,000 mm 2,9 UV-I 454 W/m² 0,4 °C 5,4 °C 3,2 km/h (1 Bft)
08.03.2017 12:36 5,5 °C 5,5 °C 70 % 1023,7 hPa 0,0 mm 2,2 km/h (1 Bft) O-SO 119 ° 1 min 0,000 mm 2,9 UV-I 450 W/m² 0,5 °C 5,5 °C 4,8 km/h (1 Bft)
08.03.2017 12:37 5,5 °C 5,5 °C 70 % 1023,7 hPa 0,0 mm 1,1 km/h (1 Bft) O-SO 119 ° 1 min 0,000 mm 2,9 UV-I 443 W/m² 0,5 °C 5,5 °C 3,2 km/h (1 Bft)
08.03.2017 12:38 5,4 °C 5,5 °C 66 % 1023,7 hPa 0,2 mm 2,3 km/h (1 Bft) S 175 ° 1 min 0,000 mm 2,8 UV-I 438 W/m² -0,4 °C 5,4 °C 4,8 km/h (1 Bft)
08.03.2017 12:39 5,4 °C 5,4 °C 67 % 1023,7 hPa 0,0 mm 0,6 km/h (0 Bft) S 175 ° 1 min 0,000 mm 2,8 UV-I 427 W/m² -0,2 °C 5,4 °C 1,6 km/h (1 Bft)
08.03.2017 12:40 5,4 °C 5,4 °C 67 % 1023,8 hPa 0,0 mm 2,1 km/h (1 Bft) S 175 ° 1 min 0,000 mm 2,8 UV-I 424 W/m² -0,2 °C 5,4 °C 3,2 km/h (1 Bft)
08.03.2017 12:41 5,3 °C 5,4 °C 65 % 1023,7 hPa 0,0 mm 1,7 km/h (1 Bft) S 175 ° 1 min 0,000 mm 2,8 UV-I 424 W/m² -0,7 °C 5,3 °C 3,2 km/h (1 Bft)
08.03.2017 12:42 5,4 °C 5,4 °C 65 % 1023,7 hPa 0,0 mm 1,3 km/h (1 Bft) S 175 ° 1 min 0,000 mm 2,8 UV-I 424 W/m² -0,6 °C 5,4 °C 3,2 km/h (1 Bft)
08.03.2017 12:43 5,4 °C 5,4 °C 66 % 1023,6 hPa 0,0 mm 0,1 km/h (0 Bft) S 175 ° 1 min 0,000 mm 2,8 UV-I 425 W/m² -0,4 °C 5,4 °C 1,6 km/h (1 Bft)
08.03.2017 12:44 5,4 °C 5,4 °C 66 % 1023,6 hPa 0,0 mm 3,0 km/h (1 Bft) O-NO 60 ° 1 min 0,000 mm 2,8 UV-I 427 W/m² -0,4 °C 5,4 °C 4,8 km/h (1 Bft)
08.03.2017 12:45 5,6 °C 5,6 °C 68 % 1023,6 hPa 0,0 mm 5,5 km/h (1 Bft) O-NO 65 ° 1 min 0,000 mm 2,8 UV-I 427 W/m² 0,2 °C 4,6 °C 6,4 km/h (2 Bft)
08.03.2017 12:46 5,5 °C 5,6 °C 67 % 1023,6 hPa 0,0 mm 4,5 km/h (1 Bft) O-NO 65 ° 1 min 0,000 mm 2,8 UV-I 424 W/m² -0,1 °C 5,5 °C 6,4 km/h (2 Bft)
08.03.2017 12:47 5,5 °C 5,5 °C 66 % 1023,6 hPa 0,0 mm 2,5 km/h (1 Bft) S 175 ° 1 min 0,000 mm 2,8 UV-I 436 W/m² -0,3 °C 5,5 °C 4,8 km/h (1 Bft)
08.03.2017 12:48 5,5 °C 5,5 °C 66 % 1023,6 hPa 0,0 mm 1,5 km/h (1 Bft) S 175 ° 1 min 0,000 mm 2,8 UV-I 431 W/m² -0,3 °C 5,5 °C 3,2 km/h (1 Bft)
08.03.2017 12:49 5,6 °C 5,6 °C 67 % 1023,5 hPa 0,0 mm 0,2 km/h (0 Bft) NO 36 ° 1 min 0,000 mm 2,8 UV-I 427 W/m² -0,0 °C 5,6 °C 1,6 km/h (1 Bft)
08.03.2017 12:50 5,6 °C 5,6 °C 69 % 1023,5 hPa 0,0 mm 1,1 km/h (1 Bft) O-NO 76 ° 1 min 0,000 mm 2,8 UV-I 425 W/m² 0,4 °C 5,6 °C 3,2 km/h (1 Bft)
08.03.2017 12:51 5,6 °C 5,6 °C 68 % 1023,5 hPa 0,0 mm 2,5 km/h (1 Bft) O-NO 76 ° 1 min 0,000 mm 2,8 UV-I 425 W/m² 0,2 °C 5,6 °C 4,8 km/h (1 Bft)
08.03.2017 12:52 5,6 °C 5,6 °C 69 % 1023,5 hPa 0,0 mm 2,2 km/h (1 Bft) O-NO 76 ° 1 min 0,000 mm 2,8 UV-I 422 W/m² 0,4 °C 5,6 °C 4,8 km/h (1 Bft)
08.03.2017 12:53 5,5 °C 5,6 °C 67 % 1023,5 hPa 0,0 mm 2,9 km/h (1 Bft) O-NO 63 ° 1 min 0,000 mm 2,8 UV-I 425 W/m² -0,1 °C 5,5 °C 4,8 km/h (1 Bft)
08.03.2017 12:54 5,4 °C 5,5 °C 66 % 1023,5 hPa 0,0 mm 1,4 km/h (1 Bft) O-NO 63 ° 1 min 0,000 mm 2,8 UV-I 432 W/m² -0,4 °C 5,4 °C 3,2 km/h (1 Bft)
08.03.2017 12:55 5,4 °C 5,4 °C 67 % 1023,5 hPa 0,0 mm 3,6 km/h (1 Bft) SO 126 ° 1 min 0,000 mm 2,9 UV-I 446 W/m² -0,2 °C 5,4 °C 6,4 km/h (2 Bft)
08.03.2017 12:56 5,4 °C 5,4 °C 65 % 1023,5 hPa 0,0 mm 2,7 km/h (1 Bft) SO 127 ° 1 min 0,000 mm 2,8 UV-I 438 W/m² -0,6 °C 5,4 °C 4,8 km/h (1 Bft)
08.03.2017 12:57 5,5 °C 5,5 °C 64 % 1023,4 hPa 0,0 mm 0,4 km/h (0 Bft) SO 127 ° 1 min 0,000 mm 2,9 UV-I 454 W/m² -0,8 °C 5,5 °C 1,6 km/h (1 Bft)
08.03.2017 12:58 5,6 °C 5,6 °C 64 % 1023,5 hPa 0,0 mm 0,9 km/h (0 Bft) SO 127 ° 1 min 0,000 mm 2,8 UV-I 436 W/m² -0,7 °C 5,6 °C 3,2 km/h (1 Bft)
08.03.2017 12:59 5,7 °C 5,7 °C 66 % 1023,5 hPa 0,0 mm 0,9 km/h (0 Bft) SO 127 ° 1 min 0,000 mm 2,7 UV-I 408 W/m² -0,1 °C 5,7 °C 1,6 km/h (1 Bft)
08.03.2017 13:00 5,8 °C 5,8 °C 65 % 1023,4 hPa 0,0 mm 2,5 km/h (1 Bft) O-SO 123 ° 1 min 0,178 mm 2,7 UV-I 381 W/m² -0,3 °C 5,8 °C 3,2 km/h (1 Bft)
08.03.2017 13:01 5,7 °C 5,8 °C 63 % 1023,5 hPa 0,0 mm 1,9 km/h (1 Bft) O-SO 123 ° 1 min 0,000 mm 2,5 UV-I 360 W/m² -0,8 °C 5,7 °C 3,2 km/h (1 Bft)
08.03.2017 13:02 5,7 °C 5,7 °C 63 % 1023,5 hPa 0,0 mm 1,1 km/h (1 Bft) O-SO 123 ° 1 min 0,000 mm 2,4 UV-I 350 W/m² -0,8 °C 5,7 °C 1,6 km/h (1 Bft)
08.03.2017 13:03 5,7 °C 5,7 °C 63 % 1023,5 hPa 0,0 mm 2,1 km/h (1 Bft) O-SO 123 ° 1 min 0,000 mm 2,4 UV-I 346 W/m² -0,8 °C 5,7 °C 3,2 km/h (1 Bft)
08.03.2017 13:04 5,7 °C 5,7 °C 63 % 1023,5 hPa 0,0 mm 0,9 km/h (0 Bft) O-SO 123 ° 1 min 0,000 mm 2,4 UV-I 346 W/m² -0,8 °C 5,7 °C 1,6 km/h (1 Bft)
08.03.2017 13:05 5,7 °C 5,7 °C 64 % 1023,5 hPa 0,0 mm 0,5 km/h (0 Bft) O-SO 123 ° 1 min 0,000 mm 2,4 UV-I 346 W/m² -0,6 °C 5,7 °C 1,6 km/h (1 Bft)
08.03.2017 13:06 5,6 °C 5,7 °C 65 % 1023,5 hPa 0,0 mm 0,9 km/h (0 Bft) O-SO 123 ° 1 min 0,000 mm 2,3 UV-I 343 W/m² -0,4 °C 5,6 °C 1,6 km/h (1 Bft)
08.03.2017 13:07 5,6 °C 5,6 °C 64 % 1023,5 hPa 0,0 mm 1,3 km/h (1 Bft) SO 127 ° 1 min 0,000 mm 2,4 UV-I 334 W/m² -0,7 °C 5,6 °C 3,2 km/h (1 Bft)
08.03.2017 13:08 5,6 °C 5,6 °C 65 % 1023,6 hPa 0,0 mm 2,1 km/h (1 Bft) S-SO 154 ° 1 min 0,000 mm 2,3 UV-I 330 W/m² -0,4 °C 5,6 °C 3,2 km/h (1 Bft)
08.03.2017 13:09 5,5 °C 5,6 °C 65 % 1023,7 hPa 0,0 mm 3,4 km/h (1 Bft) S-SO 167 ° 1 min 0,000 mm 2,2 UV-I 325 W/m² -0,5 °C 5,5 °C 6,4 km/h (2 Bft)
08.03.2017 13:10 5,5 °C 5,6 °C 64 % 1023,7 hPa 0,0 mm 0,1 km/h (0 Bft) S-SO 167 ° 1 min 0,000 mm 2,2 UV-I 318 W/m² -0,8 °C 5,5 °C 1,6 km/h (1 Bft)
08.03.2017 13:11 5,6 °C 5,6 °C 66 % 1023,7 hPa 0,0 mm 0,1 km/h (0 Bft) S-SO 167 ° 1 min 0,000 mm 2,2 UV-I 311 W/m² -0,2 °C 5,6 °C 1,6 km/h (1 Bft)
08.03.2017 13:12 5,6 °C 5,7 °C 64 % 1023,7 hPa 0,0 mm 0,1 km/h (0 Bft) S-SO 167 ° 1 min 0,000 mm 2,1 UV-I 294 W/m² -0,7 °C 5,6 °C 1,6 km/h (1 Bft)
08.03.2017 13:13 5,7 °C 5,7 °C 68 % 1023,7 hPa 0,0 mm 0,0 km/h (0 Bft) S-SO 167 ° 1 min 0,000 mm 2,0 UV-I 287 W/m² 0,3 °C 5,7 °C 0,0 km/h (0 Bft)
08.03.2017 13:14 5,6 °C 5,7 °C 66 % 1023,6 hPa 0,0 mm 0,0 km/h (0 Bft) S-SO 167 ° 1 min 0,000 mm 2,0 UV-I 279 W/m² -0,2 °C 5,6 °C 0,0 km/h (0 Bft)
08.03.2017 13:15 5,6 °C 5,7 °C 64 % 1023,6 hPa 0,0 mm 0,0 km/h (0 Bft) S-SO 167 ° 1 min 0,000 mm 2,0 UV-I 274 W/m² -0,7 °C 5,6 °C 0,0 km/h (0 Bft)
08.03.2017 13:16 5,6 °C 5,7 °C 63 % 1023,7 hPa 0,0 mm 0,0 km/h (0 Bft) S-SO 167 ° 1 min 0,000 mm 2,0 UV-I 271 W/m² -0,9 °C 5,6 °C 0,0 km/h (0 Bft)
08.03.2017 13:17 5,6 °C 5,6 °C 62 % 1023,7 hPa 0,0 mm 0,0 km/h (0 Bft) S-SO 167 ° 1 min 0,000 mm 2,0 UV-I 269 W/m² -1,1 °C 5,6 °C 0,0 km/h (0 Bft)
08.03.2017 13:18 5,6 °C 5,6 °C 62 % 1023,7 hPa 0,0 mm 0,0 km/h (0 Bft) S-SO 167 ° 1 min 0,000 mm 2,0 UV-I 267 W/m² -1,1 °C 5,6 °C 0,0 km/h (0 Bft)
08.03.2017 13:19 5,5 °C 5,6 °C 63 % 1023,7 hPa 0,0 mm 0,1 km/h (0 Bft) S-SO 167 ° 1 min 0,000 mm 2,0 UV-I 269 W/m² -1,0 °C 5,5 °C 1,6 km/h (1 Bft)
08.03.2017 13:20 5,5 °C 5,6 °C 63 % 1023,7 hPa 0,0 mm 0,5 km/h (0 Bft) S-SO 167 ° 1 min 0,000 mm 2,0 UV-I 272 W/m² -1,0 °C 5,5 °C 4,8 km/h (1 Bft)
08.03.2017 13:21 5,6 °C 5,6 °C 62 % 1023,7 hPa 0,0 mm 2,9 km/h (1 Bft) SO 145 ° 1 min 0,000 mm 2,0 UV-I 279 W/m² -1,1 °C 5,6 °C 4,8 km/h (1 Bft)
08.03.2017 13:22 5,4 °C 5,6 °C 65 % 1023,7 hPa 0,0 mm 1,7 km/h (1 Bft) SO 145 ° 1 min 0,000 mm 2,0 UV-I 283 W/m² -0,6 °C 5,4 °C 3,2 km/h (1 Bft)
08.03.2017 13:23 5,4 °C 5,4 °C 66 % 1023,7 hPa 0,0 mm 0,6 km/h (0 Bft) SO 145 ° 1 min 0,000 mm 2,0 UV-I 288 W/m² -0,4 °C 5,4 °C 1,6 km/h (1 Bft)
08.03.2017 13:24 5,4 °C 5,4 °C 66 % 1023,7 hPa 0,0 mm 1,4 km/h (1 Bft) SO 145 ° 1 min 0,000 mm 2,1 UV-I 290 W/m² -0,4 °C 5,4 °C 1,6 km/h (1 Bft)
08.03.2017 13:25 5,4 °C 5,4 °C 66 % 1023,7 hPa 0,0 mm 0,4 km/h (0 Bft) SO 145 ° 1 min 0,000 mm 2,0 UV-I 290 W/m² -0,4 °C 5,4 °C 1,6 km/h (1 Bft)
08.03.2017 13:26 5,4 °C 5,4 °C 66 % 1023,7 hPa 0,0 mm 0,3 km/h (0 Bft) SO 145 ° 1 min 0,000 mm 2,0 UV-I 294 W/m² -0,4 °C 5,4 °C 1,6 km/h (1 Bft)
08.03.2017 13:27 5,4 °C 5,4 °C 64 % 1023,7 hPa 0,0 mm 1,1 km/h (1 Bft) SO 145 ° 1 min 0,000 mm 2,0 UV-I 295 W/m² -0,9 °C 5,4 °C 3,2 km/h (1 Bft)
08.03.2017 13:28 5,4 °C 5,4 °C 62 % 1023,7 hPa 0,0 mm 4,2 km/h (1 Bft) SO 146 ° 1 min 0,000 mm 2,0 UV-I 272 W/m² -1,3 °C 5,4 °C 4,8 km/h (1 Bft)
08.03.2017 13:29 5,5 °C 5,5 °C 60 % 1023,7 hPa 0,0 mm 2,7 km/h (1 Bft) S 175 ° 1 min 0,000 mm 1,9 UV-I 260 W/m² -1,6 °C 5,5 °C 4,8 km/h (1 Bft)
08.03.2017 13:30 5,5 °C 5,5 °C 60 % 1023,7 hPa 0,0 mm 0,1 km/h (0 Bft) S 175 ° 1 min 0,000 mm 2,0 UV-I 264 W/m² -1,6 °C 5,5 °C 1,6 km/h (1 Bft)
08.03.2017 13:31 5,5 °C 5,5 °C 60 % 1023,8 hPa 0,0 mm 0,1 km/h (0 Bft) S 175 ° 1 min 0,000 mm 2,0 UV-I 267 W/m² -1,6 °C 5,5 °C 1,6 km/h (1 Bft)
08.03.2017 13:32 5,6 °C 5,6 °C 59 % 1023,7 hPa 0,0 mm 0,1 km/h (0 Bft) S 175 ° 1 min 0,000 mm 2,0 UV-I 271 W/m² -1,8 °C 5,6 °C 1,6 km/h (1 Bft)
08.03.2017 13:33 5,6 °C 5,6 °C 59 % 1023,8 hPa 0,0 mm 0,4 km/h (0 Bft) S 175 ° 1 min 0,000 mm 2,0 UV-I 281 W/m² -1,8 °C 5,6 °C 1,6 km/h (1 Bft)
08.03.2017 13:34 5,6 °C 5,6 °C 61 % 1023,8 hPa 0,0 mm 0,5 km/h (0 Bft) S 175 ° 1 min 0,000 mm 2,0 UV-I 271 W/m² -1,3 °C 5,6 °C 1,6 km/h (1 Bft)
08.03.2017 13:35 5,6 °C 5,6 °C 62 % 1023,7 hPa 0,0 mm 0,0 km/h (0 Bft) S 175 ° 1 min 0,000 mm 1,9 UV-I 265 W/m² -1,1 °C 5,6 °C 0,0 km/h (0 Bft)
08.03.2017 13:36 5,6 °C 5,6 °C 62 % 1023,8 hPa 0,0 mm 0,6 km/h (0 Bft) S 175 ° 1 min 0,000 mm 1,9 UV-I 246 W/m² -1,1 °C 5,6 °C 1,6 km/h (1 Bft)
08.03.2017 13:37 5,6 °C 5,6 °C 63 % 1023,7 hPa 0,0 mm 1,7 km/h (1 Bft) S 175 ° 1 min 0,000 mm 1,8 UV-I 244 W/m² -0,9 °C 5,6 °C 3,2 km/h (1 Bft)
08.03.2017 13:38 5,6 °C 5,6 °C 62 % 1023,7 hPa 0,0 mm 2,7 km/h (1 Bft) S 175 ° 1 min 0,000 mm 1,8 UV-I 237 W/m² -1,1 °C 5,6 °C 3,2 km/h (1 Bft)
08.03.2017 13:39 5,6 °C 5,6 °C 62 % 1023,8 hPa 0,0 mm 2,8 km/h (1 Bft) S 175 ° 1 min 0,000 mm 1,8 UV-I 236 W/m² -1,1 °C 5,6 °C 3,2 km/h (1 Bft)
08.03.2017 13:40 5,6 °C 5,6 °C 63 % 1023,8 hPa 0,0 mm 1,2 km/h (1 Bft) S 175 ° 1 min 0,000 mm 1,8 UV-I 234 W/m² -0,9 °C 5,6 °C 1,6 km/h (1 Bft)
08.03.2017 13:41 5,6 °C 5,6 °C 64 % 1023,8 hPa 0,0 mm 0,9 km/h (0 Bft) S 175 ° 1 min 0,000 mm 1,8 UV-I 229 W/m² -0,7 °C 5,6 °C 3,2 km/h (1 Bft)
08.03.2017 13:42 5,6 °C 5,6 °C 63 % 1023,8 hPa 0,0 mm 3,4 km/h (1 Bft) S 175 ° 1 min 0,000 mm 1,8 UV-I 230 W/m² -0,9 °C 5,6 °C 4,8 km/h (1 Bft)
08.03.2017 13:43 5,6 °C 5,6 °C 64 % 1023,8 hPa 0,0 mm 3,3 km/h (1 Bft) S 175 ° 1 min 0,000 mm 1,8 UV-I 232 W/m² -0,7 °C 5,6 °C 4,8 km/h (1 Bft)
08.03.2017 13:44 5,5 °C 5,6 °C 64 % 1023,7 hPa 0,0 mm 2,9 km/h (1 Bft) S 175 ° 1 min 0,000 mm 1,8 UV-I 236 W/m² -0,8 °C 5,5 °C 4,8 km/h (1 Bft)
08.03.2017 13:45 5,5 °C 5,5 °C 65 % 1023,7 hPa 0,0 mm 2,2 km/h (1 Bft) S 175 ° 1 min 0,000 mm 1,8 UV-I 237 W/m² -0,5 °C 5,5 °C 3,2 km/h (1 Bft)
08.03.2017 13:46 5,5 °C 5,5 °C 64 % 1023,7 hPa 0,0 mm 1,7 km/h (1 Bft) S 175 ° 1 min 0,000 mm 1,7 UV-I 237 W/m² -0,8 °C 5,5 °C 3,2 km/h (1 Bft)
08.03.2017 13:47 5,5 °C 5,5 °C 66 % 1023,7 hPa 0,0 mm 1,3 km/h (1 Bft) S 175 ° 1 min 0,000 mm 1,7 UV-I 232 W/m² -0,3 °C 5,5 °C 3,2 km/h (1 Bft)
08.03.2017 13:48 5,4 °C 5,5 °C 68 % 1023,7 hPa 0,0 mm 0,8 km/h (0 Bft) S 175 ° 1 min 0,000 mm 1,7 UV-I 227 W/m² -0,0 °C 5,4 °C 1,6 km/h (1 Bft)
08.03.2017 13:49 5,4 °C 5,4 °C 65 % 1023,6 hPa 0,0 mm 3,0 km/h (1 Bft) S 175 ° 1 min 0,000 mm 1,6 UV-I 221 W/m² -0,6 °C 5,4 °C 4,8 km/h (1 Bft)
08.03.2017 13:50 5,4 °C 5,4 °C 63 % 1023,7 hPa 0,0 mm 2,8 km/h (1 Bft) S 175 ° 1 min 0,000 mm 1,6 UV-I 214 W/m² -1,1 °C 5,4 °C 3,2 km/h (1 Bft)
08.03.2017 13:51 5,3 °C 5,4 °C 71 % 1023,7 hPa 0,0 mm 2,3 km/h (1 Bft) S 175 ° 1 min 0,000 mm 1,5 UV-I 209 W/m² 0,5 °C 5,3 °C 3,2 km/h (1 Bft)
08.03.2017 13:52 5,2 °C 5,3 °C 73 % 1023,6 hPa 0,0 mm 2,6 km/h (1 Bft) S 175 ° 1 min 0,000 mm 1,5 UV-I 204 W/m² 0,8 °C 5,2 °C 4,8 km/h (1 Bft)
08.03.2017 13:53 5,1 °C 5,2 °C 73 % 1023,6 hPa 0,0 mm 1,9 km/h (1 Bft) S 175 ° 0 min 0,000 mm 1,4 UV-I 195 W/m² 0,7 °C 5,1 °C 3,2 km/h (1 Bft)
08.03.2017 13:54 5,1 °C 5,1 °C 73 % 1023,5 hPa 0,0 mm 2,0 km/h (1 Bft) S 175 ° 0 min 0,000 mm 1,4 UV-I 192 W/m² 0,7 °C 5,1 °C 3,2 km/h (1 Bft)
08.03.2017 13:55 5,0 °C 5,1 °C 73 % 1023,6 hPa 0,0 mm 2,9 km/h (1 Bft) S 175 ° 0 min 0,000 mm 1,4 UV-I 188 W/m² 0,6 °C 5,0 °C 4,8 km/h (1 Bft)
08.03.2017 13:56 4,9 °C 5,0 °C 73 % 1023,6 hPa 0,0 mm 1,3 km/h (1 Bft) S 175 ° 0 min 0,000 mm 1,3 UV-I 186 W/m² 0,5 °C 4,9 °C 3,2 km/h (1 Bft)
08.03.2017 13:57 4,9 °C 4,9 °C 71 % 1023,7 hPa 0,0 mm 0,9 km/h (0 Bft) S 175 ° 0 min 0,000 mm 1,3 UV-I 185 W/m² 0,1 °C 4,9 °C 3,2 km/h (1 Bft)
08.03.2017 13:58 4,9 °C 4,9 °C 71 % 1023,6 hPa 0,0 mm 0,2 km/h (0 Bft) S 175 ° 0 min 0,000 mm 1,3 UV-I 183 W/m² 0,1 °C 4,9 °C 1,6 km/h (1 Bft)
08.03.2017 13:59 5,0 °C 5,0 °C 69 % 1023,6 hPa 0,0 mm 0,0 km/h (0 Bft) S 175 ° 0 min 0,000 mm 1,3 UV-I 181 W/m² -0,2 °C 5,0 °C 0,0 km/h (0 Bft)
08.03.2017 14:00 5,1 °C 5,1 °C 68 % 1023,6 hPa 0,0 mm 0,3 km/h (0 Bft) S 175 ° 0 min 0,000 mm 1,3 UV-I 181 W/m² -0,3 °C 5,1 °C 1,6 km/h (1 Bft)
08.03.2017 14:01 5,1 °C 5,1 °C 69 % 1023,5 hPa 0,0 mm 0,1 km/h (0 Bft) S 175 ° 0 min 0,102 mm 1,3 UV-I 181 W/m² -0,1 °C 5,1 °C 1,6 km/h (1 Bft)
08.03.2017 14:02 5,2 °C 5,2 °C 67 % 1023,6 hPa 0,0 mm 0,1 km/h (0 Bft) S 175 ° 0 min 0,000 mm 1,3 UV-I 181 W/m² -0,4 °C 5,2 °C 1,6 km/h (1 Bft)
08.03.2017 14:03 5,2 °C 5,2 °C 68 % 1023,5 hPa 0,0 mm 0,0 km/h (0 Bft) S 175 ° 0 min 0,000 mm 1,3 UV-I 183 W/m² -0,2 °C 5,2 °C 0,0 km/h (0 Bft)
08.03.2017 14:04 5,2 °C 5,2 °C 69 % 1023,6 hPa 0,0 mm 0,0 km/h (0 Bft) S 175 ° 0 min 0,000 mm 1,3 UV-I 183 W/m² -0,0 °C 5,2 °C 0,0 km/h (0 Bft)
08.03.2017 14:05 5,1 °C 5,2 °C 70 % 1023,6 hPa 0,0 mm 0,0 km/h (0 Bft) S 175 ° 0 min 0,000 mm 1,3 UV-I 178 W/m² 0,1 °C 5,1 °C 0,0 km/h (0 Bft)
08.03.2017 14:06 5,1 °C 5,1 °C 71 % 1023,6 hPa 0,0 mm 0,2 km/h (0 Bft) S 175 ° 0 min 0,000 mm 1,2 UV-I 172 W/m² 0,3 °C 5,1 °C 1,6 km/h (1 Bft)
08.03.2017 14:07 5,0 °C 5,1 °C 73 % 1023,6 hPa 0,0 mm 1,1 km/h (1 Bft) S 175 ° 0 min 0,000 mm 1,2 UV-I 167 W/m² 0,6 °C 5,0 °C 3,2 km/h (1 Bft)
08.03.2017 14:08 4,9 °C 5,0 °C 73 % 1023,6 hPa 0,0 mm 1,1 km/h (1 Bft) S 175 ° 0 min 0,000 mm 1,1 UV-I 162 W/m² 0,5 °C 4,9 °C 1,6 km/h (1 Bft)
08.03.2017 14:09 4,9 °C 4,9 °C 72 % 1023,6 hPa 0,0 mm 1,1 km/h (1 Bft) S 175 ° 0 min 0,000 mm 1,1 UV-I 156 W/m² 0,3 °C 4,9 °C 3,2 km/h (1 Bft)
08.03.2017 14:10 4,9 °C 4,9 °C 72 % 1023,6 hPa 0,0 mm 0,0 km/h (0 Bft) S 175 ° 0 min 0,000 mm 1,1 UV-I 151 W/m² 0,3 °C 4,9 °C 0,0 km/h (0 Bft)
08.03.2017 14:11 4,9 °C 5,0 °C 73 % 1023,5 hPa 0,0 mm 0,0 km/h (0 Bft) S 175 ° 0 min 0,000 mm 1,1 UV-I 146 W/m² 0,5 °C 4,9 °C 0,0 km/h (0 Bft)
08.03.2017 14:12 4,9 °C 5,0 °C 74 % 1023,5 hPa 0,0 mm 0,0 km/h (0 Bft) S 175 ° 0 min 0,000 mm 1,0 UV-I 144 W/m² 0,7 °C 4,9 °C 0,0 km/h (0 Bft)
08.03.2017 14:13 4,9 °C 5,0 °C 75 % 1023,5 hPa 0,0 mm 0,1 km/h (0 Bft) S 175 ° 0 min 0,000 mm 1,0 UV-I 146 W/m² 0,8 °C 4,9 °C 1,6 km/h (1 Bft)
08.03.2017 14:14 4,9 °C 4,9 °C 76 % 1023,5 hPa 0,0 mm 0,9 km/h (0 Bft) S 175 ° 0 min 0,000 mm 1,0 UV-I 148 W/m² 1,0 °C 4,9 °C 1,6 km/h (1 Bft)
08.03.2017 14:15 4,9 °C 4,9 °C 75 % 1023,5 hPa 0,0 mm 0,9 km/h (0 Bft) S 175 ° 0 min 0,000 mm 1,1 UV-I 149 W/m² 0,8 °C 4,9 °C 1,6 km/h (1 Bft)
08.03.2017 14:16 4,9 °C 4,9 °C 77 % 1023,5 hPa 0,0 mm 1,9 km/h (1 Bft) S 175 ° 0 min 0,000 mm 1,1 UV-I 151 W/m² 1,2 °C 4,9 °C 3,2 km/h (1 Bft)
08.03.2017 14:17 4,9 °C 4,9 °C 79 % 1023,4 hPa 0,0 mm 1,4 km/h (1 Bft) S 175 ° 0 min 0,000 mm 1,1 UV-I 156 W/m² 1,6 °C 4,9 °C 1,6 km/h (1 Bft)
08.03.2017 14:18 4,8 °C 4,9 °C 80 % 1023,5 hPa 0,0 mm 0,6 km/h (0 Bft) S 175 ° 0 min 0,000 mm 1,1 UV-I 156 W/m² 1,6 °C 4,8 °C 1,6 km/h (1 Bft)
08.03.2017 14:19 4,8 °C 4,8 °C 79 % 1023,5 hPa 0,0 mm 0,0 km/h (0 Bft) S 175 ° 0 min 0,000 mm 1,1 UV-I 156 W/m² 1,5 °C 4,8 °C 0,0 km/h (0 Bft)
08.03.2017 14:20 4,8 °C 4,8 °C 80 % 1023,5 hPa 0,0 mm 0,0 km/h (0 Bft) S 175 ° 0 min 0,000 mm 1,1 UV-I 155 W/m² 1,6 °C 4,8 °C 0,0 km/h (0 Bft)
08.03.2017 14:21 4,8 °C 4,8 °C 81 % 1023,4 hPa 0,0 mm 0,3 km/h (0 Bft) S 175 ° 0 min 0,000 mm 1,1 UV-I 155 W/m² 1,8 °C 4,8 °C 1,6 km/h (1 Bft)
08.03.2017 14:22 4,8 °C 4,8 °C 81 % 1023,4 hPa 0,0 mm 0,6 km/h (0 Bft) S 175 ° 0 min 0,000 mm 1,1 UV-I 155 W/m² 1,8 °C 4,8 °C 1,6 km/h (1 Bft)
08.03.2017 14:23 4,8 °C 4,8 °C 82 % 1023,4 hPa 0,0 mm 0,2 km/h (0 Bft) S 175 ° 0 min 0,000 mm 1,1 UV-I 153 W/m² 2,0 °C 4,8 °C 1,6 km/h (1 Bft)
08.03.2017 14:24 4,8 °C 4,8 °C 81 % 1023,4 hPa 0,0 mm 0,1 km/h (0 Bft) S 175 ° 0 min 0,000 mm 1,1 UV-I 151 W/m² 1,8 °C 4,8 °C 1,6 km/h (1 Bft)
08.03.2017 14:25 4,9 °C 4,9 °C 81 % 1023,4 hPa 0,0 mm 0,0 km/h (0 Bft) S 175 ° 0 min 0,000 mm 1,1 UV-I 151 W/m² 1,9 °C 4,9 °C 0,0 km/h (0 Bft)
08.03.2017 14:26 4,8 °C 4,9 °C 81 % 1023,4 hPa 0,0 mm 0,4 km/h (0 Bft) S 175 ° 0 min 0,000 mm 1,1 UV-I 153 W/m² 1,8 °C 4,8 °C 1,6 km/h (1 Bft)
08.03.2017 14:27 4,9 °C 4,9 °C 81 % 1023,5 hPa 0,0 mm 1,6 km/h (1 Bft) S 175 ° 0 min 0,000 mm 1,1 UV-I 155 W/m² 1,9 °C 4,9 °C 3,2 km/h (1 Bft)
08.03.2017 14:28 4,9 °C 4,9 °C 80 % 1023,5 hPa 0,0 mm 2,3 km/h (1 Bft) S 175 ° 0 min 0,000 mm 1,1 UV-I 162 W/m² 1,7 °C 4,9 °C 3,2 km/h (1 Bft)
08.03.2017 14:29 4,9 °C 4,9 °C 81 % 1023,5 hPa 0,0 mm 2,6 km/h (1 Bft) S 175 ° 0 min 0,000 mm 1,1 UV-I 163 W/m² 1,9 °C 4,9 °C 3,2 km/h (1 Bft)
08.03.2017 14:30 4,9 °C 4,9 °C 82 % 1023,6 hPa 0,0 mm 2,4 km/h (1 Bft) S 175 ° 0 min 0,000 mm 1,1 UV-I 165 W/m² 2,1 °C 4,9 °C 4,8 km/h (1 Bft)
08.03.2017 14:31 4,8 °C 4,9 °C 82 % 1023,6 hPa 0,0 mm 4,0 km/h (1 Bft) S 175 ° 0 min 0,000 mm 1,1 UV-I 167 W/m² 2,0 °C 4,8 °C 6,4 km/h (2 Bft)
08.03.2017 14:32 4,8 °C 4,8 °C 83 % 1023,6 hPa 0,0 mm 2,8 km/h (1 Bft) S 175 ° 0 min 0,000 mm 1,1 UV-I 169 W/m² 2,2 °C 4,8 °C 4,8 km/h (1 Bft)
08.03.2017 14:33 4,8 °C 4,8 °C 81 % 1023,6 hPa 0,0 mm 1,0 km/h (0 Bft) S 175 ° 0 min 0,000 mm 1,1 UV-I 171 W/m² 1,8 °C 4,8 °C 1,6 km/h (1 Bft)
08.03.2017 14:34 4,8 °C 4,8 °C 82 % 1023,6 hPa 0,0 mm 0,3 km/h (0 Bft) S 175 ° 0 min 0,000 mm 1,2 UV-I 176 W/m² 2,0 °C 4,8 °C 1,6 km/h (1 Bft)
08.03.2017 14:35 4,7 °C 4,8 °C 82 % 1023,5 hPa 0,0 mm 0,1 km/h (0 Bft) S 175 ° 0 min 0,000 mm 1,2 UV-I 181 W/m² 1,9 °C 4,7 °C 1,6 km/h (1 Bft)
08.03.2017 14:36 4,7 °C 4,7 °C 82 % 1023,5 hPa 0,0 mm 0,1 km/h (0 Bft) S 175 ° 0 min 0,000 mm 1,3 UV-I 185 W/m² 1,9 °C 4,7 °C 1,6 km/h (1 Bft)
08.03.2017 14:37 4,7 °C 4,7 °C 81 % 1023,5 hPa 0,0 mm 0,3 km/h (0 Bft) S 175 ° 0 min 0,000 mm 1,3 UV-I 188 W/m² 1,7 °C 4,7 °C 1,6 km/h (1 Bft)
08.03.2017 14:38 4,6 °C 4,7 °C 82 % 1023,5 hPa 0,0 mm 0,0 km/h (0 Bft) S 175 ° 0 min 0,000 mm 1,3 UV-I 188 W/m² 1,8 °C 4,6 °C 0,0 km/h (0 Bft)
08.03.2017 14:39 4,6 °C 4,6 °C 81 % 1023,5 hPa 0,0 mm 0,5 km/h (0 Bft) S 175 ° 0 min 0,000 mm 1,3 UV-I 186 W/m² 1,6 °C 4,6 °C 1,6 km/h (1 Bft)
08.03.2017 14:40 4,6 °C 4,6 °C 82 % 1023,5 hPa 0,0 mm 0,1 km/h (0 Bft) S 175 ° 0 min 0,000 mm 1,3 UV-I 186 W/m² 1,8 °C 4,6 °C 1,6 km/h (1 Bft)
08.03.2017 14:41 4,6 °C 4,6 °C 83 % 1023,4 hPa 0,0 mm 0,0 km/h (0 Bft) S 175 ° 0 min 0,000 mm 1,3 UV-I 188 W/m² 2,0 °C 4,6 °C 0,0 km/h (0 Bft)
08.03.2017 14:42 4,6 °C 4,6 °C 83 % 1023,4 hPa 0,0 mm 0,0 km/h (0 Bft) S 175 ° 0 min 0,000 mm 1,3 UV-I 188 W/m² 2,0 °C 4,6 °C 0,0 km/h (0 Bft)
08.03.2017 14:43 4,7 °C 4,7 °C 83 % 1023,4 hPa 0,0 mm 0,0 km/h (0 Bft) S 175 ° 0 min 0,000 mm 1,3 UV-I 188 W/m² 2,1 °C 4,7 °C 0,0 km/h (0 Bft)
08.03.2017 14:44 4,7 °C 4,7 °C 80 % 1023,3 hPa 0,0 mm 0,3 km/h (0 Bft) S 175 ° 0 min 0,000 mm 1,2 UV-I 185 W/m² 1,6 °C 4,7 °C 1,6 km/h (1 Bft)
08.03.2017 14:45 4,8 °C 4,8 °C 80 % 1023,4 hPa 0,0 mm 0,5 km/h (0 Bft) S 175 ° 0 min 0,000 mm 1,2 UV-I 179 W/m² 1,6 °C 4,8 °C 1,6 km/h (1 Bft)
08.03.2017 14:46 4,8 °C 4,8 °C 81 % 1023,3 hPa 0,0 mm 0,8 km/h (0 Bft) S 175 ° 0 min 0,000 mm 1,2 UV-I 169 W/m² 1,8 °C 4,8 °C 1,6 km/h (1 Bft)
08.03.2017 14:47 4,8 °C 4,8 °C 79 % 1023,3 hPa 0,0 mm 0,0 km/h (0 Bft) S 175 ° 0 min 0,000 mm 1,1 UV-I 165 W/m² 1,5 °C 4,8 °C 0,0 km/h (0 Bft)
08.03.2017 14:48 4,9 °C 4,9 °C 78 % 1023,3 hPa 0,0 mm 0,0 km/h (0 Bft) S 175 ° 0 min 0,000 mm 1,1 UV-I 160 W/m² 1,4 °C 4,9 °C 0,0 km/h (0 Bft)
08.03.2017 14:49 4,9 °C 4,9 °C 79 % 1023,3 hPa 0,0 mm 0,0 km/h (0 Bft) S 175 ° 0 min 0,000 mm 1,1 UV-I 156 W/m² 1,6 °C 4,9 °C 0,0 km/h (0 Bft)
08.03.2017 14:50 5,0 °C 5,0 °C 76 % 1023,3 hPa 0,0 mm 0,0 km/h (0 Bft) S 175 ° 0 min 0,000 mm 1,1 UV-I 155 W/m² 1,1 °C 5,0 °C 0,0 km/h (0 Bft)
08.03.2017 14:51 5,1 °C 5,1 °C 76 % 1023,3 hPa 0,0 mm 0,0 km/h (0 Bft) S 175 ° 0 min 0,000 mm 1,0 UV-I 151 W/m² 1,2 °C 5,1 °C 0,0 km/h (0 Bft)
08.03.2017 14:52 5,1 °C 5,1 °C 76 % 1023,3 hPa 0,0 mm 0,9 km/h (0 Bft) S 175 ° 0 min 0,000 mm 1,0 UV-I 146 W/m² 1,2 °C 5,1 °C 3,2 km/h (1 Bft)
08.03.2017 14:53 4,9 °C 5,1 °C 79 % 1023,4 hPa 0,0 mm 2,6 km/h (1 Bft) S 175 ° 0 min 0,000 mm 1,0 UV-I 142 W/m² 1,6 °C 4,9 °C 3,2 km/h (1 Bft)
08.03.2017 14:54 4,9 °C 4,9 °C 78 % 1023,3 hPa 0,0 mm 1,6 km/h (1 Bft) S 175 ° 0 min 0,000 mm 0,9 UV-I 137 W/m² 1,4 °C 4,9 °C 3,2 km/h (1 Bft)
08.03.2017 14:55 4,8 °C 4,9 °C 80 % 1023,4 hPa 0,0 mm 2,3 km/h (1 Bft) S 175 ° 0 min 0,000 mm 0,9 UV-I 132 W/m² 1,6 °C 4,8 °C 3,2 km/h (1 Bft)
08.03.2017 14:56 4,8 °C 4,8 °C 80 % 1023,4 hPa 0,0 mm 3,0 km/h (1 Bft) S 175 ° 0 min 0,000 mm 0,9 UV-I 127 W/m² 1,6 °C 4,8 °C 4,8 km/h (1 Bft)
08.03.2017 14:57 4,8 °C 4,8 °C 81 % 1023,3 hPa 0,0 mm 3,3 km/h (1 Bft) S 175 ° 0 min 0,000 mm 0,8 UV-I 121 W/m² 1,8 °C 4,8 °C 4,8 km/h (1 Bft)
08.03.2017 14:58 4,8 °C 4,8 °C 82 % 1023,3 hPa 0,0 mm 3,1 km/h (1 Bft) S 175 ° 0 min 0,000 mm 0,8 UV-I 116 W/m² 2,0 °C 4,8 °C 4,8 km/h (1 Bft)
08.03.2017 14:59 4,8 °C 4,8 °C 82 % 1023,3 hPa 0,0 mm 3,2 km/h (1 Bft) S 175 ° 0 min 0,000 mm 0,8 UV-I 116 W/m² 2,0 °C 4,8 °C 4,8 km/h (1 Bft)
08.03.2017 15:00 4,8 °C 4,8 °C 82 % 1023,3 hPa 0,0 mm 0,6 km/h (0 Bft) S 175 ° 0 min 0,000 mm 0,8 UV-I 118 W/m² 2,0 °C 4,8 °C 3,2 km/h (1 Bft)
08.03.2017 15:01 4,8 °C 4,8 °C 81 % 1023,3 hPa 0,0 mm 0,2 km/h (0 Bft) S 175 ° 0 min 0,076 mm 0,8 UV-I 121 W/m² 1,8 °C 4,8 °C 1,6 km/h (1 Bft)
08.03.2017 15:02 4,8 °C 4,8 °C 81 % 1023,2 hPa 0,0 mm 2,2 km/h (1 Bft) S 175 ° 0 min 0,000 mm 0,8 UV-I 125 W/m² 1,8 °C 4,8 °C 3,2 km/h (1 Bft)
08.03.2017 15:03 4,8 °C 4,8 °C 83 % 1023,2 hPa 0,0 mm 1,9 km/h (1 Bft) S 175 ° 0 min 0,000 mm 0,9 UV-I 128 W/m² 2,2 °C 4,8 °C 3,2 km/h (1 Bft)
08.03.2017 15:04 4,8 °C 4,8 °C 83 % 1023,2 hPa 0,0 mm 1,1 km/h (1 Bft) S 175 ° 0 min 0,000 mm 0,9 UV-I 134 W/m² 2,2 °C 4,8 °C 1,6 km/h (1 Bft)
08.03.2017 15:05 4,7 °C 4,8 °C 83 % 1023,1 hPa 0,0 mm 0,3 km/h (0 Bft) S 175 ° 0 min 0,000 mm 0,9 UV-I 134 W/m² 2,1 °C 4,7 °C 1,6 km/h (1 Bft)
08.03.2017 15:06 4,7 °C 4,7 °C 83 % 1023,1 hPa 0,0 mm 0,0 km/h (0 Bft) S 175 ° 0 min 0,000 mm 0,9 UV-I 134 W/m² 2,1 °C 4,7 °C 0,0 km/h (0 Bft)
08.03.2017 15:07 4,7 °C 4,7 °C 84 % 1023,1 hPa 0,0 mm 0,3 km/h (0 Bft) S 175 ° 0 min 0,000 mm 0,9 UV-I 134 W/m² 2,2 °C 4,7 °C 1,6 km/h (1 Bft)
08.03.2017 15:08 4,7 °C 4,7 °C 82 % 1023,1 hPa 0,0 mm 2,1 km/h (1 Bft) S 175 ° 0 min 0,000 mm 0,9 UV-I 134 W/m² 1,9 °C 4,7 °C 3,2 km/h (1 Bft)
08.03.2017 15:09 4,7 °C 4,7 °C 84 % 1023,1 hPa 0,0 mm 2,9 km/h (1 Bft) S 175 ° 0 min 0,000 mm 0,9 UV-I 134 W/m² 2,2 °C 4,7 °C 4,8 km/h (1 Bft)
08.03.2017 15:10 4,7 °C 4,7 °C 84 % 1023,0 hPa 0,0 mm 1,5 km/h (1 Bft) S 175 ° 0 min 0,000 mm 0,9 UV-I 134 W/m² 2,2 °C 4,7 °C 3,2 km/h (1 Bft)
08.03.2017 15:11 4,6 °C 4,7 °C 84 % 1023,0 hPa 0,0 mm 0,5 km/h (0 Bft) S 175 ° 0 min 0,000 mm 0,9 UV-I 134 W/m² 2,1 °C 4,6 °C 1,6 km/h (1 Bft)
08.03.2017 15:12 4,6 °C 4,6 °C 84 % 1023,0 hPa 0,0 mm 0,8 km/h (0 Bft) S 175 ° 0 min 0,000 mm 0,9 UV-I 137 W/m² 2,1 °C 4,6 °C 1,6 km/h (1 Bft)
08.03.2017 15:13 4,6 °C 4,6 °C 84 % 1022,9 hPa 0,0 mm 0,2 km/h (0 Bft) S 175 ° 0 min 0,000 mm 0,9 UV-I 139 W/m² 2,1 °C 4,6 °C 1,6 km/h (1 Bft)
08.03.2017 15:14 4,6 °C 4,6 °C 85 % 1022,9 hPa 0,0 mm 0,0 km/h (0 Bft) S 175 ° 0 min 0,000 mm 0,9 UV-I 144 W/m² 2,3 °C 4,6 °C 0,0 km/h (0 Bft)
08.03.2017 15:15 4,5 °C 4,6 °C 85 % 1022,9 hPa 0,0 mm 0,3 km/h (0 Bft) S 175 ° 0 min 0,000 mm 0,9 UV-I 151 W/m² 2,2 °C 4,5 °C 1,6 km/h (1 Bft)
08.03.2017 15:16 4,5 °C 4,5 °C 85 % 1022,8 hPa 0,0 mm 2,7 km/h (1 Bft) S 175 ° 0 min 0,000 mm 1,0 UV-I 155 W/m² 2,2 °C 4,5 °C 3,2 km/h (1 Bft)
08.03.2017 15:17 4,4 °C 4,5 °C 85 % 1022,8 hPa 0,0 mm 0,4 km/h (0 Bft) S 175 ° 0 min 0,000 mm 1,0 UV-I 156 W/m² 2,1 °C 4,4 °C 3,2 km/h (1 Bft)
08.03.2017 15:18 4,4 °C 4,4 °C 85 % 1022,8 hPa 0,0 mm 0,1 km/h (0 Bft) S 175 ° 0 min 0,000 mm 1,0 UV-I 158 W/m² 2,1 °C 4,4 °C 1,6 km/h (1 Bft)
08.03.2017 15:19 4,4 °C 4,4 °C 85 % 1022,7 hPa 0,0 mm 0,3 km/h (0 Bft) S 175 ° 0 min 0,000 mm 1,0 UV-I 162 W/m² 2,1 °C 4,4 °C 1,6 km/h (1 Bft)
08.03.2017 15:20 4,4 °C 4,4 °C 85 % 1022,7 hPa 0,0 mm 0,3 km/h (0 Bft) S 175 ° 0 min 0,000 mm 1,0 UV-I 165 W/m² 2,1 °C 4,4 °C 1,6 km/h (1 Bft)
08.03.2017 15:21 4,6 °C 4,6 °C 85 % 1022,7 hPa 0,0 mm 0,0 km/h (0 Bft) S 175 ° 0 min 0,000 mm 1,0 UV-I 172 W/m² 2,3 °C 4,6 °C 0,0 km/h (0 Bft)
08.03.2017 15:22 4,5 °C 4,6 °C 84 % 1022,6 hPa 0,0 mm 0,0 km/h (0 Bft) S 175 ° 0 min 0,000 mm 1,1 UV-I 176 W/m² 2,0 °C 4,5 °C 0,0 km/h (0 Bft)
08.03.2017 15:23 4,6 °C 4,6 °C 84 % 1022,6 hPa 0,0 mm 0,0 km/h (0 Bft) S 175 ° 0 min 0,000 mm 1,1 UV-I 176 W/m² 2,1 °C 4,6 °C 0,0 km/h (0 Bft)
08.03.2017 15:24 4,6 °C 4,6 °C 83 % 1022,6 hPa 0,0 mm 0,5 km/h (0 Bft) S 175 ° 0 min 0,000 mm 1,1 UV-I 186 W/m² 2,0 °C 4,6 °C 1,6 km/h (1 Bft)
08.03.2017 15:25 4,6 °C 4,6 °C 82 % 1022,6 hPa 0,0 mm 1,7 km/h (1 Bft) S 175 ° 0 min 0,000 mm 1,1 UV-I 193 W/m² 1,8 °C 4,6 °C 3,2 km/h (1 Bft)
08.03.2017 15:26 4,6 °C 4,6 °C 81 % 1022,6 hPa 0,0 mm 0,0 km/h (0 Bft) S 175 ° 0 min 0,000 mm 1,1 UV-I 197 W/m² 1,6 °C 4,6 °C 0,0 km/h (0 Bft)
08.03.2017 15:27 4,7 °C 4,7 °C 80 % 1022,6 hPa 0,0 mm 0,0 km/h (0 Bft) S 175 ° 1 min 0,000 mm 1,1 UV-I 209 W/m² 1,6 °C 4,7 °C 0,0 km/h (0 Bft)
08.03.2017 15:28 4,8 °C 4,8 °C 79 % 1022,6 hPa 0,0 mm 0,0 km/h (0 Bft) S 175 ° 1 min 0,000 mm 1,2 UV-I 220 W/m² 1,5 °C 4,8 °C 0,0 km/h (0 Bft)
08.03.2017 15:29 4,8 °C 4,8 °C 79 % 1022,5 hPa 0,0 mm 0,1 km/h (0 Bft) S 175 ° 1 min 0,000 mm 1,3 UV-I 230 W/m² 1,5 °C 4,8 °C 1,6 km/h (1 Bft)
08.03.2017 15:30 4,8 °C 4,8 °C 79 % 1022,5 hPa 0,0 mm 0,0 km/h (0 Bft) S 175 ° 1 min 0,000 mm 1,3 UV-I 230 W/m² 1,5 °C 4,8 °C 0,0 km/h (0 Bft)
08.03.2017 15:31 4,9 °C 4,9 °C 78 % 1022,4 hPa 0,0 mm 0,1 km/h (0 Bft) S 175 ° 1 min 0,000 mm 1,3 UV-I 239 W/m² 1,4 °C 4,9 °C 1,6 km/h (1 Bft)
08.03.2017 15:32 4,9 °C 4,9 °C 79 % 1022,4 hPa 0,0 mm 0,0 km/h (0 Bft) S 175 ° 1 min 0,000 mm 1,3 UV-I 237 W/m² 1,6 °C 4,9 °C 0,0 km/h (0 Bft)
08.03.2017 15:33 4,9 °C 4,9 °C 79 % 1022,4 hPa 0,0 mm 0,0 km/h (0 Bft) S 175 ° 1 min 0,000 mm 1,3 UV-I 241 W/m² 1,6 °C 4,9 °C 0,0 km/h (0 Bft)
08.03.2017 15:34 4,9 °C 4,9 °C 79 % 1022,4 hPa 0,0 mm 0,5 km/h (0 Bft) S 175 ° 1 min 0,000 mm 1,3 UV-I 241 W/m² 1,6 °C 4,9 °C 1,6 km/h (1 Bft)
08.03.2017 15:35 4,9 °C 4,9 °C 78 % 1022,3 hPa 0,0 mm 0,1 km/h (0 Bft) S 175 ° 1 min 0,000 mm 1,3 UV-I 241 W/m² 1,4 °C 4,9 °C 1,6 km/h (1 Bft)
08.03.2017 15:36 5,0 °C 5,0 °C 78 % 1022,3 hPa 0,0 mm 0,2 km/h (0 Bft) S 175 ° 1 min 0,000 mm 1,3 UV-I 241 W/m² 1,5 °C 5,0 °C 1,6 km/h (1 Bft)
08.03.2017 15:37 4,9 °C 5,0 °C 79 % 1022,3 hPa 0,0 mm 1,0 km/h (0 Bft) S 175 ° 1 min 0,000 mm 1,3 UV-I 243 W/m² 1,6 °C 4,9 °C 1,6 km/h (1 Bft)
08.03.2017 15:38 4,9 °C 4,9 °C 79 % 1022,3 hPa 0,0 mm 0,1 km/h (0 Bft) S 175 ° 1 min 0,000 mm 1,3 UV-I 229 W/m² 1,6 °C 4,9 °C 1,6 km/h (1 Bft)
08.03.2017 15:39 5,0 °C 5,0 °C 78 % 1022,3 hPa 0,0 mm 0,0 km/h (0 Bft) S 175 ° 1 min 0,000 mm 1,3 UV-I 216 W/m² 1,5 °C 5,0 °C 0,0 km/h (0 Bft)
08.03.2017 15:40 5,0 °C 5,0 °C 78 % 1022,2 hPa 0,0 mm 0,0 km/h (0 Bft) S 175 ° 1 min 0,000 mm 1,2 UV-I 207 W/m² 1,5 °C 5,0 °C 0,0 km/h (0 Bft)
08.03.2017 15:41 5,1 °C 5,1 °C 79 % 1022,2 hPa 0,0 mm 0,4 km/h (0 Bft) S 175 ° 1 min 0,000 mm 1,2 UV-I 207 W/m² 1,8 °C 5,1 °C 1,6 km/h (1 Bft)
08.03.2017 15:42 5,1 °C 5,2 °C 78 % 1022,2 hPa 0,0 mm 0,2 km/h (0 Bft) S 175 ° 0 min 0,000 mm 1,2 UV-I 199 W/m² 1,6 °C 5,1 °C 1,6 km/h (1 Bft)
08.03.2017 15:43 5,1 °C 5,2 °C 79 % 1022,2 hPa 0,0 mm 0,5 km/h (0 Bft) S 175 ° 0 min 0,000 mm 1,1 UV-I 193 W/m² 1,8 °C 5,1 °C 1,6 km/h (1 Bft)
08.03.2017 15:44 5,1 °C 5,2 °C 78 % 1022,2 hPa 0,0 mm 0,0 km/h (0 Bft) S 175 ° 0 min 0,000 mm 1,1 UV-I 192 W/m² 1,6 °C 5,1 °C 0,0 km/h (0 Bft)
08.03.2017 15:45 5,2 °C 5,2 °C 78 % 1022,2 hPa 0,0 mm 0,0 km/h (0 Bft) S 175 ° 0 min 0,000 mm 1,1 UV-I 183 W/m² 1,7 °C 5,2 °C 0,0 km/h (0 Bft)
08.03.2017 15:46 5,2 °C 5,2 °C 78 % 1022,2 hPa 0,0 mm 0,2 km/h (0 Bft) S 175 ° 0 min 0,000 mm 1,0 UV-I 174 W/m² 1,7 °C 5,2 °C 1,6 km/h (1 Bft)
08.03.2017 15:47 5,2 °C 5,2 °C 78 % 1022,2 hPa 0,0 mm 0,1 km/h (0 Bft) S 175 ° 0 min 0,000 mm 1,0 UV-I 169 W/m² 1,7 °C 5,2 °C 1,6 km/h (1 Bft)
08.03.2017 15:48 5,2 °C 5,2 °C 79 % 1022,2 hPa 0,0 mm 0,1 km/h (0 Bft) S 175 ° 0 min 0,000 mm 1,0 UV-I 165 W/m² 1,9 °C 5,2 °C 1,6 km/h (1 Bft)
08.03.2017 15:49 5,2 °C 5,2 °C 78 % 1022,1 hPa 0,0 mm 0,2 km/h (0 Bft) S 175 ° 0 min 0,000 mm 1,0 UV-I 162 W/m² 1,7 °C 5,2 °C 1,6 km/h (1 Bft)
08.03.2017 15:50 5,2 °C 5,2 °C 78 % 1022,1 hPa 0,0 mm 0,6 km/h (0 Bft) S 175 ° 0 min 0,000 mm 0,9 UV-I 155 W/m² 1,7 °C 5,2 °C 1,6 km/h (1 Bft)
08.03.2017 15:51 5,2 °C 5,3 °C 77 % 1022,1 hPa 0,0 mm 0,2 km/h (0 Bft) S 175 ° 0 min 0,000 mm 0,9 UV-I 151 W/m² 1,5 °C 5,2 °C 1,6 km/h (1 Bft)
08.03.2017 15:52 5,3 °C 5,3 °C 77 % 1022,0 hPa 0,0 mm 0,5 km/h (0 Bft) S 175 ° 0 min 0,000 mm 0,9 UV-I 148 W/m² 1,6 °C 5,3 °C 1,6 km/h (1 Bft)
08.03.2017 15:53 5,2 °C 5,3 °C 77 % 1022,0 hPa 0,0 mm 2,7 km/h (1 Bft) S-SO 153 ° 0 min 0,000 mm 0,9 UV-I 146 W/m² 1,5 °C 5,2 °C 4,8 km/h (1 Bft)
08.03.2017 15:54 5,2 °C 5,2 °C 78 % 1022,0 hPa 0,0 mm 0,5 km/h (0 Bft) S-SO 153 ° 0 min 0,000 mm 0,9 UV-I 144 W/m² 1,7 °C 5,2 °C 1,6 km/h (1 Bft)
08.03.2017 15:55 5,2 °C 5,2 °C 78 % 1022,0 hPa 0,0 mm 0,2 km/h (0 Bft) S-SO 153 ° 0 min 0,000 mm 0,9 UV-I 144 W/m² 1,7 °C 5,2 °C 1,6 km/h (1 Bft)
08.03.2017 15:56 5,2 °C 5,2 °C 79 % 1021,9 hPa 0,0 mm 0,0 km/h (0 Bft) S-SO 153 ° 0 min 0,000 mm 0,9 UV-I 148 W/m² 1,9 °C 5,2 °C 0,0 km/h (0 Bft)
08.03.2017 15:57 5,2 °C 5,2 °C 79 % 1021,9 hPa 0,0 mm 0,2 km/h (0 Bft) S-SO 153 ° 0 min 0,000 mm 0,9 UV-I 151 W/m² 1,9 °C 5,2 °C 1,6 km/h (1 Bft)
08.03.2017 15:58 5,2 °C 5,2 °C 79 % 1021,9 hPa 0,0 mm 0,1 km/h (0 Bft) S-SO 153 ° 0 min 0,000 mm 0,9 UV-I 149 W/m² 1,9 °C 5,2 °C 1,6 km/h (1 Bft)
08.03.2017 15:59 5,2 °C 5,2 °C 80 % 1021,9 hPa 0,0 mm 0,1 km/h (0 Bft) S-SO 153 ° 0 min 0,000 mm 0,9 UV-I 149 W/m² 2,0 °C 5,2 °C 1,6 km/h (1 Bft)
08.03.2017 16:00 5,1 °C 5,2 °C 80 % 1021,9 hPa 0,0 mm 0,0 km/h (0 Bft) S-SO 153 ° 0 min 0,000 mm 0,9 UV-I 141 W/m² 1,9 °C 5,1 °C 0,0 km/h (0 Bft)
08.03.2017 16:01 5,1 °C 5,1 °C 79 % 1021,9 hPa 0,0 mm 0,2 km/h (0 Bft) S-SO 153 ° 0 min 0,076 mm 0,8 UV-I 139 W/m² 1,8 °C 5,1 °C 1,6 km/h (1 Bft)
08.03.2017 16:02 5,2 °C 5,2 °C 78 % 1021,8 hPa 0,0 mm 0,7 km/h (0 Bft) S-SO 153 ° 0 min 0,000 mm 0,8 UV-I 135 W/m² 1,7 °C 5,2 °C 1,6 km/h (1 Bft)
08.03.2017 16:03 5,2 °C 5,2 °C 79 % 1021,9 hPa 0,0 mm 0,1 km/h (0 Bft) S-SO 153 ° 0 min 0,000 mm 0,8 UV-I 134 W/m² 1,9 °C 5,2 °C 1,6 km/h (1 Bft)
08.03.2017 16:04 5,2 °C 5,2 °C 79 % 1021,9 hPa 0,0 mm 1,1 km/h (1 Bft) SW 232 ° 0 min 0,000 mm 0,8 UV-I 132 W/m² 1,9 °C 5,2 °C 3,2 km/h (1 Bft)
08.03.2017 16:05 5,1 °C 5,2 °C 79 % 1021,9 hPa 0,0 mm 1,8 km/h (1 Bft) O-SO 115 ° 0 min 0,000 mm 0,8 UV-I 130 W/m² 1,8 °C 5,1 °C 3,2 km/h (1 Bft)
08.03.2017 16:06 4,9 °C 5,1 °C 80 % 1021,9 hPa 0,0 mm 0,8 km/h (0 Bft) O-SO 115 ° 0 min 0,000 mm 0,8 UV-I 127 W/m² 1,7 °C 4,9 °C 1,6 km/h (1 Bft)
08.03.2017 16:07 5,0 °C 5,0 °C 79 % 1021,9 hPa 0,0 mm 3,0 km/h (1 Bft) O-NO 76 ° 0 min 0,000 mm 0,8 UV-I 121 W/m² 1,7 °C 5,0 °C 6,4 km/h (2 Bft)
08.03.2017 16:08 4,9 °C 5,1 °C 80 % 1021,9 hPa 0,0 mm 3,6 km/h (1 Bft) O-NO 76 ° 0 min 0,000 mm 0,7 UV-I 113 W/m² 1,7 °C 4,9 °C 4,8 km/h (1 Bft)
08.03.2017 16:09 4,9 °C 4,9 °C 80 % 1021,9 hPa 0,0 mm 1,0 km/h (0 Bft) O-NO 76 ° 0 min 0,000 mm 0,7 UV-I 111 W/m² 1,7 °C 4,9 °C 3,2 km/h (1 Bft)
08.03.2017 16:10 4,9 °C 4,9 °C 80 % 1021,9 hPa 0,0 mm 0,1 km/h (0 Bft) O-NO 76 ° 0 min 0,000 mm 0,7 UV-I 107 W/m² 1,7 °C 4,9 °C 1,6 km/h (1 Bft)
08.03.2017 16:11 4,9 °C 4,9 °C 79 % 1021,9 hPa 0,0 mm 0,0 km/h (0 Bft) O-NO 76 ° 0 min 0,000 mm 0,7 UV-I 105 W/m² 1,6 °C 4,9 °C 0,0 km/h (0 Bft)
08.03.2017 16:12 5,0 °C 5,0 °C 80 % 1021,8 hPa 0,0 mm 0,0 km/h (0 Bft) O-NO 76 ° 0 min 0,000 mm 0,7 UV-I 104 W/m² 1,8 °C 5,0 °C 0,0 km/h (0 Bft)
08.03.2017 16:13 5,1 °C 5,1 °C 81 % 1021,8 hPa 0,0 mm 0,0 km/h (0 Bft) O-NO 76 ° 0 min 0,000 mm 0,7 UV-I 102 W/m² 2,1 °C 5,1 °C 0,0 km/h (0 Bft)
08.03.2017 16:14 5,1 °C 5,1 °C 81 % 1021,8 hPa 0,0 mm 0,0 km/h (0 Bft) O-NO 76 ° 0 min 0,000 mm 0,6 UV-I 95 W/m² 2,1 °C 5,1 °C 0,0 km/h (0 Bft)
08.03.2017 16:15 5,0 °C 5,1 °C 80 % 1021,7 hPa 0,0 mm 0,0 km/h (0 Bft) O-NO 76 ° 0 min 0,000 mm 0,6 UV-I 91 W/m² 1,8 °C 5,0 °C 0,0 km/h (0 Bft)
08.03.2017 16:16 4,9 °C 5,0 °C 80 % 1021,7 hPa 0,0 mm 0,0 km/h (0 Bft) O-NO 76 ° 0 min 0,000 mm 0,6 UV-I 86 W/m² 1,7 °C 4,9 °C 0,0 km/h (0 Bft)
08.03.2017 16:17 4,9 °C 4,9 °C 81 % 1021,7 hPa 0,0 mm 0,0 km/h (0 Bft) O-NO 76 ° 0 min 0,000 mm 0,5 UV-I 86 W/m² 1,9 °C 4,9 °C 0,0 km/h (0 Bft)
08.03.2017 16:18 4,8 °C 4,9 °C 81 % 1021,7 hPa 0,0 mm 0,1 km/h (0 Bft) O-NO 76 ° 0 min 0,000 mm 0,5 UV-I 79 W/m² 1,8 °C 4,8 °C 1,6 km/h (1 Bft)
08.03.2017 16:19 4,8 °C 4,8 °C 82 % 1021,7 hPa 0,0 mm 0,7 km/h (0 Bft) O-NO 76 ° 0 min 0,000 mm 0,5 UV-I 76 W/m² 2,0 °C 4,8 °C 1,6 km/h (1 Bft)
08.03.2017 16:20 4,8 °C 4,8 °C 81 % 1021,7 hPa 0,0 mm 0,9 km/h (0 Bft) O-NO 76 ° 0 min 0,000 mm 0,5 UV-I 76 W/m² 1,8 °C 4,8 °C 1,6 km/h (1 Bft)
08.03.2017 16:21 4,8 °C 4,8 °C 82 % 1021,6 hPa 0,0 mm 0,0 km/h (0 Bft) O-NO 76 ° 0 min 0,000 mm 0,5 UV-I 77 W/m² 2,0 °C 4,8 °C 0,0 km/h (0 Bft)
08.03.2017 16:22 4,9 °C 4,9 °C 81 % 1021,6 hPa 0,0 mm 1,1 km/h (1 Bft) O-NO 76 ° 0 min 0,000 mm 0,5 UV-I 79 W/m² 1,9 °C 4,9 °C 3,2 km/h (1 Bft)
08.03.2017 16:23 4,8 °C 4,9 °C 80 % 1021,6 hPa 0,0 mm 2,7 km/h (1 Bft) N 360 ° 0 min 0,000 mm 0,5 UV-I 83 W/m² 1,6 °C 4,8 °C 4,8 km/h (1 Bft)
08.03.2017 16:24 4,8 °C 4,8 °C 80 % 1021,6 hPa 0,0 mm 1,2 km/h (1 Bft) N 360 ° 0 min 0,000 mm 0,5 UV-I 84 W/m² 1,6 °C 4,8 °C 3,2 km/h (1 Bft)
08.03.2017 16:25 4,9 °C 4,9 °C 80 % 1021,6 hPa 0,0 mm 0,0 km/h (0 Bft) N 360 ° 0 min 0,000 mm 0,5 UV-I 88 W/m² 1,7 °C 4,9 °C 0,0 km/h (0 Bft)
08.03.2017 16:26 4,9 °C 4,9 °C 80 % 1021,6 hPa 0,0 mm 0,7 km/h (0 Bft) N 360 ° 0 min 0,000 mm 0,5 UV-I 90 W/m² 1,7 °C 4,9 °C 3,2 km/h (1 Bft)
08.03.2017 16:27 4,9 °C 4,9 °C 78 % 1021,6 hPa 0,0 mm 0,8 km/h (0 Bft) N 360 ° 0 min 0,000 mm 0,5 UV-I 90 W/m² 1,4 °C 4,9 °C 1,6 km/h (1 Bft)
08.03.2017 16:28 5,0 °C 5,1 °C 78 % 1021,6 hPa 0,0 mm 0,1 km/h (0 Bft) N 360 ° 0 min 0,000 mm 0,5 UV-I 88 W/m² 1,5 °C 5,0 °C 1,6 km/h (1 Bft)
08.03.2017 16:29 5,1 °C 5,1 °C 78 % 1021,6 hPa 0,0 mm 0,3 km/h (0 Bft) N 360 ° 0 min 0,000 mm 0,5 UV-I 88 W/m² 1,6 °C 5,1 °C 1,6 km/h (1 Bft)
08.03.2017 16:30 5,1 °C 5,1 °C 78 % 1021,6 hPa 0,0 mm 0,4 km/h (0 Bft) N 360 ° 0 min 0,000 mm 0,5 UV-I 88 W/m² 1,6 °C 5,1 °C 1,6 km/h (1 Bft)
08.03.2017 16:31 5,1 °C 5,1 °C 78 % 1021,5 hPa 0,0 mm 0,0 km/h (0 Bft) N 360 ° 0 min 0,000 mm 0,5 UV-I 88 W/m² 1,6 °C 5,1 °C 0,0 km/h (0 Bft)
08.03.2017 16:32 5,1 °C 5,1 °C 79 % 1021,5 hPa 0,0 mm 0,3 km/h (0 Bft) N 360 ° 0 min 0,000 mm 0,5 UV-I 88 W/m² 1,8 °C 5,1 °C 1,6 km/h (1 Bft)
08.03.2017 16:33 5,1 °C 5,1 °C 79 % 1021,5 hPa 0,0 mm 0,2 km/h (0 Bft) N 360 ° 0 min 0,000 mm 0,5 UV-I 90 W/m² 1,8 °C 5,1 °C 3,2 km/h (1 Bft)
08.03.2017 16:34 5,0 °C 5,1 °C 79 % 1021,6 hPa 0,0 mm 3,6 km/h (1 Bft) W 270 ° 0 min 0,000 mm 0,5 UV-I 90 W/m² 1,7 °C 5,0 °C 4,8 km/h (1 Bft)
08.03.2017 16:35 4,9 °C 5,0 °C 79 % 1021,6 hPa 0,0 mm 1,9 km/h (1 Bft) W 270 ° 0 min 0,000 mm 0,5 UV-I 90 W/m² 1,6 °C 4,9 °C 3,2 km/h (1 Bft)
08.03.2017 16:36 4,8 °C 4,9 °C 80 % 1021,6 hPa 0,0 mm 2,8 km/h (1 Bft) W 269 ° 0 min 0,000 mm 0,5 UV-I 88 W/m² 1,6 °C 4,8 °C 4,8 km/h (1 Bft)
08.03.2017 16:37 4,7 °C 4,8 °C 80 % 1021,6 hPa 0,0 mm 3,4 km/h (1 Bft) W 269 ° 0 min 0,000 mm 0,5 UV-I 84 W/m² 1,6 °C 4,7 °C 4,8 km/h (1 Bft)
08.03.2017 16:38 4,7 °C 4,7 °C 79 % 1021,6 hPa 0,0 mm 3,9 km/h (1 Bft) S-SW 202 ° 0 min 0,000 mm 0,5 UV-I 81 W/m² 1,4 °C 4,7 °C 4,8 km/h (1 Bft)
08.03.2017 16:39 4,6 °C 4,7 °C 80 % 1021,5 hPa 0,0 mm 3,0 km/h (1 Bft) SW 227 ° 0 min 0,000 mm 0,5 UV-I 79 W/m² 1,5 °C 4,6 °C 4,8 km/h (1 Bft)
08.03.2017 16:40 4,5 °C 4,6 °C 80 % 1021,5 hPa 0,0 mm 2,7 km/h (1 Bft) W-NW 288 ° 0 min 0,000 mm 0,0 UV-I 77 W/m² 1,4 °C 4,5 °C 6,4 km/h (2 Bft)
08.03.2017 16:41 4,5 °C 4,5 °C 81 % 1021,6 hPa 0,0 mm 4,6 km/h (1 Bft) W 265 ° 0 min 0,000 mm 0,0 UV-I 76 W/m² 1,5 °C 3,7 °C 6,4 km/h (2 Bft)
08.03.2017 16:42 4,5 °C 4,5 °C 81 % 1021,6 hPa 0,0 mm 6,0 km/h (2 Bft) W-SW 246 ° 0 min 0,000 mm 0,0 UV-I 74 W/m² 1,5 °C 3,1 °C 8,0 km/h (2 Bft)
08.03.2017 16:43 4,5 °C 4,6 °C 81 % 1021,5 hPa 0,0 mm 4,2 km/h (1 Bft) SW 223 ° 0 min 0,000 mm 0,0 UV-I 72 W/m² 1,5 °C 4,5 °C 4,8 km/h (1 Bft)
08.03.2017 16:44 4,5 °C 4,5 °C 80 % 1021,6 hPa 0,0 mm 3,1 km/h (1 Bft) SW 215 ° 0 min 0,000 mm 0,0 UV-I 70 W/m² 1,4 °C 4,5 °C 4,8 km/h (1 Bft)
08.03.2017 16:45 4,6 °C 4,6 °C 79 % 1021,5 hPa 0,0 mm 2,6 km/h (1 Bft) S-SW 198 ° 0 min 0,000 mm 0,0 UV-I 70 W/m² 1,3 °C 4,6 °C 3,2 km/h (1 Bft)
08.03.2017 16:46 4,7 °C 4,7 °C 79 % 1021,6 hPa 0,0 mm 3,2 km/h (1 Bft) S-SW 198 ° 0 min 0,000 mm 0,0 UV-I 70 W/m² 1,4 °C 4,7 °C 4,8 km/h (1 Bft)
08.03.2017 16:47 4,7 °C 4,7 °C 78 % 1021,6 hPa 0,0 mm 2,0 km/h (1 Bft) S-SW 198 ° 0 min 0,000 mm 0,0 UV-I 70 W/m² 1,2 °C 4,7 °C 3,2 km/h (1 Bft)
08.03.2017 16:48 4,7 °C 4,7 °C 79 % 1021,6 hPa 0,0 mm 2,1 km/h (1 Bft) S-SW 198 ° 0 min 0,000 mm 0,0 UV-I 72 W/m² 1,4 °C 4,7 °C 3,2 km/h (1 Bft)
08.03.2017 16:49 4,7 °C 4,7 °C 80 % 1021,6 hPa 0,0 mm 3,5 km/h (1 Bft) W-SW 246 ° 0 min 0,000 mm 0,0 UV-I 74 W/m² 1,6 °C 4,7 °C 4,8 km/h (1 Bft)
08.03.2017 16:50 4,6 °C 4,7 °C 80 % 1021,6 hPa 0,0 mm 3,8 km/h (1 Bft) S-SW 205 ° 0 min 0,000 mm 0,0 UV-I 76 W/m² 1,5 °C 4,6 °C 4,8 km/h (1 Bft)
08.03.2017 16:51 4,6 °C 4,6 °C 81 % 1021,6 hPa 0,0 mm 3,2 km/h (1 Bft) S 188 ° 0 min 0,000 mm 0,0 UV-I 77 W/m² 1,6 °C 4,6 °C 4,8 km/h (1 Bft)
08.03.2017 16:52 4,6 °C 4,6 °C 80 % 1021,6 hPa 0,0 mm 3,0 km/h (1 Bft) S 188 ° 0 min 0,000 mm 0,0 UV-I 77 W/m² 1,5 °C 4,6 °C 3,2 km/h (1 Bft)
08.03.2017 16:53 4,6 °C 4,6 °C 80 % 1021,6 hPa 0,0 mm 3,0 km/h (1 Bft) S 188 ° 0 min 0,000 mm 0,0 UV-I 77 W/m² 1,5 °C 4,6 °C 4,8 km/h (1 Bft)
08.03.2017 16:54 4,6 °C 4,6 °C 81 % 1021,7 hPa 0,0 mm 2,9 km/h (1 Bft) S 188 ° 0 min 0,000 mm 0,0 UV-I 77 W/m² 1,6 °C 4,6 °C 4,8 km/h (1 Bft)
08.03.2017 16:55 4,4 °C 4,6 °C 82 % 1021,7 hPa 0,0 mm 4,1 km/h (1 Bft) S-SW 198 ° 0 min 0,000 mm 0,0 UV-I 77 W/m² 1,6 °C 4,4 °C 6,4 km/h (2 Bft)
08.03.2017 16:56 4,4 °C 4,4 °C 82 % 1021,7 hPa 0,0 mm 2,5 km/h (1 Bft) S-SW 204 ° 0 min 0,000 mm 0,0 UV-I 76 W/m² 1,6 °C 4,4 °C 4,8 km/h (1 Bft)
08.03.2017 16:57 4,4 °C 4,4 °C 82 % 1021,7 hPa 0,0 mm 4,6 km/h (1 Bft) S 191 ° 0 min 0,000 mm 0,0 UV-I 74 W/m² 1,6 °C 3,6 °C 4,8 km/h (1 Bft)
08.03.2017 16:58 4,4 °C 4,4 °C 82 % 1021,7 hPa 0,0 mm 3,3 km/h (1 Bft) S 191 ° 0 min 0,000 mm 0,0 UV-I 72 W/m² 1,6 °C 4,4 °C 4,8 km/h (1 Bft)
08.03.2017 16:59 4,3 °C 4,4 °C 82 % 1021,6 hPa 0,0 mm 2,7 km/h (1 Bft) S 191 ° 0 min 0,000 mm 0,0 UV-I 70 W/m² 1,5 °C 4,3 °C 4,8 km/h (1 Bft)
08.03.2017 17:00 4,4 °C 4,4 °C 82 % 1021,6 hPa 0,0 mm 3,6 km/h (1 Bft) S 191 ° 0 min 0,000 mm 0,0 UV-I 69 W/m² 1,6 °C 4,4 °C 4,8 km/h (1 Bft)
08.03.2017 17:01 4,4 °C 4,4 °C 83 % 1021,6 hPa 0,0 mm 2,4 km/h (1 Bft) S 191 ° 0 min 0,051 mm 0,0 UV-I 63 W/m² 1,8 °C 4,4 °C 3,2 km/h (1 Bft)
08.03.2017 17:02 4,4 °C 4,4 °C 83 % 1021,6 hPa 0,0 mm 2,6 km/h (1 Bft) S 191 ° 0 min 0,000 mm 0,0 UV-I 62 W/m² 1,8 °C 4,4 °C 3,2 km/h (1 Bft)
08.03.2017 17:03 4,4 °C 4,4 °C 83 % 1021,6 hPa 0,0 mm 2,5 km/h (1 Bft) S 191 ° 0 min 0,000 mm 0,0 UV-I 60 W/m² 1,8 °C 4,4 °C 3,2 km/h (1 Bft)
08.03.2017 17:04 4,4 °C 4,4 °C 84 % 1021,6 hPa 0,0 mm 3,0 km/h (1 Bft) S 191 ° 0 min 0,000 mm 0,0 UV-I 58 W/m² 1,9 °C 4,4 °C 4,8 km/h (1 Bft)
08.03.2017 17:05 4,4 °C 4,4 °C 84 % 1021,6 hPa 0,0 mm 2,9 km/h (1 Bft) S 191 ° 0 min 0,000 mm 0,0 UV-I 56 W/m² 1,9 °C 4,4 °C 4,8 km/h (1 Bft)
08.03.2017 17:06 4,4 °C 4,4 °C 84 % 1021,6 hPa 0,0 mm 3,7 km/h (1 Bft) S 191 ° 0 min 0,000 mm 0,0 UV-I 54 W/m² 1,9 °C 4,4 °C 6,4 km/h (2 Bft)
08.03.2017 17:07 4,4 °C 4,4 °C 84 % 1021,5 hPa 0,0 mm 3,0 km/h (1 Bft) S 191 ° 0 min 0,000 mm 0,0 UV-I 53 W/m² 1,9 °C 4,4 °C 4,8 km/h (1 Bft)
08.03.2017 17:08 4,4 °C 4,4 °C 85 % 1021,6 hPa 0,0 mm 1,9 km/h (1 Bft) S 191 ° 0 min 0,000 mm 0,0 UV-I 51 W/m² 2,1 °C 4,4 °C 3,2 km/h (1 Bft)
08.03.2017 17:09 4,4 °C 4,5 °C 85 % 1021,5 hPa 0,0 mm 2,6 km/h (1 Bft) S 191 ° 0 min 0,000 mm 0,0 UV-I 49 W/m² 2,1 °C 4,4 °C 3,2 km/h (1 Bft)
08.03.2017 17:10 4,4 °C 4,4 °C 85 % 1021,5 hPa 0,0 mm 3,7 km/h (1 Bft) SW 234 ° 0 min 0,000 mm 0,0 UV-I 49 W/m² 2,1 °C 4,4 °C 4,8 km/h (1 Bft)
08.03.2017 17:11 4,5 °C 4,5 °C 86 % 1021,5 hPa 0,0 mm 3,4 km/h (1 Bft) SW 225 ° 0 min 0,000 mm 0,0 UV-I 47 W/m² 2,4 °C 4,5 °C 4,8 km/h (1 Bft)
08.03.2017 17:12 4,4 °C 4,5 °C 86 % 1021,6 hPa 0,0 mm 2,9 km/h (1 Bft) W-SW 246 ° 0 min 0,000 mm 0,0 UV-I 44 W/m² 2,3 °C 4,4 °C 4,8 km/h (1 Bft)
08.03.2017 17:13 4,5 °C 4,5 °C 85 % 1021,6 hPa 0,0 mm 2,7 km/h (1 Bft) W-SW 246 ° 0 min 0,000 mm 0,0 UV-I 42 W/m² 2,2 °C 4,5 °C 4,8 km/h (1 Bft)
08.03.2017 17:14 4,4 °C 4,5 °C 85 % 1021,6 hPa 0,0 mm 2,8 km/h (1 Bft) W-SW 246 ° 0 min 0,000 mm 0,0 UV-I 40 W/m² 2,1 °C 4,4 °C 4,8 km/h (1 Bft)
08.03.2017 17:15 4,4 °C 4,4 °C 85 % 1021,6 hPa 0,0 mm 3,3 km/h (1 Bft) W-SW 246 ° 0 min 0,000 mm 0,0 UV-I 39 W/m² 2,1 °C 4,4 °C 4,8 km/h (1 Bft)
08.03.2017 17:16 4,4 °C 4,4 °C 85 % 1021,6 hPa 0,0 mm 3,3 km/h (1 Bft) SW 230 ° 0 min 0,000 mm 0,0 UV-I 39 W/m² 2,1 °C 4,4 °C 6,4 km/h (2 Bft)
08.03.2017 17:17 4,4 °C 4,4 °C 85 % 1021,7 hPa 0,0 mm 2,5 km/h (1 Bft) SW 216 ° 0 min 0,000 mm 0,0 UV-I 37 W/m² 2,1 °C 4,4 °C 4,8 km/h (1 Bft)
08.03.2017 17:18 4,4 °C 4,4 °C 85 % 1021,6 hPa 0,0 mm 2,9 km/h (1 Bft) SW 216 ° 0 min 0,000 mm 0,0 UV-I 35 W/m² 2,1 °C 4,4 °C 4,8 km/h (1 Bft)
08.03.2017 17:19 4,4 °C 4,4 °C 84 % 1021,7 hPa 0,0 mm 2,8 km/h (1 Bft) SW 229 ° 0 min 0,000 mm 0,0 UV-I 33 W/m² 1,9 °C 4,4 °C 3,2 km/h (1 Bft)
08.03.2017 17:20 4,4 °C 4,4 °C 84 % 1021,6 hPa 0,0 mm 2,0 km/h (1 Bft) SW 229 ° 0 min 0,000 mm 0,0 UV-I 33 W/m² 1,9 °C 4,4 °C 4,8 km/h (1 Bft)
08.03.2017 17:21 4,4 °C 4,4 °C 84 % 1021,6 hPa 0,0 mm 3,6 km/h (1 Bft) SW 228 ° 0 min 0,000 mm 0,0 UV-I 32 W/m² 1,9 °C 4,4 °C 4,8 km/h (1 Bft)
08.03.2017 17:22 4,4 °C 4,5 °C 83 % 1021,6 hPa 0,0 mm 2,1 km/h (1 Bft) S-SW 205 ° 0 min 0,000 mm 0,0 UV-I 30 W/m² 1,8 °C 4,4 °C 3,2 km/h (1 Bft)
08.03.2017 17:23 4,5 °C 4,5 °C 82 % 1021,6 hPa 0,0 mm 3,4 km/h (1 Bft) S-SW 205 ° 0 min 0,000 mm 0,0 UV-I 28 W/m² 1,7 °C 4,5 °C 4,8 km/h (1 Bft)
08.03.2017 17:24 4,5 °C 4,5 °C 82 % 1021,6 hPa 0,0 mm 4,2 km/h (1 Bft) S-SW 205 ° 0 min 0,000 mm 0,0 UV-I 25 W/m² 1,7 °C 4,5 °C 4,8 km/h (1 Bft)
08.03.2017 17:25 4,5 °C 4,6 °C 82 % 1021,7 hPa 0,0 mm 3,2 km/h (1 Bft) S-SW 205 ° 0 min 0,000 mm 0,0 UV-I 23 W/m² 1,7 °C 4,5 °C 4,8 km/h (1 Bft)
08.03.2017 17:26 4,5 °C 4,6 °C 81 % 1021,6 hPa 0,0 mm 2,1 km/h (1 Bft) S-SW 205 ° 0 min 0,000 mm 0,0 UV-I 21 W/m² 1,5 °C 4,5 °C 3,2 km/h (1 Bft)
08.03.2017 17:27 4,4 °C 4,5 °C 81 % 1021,6 hPa 0,0 mm 2,9 km/h (1 Bft) W-SW 255 ° 0 min 0,000 mm 0,0 UV-I 19 W/m² 1,4 °C 4,4 °C 4,8 km/h (1 Bft)
08.03.2017 17:28 4,4 °C 4,5 °C 81 % 1021,6 hPa 0,0 mm 1,4 km/h (1 Bft) W-SW 255 ° 0 min 0,000 mm 0,0 UV-I 18 W/m² 1,4 °C 4,4 °C 3,2 km/h (1 Bft)
08.03.2017 17:29 4,4 °C 4,4 °C 82 % 1021,6 hPa 0,0 mm 2,0 km/h (1 Bft) W-SW 255 ° 0 min 0,000 mm 0,0 UV-I 18 W/m² 1,6 °C 4,4 °C 3,2 km/h (1 Bft)
08.03.2017 17:30 4,3 °C 4,4 °C 82 % 1021,6 hPa 0,0 mm 3,0 km/h (1 Bft) SW 232 ° 0 min 0,000 mm 0,0 UV-I 14 W/m² 1,5 °C 4,3 °C 3,2 km/h (1 Bft)
08.03.2017 17:31 4,3 °C 4,3 °C 82 % 1021,6 hPa 0,0 mm 3,1 km/h (1 Bft) SW 232 ° 0 min 0,000 mm 0,0 UV-I 14 W/m² 1,5 °C 4,3 °C 4,8 km/h (1 Bft)
08.03.2017 17:32 4,3 °C 4,3 °C 82 % 1021,6 hPa 0,0 mm 3,3 km/h (1 Bft) SW 231 ° 0 min 0,000 mm 0,0 UV-I 12 W/m² 1,5 °C 4,3 °C 4,8 km/h (1 Bft)
08.03.2017 17:33 4,3 °C 4,3 °C 82 % 1021,6 hPa 0,0 mm 2,1 km/h (1 Bft) SW 231 ° 0 min 0,000 mm 0,0 UV-I 12 W/m² 1,5 °C 4,3 °C 3,2 km/h (1 Bft)
08.03.2017 17:34 4,3 °C 4,3 °C 82 % 1021,7 hPa 0,0 mm 3,7 km/h (1 Bft) S-SW 192 ° 0 min 0,000 mm 0,0 UV-I 11 W/m² 1,5 °C 4,3 °C 4,8 km/h (1 Bft)
08.03.2017 17:35 4,3 °C 4,3 °C 82 % 1021,6 hPa 0,0 mm 2,3 km/h (1 Bft) S 187 ° 0 min 0,000 mm 0,0 UV-I 11 W/m² 1,5 °C 4,3 °C 3,2 km/h (1 Bft)
08.03.2017 17:36 4,3 °C 4,3 °C 82 % 1021,6 hPa 0,0 mm 2,9 km/h (1 Bft) S 187 ° 0 min 0,000 mm 0,0 UV-I 9 W/m² 1,5 °C 4,3 °C 4,8 km/h (1 Bft)
08.03.2017 17:37 4,3 °C 4,3 °C 82 % 1021,6 hPa 0,0 mm 3,4 km/h (1 Bft) S-SW 194 ° 0 min 0,000 mm 0,0 UV-I 9 W/m² 1,5 °C 4,3 °C 6,4 km/h (2 Bft)
08.03.2017 17:38 4,2 °C 4,3 °C 82 % 1021,6 hPa 0,0 mm 4,2 km/h (1 Bft) S-SW 194 ° 0 min 0,000 mm 0,0 UV-I 9 W/m² 1,4 °C 4,2 °C 6,4 km/h (2 Bft)
08.03.2017 17:39 4,2 °C 4,2 °C 83 % 1021,6 hPa 0,0 mm 5,6 km/h (1 Bft) S 189 ° 0 min 0,000 mm 0,0 UV-I 9 W/m² 1,6 °C 2,9 °C 9,7 km/h (2 Bft)
08.03.2017 17:40 4,2 °C 4,2 °C 82 % 1021,6 hPa 0,0 mm 4,6 km/h (1 Bft) S-SW 202 ° 0 min 0,000 mm 0,0 UV-I 9 W/m² 1,4 °C 3,3 °C 6,4 km/h (2 Bft)
08.03.2017 17:41 4,2 °C 4,2 °C 83 % 1021,6 hPa 0,0 mm 1,9 km/h (1 Bft) S 173 ° 0 min 0,000 mm 0,0 UV-I 9 W/m² 1,6 °C 4,2 °C 3,2 km/h (1 Bft)
08.03.2017 17:42 4,1 °C 4,2 °C 82 % 1021,6 hPa 0,0 mm 1,6 km/h (1 Bft) S 173 ° 0 min 0,000 mm 0,0 UV-I 7 W/m² 1,3 °C 4,1 °C 3,2 km/h (1 Bft)
08.03.2017 17:43 4,1 °C 4,2 °C 83 % 1021,5 hPa 0,0 mm 1,3 km/h (1 Bft) S 173 ° 0 min 0,000 mm 0,0 UV-I 7 W/m² 1,5 °C 4,1 °C 3,2 km/h (1 Bft)
08.03.2017 17:44 4,1 °C 4,1 °C 83 % 1021,5 hPa 0,0 mm 0,8 km/h (0 Bft) S 173 ° 0 min 0,000 mm 0,0 UV-I 7 W/m² 1,5 °C 4,1 °C 1,6 km/h (1 Bft)
08.03.2017 17:45 4,0 °C 4,1 °C 84 % 1021,6 hPa 0,0 mm 3,6 km/h (1 Bft) S-SW 197 ° 0 min 0,000 mm 0,0 UV-I 7 W/m² 1,5 °C 4,0 °C 6,4 km/h (2 Bft)
08.03.2017 17:46 4,0 °C 4,0 °C 84 % 1021,6 hPa 0,0 mm 3,6 km/h (1 Bft) S 170 ° 0 min 0,000 mm 0,0 UV-I 7 W/m² 1,5 °C 4,0 °C 6,4 km/h (2 Bft)
08.03.2017 17:47 4,0 °C 4,0 °C 83 % 1021,6 hPa 0,0 mm 6,2 km/h (2 Bft) S-SW 207 ° 0 min 0,000 mm 0,0 UV-I 7 W/m² 1,4 °C 2,5 °C 9,7 km/h (2 Bft)
08.03.2017 17:48 4,0 °C 4,0 °C 82 % 1021,6 hPa 0,0 mm 7,3 km/h (2 Bft) S-SW 193 ° 0 min 0,000 mm 0,0 UV-I 5 W/m² 1,2 °C 2,2 °C 9,7 km/h (2 Bft)
08.03.2017 17:49 4,1 °C 4,1 °C 82 % 1021,6 hPa 0,0 mm 8,0 km/h (2 Bft) S-SW 199 ° 0 min 0,000 mm 0,0 UV-I 5 W/m² 1,3 °C 2,1 °C 9,7 km/h (2 Bft)
08.03.2017 17:50 4,1 °C 4,1 °C 82 % 1021,6 hPa 0,0 mm 5,0 km/h (1 Bft) S 189 ° 0 min 0,000 mm 0,0 UV-I 5 W/m² 1,3 °C 3,1 °C 9,7 km/h (2 Bft)
08.03.2017 17:51 4,1 °C 4,1 °C 82 % 1021,6 hPa 0,0 mm 5,2 km/h (1 Bft) SW 221 ° 0 min 0,000 mm 0,0 UV-I 5 W/m² 1,3 °C 3,0 °C 6,4 km/h (2 Bft)
08.03.2017 17:52 4,1 °C 4,1 °C 81 % 1021,6 hPa 0,0 mm 5,1 km/h (1 Bft) S-SW 202 ° 0 min 0,000 mm 0,0 UV-I 5 W/m² 1,1 °C 3,0 °C 6,4 km/h (2 Bft)
08.03.2017 17:53 4,1 °C 4,1 °C 80 % 1021,6 hPa 0,0 mm 5,8 km/h (2 Bft) S 187 ° 0 min 0,000 mm 0,0 UV-I 0 W/m² 1,0 °C 2,8 °C 9,7 km/h (2 Bft)
08.03.2017 17:54 4,1 °C 4,1 °C 79 % 1021,6 hPa 0,0 mm 5,7 km/h (1 Bft) SW 222 ° 0 min 0,000 mm 0,0 UV-I 0 W/m² 0,8 °C 2,8 °C 8,0 km/h (2 Bft)
08.03.2017 17:55 4,1 °C 4,1 °C 79 % 1021,6 hPa 0,0 mm 4,3 km/h (1 Bft) W-SW 249 ° 0 min 0,000 mm 0,0 UV-I 0 W/m² 0,8 °C 4,1 °C 6,4 km/h (2 Bft)
08.03.2017 17:56 4,1 °C 4,1 °C 79 % 1021,6 hPa 0,0 mm 5,5 km/h (1 Bft) W 279 ° 0 min 0,000 mm 0,0 UV-I 0 W/m² 0,8 °C 2,9 °C 6,4 km/h (2 Bft)
08.03.2017 17:57 4,1 °C 4,2 °C 79 % 1021,6 hPa 0,0 mm 5,8 km/h (2 Bft) W-SW 257 ° 0 min 0,000 mm 0,0 UV-I 0 W/m² 0,8 °C 2,8 °C 11,3 km/h (2 Bft)
08.03.2017 17:58 4,1 °C 4,1 °C 79 % 1021,6 hPa 0,0 mm 6,6 km/h (2 Bft) W 261 ° 0 min 0,000 mm 0,0 UV-I 0 W/m² 0,8 °C 2,5 °C 11,3 km/h (2 Bft)
08.03.2017 17:59 4,1 °C 4,1 °C 79 % 1021,6 hPa 0,0 mm 2,5 km/h (1 Bft) SW 236 ° 0 min 0,000 mm 0,0 UV-I 0 W/m² 0,8 °C 4,1 °C 4,8 km/h (1 Bft)
08.03.2017 18:00 4,1 °C 4,1 °C 79 % 1021,6 hPa 0,0 mm 4,8 km/h (1 Bft) W-SW 252 ° 0 min 0,000 mm 0,0 UV-I 0 W/m² 0,8 °C 3,1 °C 8,0 km/h (2 Bft)
08.03.2017 18:01 4,1 °C 4,1 °C 79 % 1021,6 hPa 0,0 mm 3,1 km/h (1 Bft) SW 217 ° 0 min 0,025 mm 0,0 UV-I 0 W/m² 0,8 °C 4,1 °C 6,4 km/h (2 Bft)
08.03.2017 18:02 4,1 °C 4,1 °C 79 % 1021,6 hPa 0,0 mm 2,1 km/h (1 Bft) S-SW 192 ° 0 min 0,000 mm 0,0 UV-I 0 W/m² 0,8 °C 4,1 °C 4,8 km/h (1 Bft)
08.03.2017 18:03 4,1 °C 4,1 °C 79 % 1021,6 hPa 0,0 mm 2,4 km/h (1 Bft) S-SW 192 ° 0 min 0,000 mm 0,0 UV-I 0 W/m² 0,8 °C 4,1 °C 3,2 km/h (1 Bft)
08.03.2017 18:04 4,1 °C 4,1 °C 79 % 1021,6 hPa 0,0 mm 2,0 km/h (1 Bft) S-SW 193 ° 0 min 0,000 mm 0,0 UV-I 0 W/m² 0,8 °C 4,1 °C 4,8 km/h (1 Bft)
08.03.2017 18:05 4,0 °C 4,1 °C 80 % 1021,6 hPa 0,0 mm 1,2 km/h (1 Bft) S-SW 194 ° 0 min 0,000 mm 0,0 UV-I 0 W/m² 0,9 °C 4,0 °C 3,2 km/h (1 Bft)
08.03.2017 18:06 4,1 °C 4,1 °C 79 % 1021,6 hPa 0,0 mm 2,7 km/h (1 Bft) S-SW 194 ° 0 min 0,000 mm 0,0 UV-I 0 W/m² 0,8 °C 4,1 °C 4,8 km/h (1 Bft)
08.03.2017 18:07 4,1 °C 4,1 °C 79 % 1021,6 hPa 0,0 mm 2,0 km/h (1 Bft) S-SW 194 ° 0 min 0,000 mm 0,0 UV-I 0 W/m² 0,8 °C 4,1 °C 3,2 km/h (1 Bft)
08.03.2017 18:08 4,0 °C 4,1 °C 80 % 1021,5 hPa 0,0 mm 1,8 km/h (1 Bft) S-SW 194 ° 0 min 0,000 mm 0,0 UV-I 0 W/m² 0,9 °C 4,0 °C 3,2 km/h (1 Bft)
08.03.2017 18:09 3,9 °C 4,0 °C 80 % 1021,6 hPa 0,0 mm 2,4 km/h (1 Bft) S-SW 194 ° 0 min 0,000 mm 0,0 UV-I 0 W/m² 0,8 °C 3,9 °C 4,8 km/h (1 Bft)
08.03.2017 18:10 3,9 °C 3,9 °C 81 % 1021,5 hPa 0,0 mm 0,7 km/h (0 Bft) S-SW 194 ° 0 min 0,000 mm 0,0 UV-I 0 W/m² 0,9 °C 3,9 °C 3,2 km/h (1 Bft)
08.03.2017 18:11 3,8 °C 3,9 °C 82 % 1021,5 hPa 0,0 mm 0,7 km/h (0 Bft) S-SW 194 ° 0 min 0,000 mm 0,0 UV-I 0 W/m² 1,0 °C 3,8 °C 1,6 km/h (1 Bft)
08.03.2017 18:12 3,8 °C 3,8 °C 82 % 1021,5 hPa 0,0 mm 1,9 km/h (1 Bft) SO 139 ° 0 min 0,000 mm 0,0 UV-I 0 W/m² 1,0 °C 3,8 °C 3,2 km/h (1 Bft)
08.03.2017 18:13 3,7 °C 3,8 °C 82 % 1021,5 hPa 0,0 mm 0,1 km/h (0 Bft) SO 139 ° 0 min 0,000 mm 0,0 UV-I 0 W/m² 0,9 °C 3,7 °C 1,6 km/h (1 Bft)
08.03.2017 18:14 3,7 °C 3,7 °C 84 % 1021,5 hPa 0,0 mm 0,0 km/h (0 Bft) SO 139 ° 0 min 0,000 mm 0,0 UV-I 0 W/m² 1,3 °C 3,7 °C 0,0 km/h (0 Bft)
08.03.2017 18:15 3,6 °C 3,7 °C 84 % 1021,5 hPa 0,0 mm 0,7 km/h (0 Bft) SO 139 ° 0 min 0,000 mm 0,0 UV-I 0 W/m² 1,2 °C 3,6 °C 1,6 km/h (1 Bft)
08.03.2017 18:16 3,5 °C 3,6 °C 84 % 1021,5 hPa 0,0 mm 1,0 km/h (0 Bft) SO 139 ° 0 min 0,000 mm 0,0 UV-I 0 W/m² 1,1 °C 3,5 °C 1,6 km/h (1 Bft)
08.03.2017 18:17 3,5 °C 3,5 °C 83 % 1021,4 hPa 0,0 mm 2,6 km/h (1 Bft) SO 139 ° 0 min 0,000 mm 0,0 UV-I 0 W/m² 0,9 °C 3,5 °C 3,2 km/h (1 Bft)
08.03.2017 18:18 3,5 °C 3,5 °C 83 % 1021,5 hPa 0,0 mm 0,5 km/h (0 Bft) SO 139 ° 0 min 0,000 mm 0,0 UV-I 0 W/m² 0,9 °C 3,5 °C 3,2 km/h (1 Bft)
08.03.2017 18:19 3,4 °C 3,5 °C 84 % 1021,6 hPa 0,0 mm 1,2 km/h (1 Bft) SO 139 ° 0 min 0,000 mm 0,0 UV-I 0 W/m² 1,0 °C 3,4 °C 3,2 km/h (1 Bft)
08.03.2017 18:20 3,3 °C 3,4 °C 84 % 1021,6 hPa 0,0 mm 2,2 km/h (1 Bft) SO 140 ° 0 min 0,000 mm 0,0 UV-I 0 W/m² 0,9 °C 3,3 °C 3,2 km/h (1 Bft)
08.03.2017 18:21 3,3 °C 3,3 °C 85 % 1021,6 hPa 0,0 mm 1,4 km/h (1 Bft) SO 140 ° 0 min 0,000 mm 0,0 UV-I 0 W/m² 1,0 °C 3,3 °C 3,2 km/h (1 Bft)
08.03.2017 18:22 3,3 °C 3,3 °C 85 % 1021,6 hPa 0,0 mm 2,0 km/h (1 Bft) SO 140 ° 0 min 0,000 mm 0,0 UV-I 0 W/m² 1,0 °C 3,3 °C 3,2 km/h (1 Bft)
08.03.2017 18:23 3,3 °C 3,3 °C 84 % 1021,6 hPa 0,0 mm 0,1 km/h (0 Bft) SO 140 ° 0 min 0,000 mm 0,0 UV-I 0 W/m² 0,9 °C 3,3 °C 1,6 km/h (1 Bft)
08.03.2017 18:24 3,3 °C 3,3 °C 83 % 1021,6 hPa 0,0 mm 3,0 km/h (1 Bft) S 175 ° 0 min 0,000 mm 0,0 UV-I 0 W/m² 0,7 °C 3,3 °C 6,4 km/h (2 Bft)
08.03.2017 18:25 3,3 °C 3,3 °C 83 % 1021,6 hPa 0,0 mm 1,5 km/h (1 Bft) S 175 ° 0 min 0,000 mm 0,0 UV-I 0 W/m² 0,7 °C 3,3 °C 3,2 km/h (1 Bft)
08.03.2017 18:26 3,3 °C 3,3 °C 85 % 1021,6 hPa 0,0 mm 1,1 km/h (1 Bft) S 175 ° 0 min 0,000 mm 0,0 UV-I 0 W/m² 1,0 °C 3,3 °C 1,6 km/h (1 Bft)
08.03.2017 18:27 3,3 °C 3,3 °C 86 % 1021,6 hPa 0,0 mm 0,0 km/h (0 Bft) S 175 ° 0 min 0,000 mm 0,0 UV-I 0 W/m² 1,2 °C 3,3 °C 0,0 km/h (0 Bft)
08.03.2017 18:28 3,3 °C 3,3 °C 85 % 1021,6 hPa 0,0 mm 0,4 km/h (0 Bft) S 175 ° 0 min 0,000 mm 0,0 UV-I 0 W/m² 1,0 °C 3,3 °C 1,6 km/h (1 Bft)
08.03.2017 18:29 3,2 °C 3,3 °C 86 % 1021,6 hPa 0,0 mm 0,0 km/h (0 Bft) S 175 ° 0 min 0,000 mm 0,0 UV-I 0 W/m² 1,1 °C 3,2 °C 0,0 km/h (0 Bft)
08.03.2017 18:30 3,1 °C 3,2 °C 87 % 1021,7 hPa 0,0 mm 0,0 km/h (0 Bft) S 175 ° 0 min 0,000 mm 0,0 UV-I 0 W/m² 1,2 °C 3,1 °C 0,0 km/h (0 Bft)
08.03.2017 18:31 3,1 °C 3,1 °C 86 % 1021,7 hPa 0,0 mm 0,1 km/h (0 Bft) S 175 ° 0 min 0,000 mm 0,0 UV-I 0 W/m² 1,0 °C 3,1 °C 1,6 km/h (1 Bft)
08.03.2017 18:32 3,1 °C 3,1 °C 86 % 1021,7 hPa 0,0 mm 0,1 km/h (0 Bft) S 175 ° 0 min 0,000 mm 0,0 UV-I 0 W/m² 1,0 °C 3,1 °C 1,6 km/h (1 Bft)
08.03.2017 18:33 3,1 °C 3,1 °C 86 % 1021,6 hPa 0,0 mm 0,0 km/h (0 Bft) S 175 ° 0 min 0,000 mm 0,0 UV-I 0 W/m² 1,0 °C 3,1 °C 0,0 km/h (0 Bft)
08.03.2017 18:34 3,1 °C 3,1 °C 87 % 1021,6 hPa 0,0 mm 1,3 km/h (1 Bft) S 175 ° 0 min 0,000 mm 0,0 UV-I 0 W/m² 1,2 °C 3,1 °C 1,6 km/h (1 Bft)
08.03.2017 18:35 3,0 °C 3,1 °C 87 % 1021,7 hPa 0,0 mm 3,1 km/h (1 Bft) S 175 ° 0 min 0,000 mm 0,0 UV-I 0 W/m² 1,1 °C 3,0 °C 4,8 km/h (1 Bft)
08.03.2017 18:36 3,0 °C 3,1 °C 87 % 1021,7 hPa 0,0 mm 2,7 km/h (1 Bft) S 175 ° 0 min 0,000 mm 0,0 UV-I 0 W/m² 1,1 °C 3,0 °C 3,2 km/h (1 Bft)
08.03.2017 18:37 3,0 °C 3,1 °C 88 % 1021,7 hPa 0,0 mm 0,9 km/h (0 Bft) S 175 ° 0 min 0,000 mm 0,0 UV-I 0 W/m² 1,2 °C 3,0 °C 3,2 km/h (1 Bft)
08.03.2017 18:38 3,0 °C 3,0 °C 88 % 1021,8 hPa 0,2 mm 0,5 km/h (0 Bft) S 175 ° 0 min 0,000 mm 0,0 UV-I 0 W/m² 1,2 °C 3,0 °C 1,6 km/h (1 Bft)
08.03.2017 18:39 3,0 °C 3,0 °C 88 % 1021,8 hPa 0,0 mm 0,0 km/h (0 Bft) S 175 ° 0 min 0,000 mm 0,0 UV-I 0 W/m² 1,2 °C 3,0 °C 0,0 km/h (0 Bft)
08.03.2017 18:40 2,9 °C 3,0 °C 88 % 1021,8 hPa 0,0 mm 0,3 km/h (0 Bft) S 175 ° 0 min 0,000 mm 0,0 UV-I 0 W/m² 1,1 °C 2,9 °C 1,6 km/h (1 Bft)
08.03.2017 18:41 2,9 °C 2,9 °C 89 % 1021,8 hPa 0,0 mm 0,5 km/h (0 Bft) S 175 ° 0 min 0,000 mm 0,0 UV-I 0 W/m² 1,3 °C 2,9 °C 1,6 km/h (1 Bft)
08.03.2017 18:42 2,9 °C 2,9 °C 89 % 1021,8 hPa 0,0 mm 1,5 km/h (1 Bft) S 175 ° 0 min 0,000 mm 0,0 UV-I 0 W/m² 1,3 °C 2,9 °C 3,2 km/h (1 Bft)
08.03.2017 18:43 2,9 °C 2,9 °C 89 % 1021,9 hPa 0,0 mm 1,2 km/h (1 Bft) S 175 ° 0 min 0,000 mm 0,0 UV-I 0 W/m² 1,3 °C 2,9 °C 3,2 km/h (1 Bft)
08.03.2017 18:44 2,8 °C 2,9 °C 90 % 1021,9 hPa 0,0 mm 0,1 km/h (0 Bft) S 175 ° 0 min 0,000 mm 0,0 UV-I 0 W/m² 1,3 °C 2,8 °C 1,6 km/h (1 Bft)
08.03.2017 18:45 2,8 °C 2,9 °C 90 % 1021,8 hPa 0,0 mm 0,3 km/h (0 Bft) S 175 ° 0 min 0,000 mm 0,0 UV-I 0 W/m² 1,3 °C 2,8 °C 1,6 km/h (1 Bft)
08.03.2017 18:46 2,9 °C 2,9 °C 90 % 1021,8 hPa 0,0 mm 1,2 km/h (1 Bft) S 175 ° 0 min 0,000 mm 0,0 UV-I 0 W/m² 1,4 °C 2,9 °C 1,6 km/h (1 Bft)
08.03.2017 18:47 2,8 °C 2,9 °C 90 % 1021,9 hPa 0,2 mm 0,3 km/h (0 Bft) S 175 ° 0 min 0,000 mm 0,0 UV-I 0 W/m² 1,3 °C 2,8 °C 1,6 km/h (1 Bft)
08.03.2017 18:48 2,8 °C 2,8 °C 90 % 1021,8 hPa 0,0 mm 0,1 km/h (0 Bft) S 175 ° 0 min 0,000 mm 0,0 UV-I 0 W/m² 1,3 °C 2,8 °C 1,6 km/h (1 Bft)
08.03.2017 18:49 2,8 °C 2,8 °C 90 % 1021,8 hPa 0,0 mm 0,7 km/h (0 Bft) S 175 ° 0 min 0,000 mm 0,0 UV-I 0 W/m² 1,3 °C 2,8 °C 1,6 km/h (1 Bft)
08.03.2017 18:50 2,8 °C 2,8 °C 90 % 1021,9 hPa 0,0 mm 0,8 km/h (0 Bft) S 175 ° 0 min 0,000 mm 0,0 UV-I 0 W/m² 1,3 °C 2,8 °C 1,6 km/h (1 Bft)
08.03.2017 18:51 2,8 °C 2,8 °C 90 % 1021,8 hPa 0,0 mm 1,1 km/h (1 Bft) S 175 ° 0 min 0,000 mm 0,0 UV-I 0 W/m² 1,3 °C 2,8 °C 1,6 km/h (1 Bft)
08.03.2017 18:52 2,7 °C 2,8 °C 91 % 1021,9 hPa 0,0 mm 2,1 km/h (1 Bft) S 175 ° 0 min 0,000 mm 0,0 UV-I 0 W/m² 1,4 °C 2,7 °C 3,2 km/h (1 Bft)
08.03.2017 18:53 2,7 °C 2,7 °C 91 % 1021,9 hPa 0,0 mm 3,0 km/h (1 Bft) S 175 ° 0 min 0,000 mm 0,0 UV-I 0 W/m² 1,4 °C 2,7 °C 3,2 km/h (1 Bft)
08.03.2017 18:54 2,7 °C 2,7 °C 91 % 1022,0 hPa 0,0 mm 2,4 km/h (1 Bft) W-SW 252 ° 0 min 0,000 mm 0,0 UV-I 0 W/m² 1,4 °C 2,7 °C 3,2 km/h (1 Bft)
08.03.2017 18:55 2,8 °C 2,8 °C 91 % 1021,9 hPa 0,2 mm 2,7 km/h (1 Bft) W-SW 252 ° 0 min 0,000 mm 0,0 UV-I 0 W/m² 1,5 °C 2,8 °C 3,2 km/h (1 Bft)
08.03.2017 18:56 2,8 °C 2,8 °C 91 % 1021,9 hPa 0,0 mm 2,6 km/h (1 Bft) W-SW 238 ° 0 min 0,000 mm 0,0 UV-I 0 W/m² 1,5 °C 2,8 °C 4,8 km/h (1 Bft)
08.03.2017 18:57 2,8 °C 2,8 °C 91 % 1021,9 hPa 0,0 mm 2,3 km/h (1 Bft) SW 236 ° 0 min 0,000 mm 0,0 UV-I 0 W/m² 1,5 °C 2,8 °C 3,2 km/h (1 Bft)
08.03.2017 18:58 2,8 °C 2,8 °C 91 % 1021,9 hPa 0,0 mm 1,3 km/h (1 Bft) SW 236 ° 0 min 0,000 mm 0,0 UV-I 0 W/m² 1,5 °C 2,8 °C 3,2 km/h (1 Bft)
08.03.2017 18:59 2,8 °C 2,8 °C 91 % 1021,8 hPa 0,0 mm 1,5 km/h (1 Bft) SW 236 ° 0 min 0,000 mm 0,0 UV-I 0 W/m² 1,5 °C 2,8 °C 3,2 km/h (1 Bft)
08.03.2017 19:00 2,7 °C 2,8 °C 91 % 1021,8 hPa 0,0 mm 0,4 km/h (0 Bft) SW 236 ° 0 min 0,000 mm 0,0 UV-I 0 W/m² 1,4 °C 2,7 °C 1,6 km/h (1 Bft)
08.03.2017 19:01 2,7 °C 2,7 °C 91 % 1021,8 hPa 0,2 mm 0,6 km/h (0 Bft) SW 236 ° 0 min 0,000 mm 0,0 UV-I 0 W/m² 1,4 °C 2,7 °C 3,2 km/h (1 Bft)
08.03.2017 19:02 2,7 °C 2,7 °C 91 % 1021,8 hPa 0,0 mm 1,7 km/h (1 Bft) SW 236 ° 0 min 0,000 mm 0,0 UV-I 0 W/m² 1,4 °C 2,7 °C 3,2 km/h (1 Bft)
08.03.2017 19:03 2,7 °C 2,7 °C 92 % 1021,9 hPa 0,0 mm 0,8 km/h (0 Bft) SW 236 ° 0 min 0,000 mm 0,0 UV-I 0 W/m² 1,5 °C 2,7 °C 1,6 km/h (1 Bft)
08.03.2017 19:04 2,7 °C 2,7 °C 92 % 1021,8 hPa 0,0 mm 0,1 km/h (0 Bft) SW 236 ° 0 min 0,000 mm 0,0 UV-I 0 W/m² 1,5 °C 2,7 °C 1,6 km/h (1 Bft)
08.03.2017 19:05 2,6 °C 2,7 °C 92 % 1021,8 hPa 0,0 mm 0,0 km/h (0 Bft) SW 236 ° 0 min 0,000 mm 0,0 UV-I 0 W/m² 1,4 °C 2,6 °C 0,0 km/h (0 Bft)
08.03.2017 19:06 2,6 °C 2,6 °C 92 % 1021,8 hPa 0,2 mm 0,3 km/h (0 Bft) SW 236 ° 0 min 0,000 mm 0,0 UV-I 0 W/m² 1,4 °C 2,6 °C 1,6 km/h (1 Bft)
08.03.2017 19:07 2,6 °C 2,7 °C 92 % 1021,7 hPa 0,0 mm 2,2 km/h (1 Bft) SW 236 ° 0 min 0,000 mm 0,0 UV-I 0 W/m² 1,4 °C 2,6 °C 3,2 km/h (1 Bft)
08.03.2017 19:08 2,6 °C 2,6 °C 92 % 1021,8 hPa 0,0 mm 1,5 km/h (1 Bft) SW 236 ° 0 min 0,000 mm 0,0 UV-I 0 W/m² 1,4 °C 2,6 °C 3,2 km/h (1 Bft)
08.03.2017 19:09 2,6 °C 2,6 °C 93 % 1021,6 hPa 0,0 mm 1,9 km/h (1 Bft) SW 236 ° 0 min 0,000 mm 0,0 UV-I 0 W/m² 1,6 °C 2,6 °C 3,2 km/h (1 Bft)
08.03.2017 19:10 2,6 °C 2,6 °C 92 % 1021,6 hPa 0,0 mm 1,7 km/h (1 Bft) SW 236 ° 0 min 0,000 mm 0,0 UV-I 0 W/m² 1,4 °C 2,6 °C 3,2 km/h (1 Bft)
08.03.2017 19:11 2,6 °C 2,6 °C 93 % 1021,5 hPa 0,0 mm 0,4 km/h (0 Bft) SW 236 ° 0 min 0,000 mm 0,0 UV-I 0 W/m² 1,6 °C 2,6 °C 1,6 km/h (1 Bft)
08.03.2017 19:12 2,5 °C 2,6 °C 92 % 1021,5 hPa 0,0 mm 0,0 km/h (0 Bft) SW 236 ° 0 min 0,000 mm 0,0 UV-I 0 W/m² 1,3 °C 2,5 °C 0,0 km/h (0 Bft)
08.03.2017 19:13 2,5 °C 2,6 °C 93 % 1021,6 hPa 0,2 mm 1,1 km/h (1 Bft) O 80 ° 0 min 0,000 mm 0,0 UV-I 0 W/m² 1,5 °C 2,5 °C 4,8 km/h (1 Bft)
08.03.2017 19:14 2,5 °C 2,5 °C 93 % 1021,5 hPa 0,0 mm 5,2 km/h (1 Bft) O 92 ° 0 min 0,000 mm 0,0 UV-I 0 W/m² 1,5 °C 1,2 °C 6,4 km/h (2 Bft)
08.03.2017 19:15 2,5 °C 2,5 °C 93 % 1021,4 hPa 0,0 mm 1,8 km/h (1 Bft) O 92 ° 0 min 0,000 mm 0,0 UV-I 0 W/m² 1,5 °C 2,5 °C 4,8 km/h (1 Bft)
08.03.2017 19:16 2,4 °C 2,5 °C 93 % 1021,5 hPa 0,0 mm 1,3 km/h (1 Bft) O 90 ° 0 min 0,000 mm 0,0 UV-I 0 W/m² 1,4 °C 2,4 °C 3,2 km/h (1 Bft)
08.03.2017 19:17 2,5 °C 2,5 °C 93 % 1021,5 hPa 0,0 mm 0,7 km/h (0 Bft) O 90 ° 0 min 0,000 mm 0,0 UV-I 0 W/m² 1,5 °C 2,5 °C 1,6 km/h (1 Bft)
08.03.2017 19:18 2,5 °C 2,5 °C 93 % 1021,4 hPa 0,0 mm 2,3 km/h (1 Bft) O 90 ° 0 min 0,000 mm 0,0 UV-I 0 W/m² 1,5 °C 2,5 °C 3,2 km/h (1 Bft)
08.03.2017 19:19 2,6 °C 2,6 °C 93 % 1021,4 hPa 0,0 mm 2,5 km/h (1 Bft) N-NW 334 ° 0 min 0,000 mm 0,0 UV-I 0 W/m² 1,6 °C 2,6 °C 3,2 km/h (1 Bft)
08.03.2017 19:20 2,6 °C 2,6 °C 93 % 1021,3 hPa 0,2 mm 1,6 km/h (1 Bft) N-NW 331 ° 0 min 0,000 mm 0,0 UV-I 0 W/m² 1,6 °C 2,6 °C 3,2 km/h (1 Bft)
08.03.2017 19:21 2,5 °C 2,6 °C 93 % 1021,3 hPa 0,0 mm 2,0 km/h (1 Bft) N-NW 331 ° 0 min 0,000 mm 0,0 UV-I 0 W/m² 1,5 °C 2,5 °C 3,2 km/h (1 Bft)
08.03.2017 19:22 2,6 °C 2,6 °C 93 % 1021,3 hPa 0,0 mm 0,9 km/h (0 Bft) NW 319 ° 0 min 0,000 mm 0,0 UV-I 0 W/m² 1,6 °C 2,6 °C 1,6 km/h (1 Bft)
08.03.2017 19:23 2,5 °C 2,6 °C 93 % 1021,2 hPa 0,0 mm 0,2 km/h (0 Bft) NW 319 ° 0 min 0,000 mm 0,0 UV-I 0 W/m² 1,5 °C 2,5 °C 1,6 km/h (1 Bft)
08.03.2017 19:24 2,6 °C 2,6 °C 93 % 1021,2 hPa 0,0 mm 1,1 km/h (1 Bft) NW 319 ° 0 min 0,000 mm 0,0 UV-I 0 W/m² 1,6 °C 2,6 °C 1,6 km/h (1 Bft)
08.03.2017 19:25 2,6 °C 2,6 °C 93 % 1021,2 hPa 0,0 mm 1,1 km/h (1 Bft) NW 319 ° 0 min 0,000 mm 0,0 UV-I 0 W/m² 1,6 °C 2,6 °C 1,6 km/h (1 Bft)
08.03.2017 19:26 2,6 °C 2,6 °C 93 % 1021,2 hPa 0,0 mm 1,7 km/h (1 Bft) W-NW 298 ° 0 min 0,000 mm 0,0 UV-I 0 W/m² 1,6 °C 2,6 °C 6,4 km/h (2 Bft)
08.03.2017 19:27 2,6 °C 2,6 °C 93 % 1021,2 hPa 0,0 mm 4,3 km/h (1 Bft) S-SW 211 ° 0 min 0,000 mm 0,0 UV-I 0 W/m² 1,6 °C 2,6 °C 6,4 km/h (2 Bft)
08.03.2017 19:28 2,6 °C 2,6 °C 93 % 1021,2 hPa 0,0 mm 3,4 km/h (1 Bft) S 176 ° 0 min 0,000 mm 0,0 UV-I 0 W/m² 1,6 °C 2,6 °C 4,8 km/h (1 Bft)
08.03.2017 19:29 2,7 °C 2,7 °C 94 % 1021,2 hPa 0,0 mm 2,0 km/h (1 Bft) O-SO 105 ° 0 min 0,000 mm 0,0 UV-I 0 W/m² 1,8 °C 2,7 °C 3,2 km/h (1 Bft)
08.03.2017 19:30 2,7 °C 2,7 °C 94 % 1021,1 hPa 0,0 mm 2,3 km/h (1 Bft) NO 52 ° 0 min 0,000 mm 0,0 UV-I 0 W/m² 1,8 °C 2,7 °C 3,2 km/h (1 Bft)
08.03.2017 19:31 2,7 °C 2,7 °C 94 % 1021,1 hPa 0,0 mm 0,8 km/h (0 Bft) N-NO 13 ° 0 min 0,000 mm 0,0 UV-I 0 W/m² 1,8 °C 2,7 °C 3,2 km/h (1 Bft)
08.03.2017 19:32 2,7 °C 2,7 °C 93 % 1021,1 hPa 0,2 mm 2,2 km/h (1 Bft) W 273 ° 0 min 0,000 mm 0,0 UV-I 0 W/m² 1,7 °C 2,7 °C 4,8 km/h (1 Bft)
08.03.2017 19:33 2,7 °C 2,7 °C 93 % 1021,0 hPa 0,0 mm 1,4 km/h (1 Bft) S-SW 201 ° 0 min 0,000 mm 0,0 UV-I 0 W/m² 1,7 °C 2,7 °C 3,2 km/h (1 Bft)
08.03.2017 19:34 2,7 °C 2,7 °C 93 % 1021,0 hPa 0,0 mm 2,5 km/h (1 Bft) O-SO 104 ° 0 min 0,000 mm 0,0 UV-I 0 W/m² 1,7 °C 2,7 °C 3,2 km/h (1 Bft)
08.03.2017 19:35 2,8 °C 2,8 °C 93 % 1021,0 hPa 0,0 mm 3,6 km/h (1 Bft) NO 42 ° 0 min 0,000 mm 0,0 UV-I 0 W/m² 1,8 °C 2,8 °C 4,8 km/h (1 Bft)
08.03.2017 19:36 2,8 °C 2,8 °C 94 % 1020,9 hPa 0,0 mm 1,6 km/h (1 Bft) NO 42 ° 0 min 0,000 mm 0,0 UV-I 0 W/m² 1,9 °C 2,8 °C 3,2 km/h (1 Bft)
08.03.2017 19:37 2,8 °C 2,8 °C 93 % 1020,9 hPa 0,0 mm 2,5 km/h (1 Bft) NW 316 ° 0 min 0,000 mm 0,0 UV-I 0 W/m² 1,8 °C 2,8 °C 4,8 km/h (1 Bft)
08.03.2017 19:38 2,8 °C 2,8 °C 94 % 1020,9 hPa 0,0 mm 3,1 km/h (1 Bft) W 266 ° 0 min 0,000 mm 0,0 UV-I 0 W/m² 1,9 °C 2,8 °C 6,4 km/h (2 Bft)
08.03.2017 19:39 2,8 °C 2,8 °C 94 % 1021,0 hPa 0,0 mm 4,2 km/h (1 Bft) W 273 ° 0 min 0,000 mm 0,0 UV-I 0 W/m² 1,9 °C 2,8 °C 6,4 km/h (2 Bft)
08.03.2017 19:40 2,8 °C 2,8 °C 94 % 1020,9 hPa 0,0 mm 4,2 km/h (1 Bft) W-SW 240 ° 0 min 0,000 mm 0,0 UV-I 0 W/m² 1,9 °C 2,8 °C 4,8 km/h (1 Bft)
08.03.2017 19:41 2,9 °C 2,9 °C 94 % 1021,0 hPa 0,0 mm 4,0 km/h (1 Bft) S-SW 205 ° 0 min 0,000 mm 0,0 UV-I 0 W/m² 2,0 °C 2,9 °C 4,8 km/h (1 Bft)
08.03.2017 19:42 2,9 °C 2,9 °C 94 % 1021,0 hPa 0,0 mm 2,5 km/h (1 Bft) SW 223 ° 0 min 0,000 mm 0,0 UV-I 0 W/m² 2,0 °C 2,9 °C 4,8 km/h (1 Bft)
08.03.2017 19:43 2,8 °C 2,9 °C 93 % 1021,1 hPa 0,0 mm 1,5 km/h (1 Bft) SW 222 ° 0 min 0,000 mm 0,0 UV-I 0 W/m² 1,8 °C 2,8 °C 3,2 km/h (1 Bft)
08.03.2017 19:44 2,8 °C 2,9 °C 93 % 1021,0 hPa 0,0 mm 2,1 km/h (1 Bft) W-SW 258 ° 0 min 0,000 mm 0,0 UV-I 0 W/m² 1,8 °C 2,8 °C 3,2 km/h (1 Bft)
08.03.2017 19:45 2,8 °C 2,8 °C 93 % 1021,0 hPa 0,0 mm 0,5 km/h (0 Bft) W-SW 257 ° 0 min 0,000 mm 0,0 UV-I 0 W/m² 1,8 °C 2,8 °C 3,2 km/h (1 Bft)
08.03.2017 19:46 2,8 °C 2,8 °C 93 % 1020,9 hPa 0,0 mm 1,8 km/h (1 Bft) W-SW 257 ° 0 min 0,000 mm 0,0 UV-I 0 W/m² 1,8 °C 2,8 °C 3,2 km/h (1 Bft)
08.03.2017 19:47 2,8 °C 2,8 °C 93 % 1020,9 hPa 0,0 mm 1,8 km/h (1 Bft) SW 228 ° 0 min 0,000 mm 0,0 UV-I 0 W/m² 1,8 °C 2,8 °C 3,2 km/h (1 Bft)
08.03.2017 19:48 2,8 °C 2,8 °C 93 % 1020,8 hPa 0,0 mm 0,4 km/h (0 Bft) SW 228 ° 0 min 0,000 mm 0,0 UV-I 0 W/m² 1,8 °C 2,8 °C 3,2 km/h (1 Bft)
08.03.2017 19:49 2,8 °C 2,8 °C 93 % 1020,8 hPa 0,0 mm 0,0 km/h (0 Bft) SW 228 ° 0 min 0,000 mm 0,0 UV-I 0 W/m² 1,8 °C 2,8 °C 0,0 km/h (0 Bft)
08.03.2017 19:50 2,8 °C 2,8 °C 93 % 1020,8 hPa 0,0 mm 0,1 km/h (0 Bft) SW 228 ° 0 min 0,000 mm 0,0 UV-I 0 W/m² 1,8 °C 2,8 °C 1,6 km/h (1 Bft)
08.03.2017 19:51 2,8 °C 2,9 °C 93 % 1020,7 hPa 0,0 mm 2,1 km/h (1 Bft) SW 227 ° 0 min 0,000 mm 0,0 UV-I 0 W/m² 1,8 °C 2,8 °C 4,8 km/h (1 Bft)
08.03.2017 19:52 2,9 °C 2,9 °C 93 % 1020,7 hPa 0,0 mm 0,8 km/h (0 Bft) SW 227 ° 0 min 0,000 mm 0,0 UV-I 0 W/m² 1,9 °C 2,9 °C 3,2 km/h (1 Bft)
08.03.2017 19:53 2,9 °C 2,9 °C 94 % 1020,8 hPa 0,0 mm 0,7 km/h (0 Bft) SW 227 ° 0 min 0,000 mm 0,0 UV-I 0 W/m² 2,0 °C 2,9 °C 1,6 km/h (1 Bft)
08.03.2017 19:54 2,9 °C 2,9 °C 94 % 1020,8 hPa 0,0 mm 1,2 km/h (1 Bft) SW 227 ° 0 min 0,000 mm 0,0 UV-I 0 W/m² 2,0 °C 2,9 °C 1,6 km/h (1 Bft)
08.03.2017 19:55 2,9 °C 2,9 °C 94 % 1020,8 hPa 0,0 mm 0,5 km/h (0 Bft) SW 227 ° 0 min 0,000 mm 0,0 UV-I 0 W/m² 2,0 °C 2,9 °C 1,6 km/h (1 Bft)
08.03.2017 19:56 2,9 °C 2,9 °C 94 % 1020,8 hPa 0,0 mm 0,0 km/h (0 Bft) SW 227 ° 0 min 0,000 mm 0,0 UV-I 0 W/m² 2,0 °C 2,9 °C 0,0 km/h (0 Bft)
08.03.2017 19:57 3,0 °C 3,0 °C 94 % 1020,8 hPa 0,0 mm 1,1 km/h (1 Bft) SW 227 ° 0 min 0,000 mm 0,0 UV-I 0 W/m² 2,1 °C 3,0 °C 3,2 km/h (1 Bft)
08.03.2017 19:58 3,0 °C 3,0 °C 94 % 1020,8 hPa 0,0 mm 1,9 km/h (1 Bft) SW 227 ° 0 min 0,000 mm 0,0 UV-I 0 W/m² 2,1 °C 3,0 °C 3,2 km/h (1 Bft)
08.03.2017 19:59 3,0 °C 3,0 °C 94 % 1020,8 hPa 0,0 mm 1,5 km/h (1 Bft) SW 227 ° 0 min 0,000 mm 0,0 UV-I 0 W/m² 2,1 °C 3,0 °C 3,2 km/h (1 Bft)
08.03.2017 20:00 2,9 °C 3,0 °C 93 % 1020,8 hPa 0,2 mm 1,1 km/h (1 Bft) SW 227 ° 0 min 0,000 mm 0,0 UV-I 0 W/m² 1,9 °C 2,9 °C 3,2 km/h (1 Bft)
08.03.2017 20:01 3,0 °C 3,0 °C 93 % 1020,7 hPa 0,0 mm 0,0 km/h (0 Bft) SW 227 ° 0 min 0,000 mm 0,0 UV-I 0 W/m² 2,0 °C 3,0 °C 0,0 km/h (0 Bft)
08.03.2017 20:02 3,0 °C 3,0 °C 94 % 1020,7 hPa 0,0 mm 1,6 km/h (1 Bft) SW 227 ° 0 min 0,000 mm 0,0 UV-I 0 W/m² 2,1 °C 3,0 °C 3,2 km/h (1 Bft)
08.03.2017 20:03 3,0 °C 3,0 °C 94 % 1020,7 hPa 0,0 mm 3,0 km/h (1 Bft) SW 227 ° 0 min 0,000 mm 0,0 UV-I 0 W/m² 2,1 °C 3,0 °C 4,8 km/h (1 Bft)
08.03.2017 20:04 3,0 °C 3,0 °C 93 % 1020,7 hPa 0,0 mm 3,3 km/h (1 Bft) W-SW 239 ° 0 min 0,000 mm 0,0 UV-I 0 W/m² 2,0 °C 3,0 °C 4,8 km/h (1 Bft)
08.03.2017 20:05 3,1 °C 3,1 °C 93 % 1020,8 hPa 0,0 mm 1,4 km/h (1 Bft) W-SW 239 ° 0 min 0,000 mm 0,0 UV-I 0 W/m² 2,1 °C 3,1 °C 3,2 km/h (1 Bft)
08.03.2017 20:06 3,1 °C 3,1 °C 93 % 1020,8 hPa 0,2 mm 3,4 km/h (1 Bft) W-SW 239 ° 0 min 0,000 mm 0,0 UV-I 0 W/m² 2,1 °C 3,1 °C 4,8 km/h (1 Bft)
08.03.2017 20:07 3,1 °C 3,1 °C 93 % 1020,7 hPa 0,0 mm 3,2 km/h (1 Bft) SW 215 ° 0 min 0,000 mm 0,0 UV-I 0 W/m² 2,1 °C 3,1 °C 4,8 km/h (1 Bft)
08.03.2017 20:08 3,2 °C 3,2 °C 93 % 1020,8 hPa 0,0 mm 3,2 km/h (1 Bft) SW 233 ° 0 min 0,000 mm 0,0 UV-I 0 W/m² 2,2 °C 3,2 °C 4,8 km/h (1 Bft)
08.03.2017 20:09 3,2 °C 3,2 °C 93 % 1020,8 hPa 0,0 mm 3,7 km/h (1 Bft) S 190 ° 0 min 0,000 mm 0,0 UV-I 0 W/m² 2,2 °C 3,2 °C 8,0 km/h (2 Bft)
08.03.2017 20:10 3,3 °C 3,3 °C 94 % 1020,7 hPa 0,0 mm 5,8 km/h (2 Bft) S-SW 208 ° 0 min 0,000 mm 0,0 UV-I 0 W/m² 2,4 °C 1,8 °C 6,4 km/h (2 Bft)
08.03.2017 20:11 3,4 °C 3,4 °C 93 % 1020,7 hPa 0,0 mm 5,5 km/h (1 Bft) S-SW 205 ° 0 min 0,000 mm 0,0 UV-I 0 W/m² 2,4 °C 2,1 °C 9,7 km/h (2 Bft)
08.03.2017 20:12 3,5 °C 3,5 °C 93 % 1020,7 hPa 0,0 mm 4,8 km/h (1 Bft) S-SW 200 ° 0 min 0,000 mm 0,0 UV-I 0 W/m² 2,5 °C 2,5 °C 8,0 km/h (2 Bft)
08.03.2017 20:13 3,6 °C 3,6 °C 93 % 1020,7 hPa 0,2 mm 5,4 km/h (1 Bft) S-SW 198 ° 0 min 0,000 mm 0,0 UV-I 0 W/m² 2,6 °C 2,3 °C 6,4 km/h (2 Bft)
08.03.2017 20:14 3,7 °C 3,7 °C 93 % 1020,7 hPa 0,0 mm 4,3 km/h (1 Bft) S-SW 200 ° 0 min 0,000 mm 0,0 UV-I 0 W/m² 2,7 °C 3,7 °C 9,7 km/h (2 Bft)
08.03.2017 20:15 3,7 °C 3,7 °C 93 % 1020,7 hPa 0,0 mm 5,1 km/h (1 Bft) S-SW 203 ° 0 min 0,000 mm 0,0 UV-I 0 W/m² 2,7 °C 2,6 °C 8,0 km/h (2 Bft)
08.03.2017 20:16 3,7 °C 3,7 °C 93 % 1020,7 hPa 0,0 mm 3,0 km/h (1 Bft) SW 226 ° 0 min 0,000 mm 0,0 UV-I 0 W/m² 2,7 °C 3,7 °C 4,8 km/h (1 Bft)
08.03.2017 20:17 3,8 °C 3,8 °C 92 % 1020,7 hPa 0,0 mm 1,8 km/h (1 Bft) SW 226 ° 0 min 0,000 mm 0,0 UV-I 0 W/m² 2,6 °C 3,8 °C 3,2 km/h (1 Bft)
08.03.2017 20:18 3,8 °C 3,8 °C 92 % 1020,6 hPa 0,2 mm 0,8 km/h (0 Bft) SW 226 ° 0 min 0,000 mm 0,0 UV-I 0 W/m² 2,6 °C 3,8 °C 3,2 km/h (1 Bft)
08.03.2017 20:19 3,9 °C 3,9 °C 92 % 1020,7 hPa 0,0 mm 2,5 km/h (1 Bft) SW 227 ° 0 min 0,000 mm 0,0 UV-I 0 W/m² 2,7 °C 3,9 °C 3,2 km/h (1 Bft)
08.03.2017 20:20 3,9 °C 3,9 °C 92 % 1020,8 hPa 0,0 mm 4,5 km/h (1 Bft) SW 216 ° 0 min 0,000 mm 0,0 UV-I 0 W/m² 2,7 °C 3,9 °C 6,4 km/h (2 Bft)
08.03.2017 20:21 3,9 °C 3,9 °C 92 % 1020,7 hPa 0,0 mm 2,5 km/h (1 Bft) SW 216 ° 0 min 0,000 mm 0,0 UV-I 0 W/m² 2,7 °C 3,9 °C 3,2 km/h (1 Bft)
08.03.2017 20:22 3,9 °C 3,9 °C 92 % 1020,7 hPa 0,0 mm 1,7 km/h (1 Bft) S 172 ° 0 min 0,000 mm 0,0 UV-I 0 W/m² 2,7 °C 3,9 °C 4,8 km/h (1 Bft)
08.03.2017 20:23 4,1 °C 4,1 °C 92 % 1020,7 hPa 0,0 mm 2,6 km/h (1 Bft) W-SW 238 ° 0 min 0,000 mm 0,0 UV-I 0 W/m² 2,9 °C 4,1 °C 4,8 km/h (1 Bft)
08.03.2017 20:24 4,1 °C 4,1 °C 92 % 1020,7 hPa 0,2 mm 2,3 km/h (1 Bft) W-SW 242 ° 0 min 0,000 mm 0,0 UV-I 0 W/m² 2,9 °C 4,1 °C 4,8 km/h (1 Bft)
08.03.2017 20:25 4,1 °C 4,1 °C 92 % 1020,7 hPa 0,0 mm 1,8 km/h (1 Bft) W-SW 242 ° 0 min 0,000 mm 0,0 UV-I 0 W/m² 2,9 °C 4,1 °C 3,2 km/h (1 Bft)
08.03.2017 20:26 4,2 °C 4,2 °C 92 % 1020,8 hPa 0,0 mm 1,8 km/h (1 Bft) W-SW 242 ° 0 min 0,000 mm 0,0 UV-I 0 W/m² 3,0 °C 4,2 °C 3,2 km/h (1 Bft)
08.03.2017 20:27 4,2 °C 4,2 °C 92 % 1020,7 hPa 0,0 mm 3,8 km/h (1 Bft) W-SW 241 ° 0 min 0,000 mm 0,0 UV-I 0 W/m² 3,0 °C 4,2 °C 4,8 km/h (1 Bft)
08.03.2017 20:28 4,2 °C 4,2 °C 92 % 1020,7 hPa 0,0 mm 2,7 km/h (1 Bft) W-SW 240 ° 0 min 0,000 mm 0,0 UV-I 0 W/m² 3,0 °C 4,2 °C 3,2 km/h (1 Bft)
08.03.2017 20:29 4,2 °C 4,2 °C 92 % 1020,7 hPa 0,0 mm 2,8 km/h (1 Bft) W-SW 240 ° 0 min 0,000 mm 0,0 UV-I 0 W/m² 3,0 °C 4,2 °C 4,8 km/h (1 Bft)
08.03.2017 20:30 4,3 °C 4,3 °C 91 % 1020,6 hPa 0,0 mm 2,7 km/h (1 Bft) W-SW 254 ° 0 min 0,000 mm 0,0 UV-I 0 W/m² 3,0 °C 4,3 °C 4,8 km/h (1 Bft)
08.03.2017 20:31 4,3 °C 4,3 °C 91 % 1020,6 hPa 0,0 mm 2,7 km/h (1 Bft) SW 234 ° 0 min 0,000 mm 0,0 UV-I 0 W/m² 3,0 °C 4,3 °C 4,8 km/h (1 Bft)
08.03.2017 20:32 4,3 °C 4,3 °C 91 % 1020,5 hPa 0,0 mm 2,6 km/h (1 Bft) SW 234 ° 0 min 0,000 mm 0,0 UV-I 0 W/m² 3,0 °C 4,3 °C 4,8 km/h (1 Bft)
08.03.2017 20:33 4,3 °C 4,3 °C 91 % 1020,6 hPa 0,0 mm 3,8 km/h (1 Bft) W-SW 256 ° 0 min 0,000 mm 0,0 UV-I 0 W/m² 3,0 °C 4,3 °C 4,8 km/h (1 Bft)
08.03.2017 20:34 4,4 °C 4,4 °C 91 % 1020,6 hPa 0,0 mm 3,7 km/h (1 Bft) W-SW 252 ° 0 min 0,000 mm 0,0 UV-I 0 W/m² 3,1 °C 4,4 °C 6,4 km/h (2 Bft)
08.03.2017 20:35 4,4 °C 4,4 °C 91 % 1020,6 hPa 0,0 mm 4,3 km/h (1 Bft) W 259 ° 0 min 0,000 mm 0,0 UV-I 0 W/m² 3,1 °C 4,4 °C 6,4 km/h (2 Bft)
08.03.2017 20:36 4,4 °C 4,4 °C 91 % 1020,6 hPa 0,0 mm 5,7 km/h (1 Bft) W 260 ° 0 min 0,000 mm 0,0 UV-I 0 W/m² 3,1 °C 3,1 °C 8,0 km/h (2 Bft)
08.03.2017 20:37 4,4 °C 4,4 °C 91 % 1020,6 hPa 0,2 mm 3,2 km/h (1 Bft) W 259 ° 0 min 0,000 mm 0,0 UV-I 0 W/m² 3,1 °C 4,4 °C 6,4 km/h (2 Bft)
08.03.2017 20:38 4,4 °C 4,4 °C 91 % 1020,6 hPa 0,0 mm 3,2 km/h (1 Bft) W-SW 258 ° 0 min 0,000 mm 0,0 UV-I 0 W/m² 3,1 °C 4,4 °C 3,2 km/h (1 Bft)
08.03.2017 20:39 4,4 °C 4,4 °C 91 % 1020,5 hPa 0,0 mm 2,7 km/h (1 Bft) W-SW 258 ° 0 min 0,000 mm 0,0 UV-I 0 W/m² 3,1 °C 4,4 °C 4,8 km/h (1 Bft)
08.03.2017 20:40 4,4 °C 4,4 °C 91 % 1020,5 hPa 0,0 mm 5,5 km/h (1 Bft) W-SW 257 ° 0 min 0,000 mm 0,0 UV-I 0 W/m² 3,1 °C 3,2 °C 9,7 km/h (2 Bft)
08.03.2017 20:41 4,4 °C 4,4 °C 91 % 1020,4 hPa 0,0 mm 5,5 km/h (1 Bft) SW 224 ° 0 min 0,000 mm 0,0 UV-I 0 W/m² 3,1 °C 3,2 °C 6,4 km/h (2 Bft)
08.03.2017 20:42 4,4 °C 4,4 °C 91 % 1020,5 hPa 0,0 mm 7,1 km/h (2 Bft) S-SW 209 ° 0 min 0,000 mm 0,0 UV-I 0 W/m² 3,1 °C 2,7 °C 9,7 km/h (2 Bft)
08.03.2017 20:43 4,4 °C 4,4 °C 91 % 1020,5 hPa 0,0 mm 4,6 km/h (1 Bft) S-SW 209 ° 0 min 0,000 mm 0,0 UV-I 0 W/m² 3,1 °C 3,6 °C 8,0 km/h (2 Bft)
08.03.2017 20:44 4,5 °C 4,5 °C 91 % 1020,5 hPa 0,0 mm 4,4 km/h (1 Bft) W-SW 242 ° 0 min 0,000 mm 0,0 UV-I 0 W/m² 3,2 °C 4,5 °C 6,4 km/h (2 Bft)
08.03.2017 20:45 4,4 °C 4,5 °C 91 % 1020,5 hPa 0,0 mm 10,1 km/h (2 Bft) W-SW 242 ° 0 min 0,000 mm 0,0 UV-I 0 W/m² 3,1 °C 1,9 °C 16,1 km/h (3 Bft)
08.03.2017 20:46 4,4 °C 4,4 °C 91 % 1020,6 hPa 0,0 mm 6,9 km/h (2 Bft) W 278 ° 0 min 0,000 mm 0,0 UV-I 0 W/m² 3,1 °C 2,7 °C 11,3 km/h (2 Bft)
08.03.2017 20:47 4,4 °C 4,4 °C 91 % 1020,6 hPa 0,0 mm 7,8 km/h (2 Bft) W 265 ° 0 min 0,000 mm 0,0 UV-I 0 W/m² 3,1 °C 2,5 °C 11,3 km/h (2 Bft)
08.03.2017 20:48 4,4 °C 4,4 °C 91 % 1020,6 hPa 0,2 mm 7,6 km/h (2 Bft) W-SW 257 ° 0 min 0,000 mm 0,0 UV-I 0 W/m² 3,1 °C 2,5 °C 12,9 km/h (3 Bft)
08.03.2017 20:49 4,4 °C 4,4 °C 91 % 1020,5 hPa 0,0 mm 11,3 km/h (2 Bft) W-SW 242 ° 0 min 0,000 mm 0,0 UV-I 0 W/m² 3,1 °C 1,7 °C 17,7 km/h (3 Bft)
08.03.2017 20:50 4,4 °C 4,4 °C 91 % 1020,6 hPa 0,0 mm 7,1 km/h (2 Bft) W 259 ° 0 min 0,000 mm 0,0 UV-I 0 W/m² 3,1 °C 2,7 °C 14,5 km/h (3 Bft)
08.03.2017 20:51 4,4 °C 4,4 °C 91 % 1020,5 hPa 0,0 mm 5,9 km/h (2 Bft) W-SW 247 ° 0 min 0,000 mm 0,0 UV-I 0 W/m² 3,1 °C 3,1 °C 8,0 km/h (2 Bft)
08.03.2017 20:52 4,4 °C 4,4 °C 90 % 1020,6 hPa 0,0 mm 7,5 km/h (2 Bft) SW 227 ° 0 min 0,000 mm 0,0 UV-I 0 W/m² 2,9 °C 2,6 °C 12,9 km/h (3 Bft)
08.03.2017 20:53 4,4 °C 4,4 °C 90 % 1020,5 hPa 0,0 mm 10,4 km/h (2 Bft) SW 227 ° 0 min 0,000 mm 0,0 UV-I 0 W/m² 2,9 °C 1,9 °C 19,3 km/h (3 Bft)
08.03.2017 20:54 4,4 °C 4,4 °C 90 % 1020,5 hPa 0,0 mm 5,5 km/h (1 Bft) W 261 ° 0 min 0,000 mm 0,0 UV-I 0 W/m² 2,9 °C 3,2 °C 8,0 km/h (2 Bft)
08.03.2017 20:55 4,4 °C 4,4 °C 90 % 1020,4 hPa 0,0 mm 5,5 km/h (1 Bft) W-SW 250 ° 0 min 0,000 mm 0,0 UV-I 0 W/m² 2,9 °C 3,2 °C 8,0 km/h (2 Bft)
08.03.2017 20:56 4,4 °C 4,4 °C 90 % 1020,6 hPa 0,0 mm 8,9 km/h (2 Bft) SW 223 ° 0 min 0,000 mm 0,0 UV-I 0 W/m² 2,9 °C 2,2 °C 11,3 km/h (2 Bft)
08.03.2017 20:57 4,4 °C 4,4 °C 90 % 1020,6 hPa 0,0 mm 4,6 km/h (1 Bft) SW 220 ° 0 min 0,000 mm 0,0 UV-I 0 W/m² 2,9 °C 3,6 °C 6,4 km/h (2 Bft)
08.03.2017 20:58 4,3 °C 4,4 °C 90 % 1020,5 hPa 0,0 mm 6,0 km/h (2 Bft) SW 218 ° 0 min 0,000 mm 0,0 UV-I 0 W/m² 2,8 °C 2,9 °C 11,3 km/h (2 Bft)
08.03.2017 20:59 4,3 °C 4,3 °C 91 % 1020,5 hPa 0,0 mm 6,7 km/h (2 Bft) SW 221 ° 0 min 0,000 mm 0,0 UV-I 0 W/m² 3,0 °C 2,7 °C 9,7 km/h (2 Bft)
08.03.2017 21:00 4,3 °C 4,3 °C 90 % 1020,6 hPa 0,0 mm 7,2 km/h (2 Bft) SW 223 ° 0 min 0,000 mm 0,0 UV-I 0 W/m² 2,8 °C 2,5 °C 12,9 km/h (3 Bft)
08.03.2017 21:01 4,4 °C 4,4 °C 91 % 1020,6 hPa 0,0 mm 7,8 km/h (2 Bft) S-SW 212 ° 0 min 0,000 mm 0,0 UV-I 0 W/m² 3,1 °C 2,5 °C 12,9 km/h (3 Bft)
08.03.2017 21:02 4,4 °C 4,4 °C 91 % 1020,7 hPa 0,2 mm 4,8 km/h (1 Bft) W 265 ° 0 min 0,000 mm 0,0 UV-I 0 W/m² 3,1 °C 3,5 °C 9,7 km/h (2 Bft)
08.03.2017 21:03 4,4 °C 4,4 °C 91 % 1020,6 hPa 0,0 mm 5,4 km/h (1 Bft) W-SW 252 ° 0 min 0,000 mm 0,0 UV-I 0 W/m² 3,1 °C 3,2 °C 11,3 km/h (2 Bft)
08.03.2017 21:04 4,4 °C 4,4 °C 91 % 1020,5 hPa 0,0 mm 9,1 km/h (2 Bft) W-SW 252 ° 0 min 0,000 mm 0,0 UV-I 0 W/m² 3,1 °C 2,2 °C 14,5 km/h (3 Bft)
08.03.2017 21:05 4,4 °C 4,4 °C 91 % 1020,5 hPa 0,0 mm 12,3 km/h (3 Bft) W 263 ° 0 min 0,000 mm 0,0 UV-I 0 W/m² 3,1 °C 1,5 °C 16,1 km/h (3 Bft)
08.03.2017 21:06 4,4 °C 4,4 °C 91 % 1020,5 hPa 0,0 mm 9,7 km/h (2 Bft) W 266 ° 0 min 0,000 mm 0,0 UV-I 0 W/m² 3,1 °C 2,0 °C 16,1 km/h (3 Bft)
08.03.2017 21:07 4,4 °C 4,4 °C 91 % 1020,5 hPa 0,0 mm 10,5 km/h (2 Bft) W 261 ° 0 min 0,000 mm 0,0 UV-I 0 W/m² 3,1 °C 1,8 °C 14,5 km/h (3 Bft)
08.03.2017 21:08 4,4 °C 4,4 °C 91 % 1020,5 hPa 0,0 mm 9,8 km/h (2 Bft) W 259 ° 0 min 0,000 mm 0,0 UV-I 0 W/m² 3,1 °C 2,0 °C 14,5 km/h (3 Bft)
08.03.2017 21:09 4,4 °C 4,4 °C 91 % 1020,5 hPa 0,0 mm 12,9 km/h (3 Bft) W-SW 250 ° 0 min 0,000 mm 0,0 UV-I 0 W/m² 3,1 °C 1,4 °C 17,7 km/h (3 Bft)
08.03.2017 21:10 4,4 °C 4,4 °C 91 % 1020,5 hPa 0,2 mm 14,1 km/h (3 Bft) W-SW 254 ° 0 min 0,000 mm 0,0 UV-I 0 W/m² 3,1 °C 1,2 °C 22,5 km/h (4 Bft)
08.03.2017 21:11 4,5 °C 4,5 °C 91 % 1020,4 hPa 0,0 mm 14,6 km/h (3 Bft) W 263 ° 0 min 0,000 mm 0,0 UV-I 0 W/m² 3,2 °C 1,2 °C 19,3 km/h (3 Bft)
08.03.2017 21:12 4,5 °C 4,5 °C 91 % 1020,4 hPa 0,0 mm 11,0 km/h (2 Bft) W-SW 251 ° 0 min 0,000 mm 0,0 UV-I 0 W/m² 3,2 °C 1,8 °C 16,1 km/h (3 Bft)
08.03.2017 21:13 4,5 °C 4,5 °C 91 % 1020,4 hPa 0,0 mm 16,0 km/h (3 Bft) W-SW 238 ° 0 min 0,000 mm 0,0 UV-I 0 W/m² 3,2 °C 1,0 °C 20,9 km/h (4 Bft)
08.03.2017 21:14 4,6 °C 4,6 °C 91 % 1020,5 hPa 0,0 mm 11,0 km/h (2 Bft) W-SW 256 ° 0 min 0,000 mm 0,0 UV-I 0 W/m² 3,3 °C 2,0 °C 16,1 km/h (3 Bft)
08.03.2017 21:15 4,6 °C 4,6 °C 91 % 1020,5 hPa 0,0 mm 10,8 km/h (2 Bft) SW 225 ° 0 min 0,000 mm 0,0 UV-I 0 W/m² 3,3 °C 2,0 °C 14,5 km/h (3 Bft)
08.03.2017 21:16 4,6 °C 4,6 °C 91 % 1020,5 hPa 0,0 mm 8,2 km/h (2 Bft) W 275 ° 0 min 0,000 mm 0,0 UV-I 0 W/m² 3,3 °C 2,6 °C 12,9 km/h (3 Bft)
08.03.2017 21:17 4,6 °C 4,6 °C 91 % 1020,4 hPa 0,0 mm 9,4 km/h (2 Bft) W-SW 246 ° 0 min 0,000 mm 0,0 UV-I 0 W/m² 3,3 °C 2,3 °C 14,5 km/h (3 Bft)
08.03.2017 21:18 4,6 °C 4,6 °C 90 % 1020,5 hPa 0,2 mm 9,5 km/h (2 Bft) NW 306 ° 0 min 0,000 mm 0,0 UV-I 0 W/m² 3,1 °C 2,3 °C 16,1 km/h (3 Bft)
08.03.2017 21:19 4,6 °C 4,6 °C 90 % 1020,5 hPa 0,0 mm 11,1 km/h (2 Bft) W-SW 244 ° 0 min 0,000 mm 0,0 UV-I 0 W/m² 3,1 °C 1,9 °C 16,1 km/h (3 Bft)
08.03.2017 21:20 4,6 °C 4,7 °C 91 % 1020,6 hPa 0,0 mm 13,9 km/h (3 Bft) W 266 ° 0 min 0,000 mm 0,0 UV-I 0 W/m² 3,3 °C 1,4 °C 20,9 km/h (4 Bft)
08.03.2017 21:21 4,7 °C 4,7 °C 91 % 1020,7 hPa 0,0 mm 13,9 km/h (3 Bft) W 267 ° 0 min 0,000 mm 0,0 UV-I 0 W/m² 3,4 °C 1,6 °C 20,9 km/h (4 Bft)
08.03.2017 21:22 4,7 °C 4,7 °C 90 % 1020,6 hPa 0,0 mm 15,2 km/h (3 Bft) W-SW 246 ° 0 min 0,000 mm 0,0 UV-I 0 W/m² 3,2 °C 1,3 °C 22,5 km/h (4 Bft)
08.03.2017 21:23 4,8 °C 4,8 °C 90 % 1020,7 hPa 0,0 mm 16,5 km/h (3 Bft) W 259 ° 0 min 0,000 mm 0,0 UV-I 0 W/m² 3,3 °C 1,3 °C 24,1 km/h (4 Bft)
08.03.2017 21:24 4,7 °C 4,8 °C 90 % 1020,7 hPa 0,0 mm 15,4 km/h (3 Bft) W-SW 242 ° 0 min 0,000 mm 0,0 UV-I 0 W/m² 3,2 °C 1,3 °C 22,5 km/h (4 Bft)
08.03.2017 21:25 4,7 °C 4,8 °C 90 % 1020,7 hPa 0,0 mm 18,6 km/h (3 Bft) W-SW 257 ° 0 min 0,000 mm 0,0 UV-I 0 W/m² 3,2 °C 0,9 °C 25,7 km/h (4 Bft)
08.03.2017 21:26 4,8 °C 4,8 °C 90 % 1020,7 hPa 0,0 mm 19,7 km/h (3 Bft) W-SW 255 ° 0 min 0,000 mm 0,0 UV-I 0 W/m² 3,3 °C 0,9 °C 27,4 km/h (4 Bft)
08.03.2017 21:27 4,8 °C 4,8 °C 90 % 1020,7 hPa 0,2 mm 10,4 km/h (2 Bft) W-SW 249 ° 0 min 0,000 mm 0,0 UV-I 0 W/m² 3,3 °C 2,3 °C 16,1 km/h (3 Bft)
08.03.2017 21:28 4,8 °C 4,8 °C 90 % 1020,7 hPa 0,0 mm 13,2 km/h (3 Bft) W-SW 241 ° 0 min 0,000 mm 0,0 UV-I 0 W/m² 3,3 °C 1,8 °C 22,5 km/h (4 Bft)
08.03.2017 21:29 4,8 °C 4,8 °C 90 % 1020,7 hPa 0,0 mm 13,4 km/h (3 Bft) W 268 ° 0 min 0,000 mm 0,0 UV-I 0 W/m² 3,3 °C 1,8 °C 17,7 km/h (3 Bft)
08.03.2017 21:30 4,8 °C 4,8 °C 90 % 1020,7 hPa 0,0 mm 18,5 km/h (3 Bft) W-SW 253 ° 0 min 0,000 mm 0,0 UV-I 0 W/m² 3,3 °C 1,0 °C 24,1 km/h (4 Bft)
08.03.2017 21:31 4,8 °C 4,8 °C 91 % 1020,8 hPa 0,0 mm 11,3 km/h (2 Bft) W 267 ° 0 min 0,000 mm 0,0 UV-I 0 W/m² 3,5 °C 2,1 °C 14,5 km/h (3 Bft)
08.03.2017 21:32 4,8 °C 4,8 °C 91 % 1020,8 hPa 0,0 mm 12,6 km/h (3 Bft) W 262 ° 0 min 0,000 mm 0,0 UV-I 0 W/m² 3,5 °C 1,9 °C 14,5 km/h (3 Bft)
08.03.2017 21:33 4,7 °C 4,8 °C 91 % 1020,8 hPa 0,2 mm 12,4 km/h (3 Bft) W-SW 246 ° 0 min 0,000 mm 0,0 UV-I 0 W/m² 3,4 °C 1,8 °C 14,5 km/h (3 Bft)
08.03.2017 21:34 4,7 °C 4,7 °C 91 % 1020,8 hPa 0,0 mm 12,1 km/h (2 Bft) W 264 ° 0 min 0,000 mm 0,0 UV-I 0 W/m² 3,4 °C 1,9 °C 17,7 km/h (3 Bft)
08.03.2017 21:35 4,7 °C 4,7 °C 91 % 1020,9 hPa 0,0 mm 12,7 km/h (3 Bft) W-SW 254 ° 0 min 0,000 mm 0,0 UV-I 0 W/m² 3,4 °C 1,8 °C 17,7 km/h (3 Bft)
08.03.2017 21:36 4,7 °C 4,7 °C 91 % 1020,9 hPa 0,0 mm 12,9 km/h (3 Bft) W 279 ° 0 min 0,000 mm 0,0 UV-I 0 W/m² 3,4 °C 1,7 °C 22,5 km/h (4 Bft)
08.03.2017 21:37 4,7 °C 4,7 °C 91 % 1020,9 hPa 0,0 mm 15,1 km/h (3 Bft) W-SW 244 ° 0 min 0,000 mm 0,0 UV-I 0 W/m² 3,4 °C 1,4 °C 20,9 km/h (4 Bft)
08.03.2017 21:38 4,7 °C 4,7 °C 91 % 1021,0 hPa 0,0 mm 17,0 km/h (3 Bft) SW 232 ° 0 min 0,000 mm 0,0 UV-I 0 W/m² 3,4 °C 1,1 °C 22,5 km/h (4 Bft)
08.03.2017 21:39 4,7 °C 4,7 °C 91 % 1021,0 hPa 0,0 mm 15,8 km/h (3 Bft) W 259 ° 0 min 0,000 mm 0,0 UV-I 0 W/m² 3,4 °C 1,3 °C 20,9 km/h (4 Bft)
08.03.2017 21:40 4,7 °C 4,7 °C 91 % 1020,9 hPa 0,0 mm 13,8 km/h (3 Bft) W-SW 258 ° 0 min 0,000 mm 0,0 UV-I 0 W/m² 3,4 °C 1,6 °C 17,7 km/h (3 Bft)
08.03.2017 21:41 4,7 °C 4,7 °C 91 % 1021,0 hPa 0,0 mm 16,6 km/h (3 Bft) SW 234 ° 0 min 0,000 mm 0,0 UV-I 0 W/m² 3,4 °C 1,1 °C 24,1 km/h (4 Bft)
08.03.2017 21:42 4,7 °C 4,7 °C 91 % 1021,0 hPa 0,2 mm 9,1 km/h (2 Bft) W-SW 247 ° 0 min 0,000 mm 0,0 UV-I 0 W/m² 3,4 °C 2,5 °C 14,5 km/h (3 Bft)
08.03.2017 21:43 4,7 °C 4,8 °C 91 % 1021,0 hPa 0,0 mm 9,5 km/h (2 Bft) W 270 ° 0 min 0,000 mm 0,0 UV-I 0 W/m² 3,4 °C 2,4 °C 14,5 km/h (3 Bft)
08.03.2017 21:44 4,7 °C 4,7 °C 91 % 1021,0 hPa 0,0 mm 14,0 km/h (3 Bft) W 263 ° 0 min 0,000 mm 0,0 UV-I 0 W/m² 3,4 °C 1,5 °C 24,1 km/h (4 Bft)
08.03.2017 21:45 4,7 °C 4,7 °C 91 % 1021,0 hPa 0,0 mm 12,7 km/h (3 Bft) W-SW 255 ° 0 min 0,000 mm 0,0 UV-I 0 W/m² 3,4 °C 1,8 °C 16,1 km/h (3 Bft)
08.03.2017 21:46 4,7 °C 4,7 °C 91 % 1020,9 hPa 0,0 mm 16,0 km/h (3 Bft) W-SW 242 ° 0 min 0,000 mm 0,0 UV-I 0 W/m² 3,4 °C 1,2 °C 22,5 km/h (4 Bft)
08.03.2017 21:47 4,7 °C 4,7 °C 91 % 1020,9 hPa 0,0 mm 13,6 km/h (3 Bft) W-SW 250 ° 0 min 0,000 mm 0,0 UV-I 0 W/m² 3,4 °C 1,6 °C 22,5 km/h (4 Bft)
08.03.2017 21:48 4,7 °C 4,7 °C 91 % 1020,9 hPa 0,0 mm 14,3 km/h (3 Bft) W-SW 244 ° 0 min 0,000 mm 0,0 UV-I 0 W/m² 3,4 °C 1,5 °C 22,5 km/h (4 Bft)
08.03.2017 21:49 4,7 °C 4,7 °C 91 % 1020,9 hPa 0,0 mm 11,5 km/h (2 Bft) W-SW 244 ° 0 min 0,000 mm 0,0 UV-I 0 W/m² 3,4 °C 2,0 °C 14,5 km/h (3 Bft)
08.03.2017 21:50 4,7 °C 4,7 °C 91 % 1020,9 hPa 0,0 mm 15,0 km/h (3 Bft) W-SW 253 ° 0 min 0,000 mm 0,0 UV-I 0 W/m² 3,4 °C 1,4 °C 19,3 km/h (3 Bft)
08.03.2017 21:51 4,7 °C 4,7 °C 91 % 1020,9 hPa 0,0 mm 11,9 km/h (2 Bft) W-SW 249 ° 0 min 0,000 mm 0,0 UV-I 0 W/m² 3,4 °C 1,9 °C 17,7 km/h (3 Bft)
08.03.2017 21:52 4,7 °C 4,7 °C 91 % 1020,9 hPa 0,0 mm 9,9 km/h (2 Bft) SW 233 ° 0 min 0,000 mm 0,0 UV-I 0 W/m² 3,4 °C 2,3 °C 14,5 km/h (3 Bft)
08.03.2017 21:53 4,7 °C 4,7 °C 91 % 1020,9 hPa 0,0 mm 9,1 km/h (2 Bft) W 262 ° 0 min 0,000 mm 0,0 UV-I 0 W/m² 3,4 °C 2,5 °C 12,9 km/h (3 Bft)
08.03.2017 21:54 4,7 °C 4,7 °C 91 % 1020,9 hPa 0,0 mm 13,5 km/h (3 Bft) W 263 ° 0 min 0,000 mm 0,0 UV-I 0 W/m² 3,4 °C 1,6 °C 19,3 km/h (3 Bft)
08.03.2017 21:55 4,7 °C 4,7 °C 91 % 1020,9 hPa 0,0 mm 14,8 km/h (3 Bft) W 259 ° 0 min 0,000 mm 0,0 UV-I 0 W/m² 3,4 °C 1,4 °C 19,3 km/h (3 Bft)
08.03.2017 21:56 4,7 °C 4,7 °C 91 % 1020,9 hPa 0,0 mm 16,3 km/h (3 Bft) W-SW 252 ° 0 min 0,000 mm 0,0 UV-I 0 W/m² 3,4 °C 1,2 °C 20,9 km/h (4 Bft)
08.03.2017 21:57 4,7 °C 4,7 °C 91 % 1020,9 hPa 0,0 mm 10,5 km/h (2 Bft) SW 228 ° 0 min 0,000 mm 0,0 UV-I 0 W/m² 3,4 °C 2,2 °C 14,5 km/h (3 Bft)
08.03.2017 21:58 4,7 °C 4,7 °C 92 % 1020,9 hPa 0,0 mm 12,9 km/h (3 Bft) SW 231 ° 0 min 0,000 mm 0,0 UV-I 0 W/m² 3,5 °C 1,7 °C 17,7 km/h (3 Bft)
08.03.2017 21:59 4,7 °C 4,7 °C 92 % 1020,8 hPa 0,0 mm 12,8 km/h (3 Bft) W-SW 250 ° 0 min 0,000 mm 0,0 UV-I 0 W/m² 3,5 °C 1,7 °C 17,7 km/h (3 Bft)
08.03.2017 22:00 4,7 °C 4,7 °C 91 % 1020,8 hPa 0,2 mm 11,8 km/h (2 Bft) SW 223 ° 0 min 0,000 mm 0,0 UV-I 0 W/m² 3,4 °C 1,9 °C 20,9 km/h (4 Bft)
08.03.2017 22:01 4,8 °C 4,8 °C 92 % 1020,8 hPa 0,0 mm 6,8 km/h (2 Bft) W-SW 239 ° 0 min 0,000 mm 0,0 UV-I 0 W/m² 3,6 °C 3,2 °C 11,3 km/h (2 Bft)
08.03.2017 22:02 4,8 °C 4,8 °C 91 % 1020,7 hPa 0,0 mm 11,9 km/h (2 Bft) W 263 ° 0 min 0,000 mm 0,0 UV-I 0 W/m² 3,5 °C 2,0 °C 20,9 km/h (4 Bft)
08.03.2017 22:03 4,7 °C 4,8 °C 91 % 1020,7 hPa 0,0 mm 12,4 km/h (3 Bft) W-SW 248 ° 0 min 0,000 mm 0,0 UV-I 0 W/m² 3,4 °C 1,8 °C 16,1 km/h (3 Bft)
08.03.2017 22:04 4,8 °C 4,8 °C 91 % 1020,7 hPa 0,0 mm 12,3 km/h (3 Bft) W-SW 252 ° 0 min 0,000 mm 0,0 UV-I 0 W/m² 3,5 °C 2,0 °C 19,3 km/h (3 Bft)
08.03.2017 22:05 4,8 °C 4,8 °C 91 % 1020,8 hPa 0,0 mm 10,2 km/h (2 Bft) W 263 ° 0 min 0,000 mm 0,0 UV-I 0 W/m² 3,5 °C 2,4 °C 16,1 km/h (3 Bft)
08.03.2017 22:06 4,8 °C 4,8 °C 91 % 1020,7 hPa 0,0 mm 12,0 km/h (2 Bft) W-SW 248 ° 0 min 0,000 mm 0,0 UV-I 0 W/m² 3,5 °C 2,0 °C 16,1 km/h (3 Bft)
08.03.2017 22:07 4,8 °C 4,8 °C 91 % 1020,7 hPa 0,0 mm 10,5 km/h (2 Bft) SW 234 ° 0 min 0,000 mm 0,0 UV-I 0 W/m² 3,5 °C 2,3 °C 19,3 km/h (3 Bft)
08.03.2017 22:08 4,8 °C 4,8 °C 91 % 1020,7 hPa 0,0 mm 10,2 km/h (2 Bft) W-SW 243 ° 0 min 0,000 mm 0,0 UV-I 0 W/m² 3,5 °C 2,4 °C 16,1 km/h (3 Bft)
08.03.2017 22:09 4,8 °C 4,8 °C 91 % 1020,8 hPa 0,2 mm 13,1 km/h (3 Bft) W-SW 254 ° 0 min 0,000 mm 0,0 UV-I 0 W/m² 3,5 °C 1,8 °C 20,9 km/h (4 Bft)
08.03.2017 22:10 4,8 °C 4,8 °C 91 % 1020,7 hPa 0,0 mm 11,5 km/h (2 Bft) SW 217 ° 0 min 0,000 mm 0,0 UV-I 0 W/m² 3,5 °C 2,1 °C 16,1 km/h (3 Bft)
08.03.2017 22:11 4,8 °C 4,8 °C 91 % 1020,7 hPa 0,0 mm 10,2 km/h (2 Bft) W-SW 249 ° 0 min 0,000 mm 0,0 UV-I 0 W/m² 3,5 °C 2,4 °C 14,5 km/h (3 Bft)
08.03.2017 22:12 4,9 °C 4,9 °C 91 % 1020,7 hPa 0,0 mm 13,6 km/h (3 Bft) W-NW 293 ° 0 min 0,000 mm 0,0 UV-I 0 W/m² 3,6 °C 1,9 °C 17,7 km/h (3 Bft)
08.03.2017 22:13 4,9 °C 4,9 °C 91 % 1020,7 hPa 0,0 mm 14,2 km/h (3 Bft) W 262 ° 0 min 0,000 mm 0,0 UV-I 0 W/m² 3,6 °C 1,8 °C 20,9 km/h (4 Bft)
08.03.2017 22:14 4,9 °C 4,9 °C 91 % 1020,7 hPa 0,0 mm 9,1 km/h (2 Bft) W-NW 283 ° 0 min 0,000 mm 0,0 UV-I 0 W/m² 3,6 °C 2,7 °C 17,7 km/h (3 Bft)
08.03.2017 22:15 4,9 °C 4,9 °C 91 % 1020,6 hPa 0,0 mm 12,9 km/h (3 Bft) SW 225 ° 0 min 0,000 mm 0,0 UV-I 0 W/m² 3,6 °C 2,0 °C 22,5 km/h (4 Bft)
08.03.2017 22:16 4,9 °C 4,9 °C 91 % 1020,7 hPa 0,0 mm 12,9 km/h (3 Bft) W 259 ° 0 min 0,000 mm 0,0 UV-I 0 W/m² 3,6 °C 2,0 °C 22,5 km/h (4 Bft)
08.03.2017 22:17 4,9 °C 4,9 °C 91 % 1020,7 hPa 0,0 mm 15,1 km/h (3 Bft) W-SW 253 ° 0 min 0,000 mm 0,0 UV-I 0 W/m² 3,6 °C 1,6 °C 20,9 km/h (4 Bft)
08.03.2017 22:18 4,9 °C 4,9 °C 91 % 1020,7 hPa 0,2 mm 11,4 km/h (2 Bft) W-SW 247 ° 0 min 0,000 mm 0,0 UV-I 0 W/m² 3,6 °C 2,3 °C 17,7 km/h (3 Bft)
08.03.2017 22:19 4,9 °C 4,9 °C 91 % 1020,7 hPa 0,0 mm 9,3 km/h (2 Bft) W-SW 242 ° 0 min 0,000 mm 0,0 UV-I 0 W/m² 3,6 °C 2,7 °C 12,9 km/h (3 Bft)
08.03.2017 22:20 4,9 °C 4,9 °C 91 % 1020,6 hPa 0,0 mm 11,4 km/h (2 Bft) SW 227 ° 0 min 0,000 mm 0,0 UV-I 0 W/m² 3,6 °C 2,3 °C 16,1 km/h (3 Bft)
08.03.2017 22:21 4,9 °C 4,9 °C 91 % 1020,6 hPa 0,0 mm 11,7 km/h (2 Bft) W-SW 241 ° 0 min 0,000 mm 0,0 UV-I 0 W/m² 3,6 °C 2,2 °C 16,1 km/h (3 Bft)
08.03.2017 22:22 4,9 °C 4,9 °C 91 % 1020,6 hPa 0,0 mm 15,8 km/h (3 Bft) W 275 ° 0 min 0,000 mm 0,0 UV-I 0 W/m² 3,6 °C 1,5 °C 20,9 km/h (4 Bft)
08.03.2017 22:23 5,0 °C 5,0 °C 91 % 1020,6 hPa 0,0 mm 15,4 km/h (3 Bft) SW 231 ° 0 min 0,000 mm 0,0 UV-I 0 W/m² 3,7 °C 1,7 °C 24,1 km/h (4 Bft)
08.03.2017 22:24 5,0 °C 5,0 °C 91 % 1020,6 hPa 0,0 mm 12,1 km/h (2 Bft) W-SW 247 ° 0 min 0,000 mm 0,0 UV-I 0 W/m² 3,7 °C 2,2 °C 16,1 km/h (3 Bft)
08.03.2017 22:25 5,0 °C 5,1 °C 91 % 1020,6 hPa 0,2 mm 14,4 km/h (3 Bft) W-SW 242 ° 0 min 0,000 mm 0,0 UV-I 0 W/m² 3,7 °C 1,8 °C 20,9 km/h (4 Bft)
08.03.2017 22:26 5,0 °C 5,1 °C 91 % 1020,7 hPa 0,0 mm 7,4 km/h (2 Bft) W-SW 247 ° 0 min 0,000 mm 0,0 UV-I 0 W/m² 3,7 °C 3,3 °C 14,5 km/h (3 Bft)
08.03.2017 22:27 5,1 °C 5,1 °C 91 % 1020,6 hPa 0,0 mm 15,6 km/h (3 Bft) W-SW 257 ° 0 min 0,000 mm 0,0 UV-I 0 W/m² 3,8 °C 1,8 °C 22,5 km/h (4 Bft)
08.03.2017 22:28 5,1 °C 5,1 °C 91 % 1020,7 hPa 0,0 mm 15,3 km/h (3 Bft) W-NW 285 ° 0 min 0,000 mm 0,0 UV-I 0 W/m² 3,8 °C 1,8 °C 22,5 km/h (4 Bft)
08.03.2017 22:29 5,1 °C 5,1 °C 91 % 1020,6 hPa 0,0 mm 14,1 km/h (3 Bft) W-SW 248 ° 0 min 0,000 mm 0,0 UV-I 0 W/m² 3,8 °C 2,0 °C 20,9 km/h (4 Bft)
08.03.2017 22:30 5,1 °C 5,1 °C 91 % 1020,6 hPa 0,0 mm 12,0 km/h (2 Bft) W-SW 253 ° 0 min 0,000 mm 0,0 UV-I 0 W/m² 3,8 °C 2,4 °C 17,7 km/h (3 Bft)
08.03.2017 22:31 5,1 °C 5,1 °C 91 % 1020,6 hPa 0,0 mm 14,9 km/h (3 Bft) W 262 ° 0 min 0,000 mm 0,0 UV-I 0 W/m² 3,8 °C 1,9 °C 19,3 km/h (3 Bft)
08.03.2017 22:32 5,1 °C 5,1 °C 91 % 1020,6 hPa 0,2 mm 16,8 km/h (3 Bft) W-NW 285 ° 0 min 0,000 mm 0,0 UV-I 0 W/m² 3,8 °C 1,6 °C 20,9 km/h (4 Bft)
08.03.2017 22:33 5,2 °C 5,2 °C 91 % 1020,5 hPa 0,0 mm 13,3 km/h (3 Bft) SW 233 ° 0 min 0,000 mm 0,0 UV-I 0 W/m² 3,9 °C 2,3 °C 19,3 km/h (3 Bft)
08.03.2017 22:34 5,1 °C 5,2 °C 91 % 1020,5 hPa 0,0 mm 14,7 km/h (3 Bft) W-SW 248 ° 0 min 0,000 mm 0,0 UV-I 0 W/m² 3,8 °C 1,9 °C 22,5 km/h (4 Bft)
08.03.2017 22:35 5,2 °C 5,2 °C 91 % 1020,5 hPa 0,0 mm 17,6 km/h (3 Bft) W-SW 238 ° 0 min 0,000 mm 0,0 UV-I 0 W/m² 3,9 °C 1,6 °C 22,5 km/h (4 Bft)
08.03.2017 22:36 5,2 °C 5,2 °C 91 % 1020,5 hPa 0,0 mm 10,7 km/h (2 Bft) W-SW 246 ° 0 min 0,000 mm 0,0 UV-I 0 W/m² 3,9 °C 2,8 °C 16,1 km/h (3 Bft)
08.03.2017 22:37 5,2 °C 5,2 °C 91 % 1020,5 hPa 0,2 mm 12,5 km/h (3 Bft) W-SW 251 ° 0 min 0,000 mm 0,0 UV-I 0 W/m² 3,9 °C 2,4 °C 19,3 km/h (3 Bft)
08.03.2017 22:38 5,2 °C 5,2 °C 91 % 1020,5 hPa 0,0 mm 13,1 km/h (3 Bft) S-SW 213 ° 0 min 0,000 mm 0,0 UV-I 0 W/m² 3,9 °C 2,3 °C 17,7 km/h (3 Bft)
08.03.2017 22:39 5,2 °C 5,2 °C 91 % 1020,5 hPa 0,0 mm 19,6 km/h (3 Bft) W 274 ° 0 min 0,000 mm 0,0 UV-I 0 W/m² 3,9 °C 1,4 °C 22,5 km/h (4 Bft)
08.03.2017 22:40 5,2 °C 5,2 °C 91 % 1020,5 hPa 0,0 mm 14,4 km/h (3 Bft) W 281 ° 0 min 0,000 mm 0,0 UV-I 0 W/m² 3,9 °C 2,1 °C 20,9 km/h (4 Bft)
08.03.2017 22:41 5,2 °C 5,2 °C 91 % 1020,5 hPa 0,0 mm 14,6 km/h (3 Bft) W-SW 239 ° 0 min 0,000 mm 0,0 UV-I 0 W/m² 3,9 °C 2,1 °C 20,9 km/h (4 Bft)
08.03.2017 22:42 5,2 °C 5,2 °C 91 % 1020,5 hPa 0,0 mm 17,6 km/h (3 Bft) SW 231 ° 0 min 0,000 mm 0,0 UV-I 0 W/m² 3,9 °C 1,6 °C 25,7 km/h (4 Bft)
08.03.2017 22:43 5,3 °C 5,3 °C 91 % 1020,5 hPa 0,0 mm 12,1 km/h (2 Bft) W 260 ° 0 min 0,000 mm 0,0 UV-I 0 W/m² 4,0 °C 2,6 °C 19,3 km/h (3 Bft)
08.03.2017 22:44 5,2 °C 5,3 °C 91 % 1020,6 hPa 0,0 mm 11,5 km/h (2 Bft) W-SW 254 ° 0 min 0,000 mm 0,0 UV-I 0 W/m² 3,9 °C 2,6 °C 19,3 km/h (3 Bft)
08.03.2017 22:45 5,2 °C 5,3 °C 91 % 1020,6 hPa 0,0 mm 13,9 km/h (3 Bft) W 269 ° 0 min 0,000 mm 0,0 UV-I 0 W/m² 3,9 °C 2,2 °C 20,9 km/h (4 Bft)
08.03.2017 22:46 5,2 °C 5,2 °C 91 % 1020,6 hPa 0,0 mm 19,3 km/h (3 Bft) W 259 ° 0 min 0,000 mm 0,0 UV-I 0 W/m² 3,9 °C 1,4 °C 27,4 km/h (4 Bft)
08.03.2017 22:47 5,2 °C 5,2 °C 91 % 1020,6 hPa 0,2 mm 9,2 km/h (2 Bft) W 273 ° 0 min 0,000 mm 0,0 UV-I 0 W/m² 3,9 °C 3,1 °C 14,5 km/h (3 Bft)
08.03.2017 22:48 5,3 °C 5,3 °C 91 % 1020,7 hPa 0,0 mm 13,9 km/h (3 Bft) W-SW 252 ° 0 min 0,000 mm 0,0 UV-I 0 W/m² 4,0 °C 2,3 °C 17,7 km/h (3 Bft)
08.03.2017 22:49 5,2 °C 5,3 °C 91 % 1020,7 hPa 0,0 mm 15,4 km/h (3 Bft) SW 234 ° 0 min 0,000 mm 0,0 UV-I 0 W/m² 3,9 °C 1,9 °C 19,3 km/h (3 Bft)
08.03.2017 22:50 5,2 °C 5,2 °C 91 % 1020,6 hPa 0,0 mm 9,7 km/h (2 Bft) W 259 ° 0 min 0,000 mm 0,0 UV-I 0 W/m² 3,9 °C 3,0 °C 12,9 km/h (3 Bft)
08.03.2017 22:51 5,2 °C 5,2 °C 91 % 1020,6 hPa 0,0 mm 8,0 km/h (2 Bft) W-SW 256 ° 0 min 0,000 mm 0,0 UV-I 0 W/m² 3,9 °C 3,4 °C 12,9 km/h (3 Bft)
08.03.2017 22:52 5,2 °C 5,2 °C 91 % 1020,6 hPa 0,0 mm 13,7 km/h (3 Bft) W-SW 240 ° 0 min 0,000 mm 0,0 UV-I 0 W/m² 3,9 °C 2,2 °C 22,5 km/h (4 Bft)
08.03.2017 22:53 5,2 °C 5,2 °C 90 % 1020,6 hPa 0,0 mm 7,6 km/h (2 Bft) W-SW 250 ° 0 min 0,000 mm 0,0 UV-I 0 W/m² 3,7 °C 3,5 °C 12,9 km/h (3 Bft)
08.03.2017 22:54 5,2 °C 5,2 °C 91 % 1020,6 hPa 0,0 mm 11,3 km/h (2 Bft) W-NW 284 ° 0 min 0,000 mm 0,0 UV-I 0 W/m² 3,9 °C 2,6 °C 16,1 km/h (3 Bft)
08.03.2017 22:55 5,2 °C 5,2 °C 91 % 1020,6 hPa 0,0 mm 10,8 km/h (2 Bft) SW 217 ° 0 min 0,000 mm 0,0 UV-I 0 W/m² 3,9 °C 2,7 °C 14,5 km/h (3 Bft)
08.03.2017 22:56 5,2 °C 5,2 °C 91 % 1020,6 hPa 0,0 mm 13,0 km/h (3 Bft) W 276 ° 0 min 0,000 mm 0,0 UV-I 0 W/m² 3,9 °C 2,3 °C 20,9 km/h (4 Bft)
08.03.2017 22:57 5,2 °C 5,2 °C 91 % 1020,6 hPa 0,0 mm 12,0 km/h (2 Bft) W-SW 258 ° 0 min 0,000 mm 0,0 UV-I 0 W/m² 3,9 °C 2,5 °C 16,1 km/h (3 Bft)
08.03.2017 22:58 5,3 °C 5,3 °C 91 % 1020,6 hPa 0,0 mm 14,4 km/h (3 Bft) W-SW 257 ° 0 min 0,000 mm 0,0 UV-I 0 W/m² 4,0 °C 2,2 °C 24,1 km/h (4 Bft)
08.03.2017 22:59 5,3 °C 5,3 °C 91 % 1020,6 hPa 0,0 mm 10,1 km/h (2 Bft) W 259 ° 0 min 0,000 mm 0,0 UV-I 0 W/m² 4,0 °C 3,0 °C 16,1 km/h (3 Bft)
08.03.2017 23:00 5,3 °C 5,3 °C 91 % 1020,6 hPa 0,0 mm 12,3 km/h (3 Bft) W-SW 250 ° 0 min 0,000 mm 0,0 UV-I 0 W/m² 4,0 °C 2,6 °C 27,4 km/h (4 Bft)
08.03.2017 23:01 5,3 °C 5,3 °C 91 % 1020,6 hPa 0,0 mm 16,0 km/h (3 Bft) W-SW 253 ° 0 min 0,000 mm 0,0 UV-I 0 W/m² 4,0 °C 2,0 °C 20,9 km/h (4 Bft)
08.03.2017 23:02 5,3 °C 5,3 °C 91 % 1020,6 hPa 0,0 mm 11,9 km/h (2 Bft) W-SW 257 ° 0 min 0,000 mm 0,0 UV-I 0 W/m² 4,0 °C 2,6 °C 20,9 km/h (4 Bft)
08.03.2017 23:03 5,2 °C 5,3 °C 91 % 1020,7 hPa 0,0 mm 14,5 km/h (3 Bft) W 277 ° 0 min 0,000 mm 0,0 UV-I 0 W/m² 3,9 °C 2,1 °C 20,9 km/h (4 Bft)
08.03.2017 23:04 5,3 °C 5,3 °C 91 % 1020,7 hPa 0,0 mm 16,3 km/h (3 Bft) W 273 ° 0 min 0,000 mm 0,0 UV-I 0 W/m² 4,0 °C 1,9 °C 25,7 km/h (4 Bft)
08.03.2017 23:05 5,3 °C 5,3 °C 91 % 1020,7 hPa 0,0 mm 15,6 km/h (3 Bft) W-SW 258 ° 0 min 0,000 mm 0,0 UV-I 0 W/m² 4,0 °C 2,0 °C 22,5 km/h (4 Bft)
08.03.2017 23:06 5,3 °C 5,3 °C 91 % 1020,7 hPa 0,0 mm 17,3 km/h (3 Bft) W-SW 251 ° 0 min 0,000 mm 0,0 UV-I 0 W/m² 4,0 °C 1,8 °C 30,6 km/h (5 Bft)
08.03.2017 23:07 5,3 °C 5,3 °C 91 % 1020,8 hPa 0,0 mm 13,9 km/h (3 Bft) W 279 ° 0 min 0,000 mm 0,0 UV-I 0 W/m² 4,0 °C 2,3 °C 19,3 km/h (3 Bft)
08.03.2017 23:08 5,3 °C 5,3 °C 90 % 1020,7 hPa 0,2 mm 9,9 km/h (2 Bft) W 263 ° 0 min 0,000 mm 0,0 UV-I 0 W/m² 3,8 °C 3,0 °C 17,7 km/h (3 Bft)
08.03.2017 23:09 5,3 °C 5,3 °C 90 % 1020,7 hPa 0,0 mm 19,8 km/h (3 Bft) W 259 ° 0 min 0,000 mm 0,0 UV-I 0 W/m² 3,8 °C 1,5 °C 25,7 km/h (4 Bft)
08.03.2017 23:10 5,3 °C 5,3 °C 90 % 1020,8 hPa 0,0 mm 14,8 km/h (3 Bft) W-SW 249 ° 0 min 0,000 mm 0,0 UV-I 0 W/m² 3,8 °C 2,1 °C 20,9 km/h (4 Bft)
08.03.2017 23:11 5,3 °C 5,3 °C 90 % 1020,8 hPa 0,0 mm 16,8 km/h (3 Bft) W-SW 237 ° 0 min 0,000 mm 0,0 UV-I 0 W/m² 3,8 °C 1,9 °C 22,5 km/h (4 Bft)
08.03.2017 23:12 5,3 °C 5,3 °C 90 % 1020,7 hPa 0,0 mm 12,7 km/h (3 Bft) W-SW 242 ° 0 min 0,000 mm 0,0 UV-I 0 W/m² 3,8 °C 2,5 °C 17,7 km/h (3 Bft)
08.03.2017 23:13 5,3 °C 5,3 °C 90 % 1020,6 hPa 0,0 mm 13,7 km/h (3 Bft) W-SW 249 ° 0 min 0,000 mm 0,0 UV-I 0 W/m² 3,8 °C 2,3 °C 20,9 km/h (4 Bft)
08.03.2017 23:14 5,3 °C 5,3 °C 90 % 1020,7 hPa 0,0 mm 16,4 km/h (3 Bft) W 262 ° 0 min 0,000 mm 0,0 UV-I 0 W/m² 3,8 °C 1,9 °C 24,1 km/h (4 Bft)
08.03.2017 23:15 5,3 °C 5,3 °C 90 % 1020,6 hPa 0,0 mm 16,6 km/h (3 Bft) W 259 ° 0 min 0,000 mm 0,0 UV-I 0 W/m² 3,8 °C 1,9 °C 24,1 km/h (4 Bft)
08.03.2017 23:16 5,3 °C 5,3 °C 90 % 1020,6 hPa 0,0 mm 16,6 km/h (3 Bft) W-SW 240 ° 0 min 0,000 mm 0,0 UV-I 0 W/m² 3,8 °C 1,9 °C 22,5 km/h (4 Bft)
08.03.2017 23:17 5,3 °C 5,3 °C 90 % 1020,6 hPa 0,0 mm 17,0 km/h (3 Bft) W 262 ° 0 min 0,000 mm 0,0 UV-I 0 W/m² 3,8 °C 1,8 °C 24,1 km/h (4 Bft)
08.03.2017 23:18 5,3 °C 5,3 °C 90 % 1020,6 hPa 0,0 mm 12,9 km/h (3 Bft) W 275 ° 0 min 0,000 mm 0,0 UV-I 0 W/m² 3,8 °C 2,5 °C 22,5 km/h (4 Bft)
08.03.2017 23:19 5,2 °C 5,3 °C 90 % 1020,7 hPa 0,2 mm 19,6 km/h (3 Bft) W-SW 252 ° 0 min 0,000 mm 0,0 UV-I 0 W/m² 3,7 °C 1,4 °C 22,5 km/h (4 Bft)
08.03.2017 23:20 5,3 °C 5,3 °C 90 % 1020,7 hPa 0,0 mm 11,7 km/h (2 Bft) W-SW 253 ° 0 min 0,000 mm 0,0 UV-I 0 W/m² 3,8 °C 2,7 °C 16,1 km/h (3 Bft)
08.03.2017 23:21 5,2 °C 5,3 °C 90 % 1020,7 hPa 0,0 mm 10,8 km/h (2 Bft) W-SW 256 ° 0 min 0,000 mm 0,0 UV-I 0 W/m² 3,7 °C 2,7 °C 14,5 km/h (3 Bft)
08.03.2017 23:22 5,2 °C 5,3 °C 91 % 1020,7 hPa 0,0 mm 10,8 km/h (2 Bft) W 268 ° 0 min 0,000 mm 0,0 UV-I 0 W/m² 3,9 °C 2,7 °C 17,7 km/h (3 Bft)
08.03.2017 23:23 5,2 °C 5,2 °C 91 % 1020,8 hPa 0,0 mm 13,5 km/h (3 Bft) W-SW 247 ° 0 min 0,000 mm 0,0 UV-I 0 W/m² 3,9 °C 2,2 °C 17,7 km/h (3 Bft)
08.03.2017 23:24 5,2 °C 5,2 °C 90 % 1020,7 hPa 0,0 mm 13,2 km/h (3 Bft) W-SW 253 ° 0 min 0,000 mm 0,0 UV-I 0 W/m² 3,7 °C 2,3 °C 16,1 km/h (3 Bft)
08.03.2017 23:25 5,2 °C 5,2 °C 91 % 1020,8 hPa 0,0 mm 15,7 km/h (3 Bft) W-SW 254 ° 0 min 0,000 mm 0,0 UV-I 0 W/m² 3,9 °C 1,9 °C 20,9 km/h (4 Bft)
08.03.2017 23:26 5,2 °C 5,2 °C 91 % 1020,8 hPa 0,0 mm 14,6 km/h (3 Bft) W-SW 253 ° 0 min 0,000 mm 0,0 UV-I 0 W/m² 3,9 °C 2,1 °C 22,5 km/h (4 Bft)
08.03.2017 23:27 5,2 °C 5,2 °C 91 % 1020,8 hPa 0,0 mm 18,0 km/h (3 Bft) W-SW 244 ° 0 min 0,000 mm 0,0 UV-I 0 W/m² 3,9 °C 1,6 °C 22,5 km/h (4 Bft)
08.03.2017 23:28 5,3 °C 5,3 °C 90 % 1020,8 hPa 0,0 mm 16,6 km/h (3 Bft) W-NW 291 ° 0 min 0,000 mm 0,0 UV-I 0 W/m² 3,8 °C 1,9 °C 20,9 km/h (4 Bft)
08.03.2017 23:29 5,3 °C 5,3 °C 90 % 1020,8 hPa 0,0 mm 16,8 km/h (3 Bft) W-SW 255 ° 0 min 0,000 mm 0,0 UV-I 0 W/m² 3,8 °C 1,9 °C 25,7 km/h (4 Bft)
08.03.2017 23:30 5,3 °C 5,3 °C 90 % 1020,7 hPa 0,0 mm 14,1 km/h (3 Bft) W-SW 252 ° 0 min 0,000 mm 0,0 UV-I 0 W/m² 3,8 °C 2,3 °C 22,5 km/h (4 Bft)
08.03.2017 23:31 5,3 °C 5,3 °C 90 % 1020,8 hPa 0,0 mm 13,6 km/h (3 Bft) W 260 ° 0 min 0,000 mm 0,0 UV-I 0 W/m² 3,8 °C 2,3 °C 17,7 km/h (3 Bft)
08.03.2017 23:32 5,3 °C 5,3 °C 90 % 1020,8 hPa 0,0 mm 14,7 km/h (3 Bft) W-NW 293 ° 0 min 0,000 mm 0,0 UV-I 0 W/m² 3,8 °C 2,2 °C 22,5 km/h (4 Bft)
08.03.2017 23:33 5,3 °C 5,4 °C 90 % 1020,8 hPa 0,2 mm 13,5 km/h (3 Bft) W 265 ° 0 min 0,000 mm 0,0 UV-I 0 W/m² 3,8 °C 2,4 °C 20,9 km/h (4 Bft)
08.03.2017 23:34 5,4 °C 5,4 °C 90 % 1020,8 hPa 0,0 mm 16,3 km/h (3 Bft) SW 231 ° 0 min 0,000 mm 0,0 UV-I 0 W/m² 3,9 °C 2,1 °C 22,5 km/h (4 Bft)
08.03.2017 23:35 5,3 °C 5,4 °C 90 % 1020,8 hPa 0,0 mm 18,7 km/h (3 Bft) W-SW 249 ° 0 min 0,000 mm 0,0 UV-I 0 W/m² 3,8 °C 1,6 °C 25,7 km/h (4 Bft)
08.03.2017 23:36 5,3 °C 5,4 °C 90 % 1020,7 hPa 0,0 mm 19,0 km/h (3 Bft) W-SW 258 ° 0 min 0,000 mm 0,0 UV-I 0 W/m² 3,8 °C 1,6 °C 24,1 km/h (4 Bft)
08.03.2017 23:37 5,4 °C 5,4 °C 90 % 1020,8 hPa 0,0 mm 15,7 km/h (3 Bft) W 265 ° 0 min 0,000 mm 0,0 UV-I 0 W/m² 3,9 °C 2,1 °C 20,9 km/h (4 Bft)
08.03.2017 23:38 5,3 °C 5,4 °C 90 % 1020,8 hPa 0,0 mm 17,4 km/h (3 Bft) W-SW 256 ° 0 min 0,000 mm 0,0 UV-I 0 W/m² 3,8 °C 1,8 °C 29,0 km/h (5 Bft)
08.03.2017 23:39 5,4 °C 5,4 °C 90 % 1020,8 hPa 0,0 mm 16,4 km/h (3 Bft) SW 221 ° 0 min 0,000 mm 0,0 UV-I 0 W/m² 3,9 °C 2,0 °C 24,1 km/h (4 Bft)
08.03.2017 23:40 5,4 °C 5,4 °C 90 % 1020,8 hPa 0,0 mm 13,7 km/h (3 Bft) W-SW 244 ° 0 min 0,000 mm 0,0 UV-I 0 W/m² 3,9 °C 2,4 °C 20,9 km/h (4 Bft)
08.03.2017 23:41 5,4 °C 5,4 °C 90 % 1020,8 hPa 0,2 mm 13,6 km/h (3 Bft) W 266 ° 0 min 0,000 mm 0,0 UV-I 0 W/m² 3,9 °C 2,5 °C 19,3 km/h (3 Bft)
08.03.2017 23:42 5,4 °C 5,4 °C 90 % 1020,8 hPa 0,0 mm 15,7 km/h (3 Bft) W-SW 250 ° 0 min 0,000 mm 0,0 UV-I 0 W/m² 3,9 °C 2,1 °C 20,9 km/h (4 Bft)
08.03.2017 23:43 5,3 °C 5,4 °C 90 % 1020,8 hPa 0,0 mm 12,6 km/h (3 Bft) W-SW 254 ° 0 min 0,000 mm 0,0 UV-I 0 W/m² 3,8 °C 2,5 °C 17,7 km/h (3 Bft)
08.03.2017 23:44 5,3 °C 5,3 °C 90 % 1020,8 hPa 0,0 mm 11,2 km/h (2 Bft) W 278 ° 0 min 0,000 mm 0,0 UV-I 0 W/m² 3,8 °C 2,8 °C 16,1 km/h (3 Bft)
08.03.2017 23:45 5,3 °C 5,3 °C 90 % 1020,8 hPa 0,0 mm 15,2 km/h (3 Bft) W-SW 250 ° 0 min 0,000 mm 0,0 UV-I 0 W/m² 3,8 °C 2,1 °C 19,3 km/h (3 Bft)
08.03.2017 23:46 5,3 °C 5,3 °C 91 % 1020,8 hPa 0,0 mm 18,5 km/h (3 Bft) W 275 ° 0 min 0,000 mm 0,0 UV-I 0 W/m² 4,0 °C 1,6 °C 30,6 km/h (5 Bft)
08.03.2017 23:47 5,3 °C 5,3 °C 90 % 1020,7 hPa 0,0 mm 14,1 km/h (3 Bft) W-SW 252 ° 0 min 0,000 mm 0,0 UV-I 0 W/m² 3,8 °C 2,3 °C 17,7 km/h (3 Bft)
08.03.2017 23:48 5,3 °C 5,3 °C 90 % 1020,8 hPa 0,0 mm 12,6 km/h (3 Bft) W-SW 249 ° 0 min 0,000 mm 0,0 UV-I 0 W/m² 3,8 °C 2,5 °C 16,1 km/h (3 Bft)
08.03.2017 23:49 5,3 °C 5,3 °C 91 % 1020,8 hPa 0,0 mm 14,6 km/h (3 Bft) SW 220 ° 0 min 0,000 mm 0,0 UV-I 0 W/m² 4,0 °C 2,2 °C 20,9 km/h (4 Bft)
08.03.2017 23:50 5,3 °C 5,3 °C 90 % 1020,7 hPa 0,2 mm 11,9 km/h (2 Bft) W-SW 243 ° 0 min 0,000 mm 0,0 UV-I 0 W/m² 3,8 °C 2,6 °C 17,7 km/h (3 Bft)
08.03.2017 23:51 5,3 °C 5,3 °C 90 % 1020,7 hPa 0,0 mm 15,7 km/h (3 Bft) SW 235 ° 0 min 0,000 mm 0,0 UV-I 0 W/m² 3,8 °C 2,0 °C 22,5 km/h (4 Bft)
08.03.2017 23:52 5,3 °C 5,3 °C 90 % 1020,6 hPa 0,0 mm 17,2 km/h (3 Bft) W-SW 254 ° 0 min 0,000 mm 0,0 UV-I 0 W/m² 3,8 °C 1,8 °C 24,1 km/h (4 Bft)
08.03.2017 23:53 5,3 °C 5,3 °C 91 % 1020,6 hPa 0,0 mm 13,9 km/h (3 Bft) S-SW 207 ° 0 min 0,000 mm 0,0 UV-I 0 W/m² 4,0 °C 2,3 °C 19,3 km/h (3 Bft)
08.03.2017 23:54 5,3 °C 5,3 °C 91 % 1020,6 hPa 0,0 mm 10,9 km/h (2 Bft) W-SW 240 ° 0 min 0,000 mm 0,0 UV-I 0 W/m² 4,0 °C 2,8 °C 16,1 km/h (3 Bft)
08.03.2017 23:55 5,3 °C 5,3 °C 91 % 1020,6 hPa 0,0 mm 10,9 km/h (2 Bft) W-SW 255 ° 0 min 0,000 mm 0,0 UV-I 0 W/m² 4,0 °C 2,8 °C 16,1 km/h (3 Bft)
08.03.2017 23:56 5,3 °C 5,3 °C 91 % 1020,6 hPa 0,0 mm 14,6 km/h (3 Bft) W 259 ° 0 min 0,000 mm 0,0 UV-I 0 W/m² 4,0 °C 2,2 °C 22,5 km/h (4 Bft)
08.03.2017 23:57 5,3 °C 5,3 °C 91 % 1020,6 hPa 0,0 mm 16,6 km/h (3 Bft) W 279 ° 0 min 0,000 mm 0,0 UV-I 0 W/m² 4,0 °C 1,9 °C 22,5 km/h (4 Bft)
08.03.2017 23:58 5,2 °C 5,3 °C 91 % 1020,6 hPa 0,0 mm 15,4 km/h (3 Bft) W 266 ° 0 min 0,000 mm 0,0 UV-I 0 W/m² 3,9 °C 1,9 °C 22,5 km/h (4 Bft)
08.03.2017 23:59 5,3 °C 5,3 °C 91 % 1020,6 hPa 0,0 mm 13,8 km/h (3 Bft) W-SW 256 ° 0 min 0,000 mm 0,0 UV-I 0 W/m² 4,0 °C 2,3 °C 17,7 km/h (3 Bft)
_ Min-Zeit 06:08 06:08 13:33 21:17 - 20:01 - - - - - - 06:07 07:23 20:01
Minimum _ -2,1 °C -2,1 °C 59 % 1020,4 hPa - 0,0 km/h (0 Bft) - - - - - - -3,1 °C -4,9 °C 0,0 km/h (0 Bft)
_ Max-Zeit 13:00 13:01 20:10 08:06 23:50 23:09 - - 15:41 13:00 11:51 11:51 23:59 13:00 23:46
Maximum _ 5,8 °C 5,8 °C 94 % 1025,8 hPa 0,2 mm 19,8 km/h
W (3 Bft)
- - 1 min 0,178 mm 3,4 UV-I 564 W/m² 4,0 °C 5,8 °C 30,6 km/h
W-SW (5 Bft)
Durchschnitt _ 2,5 °C 2,5 °C 86 % 1023,1 hPa #10,0 mm 3,9 km/h (1 Bft) W-SW - #4:36 h #0,965 mm 1,8 UV-I 99 W/m² 0,3 °C 1,8 °C 6,1 km/h (2 Bft)